<?xml version="1.0" encoding="UTF-8" standalone="no" ?>
<gpx xmlns="http://www.topografix.com/GPX/1/1" xmlns:xsi="http://www.w3.org/2001/XMLSchema-instance" xsi:schemaLocation="http://www.topografix.com/GPX/1/1 http://www.topografix.com/GPX/1/1/gpx.xsd" version="1.1" creator="VisuGPX - https://www.visugpx.com">
  <metadata>
    <name>GR20-J7</name>
    <desc><![CDATA[GR20-J7    SEPT 2015
]]></desc>
  </metadata>
  <trk>
    <name><![CDATA[12-SEP-15 17:26:09]]></name>
    <trkseg>
      <trkpt lat="42.21991" lon="8.9805">
        <ele>1606.98</ele>
        <time>2015-09-12T04:56:33Z</time>
      </trkpt>
      <trkpt lat="42.2199" lon="8.98049">
        <ele>1606.98</ele>
        <time>2015-09-12T04:56:58Z</time>
      </trkpt>
      <trkpt lat="42.2199" lon="8.98049">
        <ele>1606.98</ele>
        <time>2015-09-12T04:57:15Z</time>
      </trkpt>
      <trkpt lat="42.2199" lon="8.98049">
        <ele>1606.98</ele>
        <time>2015-09-12T04:57:17Z</time>
      </trkpt>
      <trkpt lat="42.21992" lon="8.98051">
        <ele>1606.98</ele>
        <time>2015-09-12T04:57:31Z</time>
      </trkpt>
      <trkpt lat="42.21992" lon="8.98052">
        <ele>1606.98</ele>
        <time>2015-09-12T04:57:39Z</time>
      </trkpt>
      <trkpt lat="42.21993" lon="8.98061">
        <ele>1606.98</ele>
        <time>2015-09-12T04:57:48Z</time>
      </trkpt>
      <trkpt lat="42.21992" lon="8.98064">
        <ele>1606.98</ele>
        <time>2015-09-12T04:57:50Z</time>
      </trkpt>
      <trkpt lat="42.21983" lon="8.98077">
        <ele>1607.94</ele>
        <time>2015-09-12T04:58:05Z</time>
      </trkpt>
      <trkpt lat="42.21982" lon="8.98077">
        <ele>1607.94</ele>
        <time>2015-09-12T04:58:08Z</time>
      </trkpt>
      <trkpt lat="42.21981" lon="8.98084">
        <ele>1607.94</ele>
        <time>2015-09-12T04:58:12Z</time>
      </trkpt>
      <trkpt lat="42.21977" lon="8.9809">
        <ele>1607.94</ele>
        <time>2015-09-12T04:58:16Z</time>
      </trkpt>
      <trkpt lat="42.21971" lon="8.98095">
        <ele>1608.42</ele>
        <time>2015-09-12T04:58:23Z</time>
      </trkpt>
      <trkpt lat="42.21964" lon="8.98109">
        <ele>1608.42</ele>
        <time>2015-09-12T04:58:34Z</time>
      </trkpt>
      <trkpt lat="42.2196" lon="8.9811">
        <ele>1608.9</ele>
        <time>2015-09-12T04:58:39Z</time>
      </trkpt>
      <trkpt lat="42.21954" lon="8.98108">
        <ele>1609.86</ele>
        <time>2015-09-12T04:58:44Z</time>
      </trkpt>
      <trkpt lat="42.21943" lon="8.98115">
        <ele>1611.79</ele>
        <time>2015-09-12T04:59:00Z</time>
      </trkpt>
      <trkpt lat="42.21943" lon="8.98113">
        <ele>1611.79</ele>
        <time>2015-09-12T04:59:21Z</time>
      </trkpt>
      <trkpt lat="42.21944" lon="8.98116">
        <ele>1612.27</ele>
        <time>2015-09-12T04:59:44Z</time>
      </trkpt>
      <trkpt lat="42.21945" lon="8.98114">
        <ele>1611.79</ele>
        <time>2015-09-12T05:00:01Z</time>
      </trkpt>
      <trkpt lat="42.21943" lon="8.98112">
        <ele>1611.79</ele>
        <time>2015-09-12T05:00:25Z</time>
      </trkpt>
      <trkpt lat="42.21943" lon="8.98111">
        <ele>1611.79</ele>
        <time>2015-09-12T05:00:42Z</time>
      </trkpt>
      <trkpt lat="42.21943" lon="8.98112">
        <ele>1611.79</ele>
        <time>2015-09-12T05:01:05Z</time>
      </trkpt>
      <trkpt lat="42.21943" lon="8.98112">
        <ele>1611.79</ele>
        <time>2015-09-12T05:01:08Z</time>
      </trkpt>
      <trkpt lat="42.21946" lon="8.98114">
        <ele>1611.31</ele>
        <time>2015-09-12T05:01:12Z</time>
      </trkpt>
      <trkpt lat="42.21948" lon="8.98114">
        <ele>1610.83</ele>
        <time>2015-09-12T05:01:14Z</time>
      </trkpt>
      <trkpt lat="42.21957" lon="8.98121">
        <ele>1609.86</ele>
        <time>2015-09-12T05:01:23Z</time>
      </trkpt>
      <trkpt lat="42.21962" lon="8.98122">
        <ele>1609.38</ele>
        <time>2015-09-12T05:01:28Z</time>
      </trkpt>
      <trkpt lat="42.21963" lon="8.98123">
        <ele>1608.9</ele>
        <time>2015-09-12T05:01:29Z</time>
      </trkpt>
      <trkpt lat="42.21965" lon="8.98129">
        <ele>1608.42</ele>
        <time>2015-09-12T05:01:37Z</time>
      </trkpt>
      <trkpt lat="42.21967" lon="8.98139">
        <ele>1607.46</ele>
        <time>2015-09-12T05:01:48Z</time>
      </trkpt>
      <trkpt lat="42.21967" lon="8.98142">
        <ele>1607.94</ele>
        <time>2015-09-12T05:01:50Z</time>
      </trkpt>
      <trkpt lat="42.21967" lon="8.98147">
        <ele>1607.94</ele>
        <time>2015-09-12T05:01:54Z</time>
      </trkpt>
      <trkpt lat="42.2196" lon="8.98154">
        <ele>1608.9</ele>
        <time>2015-09-12T05:02:03Z</time>
      </trkpt>
      <trkpt lat="42.21955" lon="8.98169">
        <ele>1611.79</ele>
        <time>2015-09-12T05:02:19Z</time>
      </trkpt>
      <trkpt lat="42.21947" lon="8.98179">
        <ele>1613.23</ele>
        <time>2015-09-12T05:02:33Z</time>
      </trkpt>
      <trkpt lat="42.21938" lon="8.98186">
        <ele>1614.19</ele>
        <time>2015-09-12T05:02:47Z</time>
      </trkpt>
      <trkpt lat="42.21934" lon="8.98189">
        <ele>1614.19</ele>
        <time>2015-09-12T05:03:03Z</time>
      </trkpt>
      <trkpt lat="42.21928" lon="8.98193">
        <ele>1614.19</ele>
        <time>2015-09-12T05:03:13Z</time>
      </trkpt>
      <trkpt lat="42.21914" lon="8.98202">
        <ele>1616.59</ele>
        <time>2015-09-12T05:03:29Z</time>
      </trkpt>
      <trkpt lat="42.21907" lon="8.98207">
        <ele>1618.04</ele>
        <time>2015-09-12T05:03:40Z</time>
      </trkpt>
      <trkpt lat="42.21896" lon="8.98213">
        <ele>1619.96</ele>
        <time>2015-09-12T05:03:55Z</time>
      </trkpt>
      <trkpt lat="42.21891" lon="8.98218">
        <ele>1621.88</ele>
        <time>2015-09-12T05:04:11Z</time>
      </trkpt>
      <trkpt lat="42.21879" lon="8.98224">
        <ele>1623.32</ele>
        <time>2015-09-12T05:04:25Z</time>
      </trkpt>
      <trkpt lat="42.21875" lon="8.98224">
        <ele>1624.28</ele>
        <time>2015-09-12T05:04:28Z</time>
      </trkpt>
      <trkpt lat="42.21864" lon="8.9823">
        <ele>1626.21</ele>
        <time>2015-09-12T05:04:41Z</time>
      </trkpt>
      <trkpt lat="42.21853" lon="8.98238">
        <ele>1628.13</ele>
        <time>2015-09-12T05:04:56Z</time>
      </trkpt>
      <trkpt lat="42.21851" lon="8.9824">
        <ele>1628.61</ele>
        <time>2015-09-12T05:04:58Z</time>
      </trkpt>
      <trkpt lat="42.21843" lon="8.9825">
        <ele>1631.01</ele>
        <time>2015-09-12T05:05:11Z</time>
      </trkpt>
      <trkpt lat="42.21843" lon="8.98252">
        <ele>1631.01</ele>
        <time>2015-09-12T05:05:12Z</time>
      </trkpt>
      <trkpt lat="42.21835" lon="8.98263">
        <ele>1632.94</ele>
        <time>2015-09-12T05:05:27Z</time>
      </trkpt>
      <trkpt lat="42.21829" lon="8.98261">
        <ele>1634.86</ele>
        <time>2015-09-12T05:05:46Z</time>
      </trkpt>
      <trkpt lat="42.21816" lon="8.98261">
        <ele>1636.3</ele>
        <time>2015-09-12T05:06:01Z</time>
      </trkpt>
      <trkpt lat="42.21798" lon="8.98267">
        <ele>1636.78</ele>
        <time>2015-09-12T05:06:16Z</time>
      </trkpt>
      <trkpt lat="42.21787" lon="8.98275">
        <ele>1636.78</ele>
        <time>2015-09-12T05:06:26Z</time>
      </trkpt>
      <trkpt lat="42.21774" lon="8.98287">
        <ele>1638.22</ele>
        <time>2015-09-12T05:06:39Z</time>
      </trkpt>
      <trkpt lat="42.2177" lon="8.98288">
        <ele>1639.67</ele>
        <time>2015-09-12T05:06:50Z</time>
      </trkpt>
      <trkpt lat="42.21769" lon="8.98294">
        <ele>1640.15</ele>
        <time>2015-09-12T05:06:54Z</time>
      </trkpt>
      <trkpt lat="42.21766" lon="8.98299">
        <ele>1641.11</ele>
        <time>2015-09-12T05:06:57Z</time>
      </trkpt>
      <trkpt lat="42.21757" lon="8.98312">
        <ele>1642.07</ele>
        <time>2015-09-12T05:07:11Z</time>
      </trkpt>
      <trkpt lat="42.21749" lon="8.98313">
        <ele>1642.55</ele>
        <time>2015-09-12T05:07:19Z</time>
      </trkpt>
      <trkpt lat="42.21747" lon="8.98314">
        <ele>1642.55</ele>
        <time>2015-09-12T05:07:20Z</time>
      </trkpt>
      <trkpt lat="42.2173" lon="8.98327">
        <ele>1643.99</ele>
        <time>2015-09-12T05:07:33Z</time>
      </trkpt>
      <trkpt lat="42.21729" lon="8.98329">
        <ele>1643.99</ele>
        <time>2015-09-12T05:07:34Z</time>
      </trkpt>
      <trkpt lat="42.21717" lon="8.98333">
        <ele>1644.95</ele>
        <time>2015-09-12T05:07:48Z</time>
      </trkpt>
      <trkpt lat="42.21707" lon="8.98339">
        <ele>1645.91</ele>
        <time>2015-09-12T05:08:04Z</time>
      </trkpt>
      <trkpt lat="42.21703" lon="8.9834">
        <ele>1646.4</ele>
        <time>2015-09-12T05:08:12Z</time>
      </trkpt>
      <trkpt lat="42.21698" lon="8.98348">
        <ele>1646.4</ele>
        <time>2015-09-12T05:08:18Z</time>
      </trkpt>
      <trkpt lat="42.21691" lon="8.98353">
        <ele>1645.43</ele>
        <time>2015-09-12T05:08:31Z</time>
      </trkpt>
      <trkpt lat="42.21681" lon="8.98355">
        <ele>1647.36</ele>
        <time>2015-09-12T05:08:44Z</time>
      </trkpt>
      <trkpt lat="42.21679" lon="8.98357">
        <ele>1647.36</ele>
        <time>2015-09-12T05:08:53Z</time>
      </trkpt>
      <trkpt lat="42.21676" lon="8.98356">
        <ele>1647.36</ele>
        <time>2015-09-12T05:08:55Z</time>
      </trkpt>
      <trkpt lat="42.21669" lon="8.98362">
        <ele>1647.36</ele>
        <time>2015-09-12T05:09:04Z</time>
      </trkpt>
      <trkpt lat="42.21662" lon="8.98364">
        <ele>1648.32</ele>
        <time>2015-09-12T05:09:16Z</time>
      </trkpt>
      <trkpt lat="42.21649" lon="8.98362">
        <ele>1649.28</ele>
        <time>2015-09-12T05:09:29Z</time>
      </trkpt>
      <trkpt lat="42.2164" lon="8.98361">
        <ele>1650.24</ele>
        <time>2015-09-12T05:09:42Z</time>
      </trkpt>
      <trkpt lat="42.21634" lon="8.98364">
        <ele>1650.72</ele>
        <time>2015-09-12T05:09:54Z</time>
      </trkpt>
      <trkpt lat="42.21629" lon="8.98364">
        <ele>1651.2</ele>
        <time>2015-09-12T05:10:01Z</time>
      </trkpt>
      <trkpt lat="42.21612" lon="8.98367">
        <ele>1652.64</ele>
        <time>2015-09-12T05:10:12Z</time>
      </trkpt>
      <trkpt lat="42.21604" lon="8.9837">
        <ele>1654.57</ele>
        <time>2015-09-12T05:10:24Z</time>
      </trkpt>
      <trkpt lat="42.21598" lon="8.98375">
        <ele>1656.97</ele>
        <time>2015-09-12T05:10:36Z</time>
      </trkpt>
      <trkpt lat="42.21597" lon="8.98384">
        <ele>1657.45</ele>
        <time>2015-09-12T05:10:48Z</time>
      </trkpt>
      <trkpt lat="42.21591" lon="8.98391">
        <ele>1658.89</ele>
        <time>2015-09-12T05:10:58Z</time>
      </trkpt>
      <trkpt lat="42.21589" lon="8.98393">
        <ele>1661.3</ele>
        <time>2015-09-12T05:11:10Z</time>
      </trkpt>
      <trkpt lat="42.21584" lon="8.98398">
        <ele>1663.22</ele>
        <time>2015-09-12T05:11:21Z</time>
      </trkpt>
      <trkpt lat="42.2158" lon="8.98403">
        <ele>1666.1</ele>
        <time>2015-09-12T05:11:33Z</time>
      </trkpt>
      <trkpt lat="42.21575" lon="8.98403">
        <ele>1668.51</ele>
        <time>2015-09-12T05:11:44Z</time>
      </trkpt>
      <trkpt lat="42.21571" lon="8.98404">
        <ele>1670.91</ele>
        <time>2015-09-12T05:11:56Z</time>
      </trkpt>
      <trkpt lat="42.21568" lon="8.98406">
        <ele>1672.35</ele>
        <time>2015-09-12T05:12:09Z</time>
      </trkpt>
      <trkpt lat="42.21561" lon="8.9841">
        <ele>1674.75</ele>
        <time>2015-09-12T05:12:23Z</time>
      </trkpt>
      <trkpt lat="42.21554" lon="8.98419">
        <ele>1676.68</ele>
        <time>2015-09-12T05:12:35Z</time>
      </trkpt>
      <trkpt lat="42.21553" lon="8.98421">
        <ele>1676.68</ele>
        <time>2015-09-12T05:12:36Z</time>
      </trkpt>
      <trkpt lat="42.21546" lon="8.98422">
        <ele>1678.12</ele>
        <time>2015-09-12T05:12:49Z</time>
      </trkpt>
      <trkpt lat="42.21546" lon="8.98422">
        <ele>1677.64</ele>
        <time>2015-09-12T05:13:04Z</time>
      </trkpt>
      <trkpt lat="42.21546" lon="8.9842">
        <ele>1676.68</ele>
        <time>2015-09-12T05:13:22Z</time>
      </trkpt>
      <trkpt lat="42.21547" lon="8.98418">
        <ele>1676.2</ele>
        <time>2015-09-12T05:13:59Z</time>
      </trkpt>
      <trkpt lat="42.21546" lon="8.98415">
        <ele>1676.2</ele>
        <time>2015-09-12T05:14:32Z</time>
      </trkpt>
      <trkpt lat="42.21546" lon="8.98416">
        <ele>1678.12</ele>
        <time>2015-09-12T05:14:59Z</time>
      </trkpt>
      <trkpt lat="42.21547" lon="8.98417">
        <ele>1677.16</ele>
        <time>2015-09-12T05:15:13Z</time>
      </trkpt>
      <trkpt lat="42.21546" lon="8.98417">
        <ele>1677.16</ele>
        <time>2015-09-12T05:15:24Z</time>
      </trkpt>
      <trkpt lat="42.21547" lon="8.98415">
        <ele>1677.16</ele>
        <time>2015-09-12T05:15:40Z</time>
      </trkpt>
      <trkpt lat="42.21543" lon="8.98412">
        <ele>1677.16</ele>
        <time>2015-09-12T05:15:54Z</time>
      </trkpt>
      <trkpt lat="42.21541" lon="8.98412">
        <ele>1677.16</ele>
        <time>2015-09-12T05:16:01Z</time>
      </trkpt>
      <trkpt lat="42.21537" lon="8.98414">
        <ele>1680.04</ele>
        <time>2015-09-12T05:16:13Z</time>
      </trkpt>
      <trkpt lat="42.21532" lon="8.98417">
        <ele>1683.41</ele>
        <time>2015-09-12T05:16:26Z</time>
      </trkpt>
      <trkpt lat="42.21528" lon="8.98421">
        <ele>1686.77</ele>
        <time>2015-09-12T05:16:37Z</time>
      </trkpt>
      <trkpt lat="42.21525" lon="8.98424">
        <ele>1687.25</ele>
        <time>2015-09-12T05:16:48Z</time>
      </trkpt>
      <trkpt lat="42.21522" lon="8.98425">
        <ele>1689.65</ele>
        <time>2015-09-12T05:17:02Z</time>
      </trkpt>
      <trkpt lat="42.21517" lon="8.98423">
        <ele>1691.58</ele>
        <time>2015-09-12T05:17:13Z</time>
      </trkpt>
      <trkpt lat="42.21511" lon="8.98423">
        <ele>1694.46</ele>
        <time>2015-09-12T05:17:27Z</time>
      </trkpt>
      <trkpt lat="42.21509" lon="8.98422">
        <ele>1695.9</ele>
        <time>2015-09-12T05:17:35Z</time>
      </trkpt>
      <trkpt lat="42.21505" lon="8.98426">
        <ele>1697.83</ele>
        <time>2015-09-12T05:17:46Z</time>
      </trkpt>
      <trkpt lat="42.21501" lon="8.98427">
        <ele>1699.75</ele>
        <time>2015-09-12T05:17:57Z</time>
      </trkpt>
      <trkpt lat="42.21495" lon="8.98426">
        <ele>1701.19</ele>
        <time>2015-09-12T05:18:07Z</time>
      </trkpt>
      <trkpt lat="42.21487" lon="8.9843">
        <ele>1703.59</ele>
        <time>2015-09-12T05:18:20Z</time>
      </trkpt>
      <trkpt lat="42.2148" lon="8.98427">
        <ele>1705.04</ele>
        <time>2015-09-12T05:18:33Z</time>
      </trkpt>
      <trkpt lat="42.21474" lon="8.98425">
        <ele>1706</ele>
        <time>2015-09-12T05:18:41Z</time>
      </trkpt>
      <trkpt lat="42.21466" lon="8.98419">
        <ele>1706</ele>
        <time>2015-09-12T05:18:52Z</time>
      </trkpt>
      <trkpt lat="42.2146" lon="8.98418">
        <ele>1707.92</ele>
        <time>2015-09-12T05:19:04Z</time>
      </trkpt>
      <trkpt lat="42.21456" lon="8.98424">
        <ele>1710.32</ele>
        <time>2015-09-12T05:19:18Z</time>
      </trkpt>
      <trkpt lat="42.21451" lon="8.98426">
        <ele>1713.21</ele>
        <time>2015-09-12T05:19:29Z</time>
      </trkpt>
      <trkpt lat="42.21448" lon="8.98426">
        <ele>1714.65</ele>
        <time>2015-09-12T05:19:39Z</time>
      </trkpt>
      <trkpt lat="42.21445" lon="8.98426">
        <ele>1715.61</ele>
        <time>2015-09-12T05:19:44Z</time>
      </trkpt>
      <trkpt lat="42.21442" lon="8.98433">
        <ele>1718.01</ele>
        <time>2015-09-12T05:19:58Z</time>
      </trkpt>
      <trkpt lat="42.21436" lon="8.98432">
        <ele>1720.42</ele>
        <time>2015-09-12T05:20:09Z</time>
      </trkpt>
      <trkpt lat="42.21434" lon="8.98438">
        <ele>1722.82</ele>
        <time>2015-09-12T05:20:21Z</time>
      </trkpt>
      <trkpt lat="42.2143" lon="8.98437">
        <ele>1724.26</ele>
        <time>2015-09-12T05:20:33Z</time>
      </trkpt>
      <trkpt lat="42.21427" lon="8.98438">
        <ele>1726.67</ele>
        <time>2015-09-12T05:20:45Z</time>
      </trkpt>
      <trkpt lat="42.21427" lon="8.98438">
        <ele>1726.67</ele>
        <time>2015-09-12T05:20:47Z</time>
      </trkpt>
      <trkpt lat="42.21421" lon="8.98439">
        <ele>1729.07</ele>
        <time>2015-09-12T05:21:00Z</time>
      </trkpt>
      <trkpt lat="42.2142" lon="8.98441">
        <ele>1730.99</ele>
        <time>2015-09-12T05:21:13Z</time>
      </trkpt>
      <trkpt lat="42.2142" lon="8.98441">
        <ele>1731.95</ele>
        <time>2015-09-12T05:21:16Z</time>
      </trkpt>
      <trkpt lat="42.21417" lon="8.98444">
        <ele>1733.88</ele>
        <time>2015-09-12T05:21:27Z</time>
      </trkpt>
      <trkpt lat="42.21415" lon="8.98446">
        <ele>1735.32</ele>
        <time>2015-09-12T05:21:37Z</time>
      </trkpt>
      <trkpt lat="42.21412" lon="8.98447">
        <ele>1737.72</ele>
        <time>2015-09-12T05:21:49Z</time>
      </trkpt>
      <trkpt lat="42.21406" lon="8.9845">
        <ele>1739.64</ele>
        <time>2015-09-12T05:21:59Z</time>
      </trkpt>
      <trkpt lat="42.21406" lon="8.98453">
        <ele>1741.57</ele>
        <time>2015-09-12T05:22:08Z</time>
      </trkpt>
      <trkpt lat="42.21401" lon="8.98457">
        <ele>1743.49</ele>
        <time>2015-09-12T05:22:20Z</time>
      </trkpt>
      <trkpt lat="42.21394" lon="8.9846">
        <ele>1745.89</ele>
        <time>2015-09-12T05:22:32Z</time>
      </trkpt>
      <trkpt lat="42.2139" lon="8.98465">
        <ele>1746.85</ele>
        <time>2015-09-12T05:22:42Z</time>
      </trkpt>
      <trkpt lat="42.21386" lon="8.98472">
        <ele>1747.81</ele>
        <time>2015-09-12T05:22:50Z</time>
      </trkpt>
      <trkpt lat="42.21376" lon="8.98478">
        <ele>1748.29</ele>
        <time>2015-09-12T05:23:02Z</time>
      </trkpt>
      <trkpt lat="42.21374" lon="8.98478">
        <ele>1748.29</ele>
        <time>2015-09-12T05:23:03Z</time>
      </trkpt>
      <trkpt lat="42.2137" lon="8.98481">
        <ele>1749.26</ele>
        <time>2015-09-12T05:23:08Z</time>
      </trkpt>
      <trkpt lat="42.21368" lon="8.98484">
        <ele>1749.26</ele>
        <time>2015-09-12T05:23:11Z</time>
      </trkpt>
      <trkpt lat="42.2136" lon="8.9849">
        <ele>1750.7</ele>
        <time>2015-09-12T05:23:22Z</time>
      </trkpt>
      <trkpt lat="42.21354" lon="8.98491">
        <ele>1751.18</ele>
        <time>2015-09-12T05:23:34Z</time>
      </trkpt>
      <trkpt lat="42.2135" lon="8.98493">
        <ele>1752.62</ele>
        <time>2015-09-12T05:23:44Z</time>
      </trkpt>
      <trkpt lat="42.21349" lon="8.98494">
        <ele>1753.58</ele>
        <time>2015-09-12T05:23:47Z</time>
      </trkpt>
      <trkpt lat="42.21344" lon="8.98499">
        <ele>1754.54</ele>
        <time>2015-09-12T05:23:55Z</time>
      </trkpt>
      <trkpt lat="42.21339" lon="8.98503">
        <ele>1755.02</ele>
        <time>2015-09-12T05:24:01Z</time>
      </trkpt>
      <trkpt lat="42.2133" lon="8.98505">
        <ele>1756.95</ele>
        <time>2015-09-12T05:24:12Z</time>
      </trkpt>
      <trkpt lat="42.21318" lon="8.98505">
        <ele>1759.35</ele>
        <time>2015-09-12T05:24:25Z</time>
      </trkpt>
      <trkpt lat="42.2132" lon="8.98513">
        <ele>1762.71</ele>
        <time>2015-09-12T05:24:38Z</time>
      </trkpt>
      <trkpt lat="42.21319" lon="8.98519">
        <ele>1763.68</ele>
        <time>2015-09-12T05:24:48Z</time>
      </trkpt>
      <trkpt lat="42.21322" lon="8.98527">
        <ele>1765.6</ele>
        <time>2015-09-12T05:25:00Z</time>
      </trkpt>
      <trkpt lat="42.21322" lon="8.98531">
        <ele>1767.04</ele>
        <time>2015-09-12T05:25:08Z</time>
      </trkpt>
      <trkpt lat="42.21323" lon="8.9854">
        <ele>1769.44</ele>
        <time>2015-09-12T05:25:20Z</time>
      </trkpt>
      <trkpt lat="42.21323" lon="8.98541">
        <ele>1769.92</ele>
        <time>2015-09-12T05:25:22Z</time>
      </trkpt>
      <trkpt lat="42.21323" lon="8.98548">
        <ele>1771.37</ele>
        <time>2015-09-12T05:25:32Z</time>
      </trkpt>
      <trkpt lat="42.21319" lon="8.98558">
        <ele>1772.81</ele>
        <time>2015-09-12T05:25:44Z</time>
      </trkpt>
      <trkpt lat="42.21316" lon="8.98562">
        <ele>1773.77</ele>
        <time>2015-09-12T05:25:51Z</time>
      </trkpt>
      <trkpt lat="42.21314" lon="8.98567">
        <ele>1774.73</ele>
        <time>2015-09-12T05:25:57Z</time>
      </trkpt>
      <trkpt lat="42.21307" lon="8.98573">
        <ele>1775.69</ele>
        <time>2015-09-12T05:26:06Z</time>
      </trkpt>
      <trkpt lat="42.21306" lon="8.98578">
        <ele>1774.73</ele>
        <time>2015-09-12T05:26:14Z</time>
      </trkpt>
      <trkpt lat="42.21307" lon="8.98586">
        <ele>1775.21</ele>
        <time>2015-09-12T05:26:25Z</time>
      </trkpt>
      <trkpt lat="42.21303" lon="8.98588">
        <ele>1774.73</ele>
        <time>2015-09-12T05:26:31Z</time>
      </trkpt>
      <trkpt lat="42.21303" lon="8.98596">
        <ele>1776.17</ele>
        <time>2015-09-12T05:26:38Z</time>
      </trkpt>
      <trkpt lat="42.213" lon="8.98599">
        <ele>1776.17</ele>
        <time>2015-09-12T05:26:43Z</time>
      </trkpt>
      <trkpt lat="42.21294" lon="8.98606">
        <ele>1777.13</ele>
        <time>2015-09-12T05:26:53Z</time>
      </trkpt>
      <trkpt lat="42.21292" lon="8.98612">
        <ele>1777.13</ele>
        <time>2015-09-12T05:27:04Z</time>
      </trkpt>
      <trkpt lat="42.21291" lon="8.98615">
        <ele>1777.13</ele>
        <time>2015-09-12T05:27:14Z</time>
      </trkpt>
      <trkpt lat="42.21293" lon="8.98618">
        <ele>1777.13</ele>
        <time>2015-09-12T05:27:29Z</time>
      </trkpt>
      <trkpt lat="42.21291" lon="8.98618">
        <ele>1776.65</ele>
        <time>2015-09-12T05:27:32Z</time>
      </trkpt>
      <trkpt lat="42.21282" lon="8.98613">
        <ele>1775.21</ele>
        <time>2015-09-12T05:27:41Z</time>
      </trkpt>
      <trkpt lat="42.21281" lon="8.98613">
        <ele>1775.21</ele>
        <time>2015-09-12T05:27:42Z</time>
      </trkpt>
      <trkpt lat="42.21276" lon="8.98613">
        <ele>1774.73</ele>
        <time>2015-09-12T05:27:46Z</time>
      </trkpt>
      <trkpt lat="42.21272" lon="8.98618">
        <ele>1774.73</ele>
        <time>2015-09-12T05:27:50Z</time>
      </trkpt>
      <trkpt lat="42.21264" lon="8.98628">
        <ele>1775.21</ele>
        <time>2015-09-12T05:27:58Z</time>
      </trkpt>
      <trkpt lat="42.2126" lon="8.98639">
        <ele>1775.21</ele>
        <time>2015-09-12T05:28:05Z</time>
      </trkpt>
      <trkpt lat="42.21257" lon="8.98646">
        <ele>1775.21</ele>
        <time>2015-09-12T05:28:10Z</time>
      </trkpt>
      <trkpt lat="42.21256" lon="8.98649">
        <ele>1775.21</ele>
        <time>2015-09-12T05:28:12Z</time>
      </trkpt>
      <trkpt lat="42.2125" lon="8.98665">
        <ele>1775.69</ele>
        <time>2015-09-12T05:28:24Z</time>
      </trkpt>
      <trkpt lat="42.21249" lon="8.98666">
        <ele>1775.69</ele>
        <time>2015-09-12T05:28:28Z</time>
      </trkpt>
      <trkpt lat="42.21248" lon="8.98668">
        <ele>1775.69</ele>
        <time>2015-09-12T05:28:31Z</time>
      </trkpt>
      <trkpt lat="42.21249" lon="8.98672">
        <ele>1775.69</ele>
        <time>2015-09-12T05:28:34Z</time>
      </trkpt>
      <trkpt lat="42.21249" lon="8.98678">
        <ele>1776.65</ele>
        <time>2015-09-12T05:28:38Z</time>
      </trkpt>
      <trkpt lat="42.21245" lon="8.98689">
        <ele>1776.17</ele>
        <time>2015-09-12T05:28:47Z</time>
      </trkpt>
      <trkpt lat="42.21248" lon="8.98705">
        <ele>1777.61</ele>
        <time>2015-09-12T05:28:57Z</time>
      </trkpt>
      <trkpt lat="42.21247" lon="8.98706">
        <ele>1777.61</ele>
        <time>2015-09-12T05:28:58Z</time>
      </trkpt>
      <trkpt lat="42.21246" lon="8.98711">
        <ele>1777.61</ele>
        <time>2015-09-12T05:29:01Z</time>
      </trkpt>
      <trkpt lat="42.21245" lon="8.98729">
        <ele>1777.13</ele>
        <time>2015-09-12T05:29:11Z</time>
      </trkpt>
      <trkpt lat="42.21231" lon="8.98746">
        <ele>1777.13</ele>
        <time>2015-09-12T05:29:26Z</time>
      </trkpt>
      <trkpt lat="42.21227" lon="8.9876">
        <ele>1778.1</ele>
        <time>2015-09-12T05:29:37Z</time>
      </trkpt>
      <trkpt lat="42.21225" lon="8.98765">
        <ele>1779.06</ele>
        <time>2015-09-12T05:29:43Z</time>
      </trkpt>
      <trkpt lat="42.21218" lon="8.98771">
        <ele>1780.5</ele>
        <time>2015-09-12T05:29:52Z</time>
      </trkpt>
      <trkpt lat="42.21216" lon="8.98775">
        <ele>1780.98</ele>
        <time>2015-09-12T05:29:57Z</time>
      </trkpt>
      <trkpt lat="42.21215" lon="8.9878">
        <ele>1780.5</ele>
        <time>2015-09-12T05:30:01Z</time>
      </trkpt>
      <trkpt lat="42.21215" lon="8.98786">
        <ele>1780.02</ele>
        <time>2015-09-12T05:30:06Z</time>
      </trkpt>
      <trkpt lat="42.21212" lon="8.98787">
        <ele>1780.02</ele>
        <time>2015-09-12T05:30:08Z</time>
      </trkpt>
      <trkpt lat="42.2121" lon="8.9879">
        <ele>1779.54</ele>
        <time>2015-09-12T05:30:11Z</time>
      </trkpt>
      <trkpt lat="42.21197" lon="8.98792">
        <ele>1779.54</ele>
        <time>2015-09-12T05:30:19Z</time>
      </trkpt>
      <trkpt lat="42.21192" lon="8.98796">
        <ele>1779.54</ele>
        <time>2015-09-12T05:30:25Z</time>
      </trkpt>
      <trkpt lat="42.21183" lon="8.98801">
        <ele>1780.02</ele>
        <time>2015-09-12T05:30:36Z</time>
      </trkpt>
      <trkpt lat="42.21178" lon="8.98804">
        <ele>1780.02</ele>
        <time>2015-09-12T05:30:40Z</time>
      </trkpt>
      <trkpt lat="42.21171" lon="8.98808">
        <ele>1780.98</ele>
        <time>2015-09-12T05:30:48Z</time>
      </trkpt>
      <trkpt lat="42.21159" lon="8.98808">
        <ele>1780.98</ele>
        <time>2015-09-12T05:30:57Z</time>
      </trkpt>
      <trkpt lat="42.21152" lon="8.98815">
        <ele>1781.46</ele>
        <time>2015-09-12T05:31:07Z</time>
      </trkpt>
      <trkpt lat="42.21149" lon="8.98818">
        <ele>1781.94</ele>
        <time>2015-09-12T05:31:10Z</time>
      </trkpt>
      <trkpt lat="42.21144" lon="8.9882">
        <ele>1781.94</ele>
        <time>2015-09-12T05:31:14Z</time>
      </trkpt>
      <trkpt lat="42.21135" lon="8.98828">
        <ele>1783.38</ele>
        <time>2015-09-12T05:31:26Z</time>
      </trkpt>
      <trkpt lat="42.2113" lon="8.98835">
        <ele>1784.34</ele>
        <time>2015-09-12T05:31:37Z</time>
      </trkpt>
      <trkpt lat="42.21131" lon="8.98836">
        <ele>1784.34</ele>
        <time>2015-09-12T05:31:38Z</time>
      </trkpt>
      <trkpt lat="42.21132" lon="8.98847">
        <ele>1785.79</ele>
        <time>2015-09-12T05:31:47Z</time>
      </trkpt>
      <trkpt lat="42.21131" lon="8.98859">
        <ele>1787.71</ele>
        <time>2015-09-12T05:32:01Z</time>
      </trkpt>
      <trkpt lat="42.2113" lon="8.98871">
        <ele>1789.63</ele>
        <time>2015-09-12T05:32:13Z</time>
      </trkpt>
      <trkpt lat="42.21128" lon="8.9888">
        <ele>1791.55</ele>
        <time>2015-09-12T05:32:26Z</time>
      </trkpt>
      <trkpt lat="42.21124" lon="8.98887">
        <ele>1793</ele>
        <time>2015-09-12T05:32:37Z</time>
      </trkpt>
      <trkpt lat="42.21115" lon="8.98895">
        <ele>1796.36</ele>
        <time>2015-09-12T05:32:52Z</time>
      </trkpt>
      <trkpt lat="42.21112" lon="8.98895">
        <ele>1796.36</ele>
        <time>2015-09-12T05:32:55Z</time>
      </trkpt>
      <trkpt lat="42.21105" lon="8.98895">
        <ele>1796.84</ele>
        <time>2015-09-12T05:32:59Z</time>
      </trkpt>
      <trkpt lat="42.21094" lon="8.98902">
        <ele>1799.24</ele>
        <time>2015-09-12T05:33:13Z</time>
      </trkpt>
      <trkpt lat="42.21096" lon="8.98908">
        <ele>1799.73</ele>
        <time>2015-09-12T05:33:18Z</time>
      </trkpt>
      <trkpt lat="42.2109" lon="8.98917">
        <ele>1801.65</ele>
        <time>2015-09-12T05:33:30Z</time>
      </trkpt>
      <trkpt lat="42.21092" lon="8.98924">
        <ele>1803.57</ele>
        <time>2015-09-12T05:33:42Z</time>
      </trkpt>
      <trkpt lat="42.21093" lon="8.98929">
        <ele>1805.97</ele>
        <time>2015-09-12T05:33:53Z</time>
      </trkpt>
      <trkpt lat="42.21097" lon="8.98935">
        <ele>1808.38</ele>
        <time>2015-09-12T05:34:05Z</time>
      </trkpt>
      <trkpt lat="42.21098" lon="8.98938">
        <ele>1811.26</ele>
        <time>2015-09-12T05:34:17Z</time>
      </trkpt>
      <trkpt lat="42.21104" lon="8.98937">
        <ele>1812.7</ele>
        <time>2015-09-12T05:34:27Z</time>
      </trkpt>
      <trkpt lat="42.21105" lon="8.98938">
        <ele>1813.18</ele>
        <time>2015-09-12T05:34:30Z</time>
      </trkpt>
      <trkpt lat="42.21107" lon="8.98944">
        <ele>1814.63</ele>
        <time>2015-09-12T05:34:43Z</time>
      </trkpt>
      <trkpt lat="42.21107" lon="8.98951">
        <ele>1817.03</ele>
        <time>2015-09-12T05:34:54Z</time>
      </trkpt>
      <trkpt lat="42.21106" lon="8.98956">
        <ele>1820.39</ele>
        <time>2015-09-12T05:35:07Z</time>
      </trkpt>
      <trkpt lat="42.21106" lon="8.98958">
        <ele>1823.28</ele>
        <time>2015-09-12T05:35:20Z</time>
      </trkpt>
      <trkpt lat="42.21101" lon="8.98961">
        <ele>1824.72</ele>
        <time>2015-09-12T05:35:32Z</time>
      </trkpt>
      <trkpt lat="42.21104" lon="8.98967">
        <ele>1827.12</ele>
        <time>2015-09-12T05:35:45Z</time>
      </trkpt>
      <trkpt lat="42.21106" lon="8.98969">
        <ele>1828.56</ele>
        <time>2015-09-12T05:35:55Z</time>
      </trkpt>
      <trkpt lat="42.2111" lon="8.98977">
        <ele>1831.45</ele>
        <time>2015-09-12T05:36:09Z</time>
      </trkpt>
      <trkpt lat="42.21111" lon="8.98981">
        <ele>1833.85</ele>
        <time>2015-09-12T05:36:22Z</time>
      </trkpt>
      <trkpt lat="42.21111" lon="8.98987">
        <ele>1836.26</ele>
        <time>2015-09-12T05:36:35Z</time>
      </trkpt>
      <trkpt lat="42.21105" lon="8.98991">
        <ele>1836.74</ele>
        <time>2015-09-12T05:36:48Z</time>
      </trkpt>
      <trkpt lat="42.21103" lon="8.98998">
        <ele>1838.66</ele>
        <time>2015-09-12T05:37:00Z</time>
      </trkpt>
      <trkpt lat="42.21105" lon="8.99006">
        <ele>1841.06</ele>
        <time>2015-09-12T05:37:13Z</time>
      </trkpt>
      <trkpt lat="42.21104" lon="8.99011">
        <ele>1842.98</ele>
        <time>2015-09-12T05:37:25Z</time>
      </trkpt>
      <trkpt lat="42.21105" lon="8.99011">
        <ele>1843.95</ele>
        <time>2015-09-12T05:37:27Z</time>
      </trkpt>
      <trkpt lat="42.21111" lon="8.99007">
        <ele>1845.39</ele>
        <time>2015-09-12T05:37:42Z</time>
      </trkpt>
      <trkpt lat="42.21117" lon="8.99018">
        <ele>1847.79</ele>
        <time>2015-09-12T05:37:56Z</time>
      </trkpt>
      <trkpt lat="42.21111" lon="8.99022">
        <ele>1849.71</ele>
        <time>2015-09-12T05:38:09Z</time>
      </trkpt>
      <trkpt lat="42.21112" lon="8.99028">
        <ele>1851.16</ele>
        <time>2015-09-12T05:38:22Z</time>
      </trkpt>
      <trkpt lat="42.21112" lon="8.99033">
        <ele>1853.56</ele>
        <time>2015-09-12T05:38:34Z</time>
      </trkpt>
      <trkpt lat="42.21111" lon="8.99041">
        <ele>1856.44</ele>
        <time>2015-09-12T05:38:47Z</time>
      </trkpt>
      <trkpt lat="42.21114" lon="8.99054">
        <ele>1859.33</ele>
        <time>2015-09-12T05:39:03Z</time>
      </trkpt>
      <trkpt lat="42.21111" lon="8.99057">
        <ele>1859.81</ele>
        <time>2015-09-12T05:39:07Z</time>
      </trkpt>
      <trkpt lat="42.21103" lon="8.9907">
        <ele>1858.85</ele>
        <time>2015-09-12T05:39:23Z</time>
      </trkpt>
      <trkpt lat="42.211" lon="8.99072">
        <ele>1857.89</ele>
        <time>2015-09-12T05:39:27Z</time>
      </trkpt>
      <trkpt lat="42.21096" lon="8.99082">
        <ele>1858.85</ele>
        <time>2015-09-12T05:39:40Z</time>
      </trkpt>
      <trkpt lat="42.21093" lon="8.99088">
        <ele>1860.77</ele>
        <time>2015-09-12T05:39:50Z</time>
      </trkpt>
      <trkpt lat="42.21091" lon="8.99089">
        <ele>1861.25</ele>
        <time>2015-09-12T05:39:52Z</time>
      </trkpt>
      <trkpt lat="42.21092" lon="8.99101">
        <ele>1862.69</ele>
        <time>2015-09-12T05:40:07Z</time>
      </trkpt>
      <trkpt lat="42.21092" lon="8.99102">
        <ele>1862.69</ele>
        <time>2015-09-12T05:40:08Z</time>
      </trkpt>
      <trkpt lat="42.21084" lon="8.99115">
        <ele>1864.13</ele>
        <time>2015-09-12T05:40:23Z</time>
      </trkpt>
      <trkpt lat="42.21081" lon="8.99124">
        <ele>1865.09</ele>
        <time>2015-09-12T05:40:35Z</time>
      </trkpt>
      <trkpt lat="42.21079" lon="8.99138">
        <ele>1867.5</ele>
        <time>2015-09-12T05:40:49Z</time>
      </trkpt>
      <trkpt lat="42.21079" lon="8.9914">
        <ele>1867.5</ele>
        <time>2015-09-12T05:40:52Z</time>
      </trkpt>
      <trkpt lat="42.21072" lon="8.99147">
        <ele>1867.98</ele>
        <time>2015-09-12T05:41:00Z</time>
      </trkpt>
      <trkpt lat="42.21072" lon="8.9916">
        <ele>1869.42</ele>
        <time>2015-09-12T05:41:14Z</time>
      </trkpt>
      <trkpt lat="42.21072" lon="8.99161">
        <ele>1869.9</ele>
        <time>2015-09-12T05:41:15Z</time>
      </trkpt>
      <trkpt lat="42.21077" lon="8.99166">
        <ele>1870.86</ele>
        <time>2015-09-12T05:41:30Z</time>
      </trkpt>
      <trkpt lat="42.21076" lon="8.99167">
        <ele>1870.86</ele>
        <time>2015-09-12T05:41:56Z</time>
      </trkpt>
      <trkpt lat="42.21074" lon="8.99164">
        <ele>1870.86</ele>
        <time>2015-09-12T05:42:06Z</time>
      </trkpt>
      <trkpt lat="42.21071" lon="8.99164">
        <ele>1870.38</ele>
        <time>2015-09-12T05:42:09Z</time>
      </trkpt>
      <trkpt lat="42.21068" lon="8.99166">
        <ele>1869.9</ele>
        <time>2015-09-12T05:42:13Z</time>
      </trkpt>
      <trkpt lat="42.21065" lon="8.99173">
        <ele>1871.82</ele>
        <time>2015-09-12T05:42:28Z</time>
      </trkpt>
      <trkpt lat="42.21064" lon="8.99171">
        <ele>1870.86</ele>
        <time>2015-09-12T05:42:55Z</time>
      </trkpt>
      <trkpt lat="42.21071" lon="8.99184">
        <ele>1873.75</ele>
        <time>2015-09-12T05:43:10Z</time>
      </trkpt>
      <trkpt lat="42.21075" lon="8.99194">
        <ele>1876.63</ele>
        <time>2015-09-12T05:43:23Z</time>
      </trkpt>
      <trkpt lat="42.21074" lon="8.99204">
        <ele>1878.55</ele>
        <time>2015-09-12T05:43:34Z</time>
      </trkpt>
      <trkpt lat="42.21076" lon="8.99217">
        <ele>1880.96</ele>
        <time>2015-09-12T05:43:48Z</time>
      </trkpt>
      <trkpt lat="42.21081" lon="8.99222">
        <ele>1882.88</ele>
        <time>2015-09-12T05:44:01Z</time>
      </trkpt>
      <trkpt lat="42.21085" lon="8.99232">
        <ele>1884.32</ele>
        <time>2015-09-12T05:44:14Z</time>
      </trkpt>
      <trkpt lat="42.21087" lon="8.99239">
        <ele>1887.69</ele>
        <time>2015-09-12T05:44:28Z</time>
      </trkpt>
      <trkpt lat="42.21091" lon="8.99246">
        <ele>1890.57</ele>
        <time>2015-09-12T05:44:40Z</time>
      </trkpt>
      <trkpt lat="42.21092" lon="8.99259">
        <ele>1891.53</ele>
        <time>2015-09-12T05:44:54Z</time>
      </trkpt>
      <trkpt lat="42.21092" lon="8.9927">
        <ele>1892.97</ele>
        <time>2015-09-12T05:45:04Z</time>
      </trkpt>
      <trkpt lat="42.21093" lon="8.99273">
        <ele>1892.97</ele>
        <time>2015-09-12T05:45:07Z</time>
      </trkpt>
      <trkpt lat="42.21094" lon="8.99286">
        <ele>1894.9</ele>
        <time>2015-09-12T05:45:21Z</time>
      </trkpt>
      <trkpt lat="42.21093" lon="8.99296">
        <ele>1896.34</ele>
        <time>2015-09-12T05:45:33Z</time>
      </trkpt>
      <trkpt lat="42.21093" lon="8.99304">
        <ele>1898.74</ele>
        <time>2015-09-12T05:45:45Z</time>
      </trkpt>
      <trkpt lat="42.21093" lon="8.99315">
        <ele>1899.22</ele>
        <time>2015-09-12T05:45:55Z</time>
      </trkpt>
      <trkpt lat="42.21093" lon="8.99326">
        <ele>1901.63</ele>
        <time>2015-09-12T05:46:08Z</time>
      </trkpt>
      <trkpt lat="42.21092" lon="8.99335">
        <ele>1903.07</ele>
        <time>2015-09-12T05:46:20Z</time>
      </trkpt>
      <trkpt lat="42.21094" lon="8.99334">
        <ele>1904.03</ele>
        <time>2015-09-12T05:46:33Z</time>
      </trkpt>
      <trkpt lat="42.21099" lon="8.99337">
        <ele>1906.91</ele>
        <time>2015-09-12T05:46:47Z</time>
      </trkpt>
      <trkpt lat="42.211" lon="8.99336">
        <ele>1907.39</ele>
        <time>2015-09-12T05:46:49Z</time>
      </trkpt>
      <trkpt lat="42.21104" lon="8.99341">
        <ele>1909.32</ele>
        <time>2015-09-12T05:47:00Z</time>
      </trkpt>
      <trkpt lat="42.21107" lon="8.99347">
        <ele>1910.76</ele>
        <time>2015-09-12T05:47:12Z</time>
      </trkpt>
      <trkpt lat="42.21108" lon="8.9935">
        <ele>1912.68</ele>
        <time>2015-09-12T05:47:23Z</time>
      </trkpt>
      <trkpt lat="42.21111" lon="8.99357">
        <ele>1914.6</ele>
        <time>2015-09-12T05:47:34Z</time>
      </trkpt>
      <trkpt lat="42.21114" lon="8.99366">
        <ele>1916.53</ele>
        <time>2015-09-12T05:47:48Z</time>
      </trkpt>
      <trkpt lat="42.21115" lon="8.99369">
        <ele>1917.49</ele>
        <time>2015-09-12T05:47:52Z</time>
      </trkpt>
      <trkpt lat="42.21119" lon="8.99379">
        <ele>1919.41</ele>
        <time>2015-09-12T05:48:07Z</time>
      </trkpt>
      <trkpt lat="42.21118" lon="8.99388">
        <ele>1920.37</ele>
        <time>2015-09-12T05:48:17Z</time>
      </trkpt>
      <trkpt lat="42.21118" lon="8.9939">
        <ele>1920.85</ele>
        <time>2015-09-12T05:48:19Z</time>
      </trkpt>
      <trkpt lat="42.21117" lon="8.99393">
        <ele>1920.85</ele>
        <time>2015-09-12T05:48:32Z</time>
      </trkpt>
      <trkpt lat="42.2112" lon="8.99399">
        <ele>1923.25</ele>
        <time>2015-09-12T05:48:44Z</time>
      </trkpt>
      <trkpt lat="42.21123" lon="8.99402">
        <ele>1925.66</ele>
        <time>2015-09-12T05:48:55Z</time>
      </trkpt>
      <trkpt lat="42.21126" lon="8.99409">
        <ele>1927.58</ele>
        <time>2015-09-12T05:49:07Z</time>
      </trkpt>
      <trkpt lat="42.21126" lon="8.99419">
        <ele>1929.02</ele>
        <time>2015-09-12T05:49:18Z</time>
      </trkpt>
      <trkpt lat="42.21124" lon="8.99435">
        <ele>1929.98</ele>
        <time>2015-09-12T05:49:32Z</time>
      </trkpt>
      <trkpt lat="42.21124" lon="8.99444">
        <ele>1930.95</ele>
        <time>2015-09-12T05:49:45Z</time>
      </trkpt>
      <trkpt lat="42.21122" lon="8.99446">
        <ele>1930.95</ele>
        <time>2015-09-12T05:50:01Z</time>
      </trkpt>
      <trkpt lat="42.21127" lon="8.99452">
        <ele>1932.87</ele>
        <time>2015-09-12T05:50:16Z</time>
      </trkpt>
      <trkpt lat="42.2113" lon="8.99457">
        <ele>1934.31</ele>
        <time>2015-09-12T05:50:27Z</time>
      </trkpt>
      <trkpt lat="42.21135" lon="8.99462">
        <ele>1937.67</ele>
        <time>2015-09-12T05:50:41Z</time>
      </trkpt>
      <trkpt lat="42.21139" lon="8.99469">
        <ele>1939.12</ele>
        <time>2015-09-12T05:50:52Z</time>
      </trkpt>
      <trkpt lat="42.21141" lon="8.9948">
        <ele>1940.56</ele>
        <time>2015-09-12T05:51:06Z</time>
      </trkpt>
      <trkpt lat="42.21139" lon="8.99488">
        <ele>1942</ele>
        <time>2015-09-12T05:51:15Z</time>
      </trkpt>
      <trkpt lat="42.21141" lon="8.99492">
        <ele>1943.44</ele>
        <time>2015-09-12T05:51:26Z</time>
      </trkpt>
      <trkpt lat="42.21144" lon="8.99497">
        <ele>1944.88</ele>
        <time>2015-09-12T05:51:37Z</time>
      </trkpt>
      <trkpt lat="42.21147" lon="8.99504">
        <ele>1945.36</ele>
        <time>2015-09-12T05:51:44Z</time>
      </trkpt>
      <trkpt lat="42.21148" lon="8.99508">
        <ele>1945.85</ele>
        <time>2015-09-12T05:51:47Z</time>
      </trkpt>
      <trkpt lat="42.21147" lon="8.99515">
        <ele>1946.33</ele>
        <time>2015-09-12T05:51:53Z</time>
      </trkpt>
      <trkpt lat="42.21151" lon="8.99526">
        <ele>1948.25</ele>
        <time>2015-09-12T05:52:06Z</time>
      </trkpt>
      <trkpt lat="42.21153" lon="8.99536">
        <ele>1949.21</ele>
        <time>2015-09-12T05:52:18Z</time>
      </trkpt>
      <trkpt lat="42.21158" lon="8.99541">
        <ele>1951.13</ele>
        <time>2015-09-12T05:52:31Z</time>
      </trkpt>
      <trkpt lat="42.21161" lon="8.99551">
        <ele>1953.06</ele>
        <time>2015-09-12T05:52:43Z</time>
      </trkpt>
      <trkpt lat="42.21163" lon="8.99564">
        <ele>1953.54</ele>
        <time>2015-09-12T05:52:56Z</time>
      </trkpt>
      <trkpt lat="42.21163" lon="8.99565">
        <ele>1953.54</ele>
        <time>2015-09-12T05:52:57Z</time>
      </trkpt>
      <trkpt lat="42.21164" lon="8.99567">
        <ele>1953.54</ele>
        <time>2015-09-12T05:52:59Z</time>
      </trkpt>
      <trkpt lat="42.21167" lon="8.99585">
        <ele>1953.06</ele>
        <time>2015-09-12T05:53:14Z</time>
      </trkpt>
      <trkpt lat="42.21173" lon="8.99597">
        <ele>1953.54</ele>
        <time>2015-09-12T05:53:26Z</time>
      </trkpt>
      <trkpt lat="42.21174" lon="8.99608">
        <ele>1953.06</ele>
        <time>2015-09-12T05:53:38Z</time>
      </trkpt>
      <trkpt lat="42.21176" lon="8.9962">
        <ele>1954.02</ele>
        <time>2015-09-12T05:53:50Z</time>
      </trkpt>
      <trkpt lat="42.21174" lon="8.99627">
        <ele>1952.57</ele>
        <time>2015-09-12T05:54:01Z</time>
      </trkpt>
      <trkpt lat="42.21176" lon="8.99637">
        <ele>1952.57</ele>
        <time>2015-09-12T05:54:12Z</time>
      </trkpt>
      <trkpt lat="42.21177" lon="8.99645">
        <ele>1952.09</ele>
        <time>2015-09-12T05:54:23Z</time>
      </trkpt>
      <trkpt lat="42.21177" lon="8.99653">
        <ele>1951.13</ele>
        <time>2015-09-12T05:54:33Z</time>
      </trkpt>
      <trkpt lat="42.21175" lon="8.99655">
        <ele>1950.17</ele>
        <time>2015-09-12T05:54:44Z</time>
      </trkpt>
      <trkpt lat="42.21171" lon="8.99665">
        <ele>1947.29</ele>
        <time>2015-09-12T05:54:55Z</time>
      </trkpt>
      <trkpt lat="42.2117" lon="8.9967">
        <ele>1946.81</ele>
        <time>2015-09-12T05:54:59Z</time>
      </trkpt>
      <trkpt lat="42.21167" lon="8.99678">
        <ele>1946.81</ele>
        <time>2015-09-12T05:55:07Z</time>
      </trkpt>
      <trkpt lat="42.21165" lon="8.99681">
        <ele>1946.81</ele>
        <time>2015-09-12T05:55:10Z</time>
      </trkpt>
      <trkpt lat="42.21164" lon="8.99687">
        <ele>1946.81</ele>
        <time>2015-09-12T05:55:25Z</time>
      </trkpt>
      <trkpt lat="42.21161" lon="8.99696">
        <ele>1946.81</ele>
        <time>2015-09-12T05:55:37Z</time>
      </trkpt>
      <trkpt lat="42.21158" lon="8.99707">
        <ele>1947.29</ele>
        <time>2015-09-12T05:55:46Z</time>
      </trkpt>
      <trkpt lat="42.21155" lon="8.99712">
        <ele>1946.81</ele>
        <time>2015-09-12T05:55:52Z</time>
      </trkpt>
      <trkpt lat="42.21156" lon="8.99717">
        <ele>1947.29</ele>
        <time>2015-09-12T05:55:55Z</time>
      </trkpt>
      <trkpt lat="42.21157" lon="8.9972">
        <ele>1947.29</ele>
        <time>2015-09-12T05:55:57Z</time>
      </trkpt>
      <trkpt lat="42.21156" lon="8.99734">
        <ele>1947.77</ele>
        <time>2015-09-12T05:56:06Z</time>
      </trkpt>
      <trkpt lat="42.21159" lon="8.99743">
        <ele>1948.25</ele>
        <time>2015-09-12T05:56:14Z</time>
      </trkpt>
      <trkpt lat="42.21158" lon="8.99751">
        <ele>1948.25</ele>
        <time>2015-09-12T05:56:19Z</time>
      </trkpt>
      <trkpt lat="42.21157" lon="8.99755">
        <ele>1948.25</ele>
        <time>2015-09-12T05:56:22Z</time>
      </trkpt>
      <trkpt lat="42.21158" lon="8.99765">
        <ele>1948.73</ele>
        <time>2015-09-12T05:56:29Z</time>
      </trkpt>
      <trkpt lat="42.21156" lon="8.9977">
        <ele>1949.21</ele>
        <time>2015-09-12T05:56:33Z</time>
      </trkpt>
      <trkpt lat="42.21155" lon="8.99782">
        <ele>1949.21</ele>
        <time>2015-09-12T05:56:41Z</time>
      </trkpt>
      <trkpt lat="42.21148" lon="8.99797">
        <ele>1950.17</ele>
        <time>2015-09-12T05:56:55Z</time>
      </trkpt>
      <trkpt lat="42.21149" lon="8.99803">
        <ele>1950.65</ele>
        <time>2015-09-12T05:57:06Z</time>
      </trkpt>
      <trkpt lat="42.21149" lon="8.99802">
        <ele>1950.65</ele>
        <time>2015-09-12T05:57:07Z</time>
      </trkpt>
      <trkpt lat="42.21153" lon="8.99818">
        <ele>1951.61</ele>
        <time>2015-09-12T05:57:21Z</time>
      </trkpt>
      <trkpt lat="42.21155" lon="8.99827">
        <ele>1954.02</ele>
        <time>2015-09-12T05:57:29Z</time>
      </trkpt>
      <trkpt lat="42.2116" lon="8.99844">
        <ele>1954.98</ele>
        <time>2015-09-12T05:57:43Z</time>
      </trkpt>
      <trkpt lat="42.2116" lon="8.99858">
        <ele>1955.94</ele>
        <time>2015-09-12T05:57:55Z</time>
      </trkpt>
      <trkpt lat="42.21164" lon="8.99868">
        <ele>1956.9</ele>
        <time>2015-09-12T05:58:07Z</time>
      </trkpt>
      <trkpt lat="42.21163" lon="8.99872">
        <ele>1957.86</ele>
        <time>2015-09-12T05:58:15Z</time>
      </trkpt>
      <trkpt lat="42.21168" lon="8.99875">
        <ele>1959.3</ele>
        <time>2015-09-12T05:58:27Z</time>
      </trkpt>
      <trkpt lat="42.21171" lon="8.99878">
        <ele>1959.78</ele>
        <time>2015-09-12T05:58:38Z</time>
      </trkpt>
      <trkpt lat="42.21175" lon="8.99878">
        <ele>1959.3</ele>
        <time>2015-09-12T05:58:47Z</time>
      </trkpt>
      <trkpt lat="42.2118" lon="8.99884">
        <ele>1959.3</ele>
        <time>2015-09-12T05:59:02Z</time>
      </trkpt>
      <trkpt lat="42.21178" lon="8.99884">
        <ele>1959.78</ele>
        <time>2015-09-12T05:59:31Z</time>
      </trkpt>
      <trkpt lat="42.2118" lon="8.99879">
        <ele>1960.75</ele>
        <time>2015-09-12T05:59:43Z</time>
      </trkpt>
      <trkpt lat="42.21186" lon="8.99886">
        <ele>1962.67</ele>
        <time>2015-09-12T05:59:56Z</time>
      </trkpt>
      <trkpt lat="42.21189" lon="8.99898">
        <ele>1965.07</ele>
        <time>2015-09-12T06:00:11Z</time>
      </trkpt>
      <trkpt lat="42.21192" lon="8.99901">
        <ele>1966.99</ele>
        <time>2015-09-12T06:00:23Z</time>
      </trkpt>
      <trkpt lat="42.21193" lon="8.99909">
        <ele>1968.92</ele>
        <time>2015-09-12T06:00:34Z</time>
      </trkpt>
      <trkpt lat="42.21198" lon="8.99913">
        <ele>1970.84</ele>
        <time>2015-09-12T06:00:46Z</time>
      </trkpt>
      <trkpt lat="42.21199" lon="8.99916">
        <ele>1972.28</ele>
        <time>2015-09-12T06:00:56Z</time>
      </trkpt>
      <trkpt lat="42.21201" lon="8.99925">
        <ele>1974.69</ele>
        <time>2015-09-12T06:01:09Z</time>
      </trkpt>
      <trkpt lat="42.21204" lon="8.99924">
        <ele>1976.61</ele>
        <time>2015-09-12T06:01:22Z</time>
      </trkpt>
      <trkpt lat="42.21204" lon="8.99923">
        <ele>1978.05</ele>
        <time>2015-09-12T06:01:35Z</time>
      </trkpt>
      <trkpt lat="42.21211" lon="8.99923">
        <ele>1980.45</ele>
        <time>2015-09-12T06:01:47Z</time>
      </trkpt>
      <trkpt lat="42.21216" lon="8.99933">
        <ele>1982.86</ele>
        <time>2015-09-12T06:01:58Z</time>
      </trkpt>
      <trkpt lat="42.21219" lon="8.99942">
        <ele>1984.78</ele>
        <time>2015-09-12T06:02:12Z</time>
      </trkpt>
      <trkpt lat="42.2122" lon="8.99948">
        <ele>1987.66</ele>
        <time>2015-09-12T06:02:25Z</time>
      </trkpt>
      <trkpt lat="42.21219" lon="8.99949">
        <ele>1988.14</ele>
        <time>2015-09-12T06:02:38Z</time>
      </trkpt>
      <trkpt lat="42.21223" lon="8.99952">
        <ele>1990.07</ele>
        <time>2015-09-12T06:02:52Z</time>
      </trkpt>
      <trkpt lat="42.21224" lon="8.9996">
        <ele>1992.47</ele>
        <time>2015-09-12T06:03:02Z</time>
      </trkpt>
      <trkpt lat="42.21232" lon="8.99965">
        <ele>1994.87</ele>
        <time>2015-09-12T06:03:15Z</time>
      </trkpt>
      <trkpt lat="42.21232" lon="8.9997">
        <ele>1997.76</ele>
        <time>2015-09-12T06:03:29Z</time>
      </trkpt>
      <trkpt lat="42.21233" lon="8.99969">
        <ele>1999.68</ele>
        <time>2015-09-12T06:03:42Z</time>
      </trkpt>
      <trkpt lat="42.21236" lon="8.99973">
        <ele>2002.56</ele>
        <time>2015-09-12T06:03:57Z</time>
      </trkpt>
      <trkpt lat="42.21239" lon="8.99976">
        <ele>2004.97</ele>
        <time>2015-09-12T06:04:09Z</time>
      </trkpt>
      <trkpt lat="42.21242" lon="8.99978">
        <ele>2006.89</ele>
        <time>2015-09-12T06:04:21Z</time>
      </trkpt>
      <trkpt lat="42.21242" lon="8.99979">
        <ele>2006.89</ele>
        <time>2015-09-12T06:04:23Z</time>
      </trkpt>
      <trkpt lat="42.21246" lon="8.99984">
        <ele>2009.29</ele>
        <time>2015-09-12T06:04:34Z</time>
      </trkpt>
      <trkpt lat="42.21246" lon="8.99986">
        <ele>2009.29</ele>
        <time>2015-09-12T06:04:36Z</time>
      </trkpt>
      <trkpt lat="42.21244" lon="8.99999">
        <ele>2010.25</ele>
        <time>2015-09-12T06:04:48Z</time>
      </trkpt>
      <trkpt lat="42.21242" lon="9.00002">
        <ele>2010.25</ele>
        <time>2015-09-12T06:04:51Z</time>
      </trkpt>
      <trkpt lat="42.21241" lon="9.00011">
        <ele>2010.25</ele>
        <time>2015-09-12T06:05:00Z</time>
      </trkpt>
      <trkpt lat="42.21242" lon="9.00022">
        <ele>2011.7</ele>
        <time>2015-09-12T06:05:12Z</time>
      </trkpt>
      <trkpt lat="42.21242" lon="9.00026">
        <ele>2013.62</ele>
        <time>2015-09-12T06:05:23Z</time>
      </trkpt>
      <trkpt lat="42.21242" lon="9.00029">
        <ele>2016.02</ele>
        <time>2015-09-12T06:05:30Z</time>
      </trkpt>
      <trkpt lat="42.21239" lon="9.00036">
        <ele>2017.46</ele>
        <time>2015-09-12T06:05:43Z</time>
      </trkpt>
      <trkpt lat="42.2124" lon="9.00043">
        <ele>2019.87</ele>
        <time>2015-09-12T06:05:54Z</time>
      </trkpt>
      <trkpt lat="42.21241" lon="9.00042">
        <ele>2021.79</ele>
        <time>2015-09-12T06:06:05Z</time>
      </trkpt>
      <trkpt lat="42.2124" lon="9.00048">
        <ele>2023.71</ele>
        <time>2015-09-12T06:06:17Z</time>
      </trkpt>
      <trkpt lat="42.21241" lon="9.00055">
        <ele>2025.64</ele>
        <time>2015-09-12T06:06:28Z</time>
      </trkpt>
      <trkpt lat="42.21242" lon="9.00063">
        <ele>2028.04</ele>
        <time>2015-09-12T06:06:41Z</time>
      </trkpt>
      <trkpt lat="42.2124" lon="9.00072">
        <ele>2029</ele>
        <time>2015-09-12T06:06:50Z</time>
      </trkpt>
      <trkpt lat="42.2124" lon="9.00078">
        <ele>2029.48</ele>
        <time>2015-09-12T06:06:55Z</time>
      </trkpt>
      <trkpt lat="42.21242" lon="9.00081">
        <ele>2029.96</ele>
        <time>2015-09-12T06:06:58Z</time>
      </trkpt>
      <trkpt lat="42.21239" lon="9.00092">
        <ele>2030.44</ele>
        <time>2015-09-12T06:07:11Z</time>
      </trkpt>
      <trkpt lat="42.21238" lon="9.00101">
        <ele>2032.36</ele>
        <time>2015-09-12T06:07:25Z</time>
      </trkpt>
      <trkpt lat="42.21235" lon="9.00107">
        <ele>2033.33</ele>
        <time>2015-09-12T06:07:36Z</time>
      </trkpt>
      <trkpt lat="42.21236" lon="9.00111">
        <ele>2034.29</ele>
        <time>2015-09-12T06:07:44Z</time>
      </trkpt>
      <trkpt lat="42.21239" lon="9.00121">
        <ele>2036.69</ele>
        <time>2015-09-12T06:07:56Z</time>
      </trkpt>
      <trkpt lat="42.21238" lon="9.00127">
        <ele>2038.61</ele>
        <time>2015-09-12T06:08:06Z</time>
      </trkpt>
      <trkpt lat="42.21237" lon="9.00134">
        <ele>2041.02</ele>
        <time>2015-09-12T06:08:19Z</time>
      </trkpt>
      <trkpt lat="42.21239" lon="9.00143">
        <ele>2043.42</ele>
        <time>2015-09-12T06:08:32Z</time>
      </trkpt>
      <trkpt lat="42.2124" lon="9.00143">
        <ele>2043.42</ele>
        <time>2015-09-12T06:08:55Z</time>
      </trkpt>
      <trkpt lat="42.21236" lon="9.00141">
        <ele>2043.42</ele>
        <time>2015-09-12T06:09:12Z</time>
      </trkpt>
      <trkpt lat="42.21237" lon="9.00147">
        <ele>2045.34</ele>
        <time>2015-09-12T06:09:28Z</time>
      </trkpt>
      <trkpt lat="42.21238" lon="9.00159">
        <ele>2047.26</ele>
        <time>2015-09-12T06:09:41Z</time>
      </trkpt>
      <trkpt lat="42.2124" lon="9.00164">
        <ele>2049.19</ele>
        <time>2015-09-12T06:09:56Z</time>
      </trkpt>
      <trkpt lat="42.21245" lon="9.00174">
        <ele>2051.59</ele>
        <time>2015-09-12T06:10:10Z</time>
      </trkpt>
      <trkpt lat="42.21243" lon="9.00184">
        <ele>2053.51</ele>
        <time>2015-09-12T06:10:21Z</time>
      </trkpt>
      <trkpt lat="42.21236" lon="9.00194">
        <ele>2054.47</ele>
        <time>2015-09-12T06:10:34Z</time>
      </trkpt>
      <trkpt lat="42.21231" lon="9.00203">
        <ele>2055.92</ele>
        <time>2015-09-12T06:10:47Z</time>
      </trkpt>
      <trkpt lat="42.21226" lon="9.00212">
        <ele>2057.36</ele>
        <time>2015-09-12T06:10:59Z</time>
      </trkpt>
      <trkpt lat="42.21224" lon="9.00222">
        <ele>2058.8</ele>
        <time>2015-09-12T06:11:12Z</time>
      </trkpt>
      <trkpt lat="42.21223" lon="9.00224">
        <ele>2060.24</ele>
        <time>2015-09-12T06:11:23Z</time>
      </trkpt>
      <trkpt lat="42.21221" lon="9.00231">
        <ele>2061.68</ele>
        <time>2015-09-12T06:11:36Z</time>
      </trkpt>
      <trkpt lat="42.21224" lon="9.00235">
        <ele>2063.13</ele>
        <time>2015-09-12T06:11:46Z</time>
      </trkpt>
      <trkpt lat="42.21223" lon="9.00244">
        <ele>2064.57</ele>
        <time>2015-09-12T06:11:58Z</time>
      </trkpt>
      <trkpt lat="42.21222" lon="9.00248">
        <ele>2066.49</ele>
        <time>2015-09-12T06:12:12Z</time>
      </trkpt>
      <trkpt lat="42.2122" lon="9.00254">
        <ele>2068.41</ele>
        <time>2015-09-12T06:12:22Z</time>
      </trkpt>
      <trkpt lat="42.21221" lon="9.00257">
        <ele>2069.86</ele>
        <time>2015-09-12T06:12:36Z</time>
      </trkpt>
      <trkpt lat="42.21213" lon="9.00262">
        <ele>2072.26</ele>
        <time>2015-09-12T06:12:51Z</time>
      </trkpt>
      <trkpt lat="42.21211" lon="9.00268">
        <ele>2073.7</ele>
        <time>2015-09-12T06:13:00Z</time>
      </trkpt>
      <trkpt lat="42.2121" lon="9.00275">
        <ele>2076.1</ele>
        <time>2015-09-12T06:13:13Z</time>
      </trkpt>
      <trkpt lat="42.21201" lon="9.00281">
        <ele>2078.51</ele>
        <time>2015-09-12T06:13:26Z</time>
      </trkpt>
      <trkpt lat="42.21198" lon="9.00281">
        <ele>2078.99</ele>
        <time>2015-09-12T06:13:30Z</time>
      </trkpt>
      <trkpt lat="42.21196" lon="9.00281">
        <ele>2080.43</ele>
        <time>2015-09-12T06:13:41Z</time>
      </trkpt>
      <trkpt lat="42.21191" lon="9.00289">
        <ele>2082.35</ele>
        <time>2015-09-12T06:13:53Z</time>
      </trkpt>
      <trkpt lat="42.21189" lon="9.00295">
        <ele>2084.76</ele>
        <time>2015-09-12T06:14:05Z</time>
      </trkpt>
      <trkpt lat="42.21185" lon="9.00302">
        <ele>2086.68</ele>
        <time>2015-09-12T06:14:18Z</time>
      </trkpt>
      <trkpt lat="42.21184" lon="9.00304">
        <ele>2087.64</ele>
        <time>2015-09-12T06:14:23Z</time>
      </trkpt>
      <trkpt lat="42.2118" lon="9.00308">
        <ele>2089.56</ele>
        <time>2015-09-12T06:14:35Z</time>
      </trkpt>
      <trkpt lat="42.21177" lon="9.00314">
        <ele>2091.97</ele>
        <time>2015-09-12T06:14:47Z</time>
      </trkpt>
      <trkpt lat="42.21175" lon="9.00318">
        <ele>2094.85</ele>
        <time>2015-09-12T06:14:59Z</time>
      </trkpt>
      <trkpt lat="42.21172" lon="9.00325">
        <ele>2097.25</ele>
        <time>2015-09-12T06:15:12Z</time>
      </trkpt>
      <trkpt lat="42.21172" lon="9.00331">
        <ele>2099.66</ele>
        <time>2015-09-12T06:15:24Z</time>
      </trkpt>
      <trkpt lat="42.21174" lon="9.00335">
        <ele>2101.1</ele>
        <time>2015-09-12T06:15:35Z</time>
      </trkpt>
      <trkpt lat="42.21176" lon="9.00337">
        <ele>2102.54</ele>
        <time>2015-09-12T06:15:48Z</time>
      </trkpt>
      <trkpt lat="42.21179" lon="9.00345">
        <ele>2104.46</ele>
        <time>2015-09-12T06:15:59Z</time>
      </trkpt>
      <trkpt lat="42.21177" lon="9.0035">
        <ele>2105.91</ele>
        <time>2015-09-12T06:16:09Z</time>
      </trkpt>
      <trkpt lat="42.21179" lon="9.00356">
        <ele>2109.27</ele>
        <time>2015-09-12T06:16:23Z</time>
      </trkpt>
      <trkpt lat="42.21182" lon="9.00358">
        <ele>2111.19</ele>
        <time>2015-09-12T06:16:38Z</time>
      </trkpt>
      <trkpt lat="42.21181" lon="9.00363">
        <ele>2113.12</ele>
        <time>2015-09-12T06:16:50Z</time>
      </trkpt>
      <trkpt lat="42.21179" lon="9.00363">
        <ele>2114.08</ele>
        <time>2015-09-12T06:17:11Z</time>
      </trkpt>
      <trkpt lat="42.21179" lon="9.00364">
        <ele>2114.08</ele>
        <time>2015-09-12T06:17:12Z</time>
      </trkpt>
      <trkpt lat="42.21177" lon="9.00368">
        <ele>2116.48</ele>
        <time>2015-09-12T06:17:24Z</time>
      </trkpt>
      <trkpt lat="42.21171" lon="9.00373">
        <ele>2116.96</ele>
        <time>2015-09-12T06:17:35Z</time>
      </trkpt>
      <trkpt lat="42.21166" lon="9.00379">
        <ele>2118.88</ele>
        <time>2015-09-12T06:17:47Z</time>
      </trkpt>
      <trkpt lat="42.21167" lon="9.00381">
        <ele>2120.32</ele>
        <time>2015-09-12T06:17:53Z</time>
      </trkpt>
      <trkpt lat="42.21168" lon="9.00381">
        <ele>2121.29</ele>
        <time>2015-09-12T06:17:59Z</time>
      </trkpt>
      <trkpt lat="42.21172" lon="9.00383">
        <ele>2122.73</ele>
        <time>2015-09-12T06:18:09Z</time>
      </trkpt>
      <trkpt lat="42.21175" lon="9.00389">
        <ele>2125.13</ele>
        <time>2015-09-12T06:18:21Z</time>
      </trkpt>
      <trkpt lat="42.21177" lon="9.00391">
        <ele>2127.53</ele>
        <time>2015-09-12T06:18:34Z</time>
      </trkpt>
      <trkpt lat="42.21177" lon="9.00395">
        <ele>2128.98</ele>
        <time>2015-09-12T06:18:44Z</time>
      </trkpt>
      <trkpt lat="42.2118" lon="9.00403">
        <ele>2132.34</ele>
        <time>2015-09-12T06:18:58Z</time>
      </trkpt>
      <trkpt lat="42.2118" lon="9.00406">
        <ele>2134.26</ele>
        <time>2015-09-12T06:19:13Z</time>
      </trkpt>
      <trkpt lat="42.2118" lon="9.00409">
        <ele>2136.19</ele>
        <time>2015-09-12T06:19:25Z</time>
      </trkpt>
      <trkpt lat="42.21181" lon="9.00417">
        <ele>2137.15</ele>
        <time>2015-09-12T06:19:36Z</time>
      </trkpt>
      <trkpt lat="42.21184" lon="9.0042">
        <ele>2139.07</ele>
        <time>2015-09-12T06:19:49Z</time>
      </trkpt>
      <trkpt lat="42.21186" lon="9.00421">
        <ele>2141.95</ele>
        <time>2015-09-12T06:20:03Z</time>
      </trkpt>
      <trkpt lat="42.21191" lon="9.00428">
        <ele>2144.36</ele>
        <time>2015-09-12T06:20:16Z</time>
      </trkpt>
      <trkpt lat="42.21197" lon="9.0043">
        <ele>2146.28</ele>
        <time>2015-09-12T06:20:29Z</time>
      </trkpt>
      <trkpt lat="42.21199" lon="9.00432">
        <ele>2146.76</ele>
        <time>2015-09-12T06:20:45Z</time>
      </trkpt>
      <trkpt lat="42.21201" lon="9.00433">
        <ele>2146.76</ele>
        <time>2015-09-12T06:21:18Z</time>
      </trkpt>
      <trkpt lat="42.21201" lon="9.00433">
        <ele>2146.76</ele>
        <time>2015-09-12T06:21:36Z</time>
      </trkpt>
      <trkpt lat="42.21201" lon="9.00434">
        <ele>2146.76</ele>
        <time>2015-09-12T06:21:44Z</time>
      </trkpt>
      <trkpt lat="42.21195" lon="9.00439">
        <ele>2147.72</ele>
        <time>2015-09-12T06:21:57Z</time>
      </trkpt>
      <trkpt lat="42.21191" lon="9.00444">
        <ele>2149.65</ele>
        <time>2015-09-12T06:22:09Z</time>
      </trkpt>
      <trkpt lat="42.21194" lon="9.0045">
        <ele>2152.05</ele>
        <time>2015-09-12T06:22:23Z</time>
      </trkpt>
      <trkpt lat="42.21193" lon="9.00456">
        <ele>2153.49</ele>
        <time>2015-09-12T06:22:31Z</time>
      </trkpt>
      <trkpt lat="42.21189" lon="9.00463">
        <ele>2155.89</ele>
        <time>2015-09-12T06:22:45Z</time>
      </trkpt>
      <trkpt lat="42.21185" lon="9.0047">
        <ele>2158.78</ele>
        <time>2015-09-12T06:22:58Z</time>
      </trkpt>
      <trkpt lat="42.21182" lon="9.00475">
        <ele>2160.7</ele>
        <time>2015-09-12T06:23:10Z</time>
      </trkpt>
      <trkpt lat="42.21183" lon="9.0048">
        <ele>2163.1</ele>
        <time>2015-09-12T06:23:23Z</time>
      </trkpt>
      <trkpt lat="42.21181" lon="9.00487">
        <ele>2165.03</ele>
        <time>2015-09-12T06:23:35Z</time>
      </trkpt>
      <trkpt lat="42.21181" lon="9.00492">
        <ele>2167.43</ele>
        <time>2015-09-12T06:23:49Z</time>
      </trkpt>
      <trkpt lat="42.21175" lon="9.00495">
        <ele>2168.87</ele>
        <time>2015-09-12T06:24:02Z</time>
      </trkpt>
      <trkpt lat="42.21171" lon="9.005">
        <ele>2171.27</ele>
        <time>2015-09-12T06:24:15Z</time>
      </trkpt>
      <trkpt lat="42.21173" lon="9.00507">
        <ele>2173.2</ele>
        <time>2015-09-12T06:24:28Z</time>
      </trkpt>
      <trkpt lat="42.21169" lon="9.0051">
        <ele>2175.12</ele>
        <time>2015-09-12T06:24:40Z</time>
      </trkpt>
      <trkpt lat="42.21171" lon="9.00515">
        <ele>2177.04</ele>
        <time>2015-09-12T06:24:52Z</time>
      </trkpt>
      <trkpt lat="42.21166" lon="9.00518">
        <ele>2178.97</ele>
        <time>2015-09-12T06:25:05Z</time>
      </trkpt>
      <trkpt lat="42.21167" lon="9.00522">
        <ele>2180.41</ele>
        <time>2015-09-12T06:25:18Z</time>
      </trkpt>
      <trkpt lat="42.21166" lon="9.00524">
        <ele>2182.81</ele>
        <time>2015-09-12T06:25:31Z</time>
      </trkpt>
      <trkpt lat="42.21167" lon="9.00527">
        <ele>2185.21</ele>
        <time>2015-09-12T06:25:44Z</time>
      </trkpt>
      <trkpt lat="42.21165" lon="9.00531">
        <ele>2187.14</ele>
        <time>2015-09-12T06:25:57Z</time>
      </trkpt>
      <trkpt lat="42.21164" lon="9.00535">
        <ele>2189.54</ele>
        <time>2015-09-12T06:26:11Z</time>
      </trkpt>
      <trkpt lat="42.21163" lon="9.0054">
        <ele>2191.94</ele>
        <time>2015-09-12T06:26:23Z</time>
      </trkpt>
      <trkpt lat="42.21162" lon="9.00546">
        <ele>2193.87</ele>
        <time>2015-09-12T06:26:36Z</time>
      </trkpt>
      <trkpt lat="42.21161" lon="9.00551">
        <ele>2196.27</ele>
        <time>2015-09-12T06:26:50Z</time>
      </trkpt>
      <trkpt lat="42.21159" lon="9.00559">
        <ele>2198.67</ele>
        <time>2015-09-12T06:27:04Z</time>
      </trkpt>
      <trkpt lat="42.21155" lon="9.0056">
        <ele>2199.15</ele>
        <time>2015-09-12T06:27:20Z</time>
      </trkpt>
      <trkpt lat="42.21158" lon="9.00561">
        <ele>2200.11</ele>
        <time>2015-09-12T06:27:40Z</time>
      </trkpt>
      <trkpt lat="42.21159" lon="9.00562">
        <ele>2200.59</ele>
        <time>2015-09-12T06:27:43Z</time>
      </trkpt>
      <trkpt lat="42.21162" lon="9.0057">
        <ele>2202.04</ele>
        <time>2015-09-12T06:27:55Z</time>
      </trkpt>
      <trkpt lat="42.21166" lon="9.00575">
        <ele>2204.92</ele>
        <time>2015-09-12T06:28:09Z</time>
      </trkpt>
      <trkpt lat="42.21165" lon="9.00578">
        <ele>2207.32</ele>
        <time>2015-09-12T06:28:21Z</time>
      </trkpt>
      <trkpt lat="42.21166" lon="9.00582">
        <ele>2210.21</ele>
        <time>2015-09-12T06:28:33Z</time>
      </trkpt>
      <trkpt lat="42.21168" lon="9.00586">
        <ele>2211.65</ele>
        <time>2015-09-12T06:28:45Z</time>
      </trkpt>
      <trkpt lat="42.21166" lon="9.00589">
        <ele>2215.01</ele>
        <time>2015-09-12T06:28:57Z</time>
      </trkpt>
      <trkpt lat="42.21163" lon="9.00591">
        <ele>2216.94</ele>
        <time>2015-09-12T06:29:10Z</time>
      </trkpt>
      <trkpt lat="42.21161" lon="9.00593">
        <ele>2216.94</ele>
        <time>2015-09-12T06:29:22Z</time>
      </trkpt>
      <trkpt lat="42.2116" lon="9.00593">
        <ele>2216.46</ele>
        <time>2015-09-12T06:29:40Z</time>
      </trkpt>
      <trkpt lat="42.21161" lon="9.00592">
        <ele>2217.42</ele>
        <time>2015-09-12T06:29:58Z</time>
      </trkpt>
      <trkpt lat="42.21161" lon="9.00593">
        <ele>2217.42</ele>
        <time>2015-09-12T06:30:13Z</time>
      </trkpt>
      <trkpt lat="42.21159" lon="9.00593">
        <ele>2217.9</ele>
        <time>2015-09-12T06:30:25Z</time>
      </trkpt>
      <trkpt lat="42.21157" lon="9.00594">
        <ele>2217.42</ele>
        <time>2015-09-12T06:30:40Z</time>
      </trkpt>
      <trkpt lat="42.21157" lon="9.00596">
        <ele>2217.42</ele>
        <time>2015-09-12T06:31:00Z</time>
      </trkpt>
      <trkpt lat="42.21157" lon="9.00596">
        <ele>2217.42</ele>
        <time>2015-09-12T06:31:27Z</time>
      </trkpt>
      <trkpt lat="42.21156" lon="9.00596">
        <ele>2216.94</ele>
        <time>2015-09-12T06:31:43Z</time>
      </trkpt>
      <trkpt lat="42.21156" lon="9.00595">
        <ele>2217.42</ele>
        <time>2015-09-12T06:32:20Z</time>
      </trkpt>
      <trkpt lat="42.21156" lon="9.00595">
        <ele>2217.9</ele>
        <time>2015-09-12T06:32:53Z</time>
      </trkpt>
      <trkpt lat="42.21156" lon="9.00596">
        <ele>2217.42</ele>
        <time>2015-09-12T06:33:31Z</time>
      </trkpt>
      <trkpt lat="42.21156" lon="9.00596">
        <ele>2216.94</ele>
        <time>2015-09-12T06:33:36Z</time>
      </trkpt>
      <trkpt lat="42.21156" lon="9.00596">
        <ele>2217.9</ele>
        <time>2015-09-12T06:33:59Z</time>
      </trkpt>
      <trkpt lat="42.21155" lon="9.00596">
        <ele>2217.9</ele>
        <time>2015-09-12T06:34:32Z</time>
      </trkpt>
      <trkpt lat="42.21155" lon="9.00596">
        <ele>2217.9</ele>
        <time>2015-09-12T06:35:00Z</time>
      </trkpt>
      <trkpt lat="42.21155" lon="9.00596">
        <ele>2218.38</ele>
        <time>2015-09-12T06:35:36Z</time>
      </trkpt>
      <trkpt lat="42.21156" lon="9.00595">
        <ele>2218.38</ele>
        <time>2015-09-12T06:36:05Z</time>
      </trkpt>
      <trkpt lat="42.21156" lon="9.00596">
        <ele>2218.38</ele>
        <time>2015-09-12T06:36:35Z</time>
      </trkpt>
      <trkpt lat="42.21157" lon="9.00596">
        <ele>2218.86</ele>
        <time>2015-09-12T06:36:55Z</time>
      </trkpt>
      <trkpt lat="42.21157" lon="9.00596">
        <ele>2218.38</ele>
        <time>2015-09-12T06:37:25Z</time>
      </trkpt>
      <trkpt lat="42.21157" lon="9.00595">
        <ele>2218.86</ele>
        <time>2015-09-12T06:37:48Z</time>
      </trkpt>
      <trkpt lat="42.21157" lon="9.00595">
        <ele>2218.86</ele>
        <time>2015-09-12T06:38:16Z</time>
      </trkpt>
      <trkpt lat="42.21158" lon="9.00595">
        <ele>2218.86</ele>
        <time>2015-09-12T06:38:40Z</time>
      </trkpt>
      <trkpt lat="42.21158" lon="9.00596">
        <ele>2219.34</ele>
        <time>2015-09-12T06:39:04Z</time>
      </trkpt>
      <trkpt lat="42.21158" lon="9.00596">
        <ele>2219.34</ele>
        <time>2015-09-12T06:39:28Z</time>
      </trkpt>
      <trkpt lat="42.21158" lon="9.00596">
        <ele>2219.34</ele>
        <time>2015-09-12T06:39:54Z</time>
      </trkpt>
      <trkpt lat="42.21158" lon="9.00597">
        <ele>2219.34</ele>
        <time>2015-09-12T06:40:20Z</time>
      </trkpt>
      <trkpt lat="42.21158" lon="9.00597">
        <ele>2219.34</ele>
        <time>2015-09-12T06:40:43Z</time>
      </trkpt>
      <trkpt lat="42.21158" lon="9.00598">
        <ele>2219.82</ele>
        <time>2015-09-12T06:41:11Z</time>
      </trkpt>
      <trkpt lat="42.21158" lon="9.00598">
        <ele>2219.82</ele>
        <time>2015-09-12T06:41:41Z</time>
      </trkpt>
      <trkpt lat="42.21159" lon="9.00598">
        <ele>2219.82</ele>
        <time>2015-09-12T06:42:12Z</time>
      </trkpt>
      <trkpt lat="42.21158" lon="9.00597">
        <ele>2219.82</ele>
        <time>2015-09-12T06:42:40Z</time>
      </trkpt>
      <trkpt lat="42.21159" lon="9.00598">
        <ele>2219.82</ele>
        <time>2015-09-12T06:43:01Z</time>
      </trkpt>
      <trkpt lat="42.21159" lon="9.00597">
        <ele>2219.82</ele>
        <time>2015-09-12T06:43:21Z</time>
      </trkpt>
      <trkpt lat="42.21158" lon="9.00597">
        <ele>2219.82</ele>
        <time>2015-09-12T06:43:42Z</time>
      </trkpt>
      <trkpt lat="42.21159" lon="9.00597">
        <ele>2220.3</ele>
        <time>2015-09-12T06:44:04Z</time>
      </trkpt>
      <trkpt lat="42.21159" lon="9.00597">
        <ele>2220.3</ele>
        <time>2015-09-12T06:44:21Z</time>
      </trkpt>
      <trkpt lat="42.21158" lon="9.00597">
        <ele>2220.3</ele>
        <time>2015-09-12T06:44:50Z</time>
      </trkpt>
      <trkpt lat="42.21158" lon="9.00596">
        <ele>2220.3</ele>
        <time>2015-09-12T06:45:13Z</time>
      </trkpt>
      <trkpt lat="42.21158" lon="9.00596">
        <ele>2220.3</ele>
        <time>2015-09-12T06:45:41Z</time>
      </trkpt>
      <trkpt lat="42.21158" lon="9.00596">
        <ele>2220.3</ele>
        <time>2015-09-12T06:46:09Z</time>
      </trkpt>
      <trkpt lat="42.21158" lon="9.00595">
        <ele>2220.78</ele>
        <time>2015-09-12T06:46:41Z</time>
      </trkpt>
      <trkpt lat="42.21158" lon="9.00595">
        <ele>2220.78</ele>
        <time>2015-09-12T06:47:07Z</time>
      </trkpt>
      <trkpt lat="42.21158" lon="9.00595">
        <ele>2220.78</ele>
        <time>2015-09-12T06:47:34Z</time>
      </trkpt>
      <trkpt lat="42.21157" lon="9.00595">
        <ele>2221.26</ele>
        <time>2015-09-12T06:48:09Z</time>
      </trkpt>
      <trkpt lat="42.21158" lon="9.00595">
        <ele>2221.26</ele>
        <time>2015-09-12T06:48:36Z</time>
      </trkpt>
      <trkpt lat="42.21156" lon="9.00596">
        <ele>2221.26</ele>
        <time>2015-09-12T06:49:08Z</time>
      </trkpt>
      <trkpt lat="42.21157" lon="9.00596">
        <ele>2221.74</ele>
        <time>2015-09-12T06:49:39Z</time>
      </trkpt>
      <trkpt lat="42.21157" lon="9.00596">
        <ele>2221.74</ele>
        <time>2015-09-12T06:50:06Z</time>
      </trkpt>
      <trkpt lat="42.21158" lon="9.00597">
        <ele>2222.22</ele>
        <time>2015-09-12T06:50:32Z</time>
      </trkpt>
      <trkpt lat="42.21158" lon="9.00596">
        <ele>2222.22</ele>
        <time>2015-09-12T06:50:57Z</time>
      </trkpt>
      <trkpt lat="42.21158" lon="9.00596">
        <ele>2222.22</ele>
        <time>2015-09-12T06:51:26Z</time>
      </trkpt>
      <trkpt lat="42.21158" lon="9.00596">
        <ele>2222.22</ele>
        <time>2015-09-12T06:51:54Z</time>
      </trkpt>
      <trkpt lat="42.21157" lon="9.00596">
        <ele>2222.22</ele>
        <time>2015-09-12T06:52:21Z</time>
      </trkpt>
      <trkpt lat="42.21158" lon="9.00595">
        <ele>2222.22</ele>
        <time>2015-09-12T06:52:42Z</time>
      </trkpt>
      <trkpt lat="42.21155" lon="9.00594">
        <ele>2223.19</ele>
        <time>2015-09-12T06:52:55Z</time>
      </trkpt>
      <trkpt lat="42.21154" lon="9.00594">
        <ele>2223.19</ele>
        <time>2015-09-12T06:53:10Z</time>
      </trkpt>
      <trkpt lat="42.21155" lon="9.00594">
        <ele>2223.19</ele>
        <time>2015-09-12T06:53:27Z</time>
      </trkpt>
      <trkpt lat="42.21155" lon="9.00594">
        <ele>2223.67</ele>
        <time>2015-09-12T06:53:50Z</time>
      </trkpt>
      <trkpt lat="42.21156" lon="9.00598">
        <ele>2221.74</ele>
        <time>2015-09-12T06:54:01Z</time>
      </trkpt>
      <trkpt lat="42.21157" lon="9.00602">
        <ele>2221.26</ele>
        <time>2015-09-12T06:54:21Z</time>
      </trkpt>
      <trkpt lat="42.21155" lon="9.00602">
        <ele>2220.78</ele>
        <time>2015-09-12T06:54:29Z</time>
      </trkpt>
      <trkpt lat="42.21153" lon="9.00603">
        <ele>2219.82</ele>
        <time>2015-09-12T06:54:39Z</time>
      </trkpt>
      <trkpt lat="42.2115" lon="9.00611">
        <ele>2216.94</ele>
        <time>2015-09-12T06:54:51Z</time>
      </trkpt>
      <trkpt lat="42.21147" lon="9.00613">
        <ele>2216.46</ele>
        <time>2015-09-12T06:55:03Z</time>
      </trkpt>
      <trkpt lat="42.21147" lon="9.00614">
        <ele>2216.46</ele>
        <time>2015-09-12T06:55:32Z</time>
      </trkpt>
      <trkpt lat="42.21147" lon="9.00614">
        <ele>2216.46</ele>
        <time>2015-09-12T06:55:45Z</time>
      </trkpt>
      <trkpt lat="42.21145" lon="9.00615">
        <ele>2215.98</ele>
        <time>2015-09-12T06:56:00Z</time>
      </trkpt>
      <trkpt lat="42.21143" lon="9.00618">
        <ele>2215.98</ele>
        <time>2015-09-12T06:56:05Z</time>
      </trkpt>
      <trkpt lat="42.2114" lon="9.00619">
        <ele>2215.01</ele>
        <time>2015-09-12T06:56:16Z</time>
      </trkpt>
      <trkpt lat="42.21139" lon="9.00621">
        <ele>2214.05</ele>
        <time>2015-09-12T06:56:20Z</time>
      </trkpt>
      <trkpt lat="42.21135" lon="9.00626">
        <ele>2215.01</ele>
        <time>2015-09-12T06:56:33Z</time>
      </trkpt>
      <trkpt lat="42.21135" lon="9.00627">
        <ele>2214.53</ele>
        <time>2015-09-12T06:56:40Z</time>
      </trkpt>
      <trkpt lat="42.21134" lon="9.00631">
        <ele>2213.57</ele>
        <time>2015-09-12T06:56:47Z</time>
      </trkpt>
      <trkpt lat="42.21126" lon="9.00637">
        <ele>2213.57</ele>
        <time>2015-09-12T06:56:57Z</time>
      </trkpt>
      <trkpt lat="42.21119" lon="9.00641">
        <ele>2211.65</ele>
        <time>2015-09-12T06:57:08Z</time>
      </trkpt>
      <trkpt lat="42.21113" lon="9.00644">
        <ele>2212.13</ele>
        <time>2015-09-12T06:57:17Z</time>
      </trkpt>
      <trkpt lat="42.21109" lon="9.00648">
        <ele>2210.21</ele>
        <time>2015-09-12T06:57:28Z</time>
      </trkpt>
      <trkpt lat="42.21105" lon="9.00651">
        <ele>2208.29</ele>
        <time>2015-09-12T06:57:39Z</time>
      </trkpt>
      <trkpt lat="42.21099" lon="9.00659">
        <ele>2207.32</ele>
        <time>2015-09-12T06:57:49Z</time>
      </trkpt>
      <trkpt lat="42.21096" lon="9.00661">
        <ele>2206.36</ele>
        <time>2015-09-12T06:58:00Z</time>
      </trkpt>
      <trkpt lat="42.21098" lon="9.00665">
        <ele>2204.92</ele>
        <time>2015-09-12T06:58:09Z</time>
      </trkpt>
      <trkpt lat="42.21093" lon="9.0067">
        <ele>2203.48</ele>
        <time>2015-09-12T06:58:19Z</time>
      </trkpt>
      <trkpt lat="42.2109" lon="9.00676">
        <ele>2202.52</ele>
        <time>2015-09-12T06:58:26Z</time>
      </trkpt>
      <trkpt lat="42.21086" lon="9.00679">
        <ele>2201.56</ele>
        <time>2015-09-12T06:58:37Z</time>
      </trkpt>
      <trkpt lat="42.21081" lon="9.00683">
        <ele>2201.56</ele>
        <time>2015-09-12T06:58:50Z</time>
      </trkpt>
      <trkpt lat="42.21078" lon="9.00683">
        <ele>2201.56</ele>
        <time>2015-09-12T06:58:54Z</time>
      </trkpt>
      <trkpt lat="42.21072" lon="9.00684">
        <ele>2201.56</ele>
        <time>2015-09-12T06:59:02Z</time>
      </trkpt>
      <trkpt lat="42.21067" lon="9.00687">
        <ele>2200.59</ele>
        <time>2015-09-12T06:59:10Z</time>
      </trkpt>
      <trkpt lat="42.21063" lon="9.00687">
        <ele>2200.59</ele>
        <time>2015-09-12T06:59:14Z</time>
      </trkpt>
      <trkpt lat="42.2106" lon="9.0069">
        <ele>2200.59</ele>
        <time>2015-09-12T06:59:20Z</time>
      </trkpt>
      <trkpt lat="42.21048" lon="9.00691">
        <ele>2200.11</ele>
        <time>2015-09-12T06:59:34Z</time>
      </trkpt>
      <trkpt lat="42.2104" lon="9.00693">
        <ele>2199.15</ele>
        <time>2015-09-12T06:59:45Z</time>
      </trkpt>
      <trkpt lat="42.21036" lon="9.00692">
        <ele>2198.67</ele>
        <time>2015-09-12T06:59:49Z</time>
      </trkpt>
      <trkpt lat="42.21021" lon="9.00698">
        <ele>2198.67</ele>
        <time>2015-09-12T07:00:03Z</time>
      </trkpt>
      <trkpt lat="42.21018" lon="9.00699">
        <ele>2198.67</ele>
        <time>2015-09-12T07:00:06Z</time>
      </trkpt>
      <trkpt lat="42.21015" lon="9.007">
        <ele>2198.19</ele>
        <time>2015-09-12T07:00:09Z</time>
      </trkpt>
      <trkpt lat="42.21011" lon="9.00705">
        <ele>2195.79</ele>
        <time>2015-09-12T07:00:17Z</time>
      </trkpt>
      <trkpt lat="42.21002" lon="9.00707">
        <ele>2194.83</ele>
        <time>2015-09-12T07:00:30Z</time>
      </trkpt>
      <trkpt lat="42.21" lon="9.00707">
        <ele>2193.39</ele>
        <time>2015-09-12T07:00:38Z</time>
      </trkpt>
      <trkpt lat="42.20998" lon="9.00711">
        <ele>2191.94</ele>
        <time>2015-09-12T07:00:45Z</time>
      </trkpt>
      <trkpt lat="42.20996" lon="9.00714">
        <ele>2190.5</ele>
        <time>2015-09-12T07:00:50Z</time>
      </trkpt>
      <trkpt lat="42.20985" lon="9.0072">
        <ele>2190.5</ele>
        <time>2015-09-12T07:01:00Z</time>
      </trkpt>
      <trkpt lat="42.2098" lon="9.00728">
        <ele>2189.06</ele>
        <time>2015-09-12T07:01:12Z</time>
      </trkpt>
      <trkpt lat="42.2098" lon="9.00729">
        <ele>2188.58</ele>
        <time>2015-09-12T07:01:14Z</time>
      </trkpt>
      <trkpt lat="42.20979" lon="9.00736">
        <ele>2187.62</ele>
        <time>2015-09-12T07:01:20Z</time>
      </trkpt>
      <trkpt lat="42.20976" lon="9.00741">
        <ele>2186.18</ele>
        <time>2015-09-12T07:01:26Z</time>
      </trkpt>
      <trkpt lat="42.20971" lon="9.00748">
        <ele>2182.81</ele>
        <time>2015-09-12T07:01:39Z</time>
      </trkpt>
      <trkpt lat="42.20968" lon="9.00752">
        <ele>2181.37</ele>
        <time>2015-09-12T07:01:48Z</time>
      </trkpt>
      <trkpt lat="42.20965" lon="9.00757">
        <ele>2179.93</ele>
        <time>2015-09-12T07:01:57Z</time>
      </trkpt>
      <trkpt lat="42.20965" lon="9.00758">
        <ele>2179.45</ele>
        <time>2015-09-12T07:02:04Z</time>
      </trkpt>
      <trkpt lat="42.20966" lon="9.00762">
        <ele>2178.97</ele>
        <time>2015-09-12T07:02:15Z</time>
      </trkpt>
      <trkpt lat="42.20966" lon="9.00768">
        <ele>2177.52</ele>
        <time>2015-09-12T07:02:27Z</time>
      </trkpt>
      <trkpt lat="42.20962" lon="9.00771">
        <ele>2176.56</ele>
        <time>2015-09-12T07:02:38Z</time>
      </trkpt>
      <trkpt lat="42.2096" lon="9.00773">
        <ele>2176.08</ele>
        <time>2015-09-12T07:02:40Z</time>
      </trkpt>
      <trkpt lat="42.20958" lon="9.00774">
        <ele>2176.08</ele>
        <time>2015-09-12T07:02:42Z</time>
      </trkpt>
      <trkpt lat="42.20953" lon="9.00778">
        <ele>2177.04</ele>
        <time>2015-09-12T07:02:49Z</time>
      </trkpt>
      <trkpt lat="42.20948" lon="9.00776">
        <ele>2178.48</ele>
        <time>2015-09-12T07:03:00Z</time>
      </trkpt>
      <trkpt lat="42.20947" lon="9.00776">
        <ele>2178.48</ele>
        <time>2015-09-12T07:03:01Z</time>
      </trkpt>
      <trkpt lat="42.20938" lon="9.0078">
        <ele>2178</ele>
        <time>2015-09-12T07:03:11Z</time>
      </trkpt>
      <trkpt lat="42.20932" lon="9.00786">
        <ele>2177.52</ele>
        <time>2015-09-12T07:03:20Z</time>
      </trkpt>
      <trkpt lat="42.20932" lon="9.00795">
        <ele>2176.56</ele>
        <time>2015-09-12T07:03:31Z</time>
      </trkpt>
      <trkpt lat="42.2093" lon="9.00795">
        <ele>2176.08</ele>
        <time>2015-09-12T07:03:44Z</time>
      </trkpt>
      <trkpt lat="42.20929" lon="9.008">
        <ele>2173.68</ele>
        <time>2015-09-12T07:03:55Z</time>
      </trkpt>
      <trkpt lat="42.20926" lon="9.00804">
        <ele>2171.76</ele>
        <time>2015-09-12T07:04:06Z</time>
      </trkpt>
      <trkpt lat="42.20927" lon="9.00806">
        <ele>2170.79</ele>
        <time>2015-09-12T07:04:10Z</time>
      </trkpt>
      <trkpt lat="42.20929" lon="9.00813">
        <ele>2168.87</ele>
        <time>2015-09-12T07:04:20Z</time>
      </trkpt>
      <trkpt lat="42.20928" lon="9.00814">
        <ele>2167.91</ele>
        <time>2015-09-12T07:04:22Z</time>
      </trkpt>
      <trkpt lat="42.20928" lon="9.00818">
        <ele>2167.43</ele>
        <time>2015-09-12T07:04:25Z</time>
      </trkpt>
      <trkpt lat="42.20929" lon="9.00818">
        <ele>2166.95</ele>
        <time>2015-09-12T07:04:27Z</time>
      </trkpt>
      <trkpt lat="42.20931" lon="9.00819">
        <ele>2166.47</ele>
        <time>2015-09-12T07:04:29Z</time>
      </trkpt>
      <trkpt lat="42.20926" lon="9.00825">
        <ele>2165.99</ele>
        <time>2015-09-12T07:04:34Z</time>
      </trkpt>
      <trkpt lat="42.20921" lon="9.0083">
        <ele>2165.03</ele>
        <time>2015-09-12T07:04:45Z</time>
      </trkpt>
      <trkpt lat="42.20921" lon="9.00834">
        <ele>2163.58</ele>
        <time>2015-09-12T07:04:52Z</time>
      </trkpt>
      <trkpt lat="42.20921" lon="9.00837">
        <ele>2163.1</ele>
        <time>2015-09-12T07:04:55Z</time>
      </trkpt>
      <trkpt lat="42.20919" lon="9.00844">
        <ele>2162.62</ele>
        <time>2015-09-12T07:05:00Z</time>
      </trkpt>
      <trkpt lat="42.20914" lon="9.00844">
        <ele>2161.66</ele>
        <time>2015-09-12T07:05:10Z</time>
      </trkpt>
      <trkpt lat="42.20909" lon="9.00846">
        <ele>2160.22</ele>
        <time>2015-09-12T07:05:20Z</time>
      </trkpt>
      <trkpt lat="42.20904" lon="9.00852">
        <ele>2158.78</ele>
        <time>2015-09-12T07:05:31Z</time>
      </trkpt>
      <trkpt lat="42.20903" lon="9.00854">
        <ele>2156.86</ele>
        <time>2015-09-12T07:05:41Z</time>
      </trkpt>
      <trkpt lat="42.20899" lon="9.00857">
        <ele>2155.89</ele>
        <time>2015-09-12T07:05:49Z</time>
      </trkpt>
      <trkpt lat="42.209" lon="9.0086">
        <ele>2154.45</ele>
        <time>2015-09-12T07:05:58Z</time>
      </trkpt>
      <trkpt lat="42.20901" lon="9.0086">
        <ele>2154.45</ele>
        <time>2015-09-12T07:06:08Z</time>
      </trkpt>
      <trkpt lat="42.20902" lon="9.00861">
        <ele>2153.01</ele>
        <time>2015-09-12T07:06:15Z</time>
      </trkpt>
      <trkpt lat="42.20899" lon="9.00862">
        <ele>2150.61</ele>
        <time>2015-09-12T07:06:30Z</time>
      </trkpt>
      <trkpt lat="42.209" lon="9.0087">
        <ele>2149.65</ele>
        <time>2015-09-12T07:06:39Z</time>
      </trkpt>
      <trkpt lat="42.20901" lon="9.00873">
        <ele>2146.28</ele>
        <time>2015-09-12T07:06:49Z</time>
      </trkpt>
      <trkpt lat="42.209" lon="9.00876">
        <ele>2143.88</ele>
        <time>2015-09-12T07:07:00Z</time>
      </trkpt>
      <trkpt lat="42.20897" lon="9.00878">
        <ele>2141.95</ele>
        <time>2015-09-12T07:07:11Z</time>
      </trkpt>
      <trkpt lat="42.20896" lon="9.00879">
        <ele>2140.51</ele>
        <time>2015-09-12T07:07:16Z</time>
      </trkpt>
      <trkpt lat="42.20894" lon="9.00883">
        <ele>2140.51</ele>
        <time>2015-09-12T07:07:19Z</time>
      </trkpt>
      <trkpt lat="42.20891" lon="9.00884">
        <ele>2140.51</ele>
        <time>2015-09-12T07:07:22Z</time>
      </trkpt>
      <trkpt lat="42.2089" lon="9.00888">
        <ele>2140.51</ele>
        <time>2015-09-12T07:07:26Z</time>
      </trkpt>
      <trkpt lat="42.20892" lon="9.00892">
        <ele>2140.03</ele>
        <time>2015-09-12T07:07:29Z</time>
      </trkpt>
      <trkpt lat="42.20889" lon="9.00895">
        <ele>2140.99</ele>
        <time>2015-09-12T07:07:34Z</time>
      </trkpt>
      <trkpt lat="42.20887" lon="9.009">
        <ele>2141.95</ele>
        <time>2015-09-12T07:07:42Z</time>
      </trkpt>
      <trkpt lat="42.20884" lon="9.00899">
        <ele>2141.95</ele>
        <time>2015-09-12T07:07:45Z</time>
      </trkpt>
      <trkpt lat="42.20881" lon="9.00903">
        <ele>2141.47</ele>
        <time>2015-09-12T07:07:51Z</time>
      </trkpt>
      <trkpt lat="42.20879" lon="9.0091">
        <ele>2140.03</ele>
        <time>2015-09-12T07:07:58Z</time>
      </trkpt>
      <trkpt lat="42.2088" lon="9.00916">
        <ele>2139.55</ele>
        <time>2015-09-12T07:08:03Z</time>
      </trkpt>
      <trkpt lat="42.20879" lon="9.0092">
        <ele>2139.55</ele>
        <time>2015-09-12T07:08:06Z</time>
      </trkpt>
      <trkpt lat="42.2088" lon="9.00929">
        <ele>2139.07</ele>
        <time>2015-09-12T07:08:14Z</time>
      </trkpt>
      <trkpt lat="42.20877" lon="9.00932">
        <ele>2139.55</ele>
        <time>2015-09-12T07:08:17Z</time>
      </trkpt>
      <trkpt lat="42.20874" lon="9.00944">
        <ele>2139.07</ele>
        <time>2015-09-12T07:08:28Z</time>
      </trkpt>
      <trkpt lat="42.20871" lon="9.00945">
        <ele>2137.63</ele>
        <time>2015-09-12T07:08:37Z</time>
      </trkpt>
      <trkpt lat="42.20867" lon="9.00949">
        <ele>2136.67</ele>
        <time>2015-09-12T07:08:47Z</time>
      </trkpt>
      <trkpt lat="42.20865" lon="9.00956">
        <ele>2133.78</ele>
        <time>2015-09-12T07:08:58Z</time>
      </trkpt>
      <trkpt lat="42.20861" lon="9.00958">
        <ele>2130.9</ele>
        <time>2015-09-12T07:09:12Z</time>
      </trkpt>
      <trkpt lat="42.20858" lon="9.00962">
        <ele>2128.02</ele>
        <time>2015-09-12T07:09:24Z</time>
      </trkpt>
      <trkpt lat="42.20859" lon="9.00967">
        <ele>2125.61</ele>
        <time>2015-09-12T07:09:36Z</time>
      </trkpt>
      <trkpt lat="42.2086" lon="9.00975">
        <ele>2123.21</ele>
        <time>2015-09-12T07:09:47Z</time>
      </trkpt>
      <trkpt lat="42.2086" lon="9.0098">
        <ele>2120.81</ele>
        <time>2015-09-12T07:09:56Z</time>
      </trkpt>
      <trkpt lat="42.20862" lon="9.00984">
        <ele>2119.36</ele>
        <time>2015-09-12T07:10:02Z</time>
      </trkpt>
      <trkpt lat="42.20856" lon="9.0099">
        <ele>2116.48</ele>
        <time>2015-09-12T07:10:13Z</time>
      </trkpt>
      <trkpt lat="42.20858" lon="9.00995">
        <ele>2114.08</ele>
        <time>2015-09-12T07:10:23Z</time>
      </trkpt>
      <trkpt lat="42.2086" lon="9.01001">
        <ele>2112.15</ele>
        <time>2015-09-12T07:10:32Z</time>
      </trkpt>
      <trkpt lat="42.20858" lon="9.01005">
        <ele>2109.75</ele>
        <time>2015-09-12T07:10:42Z</time>
      </trkpt>
      <trkpt lat="42.20857" lon="9.01009">
        <ele>2107.35</ele>
        <time>2015-09-12T07:10:52Z</time>
      </trkpt>
      <trkpt lat="42.20853" lon="9.01019">
        <ele>2106.87</ele>
        <time>2015-09-12T07:11:02Z</time>
      </trkpt>
      <trkpt lat="42.2085" lon="9.01028">
        <ele>2107.35</ele>
        <time>2015-09-12T07:11:11Z</time>
      </trkpt>
      <trkpt lat="42.20848" lon="9.01037">
        <ele>2107.83</ele>
        <time>2015-09-12T07:11:19Z</time>
      </trkpt>
      <trkpt lat="42.20849" lon="9.01047">
        <ele>2106.87</ele>
        <time>2015-09-12T07:11:26Z</time>
      </trkpt>
      <trkpt lat="42.20848" lon="9.01054">
        <ele>2106.87</ele>
        <time>2015-09-12T07:11:31Z</time>
      </trkpt>
      <trkpt lat="42.2085" lon="9.01059">
        <ele>2106.39</ele>
        <time>2015-09-12T07:11:35Z</time>
      </trkpt>
      <trkpt lat="42.20851" lon="9.01062">
        <ele>2106.87</ele>
        <time>2015-09-12T07:11:37Z</time>
      </trkpt>
      <trkpt lat="42.20851" lon="9.01066">
        <ele>2105.91</ele>
        <time>2015-09-12T07:11:40Z</time>
      </trkpt>
      <trkpt lat="42.20853" lon="9.0107">
        <ele>2104.94</ele>
        <time>2015-09-12T07:11:45Z</time>
      </trkpt>
      <trkpt lat="42.20852" lon="9.01076">
        <ele>2104.46</ele>
        <time>2015-09-12T07:11:56Z</time>
      </trkpt>
      <trkpt lat="42.20853" lon="9.0108">
        <ele>2104.46</ele>
        <time>2015-09-12T07:12:04Z</time>
      </trkpt>
      <trkpt lat="42.20853" lon="9.01084">
        <ele>2104.94</ele>
        <time>2015-09-12T07:12:08Z</time>
      </trkpt>
      <trkpt lat="42.20852" lon="9.0109">
        <ele>2105.91</ele>
        <time>2015-09-12T07:12:14Z</time>
      </trkpt>
      <trkpt lat="42.20855" lon="9.01094">
        <ele>2105.42</ele>
        <time>2015-09-12T07:12:20Z</time>
      </trkpt>
      <trkpt lat="42.20855" lon="9.01099">
        <ele>2104.94</ele>
        <time>2015-09-12T07:12:24Z</time>
      </trkpt>
      <trkpt lat="42.20855" lon="9.01103">
        <ele>2104.46</ele>
        <time>2015-09-12T07:12:37Z</time>
      </trkpt>
      <trkpt lat="42.20852" lon="9.01104">
        <ele>2103.5</ele>
        <time>2015-09-12T07:12:49Z</time>
      </trkpt>
      <trkpt lat="42.2085" lon="9.01104">
        <ele>2103.02</ele>
        <time>2015-09-12T07:13:02Z</time>
      </trkpt>
      <trkpt lat="42.20849" lon="9.01103">
        <ele>2101.58</ele>
        <time>2015-09-12T07:13:13Z</time>
      </trkpt>
      <trkpt lat="42.20848" lon="9.01106">
        <ele>2099.66</ele>
        <time>2015-09-12T07:13:25Z</time>
      </trkpt>
      <trkpt lat="42.20847" lon="9.01108">
        <ele>2097.73</ele>
        <time>2015-09-12T07:13:38Z</time>
      </trkpt>
      <trkpt lat="42.20848" lon="9.01108">
        <ele>2095.81</ele>
        <time>2015-09-12T07:13:50Z</time>
      </trkpt>
      <trkpt lat="42.20847" lon="9.0111">
        <ele>2094.85</ele>
        <time>2015-09-12T07:13:58Z</time>
      </trkpt>
      <trkpt lat="42.20848" lon="9.01112">
        <ele>2092.93</ele>
        <time>2015-09-12T07:14:10Z</time>
      </trkpt>
      <trkpt lat="42.20848" lon="9.01114">
        <ele>2091</ele>
        <time>2015-09-12T07:14:22Z</time>
      </trkpt>
      <trkpt lat="42.20848" lon="9.01115">
        <ele>2089.08</ele>
        <time>2015-09-12T07:14:33Z</time>
      </trkpt>
      <trkpt lat="42.20848" lon="9.01117">
        <ele>2087.16</ele>
        <time>2015-09-12T07:14:45Z</time>
      </trkpt>
      <trkpt lat="42.20847" lon="9.01122">
        <ele>2086.68</ele>
        <time>2015-09-12T07:15:02Z</time>
      </trkpt>
      <trkpt lat="42.20845" lon="9.01125">
        <ele>2085.24</ele>
        <time>2015-09-12T07:15:10Z</time>
      </trkpt>
      <trkpt lat="42.20843" lon="9.01134">
        <ele>2085.72</ele>
        <time>2015-09-12T07:15:23Z</time>
      </trkpt>
      <trkpt lat="42.20841" lon="9.01135">
        <ele>2087.16</ele>
        <time>2015-09-12T07:15:36Z</time>
      </trkpt>
      <trkpt lat="42.20838" lon="9.01137">
        <ele>2087.64</ele>
        <time>2015-09-12T07:15:44Z</time>
      </trkpt>
      <trkpt lat="42.20836" lon="9.01138">
        <ele>2088.6</ele>
        <time>2015-09-12T07:15:46Z</time>
      </trkpt>
      <trkpt lat="42.20832" lon="9.01141">
        <ele>2088.6</ele>
        <time>2015-09-12T07:15:57Z</time>
      </trkpt>
      <trkpt lat="42.20828" lon="9.01143">
        <ele>2089.08</ele>
        <time>2015-09-12T07:16:08Z</time>
      </trkpt>
      <trkpt lat="42.2083" lon="9.01149">
        <ele>2090.52</ele>
        <time>2015-09-12T07:16:19Z</time>
      </trkpt>
      <trkpt lat="42.2083" lon="9.01149">
        <ele>2090.52</ele>
        <time>2015-09-12T07:16:20Z</time>
      </trkpt>
      <trkpt lat="42.2083" lon="9.01152">
        <ele>2090.52</ele>
        <time>2015-09-12T07:16:32Z</time>
      </trkpt>
      <trkpt lat="42.20829" lon="9.01154">
        <ele>2090.52</ele>
        <time>2015-09-12T07:16:37Z</time>
      </trkpt>
      <trkpt lat="42.20826" lon="9.01158">
        <ele>2091</ele>
        <time>2015-09-12T07:16:41Z</time>
      </trkpt>
      <trkpt lat="42.20822" lon="9.01168">
        <ele>2091</ele>
        <time>2015-09-12T07:16:54Z</time>
      </trkpt>
      <trkpt lat="42.20823" lon="9.01171">
        <ele>2090.52</ele>
        <time>2015-09-12T07:17:10Z</time>
      </trkpt>
      <trkpt lat="42.20822" lon="9.01174">
        <ele>2089.08</ele>
        <time>2015-09-12T07:17:22Z</time>
      </trkpt>
      <trkpt lat="42.2082" lon="9.01172">
        <ele>2088.6</ele>
        <time>2015-09-12T07:17:32Z</time>
      </trkpt>
      <trkpt lat="42.2082" lon="9.01174">
        <ele>2089.08</ele>
        <time>2015-09-12T07:18:07Z</time>
      </trkpt>
      <trkpt lat="42.20821" lon="9.01176">
        <ele>2088.6</ele>
        <time>2015-09-12T07:18:13Z</time>
      </trkpt>
      <trkpt lat="42.20823" lon="9.01185">
        <ele>2090.04</ele>
        <time>2015-09-12T07:18:24Z</time>
      </trkpt>
      <trkpt lat="42.20824" lon="9.01193">
        <ele>2090.52</ele>
        <time>2015-09-12T07:18:36Z</time>
      </trkpt>
      <trkpt lat="42.20822" lon="9.01197">
        <ele>2089.56</ele>
        <time>2015-09-12T07:18:52Z</time>
      </trkpt>
      <trkpt lat="42.20821" lon="9.01198">
        <ele>2089.08</ele>
        <time>2015-09-12T07:18:56Z</time>
      </trkpt>
      <trkpt lat="42.20818" lon="9.01203">
        <ele>2087.16</ele>
        <time>2015-09-12T07:19:08Z</time>
      </trkpt>
      <trkpt lat="42.20817" lon="9.01209">
        <ele>2084.76</ele>
        <time>2015-09-12T07:19:20Z</time>
      </trkpt>
      <trkpt lat="42.20816" lon="9.01214">
        <ele>2083.31</ele>
        <time>2015-09-12T07:19:28Z</time>
      </trkpt>
      <trkpt lat="42.20814" lon="9.01219">
        <ele>2080.43</ele>
        <time>2015-09-12T07:19:41Z</time>
      </trkpt>
      <trkpt lat="42.20814" lon="9.01228">
        <ele>2078.03</ele>
        <time>2015-09-12T07:19:54Z</time>
      </trkpt>
      <trkpt lat="42.20812" lon="9.01233">
        <ele>2075.62</ele>
        <time>2015-09-12T07:20:05Z</time>
      </trkpt>
      <trkpt lat="42.20811" lon="9.01238">
        <ele>2074.18</ele>
        <time>2015-09-12T07:20:17Z</time>
      </trkpt>
      <trkpt lat="42.20811" lon="9.01243">
        <ele>2072.74</ele>
        <time>2015-09-12T07:20:28Z</time>
      </trkpt>
      <trkpt lat="42.2081" lon="9.01244">
        <ele>2071.78</ele>
        <time>2015-09-12T07:20:40Z</time>
      </trkpt>
      <trkpt lat="42.20807" lon="9.01249">
        <ele>2068.89</ele>
        <time>2015-09-12T07:20:53Z</time>
      </trkpt>
      <trkpt lat="42.20806" lon="9.01251">
        <ele>2068.89</ele>
        <time>2015-09-12T07:20:56Z</time>
      </trkpt>
      <trkpt lat="42.20805" lon="9.01255">
        <ele>2068.41</ele>
        <time>2015-09-12T07:21:09Z</time>
      </trkpt>
      <trkpt lat="42.20807" lon="9.01258">
        <ele>2069.86</ele>
        <time>2015-09-12T07:21:20Z</time>
      </trkpt>
      <trkpt lat="42.20809" lon="9.01264">
        <ele>2070.82</ele>
        <time>2015-09-12T07:21:31Z</time>
      </trkpt>
      <trkpt lat="42.2081" lon="9.01264">
        <ele>2070.82</ele>
        <time>2015-09-12T07:21:43Z</time>
      </trkpt>
      <trkpt lat="42.20815" lon="9.01266">
        <ele>2073.22</ele>
        <time>2015-09-12T07:21:53Z</time>
      </trkpt>
      <trkpt lat="42.20817" lon="9.01269">
        <ele>2075.62</ele>
        <time>2015-09-12T07:22:04Z</time>
      </trkpt>
      <trkpt lat="42.20819" lon="9.01271">
        <ele>2077.55</ele>
        <time>2015-09-12T07:22:14Z</time>
      </trkpt>
      <trkpt lat="42.20819" lon="9.01271">
        <ele>2078.51</ele>
        <time>2015-09-12T07:22:22Z</time>
      </trkpt>
      <trkpt lat="42.20819" lon="9.01273">
        <ele>2078.51</ele>
        <time>2015-09-12T07:22:25Z</time>
      </trkpt>
      <trkpt lat="42.20816" lon="9.01277">
        <ele>2077.55</ele>
        <time>2015-09-12T07:22:30Z</time>
      </trkpt>
      <trkpt lat="42.20817" lon="9.01288">
        <ele>2078.03</ele>
        <time>2015-09-12T07:22:43Z</time>
      </trkpt>
      <trkpt lat="42.20817" lon="9.01295">
        <ele>2077.07</ele>
        <time>2015-09-12T07:22:53Z</time>
      </trkpt>
      <trkpt lat="42.20817" lon="9.01299">
        <ele>2078.51</ele>
        <time>2015-09-12T07:23:09Z</time>
      </trkpt>
      <trkpt lat="42.20815" lon="9.0131">
        <ele>2078.51</ele>
        <time>2015-09-12T07:23:22Z</time>
      </trkpt>
      <trkpt lat="42.20814" lon="9.01312">
        <ele>2078.99</ele>
        <time>2015-09-12T07:23:37Z</time>
      </trkpt>
      <trkpt lat="42.20812" lon="9.0132">
        <ele>2077.55</ele>
        <time>2015-09-12T07:23:50Z</time>
      </trkpt>
      <trkpt lat="42.2081" lon="9.01324">
        <ele>2077.55</ele>
        <time>2015-09-12T07:24:04Z</time>
      </trkpt>
      <trkpt lat="42.20809" lon="9.01329">
        <ele>2076.1</ele>
        <time>2015-09-12T07:24:17Z</time>
      </trkpt>
      <trkpt lat="42.20808" lon="9.01332">
        <ele>2076.59</ele>
        <time>2015-09-12T07:24:23Z</time>
      </trkpt>
      <trkpt lat="42.20805" lon="9.01347">
        <ele>2076.59</ele>
        <time>2015-09-12T07:24:35Z</time>
      </trkpt>
      <trkpt lat="42.20802" lon="9.01351">
        <ele>2076.59</ele>
        <time>2015-09-12T07:24:40Z</time>
      </trkpt>
      <trkpt lat="42.20799" lon="9.01361">
        <ele>2077.07</ele>
        <time>2015-09-12T07:24:49Z</time>
      </trkpt>
      <trkpt lat="42.20797" lon="9.01367">
        <ele>2076.59</ele>
        <time>2015-09-12T07:24:56Z</time>
      </trkpt>
      <trkpt lat="42.20788" lon="9.01377">
        <ele>2077.07</ele>
        <time>2015-09-12T07:25:09Z</time>
      </trkpt>
      <trkpt lat="42.20785" lon="9.01388">
        <ele>2077.55</ele>
        <time>2015-09-12T07:25:20Z</time>
      </trkpt>
      <trkpt lat="42.20784" lon="9.01391">
        <ele>2077.55</ele>
        <time>2015-09-12T07:25:24Z</time>
      </trkpt>
      <trkpt lat="42.20782" lon="9.01399">
        <ele>2078.51</ele>
        <time>2015-09-12T07:25:31Z</time>
      </trkpt>
      <trkpt lat="42.20779" lon="9.014">
        <ele>2078.51</ele>
        <time>2015-09-12T07:25:34Z</time>
      </trkpt>
      <trkpt lat="42.20775" lon="9.01412">
        <ele>2079.95</ele>
        <time>2015-09-12T07:25:47Z</time>
      </trkpt>
      <trkpt lat="42.20772" lon="9.01416">
        <ele>2080.43</ele>
        <time>2015-09-12T07:25:54Z</time>
      </trkpt>
      <trkpt lat="42.20769" lon="9.01423">
        <ele>2078.99</ele>
        <time>2015-09-12T07:26:04Z</time>
      </trkpt>
      <trkpt lat="42.20769" lon="9.01425">
        <ele>2079.47</ele>
        <time>2015-09-12T07:26:06Z</time>
      </trkpt>
      <trkpt lat="42.20766" lon="9.01428">
        <ele>2078.51</ele>
        <time>2015-09-12T07:26:10Z</time>
      </trkpt>
      <trkpt lat="42.20761" lon="9.01436">
        <ele>2078.03</ele>
        <time>2015-09-12T07:26:19Z</time>
      </trkpt>
      <trkpt lat="42.20756" lon="9.01442">
        <ele>2078.51</ele>
        <time>2015-09-12T07:26:28Z</time>
      </trkpt>
      <trkpt lat="42.20749" lon="9.01448">
        <ele>2078.03</ele>
        <time>2015-09-12T07:26:39Z</time>
      </trkpt>
      <trkpt lat="42.20748" lon="9.01451">
        <ele>2078.03</ele>
        <time>2015-09-12T07:26:42Z</time>
      </trkpt>
      <trkpt lat="42.20747" lon="9.01456">
        <ele>2078.03</ele>
        <time>2015-09-12T07:26:46Z</time>
      </trkpt>
      <trkpt lat="42.20745" lon="9.01463">
        <ele>2078.03</ele>
        <time>2015-09-12T07:26:53Z</time>
      </trkpt>
      <trkpt lat="42.20745" lon="9.01467">
        <ele>2078.99</ele>
        <time>2015-09-12T07:26:56Z</time>
      </trkpt>
      <trkpt lat="42.20742" lon="9.01479">
        <ele>2080.91</ele>
        <time>2015-09-12T07:27:10Z</time>
      </trkpt>
      <trkpt lat="42.20736" lon="9.01486">
        <ele>2078.99</ele>
        <time>2015-09-12T07:27:23Z</time>
      </trkpt>
      <trkpt lat="42.20735" lon="9.01488">
        <ele>2078.99</ele>
        <time>2015-09-12T07:27:39Z</time>
      </trkpt>
      <trkpt lat="42.20734" lon="9.01487">
        <ele>2077.55</ele>
        <time>2015-09-12T07:27:53Z</time>
      </trkpt>
      <trkpt lat="42.20734" lon="9.01487">
        <ele>2077.55</ele>
        <time>2015-09-12T07:28:16Z</time>
      </trkpt>
      <trkpt lat="42.20734" lon="9.01487">
        <ele>2078.03</ele>
        <time>2015-09-12T07:28:39Z</time>
      </trkpt>
      <trkpt lat="42.20734" lon="9.01487">
        <ele>2077.55</ele>
        <time>2015-09-12T07:29:05Z</time>
      </trkpt>
      <trkpt lat="42.20734" lon="9.01487">
        <ele>2077.55</ele>
        <time>2015-09-12T07:29:31Z</time>
      </trkpt>
      <trkpt lat="42.20734" lon="9.01487">
        <ele>2078.03</ele>
        <time>2015-09-12T07:30:02Z</time>
      </trkpt>
      <trkpt lat="42.20734" lon="9.01487">
        <ele>2078.03</ele>
        <time>2015-09-12T07:30:26Z</time>
      </trkpt>
      <trkpt lat="42.20734" lon="9.01487">
        <ele>2078.03</ele>
        <time>2015-09-12T07:30:57Z</time>
      </trkpt>
      <trkpt lat="42.20729" lon="9.0149">
        <ele>2076.1</ele>
        <time>2015-09-12T07:31:10Z</time>
      </trkpt>
      <trkpt lat="42.20728" lon="9.01491">
        <ele>2075.62</ele>
        <time>2015-09-12T07:31:12Z</time>
      </trkpt>
      <trkpt lat="42.20727" lon="9.01495">
        <ele>2074.66</ele>
        <time>2015-09-12T07:31:15Z</time>
      </trkpt>
      <trkpt lat="42.20723" lon="9.01505">
        <ele>2074.18</ele>
        <time>2015-09-12T07:31:26Z</time>
      </trkpt>
      <trkpt lat="42.20722" lon="9.01507">
        <ele>2074.18</ele>
        <time>2015-09-12T07:31:29Z</time>
      </trkpt>
      <trkpt lat="42.2072" lon="9.0151">
        <ele>2073.22</ele>
        <time>2015-09-12T07:31:33Z</time>
      </trkpt>
      <trkpt lat="42.20717" lon="9.01509">
        <ele>2071.3</ele>
        <time>2015-09-12T07:31:41Z</time>
      </trkpt>
      <trkpt lat="42.20715" lon="9.01512">
        <ele>2070.82</ele>
        <time>2015-09-12T07:31:44Z</time>
      </trkpt>
      <trkpt lat="42.20709" lon="9.01519">
        <ele>2070.34</ele>
        <time>2015-09-12T07:31:50Z</time>
      </trkpt>
      <trkpt lat="42.20703" lon="9.01527">
        <ele>2069.38</ele>
        <time>2015-09-12T07:31:59Z</time>
      </trkpt>
      <trkpt lat="42.20694" lon="9.01539">
        <ele>2069.38</ele>
        <time>2015-09-12T07:32:12Z</time>
      </trkpt>
      <trkpt lat="42.20686" lon="9.0155">
        <ele>2067.45</ele>
        <time>2015-09-12T07:32:25Z</time>
      </trkpt>
      <trkpt lat="42.20686" lon="9.0155">
        <ele>2066.97</ele>
        <time>2015-09-12T07:32:26Z</time>
      </trkpt>
      <trkpt lat="42.20679" lon="9.01557">
        <ele>2065.05</ele>
        <time>2015-09-12T07:32:35Z</time>
      </trkpt>
      <trkpt lat="42.20678" lon="9.01559">
        <ele>2064.57</ele>
        <time>2015-09-12T07:32:37Z</time>
      </trkpt>
      <trkpt lat="42.20677" lon="9.01564">
        <ele>2064.09</ele>
        <time>2015-09-12T07:32:42Z</time>
      </trkpt>
      <trkpt lat="42.20676" lon="9.01569">
        <ele>2063.61</ele>
        <time>2015-09-12T07:32:54Z</time>
      </trkpt>
      <trkpt lat="42.20673" lon="9.01572">
        <ele>2063.13</ele>
        <time>2015-09-12T07:33:13Z</time>
      </trkpt>
      <trkpt lat="42.20674" lon="9.01574">
        <ele>2063.13</ele>
        <time>2015-09-12T07:33:27Z</time>
      </trkpt>
      <trkpt lat="42.20674" lon="9.01577">
        <ele>2062.17</ele>
        <time>2015-09-12T07:33:39Z</time>
      </trkpt>
      <trkpt lat="42.20673" lon="9.01576">
        <ele>2062.17</ele>
        <time>2015-09-12T07:33:50Z</time>
      </trkpt>
      <trkpt lat="42.20673" lon="9.01575">
        <ele>2062.65</ele>
        <time>2015-09-12T07:33:54Z</time>
      </trkpt>
      <trkpt lat="42.20674" lon="9.01575">
        <ele>2062.17</ele>
        <time>2015-09-12T07:33:56Z</time>
      </trkpt>
      <trkpt lat="42.20675" lon="9.01573">
        <ele>2062.17</ele>
        <time>2015-09-12T07:33:58Z</time>
      </trkpt>
      <trkpt lat="42.20667" lon="9.01575">
        <ele>2061.2</ele>
        <time>2015-09-12T07:34:09Z</time>
      </trkpt>
      <trkpt lat="42.20666" lon="9.01577">
        <ele>2060.24</ele>
        <time>2015-09-12T07:34:12Z</time>
      </trkpt>
      <trkpt lat="42.2066" lon="9.01582">
        <ele>2058.32</ele>
        <time>2015-09-12T07:34:22Z</time>
      </trkpt>
      <trkpt lat="42.20657" lon="9.01584">
        <ele>2057.84</ele>
        <time>2015-09-12T07:34:26Z</time>
      </trkpt>
      <trkpt lat="42.20656" lon="9.01586">
        <ele>2056.88</ele>
        <time>2015-09-12T07:34:28Z</time>
      </trkpt>
      <trkpt lat="42.20653" lon="9.01588">
        <ele>2056.4</ele>
        <time>2015-09-12T07:34:31Z</time>
      </trkpt>
      <trkpt lat="42.20647" lon="9.01593">
        <ele>2053.99</ele>
        <time>2015-09-12T07:34:43Z</time>
      </trkpt>
      <trkpt lat="42.20641" lon="9.01592">
        <ele>2050.63</ele>
        <time>2015-09-12T07:34:54Z</time>
      </trkpt>
      <trkpt lat="42.20635" lon="9.01593">
        <ele>2047.75</ele>
        <time>2015-09-12T07:35:06Z</time>
      </trkpt>
      <trkpt lat="42.20628" lon="9.01596">
        <ele>2045.82</ele>
        <time>2015-09-12T07:35:16Z</time>
      </trkpt>
      <trkpt lat="42.20618" lon="9.01602">
        <ele>2043.42</ele>
        <time>2015-09-12T07:35:29Z</time>
      </trkpt>
      <trkpt lat="42.20614" lon="9.01607">
        <ele>2041.98</ele>
        <time>2015-09-12T07:35:40Z</time>
      </trkpt>
      <trkpt lat="42.20613" lon="9.01608">
        <ele>2040.54</ele>
        <time>2015-09-12T07:35:42Z</time>
      </trkpt>
      <trkpt lat="42.20614" lon="9.01622">
        <ele>2038.13</ele>
        <time>2015-09-12T07:35:57Z</time>
      </trkpt>
      <trkpt lat="42.20614" lon="9.01623">
        <ele>2038.13</ele>
        <time>2015-09-12T07:35:58Z</time>
      </trkpt>
      <trkpt lat="42.20606" lon="9.01638">
        <ele>2038.13</ele>
        <time>2015-09-12T07:36:09Z</time>
      </trkpt>
      <trkpt lat="42.20602" lon="9.01642">
        <ele>2037.65</ele>
        <time>2015-09-12T07:36:14Z</time>
      </trkpt>
      <trkpt lat="42.20595" lon="9.01653">
        <ele>2036.21</ele>
        <time>2015-09-12T07:36:28Z</time>
      </trkpt>
      <trkpt lat="42.20595" lon="9.01657">
        <ele>2035.25</ele>
        <time>2015-09-12T07:36:31Z</time>
      </trkpt>
      <trkpt lat="42.20588" lon="9.01666">
        <ele>2034.29</ele>
        <time>2015-09-12T07:36:40Z</time>
      </trkpt>
      <trkpt lat="42.20579" lon="9.01674">
        <ele>2033.33</ele>
        <time>2015-09-12T07:36:53Z</time>
      </trkpt>
      <trkpt lat="42.20579" lon="9.01674">
        <ele>2032.84</ele>
        <time>2015-09-12T07:36:54Z</time>
      </trkpt>
      <trkpt lat="42.20574" lon="9.01675">
        <ele>2031.4</ele>
        <time>2015-09-12T07:36:59Z</time>
      </trkpt>
      <trkpt lat="42.20562" lon="9.0168">
        <ele>2029.48</ele>
        <time>2015-09-12T07:37:10Z</time>
      </trkpt>
      <trkpt lat="42.20559" lon="9.01692">
        <ele>2030.44</ele>
        <time>2015-09-12T07:37:23Z</time>
      </trkpt>
      <trkpt lat="42.2056" lon="9.01696">
        <ele>2031.88</ele>
        <time>2015-09-12T07:37:28Z</time>
      </trkpt>
      <trkpt lat="42.20559" lon="9.01698">
        <ele>2031.88</ele>
        <time>2015-09-12T07:37:30Z</time>
      </trkpt>
      <trkpt lat="42.20558" lon="9.01709">
        <ele>2034.77</ele>
        <time>2015-09-12T07:37:40Z</time>
      </trkpt>
      <trkpt lat="42.20554" lon="9.01718">
        <ele>2034.77</ele>
        <time>2015-09-12T07:37:49Z</time>
      </trkpt>
      <trkpt lat="42.20553" lon="9.0172">
        <ele>2034.77</ele>
        <time>2015-09-12T07:37:51Z</time>
      </trkpt>
      <trkpt lat="42.2055" lon="9.01723">
        <ele>2035.25</ele>
        <time>2015-09-12T07:37:54Z</time>
      </trkpt>
      <trkpt lat="42.20539" lon="9.01734">
        <ele>2034.29</ele>
        <time>2015-09-12T07:38:05Z</time>
      </trkpt>
      <trkpt lat="42.20536" lon="9.01741">
        <ele>2036.21</ele>
        <time>2015-09-12T07:38:13Z</time>
      </trkpt>
      <trkpt lat="42.20535" lon="9.01743">
        <ele>2036.21</ele>
        <time>2015-09-12T07:38:16Z</time>
      </trkpt>
      <trkpt lat="42.2053" lon="9.01748">
        <ele>2035.73</ele>
        <time>2015-09-12T07:38:22Z</time>
      </trkpt>
      <trkpt lat="42.20527" lon="9.01751">
        <ele>2034.29</ele>
        <time>2015-09-12T07:38:35Z</time>
      </trkpt>
      <trkpt lat="42.20523" lon="9.01754">
        <ele>2030.92</ele>
        <time>2015-09-12T07:38:47Z</time>
      </trkpt>
      <trkpt lat="42.20519" lon="9.01755">
        <ele>2031.88</ele>
        <time>2015-09-12T07:38:52Z</time>
      </trkpt>
      <trkpt lat="42.20519" lon="9.01762">
        <ele>2034.29</ele>
        <time>2015-09-12T07:39:05Z</time>
      </trkpt>
      <trkpt lat="42.20516" lon="9.01768">
        <ele>2036.21</ele>
        <time>2015-09-12T07:39:17Z</time>
      </trkpt>
      <trkpt lat="42.20511" lon="9.01776">
        <ele>2037.65</ele>
        <time>2015-09-12T07:39:25Z</time>
      </trkpt>
      <trkpt lat="42.2051" lon="9.01779">
        <ele>2037.65</ele>
        <time>2015-09-12T07:39:29Z</time>
      </trkpt>
      <trkpt lat="42.20507" lon="9.01785">
        <ele>2038.13</ele>
        <time>2015-09-12T07:39:34Z</time>
      </trkpt>
      <trkpt lat="42.205" lon="9.0179">
        <ele>2038.13</ele>
        <time>2015-09-12T07:39:41Z</time>
      </trkpt>
      <trkpt lat="42.20498" lon="9.01793">
        <ele>2037.65</ele>
        <time>2015-09-12T07:39:44Z</time>
      </trkpt>
      <trkpt lat="42.2049" lon="9.01811">
        <ele>2039.09</ele>
        <time>2015-09-12T07:39:59Z</time>
      </trkpt>
      <trkpt lat="42.20481" lon="9.01827">
        <ele>2040.54</ele>
        <time>2015-09-12T07:40:12Z</time>
      </trkpt>
      <trkpt lat="42.20483" lon="9.01831">
        <ele>2040.54</ele>
        <time>2015-09-12T07:40:15Z</time>
      </trkpt>
      <trkpt lat="42.20482" lon="9.01835">
        <ele>2040.54</ele>
        <time>2015-09-12T07:40:28Z</time>
      </trkpt>
      <trkpt lat="42.20481" lon="9.01835">
        <ele>2040.54</ele>
        <time>2015-09-12T07:40:33Z</time>
      </trkpt>
      <trkpt lat="42.20474" lon="9.01837">
        <ele>2041.5</ele>
        <time>2015-09-12T07:40:44Z</time>
      </trkpt>
      <trkpt lat="42.20473" lon="9.01838">
        <ele>2041.5</ele>
        <time>2015-09-12T07:40:59Z</time>
      </trkpt>
      <trkpt lat="42.20472" lon="9.01838">
        <ele>2041.02</ele>
        <time>2015-09-12T07:41:13Z</time>
      </trkpt>
      <trkpt lat="42.20473" lon="9.01837">
        <ele>2041.02</ele>
        <time>2015-09-12T07:41:37Z</time>
      </trkpt>
      <trkpt lat="42.20474" lon="9.01837">
        <ele>2041.5</ele>
        <time>2015-09-12T07:41:57Z</time>
      </trkpt>
      <trkpt lat="42.20474" lon="9.01837">
        <ele>2041.5</ele>
        <time>2015-09-12T07:42:17Z</time>
      </trkpt>
      <trkpt lat="42.20475" lon="9.01837">
        <ele>2041.98</ele>
        <time>2015-09-12T07:42:43Z</time>
      </trkpt>
      <trkpt lat="42.20475" lon="9.0184">
        <ele>2041.98</ele>
        <time>2015-09-12T07:43:02Z</time>
      </trkpt>
      <trkpt lat="42.20474" lon="9.01843">
        <ele>2042.46</ele>
        <time>2015-09-12T07:43:05Z</time>
      </trkpt>
      <trkpt lat="42.20466" lon="9.01854">
        <ele>2041.02</ele>
        <time>2015-09-12T07:43:16Z</time>
      </trkpt>
      <trkpt lat="42.20463" lon="9.01861">
        <ele>2040.05</ele>
        <time>2015-09-12T07:43:22Z</time>
      </trkpt>
      <trkpt lat="42.20461" lon="9.01867">
        <ele>2039.57</ele>
        <time>2015-09-12T07:43:27Z</time>
      </trkpt>
      <trkpt lat="42.20459" lon="9.01876">
        <ele>2040.05</ele>
        <time>2015-09-12T07:43:34Z</time>
      </trkpt>
      <trkpt lat="42.20455" lon="9.01893">
        <ele>2040.05</ele>
        <time>2015-09-12T07:43:45Z</time>
      </trkpt>
      <trkpt lat="42.20454" lon="9.01895">
        <ele>2039.57</ele>
        <time>2015-09-12T07:43:47Z</time>
      </trkpt>
      <trkpt lat="42.2045" lon="9.01908">
        <ele>2039.57</ele>
        <time>2015-09-12T07:43:55Z</time>
      </trkpt>
      <trkpt lat="42.20448" lon="9.01919">
        <ele>2039.57</ele>
        <time>2015-09-12T07:44:02Z</time>
      </trkpt>
      <trkpt lat="42.20448" lon="9.01932">
        <ele>2040.54</ele>
        <time>2015-09-12T07:44:10Z</time>
      </trkpt>
      <trkpt lat="42.20443" lon="9.01937">
        <ele>2040.05</ele>
        <time>2015-09-12T07:44:15Z</time>
      </trkpt>
      <trkpt lat="42.20441" lon="9.01943">
        <ele>2038.61</ele>
        <time>2015-09-12T07:44:20Z</time>
      </trkpt>
      <trkpt lat="42.20438" lon="9.01954">
        <ele>2037.65</ele>
        <time>2015-09-12T07:44:28Z</time>
      </trkpt>
      <trkpt lat="42.20436" lon="9.01957">
        <ele>2037.17</ele>
        <time>2015-09-12T07:44:31Z</time>
      </trkpt>
      <trkpt lat="42.20431" lon="9.01973">
        <ele>2033.81</ele>
        <time>2015-09-12T07:44:43Z</time>
      </trkpt>
      <trkpt lat="42.20425" lon="9.0199">
        <ele>2031.4</ele>
        <time>2015-09-12T07:44:57Z</time>
      </trkpt>
      <trkpt lat="42.20421" lon="9.02002">
        <ele>2030.92</ele>
        <time>2015-09-12T07:45:09Z</time>
      </trkpt>
      <trkpt lat="42.20418" lon="9.02012">
        <ele>2029</ele>
        <time>2015-09-12T07:45:22Z</time>
      </trkpt>
      <trkpt lat="42.20415" lon="9.02021">
        <ele>2028.04</ele>
        <time>2015-09-12T07:45:31Z</time>
      </trkpt>
      <trkpt lat="42.2041" lon="9.0203">
        <ele>2027.08</ele>
        <time>2015-09-12T07:45:40Z</time>
      </trkpt>
      <trkpt lat="42.20409" lon="9.02033">
        <ele>2027.08</ele>
        <time>2015-09-12T07:45:43Z</time>
      </trkpt>
      <trkpt lat="42.20409" lon="9.02038">
        <ele>2026.12</ele>
        <time>2015-09-12T07:45:50Z</time>
      </trkpt>
      <trkpt lat="42.20407" lon="9.02036">
        <ele>2026.12</ele>
        <time>2015-09-12T07:45:52Z</time>
      </trkpt>
      <trkpt lat="42.20403" lon="9.0205">
        <ele>2024.19</ele>
        <time>2015-09-12T07:46:05Z</time>
      </trkpt>
      <trkpt lat="42.20403" lon="9.02055">
        <ele>2025.15</ele>
        <time>2015-09-12T07:46:11Z</time>
      </trkpt>
      <trkpt lat="42.20402" lon="9.02059">
        <ele>2024.67</ele>
        <time>2015-09-12T07:46:14Z</time>
      </trkpt>
      <trkpt lat="42.20396" lon="9.02067">
        <ele>2024.67</ele>
        <time>2015-09-12T07:46:21Z</time>
      </trkpt>
      <trkpt lat="42.20391" lon="9.02086">
        <ele>2025.15</ele>
        <time>2015-09-12T07:46:36Z</time>
      </trkpt>
      <trkpt lat="42.20391" lon="9.02086">
        <ele>2025.64</ele>
        <time>2015-09-12T07:46:37Z</time>
      </trkpt>
      <trkpt lat="42.20391" lon="9.02089">
        <ele>2026.12</ele>
        <time>2015-09-12T07:46:39Z</time>
      </trkpt>
      <trkpt lat="42.20391" lon="9.02093">
        <ele>2027.08</ele>
        <time>2015-09-12T07:46:42Z</time>
      </trkpt>
      <trkpt lat="42.20388" lon="9.02098">
        <ele>2027.56</ele>
        <time>2015-09-12T07:46:47Z</time>
      </trkpt>
      <trkpt lat="42.20387" lon="9.02101">
        <ele>2027.56</ele>
        <time>2015-09-12T07:46:49Z</time>
      </trkpt>
      <trkpt lat="42.20389" lon="9.02115">
        <ele>2026.12</ele>
        <time>2015-09-12T07:47:02Z</time>
      </trkpt>
      <trkpt lat="42.20385" lon="9.02119">
        <ele>2026.12</ele>
        <time>2015-09-12T07:47:10Z</time>
      </trkpt>
      <trkpt lat="42.20376" lon="9.02125">
        <ele>2027.08</ele>
        <time>2015-09-12T07:47:22Z</time>
      </trkpt>
      <trkpt lat="42.20375" lon="9.02125">
        <ele>2029</ele>
        <time>2015-09-12T07:47:25Z</time>
      </trkpt>
      <trkpt lat="42.2037" lon="9.02127">
        <ele>2029</ele>
        <time>2015-09-12T07:47:38Z</time>
      </trkpt>
      <trkpt lat="42.20364" lon="9.02134">
        <ele>2028.52</ele>
        <time>2015-09-12T07:47:52Z</time>
      </trkpt>
      <trkpt lat="42.20361" lon="9.02143">
        <ele>2030.44</ele>
        <time>2015-09-12T07:48:03Z</time>
      </trkpt>
      <trkpt lat="42.20359" lon="9.02149">
        <ele>2031.88</ele>
        <time>2015-09-12T07:48:15Z</time>
      </trkpt>
      <trkpt lat="42.20356" lon="9.02149">
        <ele>2030.92</ele>
        <time>2015-09-12T07:48:19Z</time>
      </trkpt>
      <trkpt lat="42.20354" lon="9.02149">
        <ele>2030.44</ele>
        <time>2015-09-12T07:48:21Z</time>
      </trkpt>
      <trkpt lat="42.20347" lon="9.02156">
        <ele>2031.4</ele>
        <time>2015-09-12T07:48:31Z</time>
      </trkpt>
      <trkpt lat="42.20343" lon="9.02159">
        <ele>2031.88</ele>
        <time>2015-09-12T07:48:36Z</time>
      </trkpt>
      <trkpt lat="42.2034" lon="9.02161">
        <ele>2031.88</ele>
        <time>2015-09-12T07:48:39Z</time>
      </trkpt>
      <trkpt lat="42.20331" lon="9.0217">
        <ele>2032.84</ele>
        <time>2015-09-12T07:48:52Z</time>
      </trkpt>
      <trkpt lat="42.20321" lon="9.02175">
        <ele>2036.21</ele>
        <time>2015-09-12T07:49:08Z</time>
      </trkpt>
      <trkpt lat="42.20315" lon="9.02177">
        <ele>2038.13</ele>
        <time>2015-09-12T07:49:21Z</time>
      </trkpt>
      <trkpt lat="42.20311" lon="9.02182">
        <ele>2040.54</ele>
        <time>2015-09-12T07:49:34Z</time>
      </trkpt>
      <trkpt lat="42.20304" lon="9.02185">
        <ele>2041.98</ele>
        <time>2015-09-12T07:49:46Z</time>
      </trkpt>
      <trkpt lat="42.20301" lon="9.02188">
        <ele>2044.38</ele>
        <time>2015-09-12T07:50:00Z</time>
      </trkpt>
      <trkpt lat="42.203" lon="9.02187">
        <ele>2042.46</ele>
        <time>2015-09-12T07:50:08Z</time>
      </trkpt>
      <trkpt lat="42.20302" lon="9.02188">
        <ele>2042.46</ele>
        <time>2015-09-12T07:50:18Z</time>
      </trkpt>
      <trkpt lat="42.20306" lon="9.02189">
        <ele>2043.42</ele>
        <time>2015-09-12T07:50:29Z</time>
      </trkpt>
      <trkpt lat="42.20307" lon="9.02192">
        <ele>2043.42</ele>
        <time>2015-09-12T07:50:33Z</time>
      </trkpt>
      <trkpt lat="42.20314" lon="9.02198">
        <ele>2044.86</ele>
        <time>2015-09-12T07:50:44Z</time>
      </trkpt>
      <trkpt lat="42.20317" lon="9.02207">
        <ele>2043.9</ele>
        <time>2015-09-12T07:50:53Z</time>
      </trkpt>
      <trkpt lat="42.20317" lon="9.02209">
        <ele>2043.9</ele>
        <time>2015-09-12T07:51:06Z</time>
      </trkpt>
      <trkpt lat="42.20319" lon="9.0221">
        <ele>2043.42</ele>
        <time>2015-09-12T07:51:25Z</time>
      </trkpt>
      <trkpt lat="42.2032" lon="9.02215">
        <ele>2041.5</ele>
        <time>2015-09-12T07:51:36Z</time>
      </trkpt>
      <trkpt lat="42.20322" lon="9.02221">
        <ele>2039.57</ele>
        <time>2015-09-12T07:51:47Z</time>
      </trkpt>
      <trkpt lat="42.20323" lon="9.02225">
        <ele>2038.61</ele>
        <time>2015-09-12T07:51:52Z</time>
      </trkpt>
      <trkpt lat="42.2032" lon="9.02226">
        <ele>2037.65</ele>
        <time>2015-09-12T07:51:56Z</time>
      </trkpt>
      <trkpt lat="42.2032" lon="9.02229">
        <ele>2037.17</ele>
        <time>2015-09-12T07:51:59Z</time>
      </trkpt>
      <trkpt lat="42.20322" lon="9.02231">
        <ele>2036.21</ele>
        <time>2015-09-12T07:52:02Z</time>
      </trkpt>
      <trkpt lat="42.20327" lon="9.02236">
        <ele>2035.73</ele>
        <time>2015-09-12T07:52:12Z</time>
      </trkpt>
      <trkpt lat="42.20331" lon="9.02243">
        <ele>2035.73</ele>
        <time>2015-09-12T07:52:20Z</time>
      </trkpt>
      <trkpt lat="42.20333" lon="9.02245">
        <ele>2035.73</ele>
        <time>2015-09-12T07:52:23Z</time>
      </trkpt>
      <trkpt lat="42.20334" lon="9.02248">
        <ele>2035.73</ele>
        <time>2015-09-12T07:52:25Z</time>
      </trkpt>
      <trkpt lat="42.20336" lon="9.02251">
        <ele>2035.73</ele>
        <time>2015-09-12T07:52:28Z</time>
      </trkpt>
      <trkpt lat="42.2034" lon="9.02261">
        <ele>2036.21</ele>
        <time>2015-09-12T07:52:36Z</time>
      </trkpt>
      <trkpt lat="42.20343" lon="9.02266">
        <ele>2036.69</ele>
        <time>2015-09-12T07:52:41Z</time>
      </trkpt>
      <trkpt lat="42.20353" lon="9.02278">
        <ele>2037.17</ele>
        <time>2015-09-12T07:52:56Z</time>
      </trkpt>
      <trkpt lat="42.20354" lon="9.02278">
        <ele>2037.65</ele>
        <time>2015-09-12T07:53:02Z</time>
      </trkpt>
      <trkpt lat="42.20356" lon="9.02287">
        <ele>2038.13</ele>
        <time>2015-09-12T07:53:15Z</time>
      </trkpt>
      <trkpt lat="42.20357" lon="9.02294">
        <ele>2038.61</ele>
        <time>2015-09-12T07:53:21Z</time>
      </trkpt>
      <trkpt lat="42.20362" lon="9.02306">
        <ele>2039.09</ele>
        <time>2015-09-12T07:53:33Z</time>
      </trkpt>
      <trkpt lat="42.20364" lon="9.0231">
        <ele>2038.61</ele>
        <time>2015-09-12T07:53:40Z</time>
      </trkpt>
      <trkpt lat="42.20361" lon="9.02318">
        <ele>2042.46</ele>
        <time>2015-09-12T07:53:53Z</time>
      </trkpt>
      <trkpt lat="42.20362" lon="9.02318">
        <ele>2041.98</ele>
        <time>2015-09-12T07:54:11Z</time>
      </trkpt>
      <trkpt lat="42.20362" lon="9.02317">
        <ele>2041.98</ele>
        <time>2015-09-12T07:54:32Z</time>
      </trkpt>
      <trkpt lat="42.20362" lon="9.02317">
        <ele>2041.98</ele>
        <time>2015-09-12T07:54:53Z</time>
      </trkpt>
      <trkpt lat="42.20362" lon="9.02319">
        <ele>2043.42</ele>
        <time>2015-09-12T07:55:12Z</time>
      </trkpt>
      <trkpt lat="42.20363" lon="9.0232">
        <ele>2043.42</ele>
        <time>2015-09-12T07:55:26Z</time>
      </trkpt>
      <trkpt lat="42.20361" lon="9.02324">
        <ele>2045.34</ele>
        <time>2015-09-12T07:55:36Z</time>
      </trkpt>
      <trkpt lat="42.20363" lon="9.02337">
        <ele>2047.75</ele>
        <time>2015-09-12T07:55:48Z</time>
      </trkpt>
      <trkpt lat="42.20365" lon="9.02348">
        <ele>2049.19</ele>
        <time>2015-09-12T07:56:01Z</time>
      </trkpt>
      <trkpt lat="42.20367" lon="9.0235">
        <ele>2048.71</ele>
        <time>2015-09-12T07:56:04Z</time>
      </trkpt>
      <trkpt lat="42.20374" lon="9.02348">
        <ele>2046.78</ele>
        <time>2015-09-12T07:56:11Z</time>
      </trkpt>
      <trkpt lat="42.20378" lon="9.02351">
        <ele>2044.86</ele>
        <time>2015-09-12T07:56:20Z</time>
      </trkpt>
      <trkpt lat="42.20386" lon="9.02353">
        <ele>2042.94</ele>
        <time>2015-09-12T07:56:27Z</time>
      </trkpt>
      <trkpt lat="42.20387" lon="9.02357">
        <ele>2042.94</ele>
        <time>2015-09-12T07:56:30Z</time>
      </trkpt>
      <trkpt lat="42.20383" lon="9.02357">
        <ele>2041.98</ele>
        <time>2015-09-12T07:56:41Z</time>
      </trkpt>
      <trkpt lat="42.20383" lon="9.02359">
        <ele>2040.54</ele>
        <time>2015-09-12T07:56:48Z</time>
      </trkpt>
      <trkpt lat="42.20389" lon="9.02366">
        <ele>2040.54</ele>
        <time>2015-09-12T07:56:59Z</time>
      </trkpt>
      <trkpt lat="42.20392" lon="9.02368">
        <ele>2041.02</ele>
        <time>2015-09-12T07:57:02Z</time>
      </trkpt>
      <trkpt lat="42.20394" lon="9.02369">
        <ele>2041.5</ele>
        <time>2015-09-12T07:57:04Z</time>
      </trkpt>
      <trkpt lat="42.20399" lon="9.02375">
        <ele>2043.42</ele>
        <time>2015-09-12T07:57:14Z</time>
      </trkpt>
      <trkpt lat="42.204" lon="9.02375">
        <ele>2043.42</ele>
        <time>2015-09-12T07:57:15Z</time>
      </trkpt>
      <trkpt lat="42.20405" lon="9.02377">
        <ele>2044.38</ele>
        <time>2015-09-12T07:57:20Z</time>
      </trkpt>
      <trkpt lat="42.20409" lon="9.02381">
        <ele>2044.86</ele>
        <time>2015-09-12T07:57:26Z</time>
      </trkpt>
      <trkpt lat="42.20414" lon="9.02386">
        <ele>2045.82</ele>
        <time>2015-09-12T07:57:32Z</time>
      </trkpt>
      <trkpt lat="42.20415" lon="9.02395">
        <ele>2047.75</ele>
        <time>2015-09-12T07:57:42Z</time>
      </trkpt>
      <trkpt lat="42.20418" lon="9.02396">
        <ele>2048.23</ele>
        <time>2015-09-12T07:57:45Z</time>
      </trkpt>
      <trkpt lat="42.2042" lon="9.02397">
        <ele>2047.75</ele>
        <time>2015-09-12T07:57:47Z</time>
      </trkpt>
      <trkpt lat="42.20429" lon="9.0241">
        <ele>2048.23</ele>
        <time>2015-09-12T07:58:01Z</time>
      </trkpt>
      <trkpt lat="42.20435" lon="9.02419">
        <ele>2047.26</ele>
        <time>2015-09-12T07:58:10Z</time>
      </trkpt>
      <trkpt lat="42.20437" lon="9.02425">
        <ele>2048.71</ele>
        <time>2015-09-12T07:58:16Z</time>
      </trkpt>
      <trkpt lat="42.20439" lon="9.02426">
        <ele>2049.19</ele>
        <time>2015-09-12T07:58:19Z</time>
      </trkpt>
      <trkpt lat="42.20442" lon="9.02429">
        <ele>2049.19</ele>
        <time>2015-09-12T07:58:22Z</time>
      </trkpt>
      <trkpt lat="42.20445" lon="9.02432">
        <ele>2049.19</ele>
        <time>2015-09-12T07:58:26Z</time>
      </trkpt>
      <trkpt lat="42.20446" lon="9.02441">
        <ele>2051.59</ele>
        <time>2015-09-12T07:58:36Z</time>
      </trkpt>
      <trkpt lat="42.20455" lon="9.0245">
        <ele>2052.07</ele>
        <time>2015-09-12T07:58:48Z</time>
      </trkpt>
      <trkpt lat="42.20462" lon="9.0246">
        <ele>2053.03</ele>
        <time>2015-09-12T07:59:02Z</time>
      </trkpt>
      <trkpt lat="42.20463" lon="9.02461">
        <ele>2053.03</ele>
        <time>2015-09-12T07:59:03Z</time>
      </trkpt>
      <trkpt lat="42.20473" lon="9.02466">
        <ele>2053.03</ele>
        <time>2015-09-12T07:59:16Z</time>
      </trkpt>
      <trkpt lat="42.20478" lon="9.02466">
        <ele>2053.51</ele>
        <time>2015-09-12T07:59:30Z</time>
      </trkpt>
      <trkpt lat="42.20479" lon="9.02467">
        <ele>2053.03</ele>
        <time>2015-09-12T07:59:32Z</time>
      </trkpt>
      <trkpt lat="42.20488" lon="9.02474">
        <ele>2051.59</ele>
        <time>2015-09-12T07:59:41Z</time>
      </trkpt>
      <trkpt lat="42.20492" lon="9.02478">
        <ele>2050.63</ele>
        <time>2015-09-12T07:59:45Z</time>
      </trkpt>
      <trkpt lat="42.20497" lon="9.02486">
        <ele>2050.63</ele>
        <time>2015-09-12T07:59:52Z</time>
      </trkpt>
      <trkpt lat="42.20502" lon="9.02489">
        <ele>2049.67</ele>
        <time>2015-09-12T07:59:57Z</time>
      </trkpt>
      <trkpt lat="42.20504" lon="9.02495">
        <ele>2051.11</ele>
        <time>2015-09-12T08:00:01Z</time>
      </trkpt>
      <trkpt lat="42.20514" lon="9.02506">
        <ele>2049.67</ele>
        <time>2015-09-12T08:00:13Z</time>
      </trkpt>
      <trkpt lat="42.20517" lon="9.02507">
        <ele>2048.71</ele>
        <time>2015-09-12T08:00:17Z</time>
      </trkpt>
      <trkpt lat="42.2052" lon="9.02508">
        <ele>2048.23</ele>
        <time>2015-09-12T08:00:20Z</time>
      </trkpt>
      <trkpt lat="42.20524" lon="9.0251">
        <ele>2046.78</ele>
        <time>2015-09-12T08:00:24Z</time>
      </trkpt>
      <trkpt lat="42.20531" lon="9.02518">
        <ele>2045.34</ele>
        <time>2015-09-12T08:00:37Z</time>
      </trkpt>
      <trkpt lat="42.20532" lon="9.02519">
        <ele>2045.34</ele>
        <time>2015-09-12T08:00:38Z</time>
      </trkpt>
      <trkpt lat="42.20534" lon="9.02521">
        <ele>2045.34</ele>
        <time>2015-09-12T08:00:40Z</time>
      </trkpt>
      <trkpt lat="42.20541" lon="9.02526">
        <ele>2045.82</ele>
        <time>2015-09-12T08:00:48Z</time>
      </trkpt>
      <trkpt lat="42.20543" lon="9.02529">
        <ele>2045.82</ele>
        <time>2015-09-12T08:00:51Z</time>
      </trkpt>
      <trkpt lat="42.20547" lon="9.02533">
        <ele>2047.26</ele>
        <time>2015-09-12T08:00:58Z</time>
      </trkpt>
      <trkpt lat="42.20554" lon="9.02539">
        <ele>2047.75</ele>
        <time>2015-09-12T08:01:07Z</time>
      </trkpt>
      <trkpt lat="42.20565" lon="9.02543">
        <ele>2047.26</ele>
        <time>2015-09-12T08:01:20Z</time>
      </trkpt>
      <trkpt lat="42.20565" lon="9.02544">
        <ele>2046.78</ele>
        <time>2015-09-12T08:01:22Z</time>
      </trkpt>
      <trkpt lat="42.20574" lon="9.02548">
        <ele>2047.75</ele>
        <time>2015-09-12T08:01:34Z</time>
      </trkpt>
      <trkpt lat="42.20577" lon="9.02547">
        <ele>2048.71</ele>
        <time>2015-09-12T08:01:48Z</time>
      </trkpt>
      <trkpt lat="42.2058" lon="9.02548">
        <ele>2047.75</ele>
        <time>2015-09-12T08:01:52Z</time>
      </trkpt>
      <trkpt lat="42.20582" lon="9.02548">
        <ele>2047.75</ele>
        <time>2015-09-12T08:01:54Z</time>
      </trkpt>
      <trkpt lat="42.2059" lon="9.02549">
        <ele>2046.3</ele>
        <time>2015-09-12T08:02:02Z</time>
      </trkpt>
      <trkpt lat="42.20593" lon="9.02548">
        <ele>2045.82</ele>
        <time>2015-09-12T08:02:05Z</time>
      </trkpt>
      <trkpt lat="42.206" lon="9.02552">
        <ele>2045.34</ele>
        <time>2015-09-12T08:02:14Z</time>
      </trkpt>
      <trkpt lat="42.20602" lon="9.02551">
        <ele>2045.34</ele>
        <time>2015-09-12T08:02:16Z</time>
      </trkpt>
      <trkpt lat="42.20609" lon="9.02551">
        <ele>2045.34</ele>
        <time>2015-09-12T08:02:25Z</time>
      </trkpt>
      <trkpt lat="42.20614" lon="9.02554">
        <ele>2046.3</ele>
        <time>2015-09-12T08:02:32Z</time>
      </trkpt>
      <trkpt lat="42.20623" lon="9.02556">
        <ele>2045.82</ele>
        <time>2015-09-12T08:02:44Z</time>
      </trkpt>
      <trkpt lat="42.20627" lon="9.02556">
        <ele>2045.34</ele>
        <time>2015-09-12T08:02:48Z</time>
      </trkpt>
      <trkpt lat="42.20637" lon="9.02559">
        <ele>2047.26</ele>
        <time>2015-09-12T08:03:00Z</time>
      </trkpt>
      <trkpt lat="42.20641" lon="9.02564">
        <ele>2048.23</ele>
        <time>2015-09-12T08:03:11Z</time>
      </trkpt>
      <trkpt lat="42.20651" lon="9.02561">
        <ele>2048.23</ele>
        <time>2015-09-12T08:03:25Z</time>
      </trkpt>
      <trkpt lat="42.20659" lon="9.02566">
        <ele>2045.34</ele>
        <time>2015-09-12T08:03:38Z</time>
      </trkpt>
      <trkpt lat="42.20663" lon="9.02569">
        <ele>2043.42</ele>
        <time>2015-09-12T08:03:46Z</time>
      </trkpt>
      <trkpt lat="42.20666" lon="9.02575">
        <ele>2043.42</ele>
        <time>2015-09-12T08:03:52Z</time>
      </trkpt>
      <trkpt lat="42.20668" lon="9.02578">
        <ele>2042.94</ele>
        <time>2015-09-12T08:04:05Z</time>
      </trkpt>
      <trkpt lat="42.20671" lon="9.02581">
        <ele>2042.94</ele>
        <time>2015-09-12T08:04:16Z</time>
      </trkpt>
      <trkpt lat="42.20675" lon="9.02587">
        <ele>2042.94</ele>
        <time>2015-09-12T08:04:22Z</time>
      </trkpt>
      <trkpt lat="42.20683" lon="9.02594">
        <ele>2043.42</ele>
        <time>2015-09-12T08:04:33Z</time>
      </trkpt>
      <trkpt lat="42.20686" lon="9.02596">
        <ele>2043.42</ele>
        <time>2015-09-12T08:04:38Z</time>
      </trkpt>
      <trkpt lat="42.20686" lon="9.02606">
        <ele>2044.86</ele>
        <time>2015-09-12T08:04:49Z</time>
      </trkpt>
      <trkpt lat="42.20687" lon="9.02609">
        <ele>2045.34</ele>
        <time>2015-09-12T08:04:52Z</time>
      </trkpt>
      <trkpt lat="42.20691" lon="9.02617">
        <ele>2044.38</ele>
        <time>2015-09-12T08:05:02Z</time>
      </trkpt>
      <trkpt lat="42.2069" lon="9.02628">
        <ele>2045.82</ele>
        <time>2015-09-12T08:05:14Z</time>
      </trkpt>
      <trkpt lat="42.20691" lon="9.02637">
        <ele>2048.23</ele>
        <time>2015-09-12T08:05:27Z</time>
      </trkpt>
      <trkpt lat="42.20689" lon="9.02643">
        <ele>2050.63</ele>
        <time>2015-09-12T08:05:39Z</time>
      </trkpt>
      <trkpt lat="42.20692" lon="9.02649">
        <ele>2052.55</ele>
        <time>2015-09-12T08:05:51Z</time>
      </trkpt>
      <trkpt lat="42.20693" lon="9.02649">
        <ele>2052.55</ele>
        <time>2015-09-12T08:05:52Z</time>
      </trkpt>
      <trkpt lat="42.20697" lon="9.02651">
        <ele>2053.03</ele>
        <time>2015-09-12T08:05:59Z</time>
      </trkpt>
      <trkpt lat="42.20701" lon="9.02651">
        <ele>2052.07</ele>
        <time>2015-09-12T08:06:04Z</time>
      </trkpt>
      <trkpt lat="42.20705" lon="9.02654">
        <ele>2051.59</ele>
        <time>2015-09-12T08:06:09Z</time>
      </trkpt>
      <trkpt lat="42.20708" lon="9.02662">
        <ele>2053.03</ele>
        <time>2015-09-12T08:06:22Z</time>
      </trkpt>
      <trkpt lat="42.20711" lon="9.0267">
        <ele>2055.44</ele>
        <time>2015-09-12T08:06:35Z</time>
      </trkpt>
      <trkpt lat="42.20713" lon="9.02674">
        <ele>2055.92</ele>
        <time>2015-09-12T08:06:40Z</time>
      </trkpt>
      <trkpt lat="42.20712" lon="9.0268">
        <ele>2057.84</ele>
        <time>2015-09-12T08:06:51Z</time>
      </trkpt>
      <trkpt lat="42.20719" lon="9.02684">
        <ele>2058.32</ele>
        <time>2015-09-12T08:07:03Z</time>
      </trkpt>
      <trkpt lat="42.2072" lon="9.02685">
        <ele>2057.84</ele>
        <time>2015-09-12T08:07:05Z</time>
      </trkpt>
      <trkpt lat="42.20724" lon="9.02689">
        <ele>2057.36</ele>
        <time>2015-09-12T08:07:17Z</time>
      </trkpt>
      <trkpt lat="42.20728" lon="9.02697">
        <ele>2058.32</ele>
        <time>2015-09-12T08:07:28Z</time>
      </trkpt>
      <trkpt lat="42.20731" lon="9.02708">
        <ele>2058.32</ele>
        <time>2015-09-12T08:07:39Z</time>
      </trkpt>
      <trkpt lat="42.20735" lon="9.02716">
        <ele>2055.92</ele>
        <time>2015-09-12T08:07:52Z</time>
      </trkpt>
      <trkpt lat="42.20738" lon="9.0272">
        <ele>2054.96</ele>
        <time>2015-09-12T08:07:56Z</time>
      </trkpt>
      <trkpt lat="42.20733" lon="9.02728">
        <ele>2056.4</ele>
        <time>2015-09-12T08:08:09Z</time>
      </trkpt>
      <trkpt lat="42.20733" lon="9.02729">
        <ele>2056.88</ele>
        <time>2015-09-12T08:08:11Z</time>
      </trkpt>
      <trkpt lat="42.20734" lon="9.02734">
        <ele>2059.28</ele>
        <time>2015-09-12T08:08:23Z</time>
      </trkpt>
      <trkpt lat="42.20746" lon="9.02741">
        <ele>2060.72</ele>
        <time>2015-09-12T08:08:37Z</time>
      </trkpt>
      <trkpt lat="42.20748" lon="9.02744">
        <ele>2061.2</ele>
        <time>2015-09-12T08:08:43Z</time>
      </trkpt>
      <trkpt lat="42.20755" lon="9.02745">
        <ele>2061.68</ele>
        <time>2015-09-12T08:08:52Z</time>
      </trkpt>
      <trkpt lat="42.20759" lon="9.02753">
        <ele>2062.65</ele>
        <time>2015-09-12T08:09:04Z</time>
      </trkpt>
      <trkpt lat="42.2076" lon="9.02759">
        <ele>2061.2</ele>
        <time>2015-09-12T08:09:18Z</time>
      </trkpt>
      <trkpt lat="42.2076" lon="9.02759">
        <ele>2061.2</ele>
        <time>2015-09-12T08:09:19Z</time>
      </trkpt>
      <trkpt lat="42.20765" lon="9.02758">
        <ele>2060.24</ele>
        <time>2015-09-12T08:09:24Z</time>
      </trkpt>
      <trkpt lat="42.20762" lon="9.02758">
        <ele>2057.84</ele>
        <time>2015-09-12T08:09:34Z</time>
      </trkpt>
      <trkpt lat="42.20763" lon="9.02757">
        <ele>2057.84</ele>
        <time>2015-09-12T08:09:36Z</time>
      </trkpt>
      <trkpt lat="42.20775" lon="9.02753">
        <ele>2056.4</ele>
        <time>2015-09-12T08:09:47Z</time>
      </trkpt>
      <trkpt lat="42.20782" lon="9.02754">
        <ele>2054.96</ele>
        <time>2015-09-12T08:10:00Z</time>
      </trkpt>
      <trkpt lat="42.20786" lon="9.02757">
        <ele>2054.47</ele>
        <time>2015-09-12T08:10:12Z</time>
      </trkpt>
      <trkpt lat="42.20789" lon="9.02759">
        <ele>2054.47</ele>
        <time>2015-09-12T08:10:29Z</time>
      </trkpt>
      <trkpt lat="42.2079" lon="9.02758">
        <ele>2054.47</ele>
        <time>2015-09-12T08:10:35Z</time>
      </trkpt>
      <trkpt lat="42.20795" lon="9.02763">
        <ele>2055.44</ele>
        <time>2015-09-12T08:10:46Z</time>
      </trkpt>
      <trkpt lat="42.20801" lon="9.02766">
        <ele>2056.88</ele>
        <time>2015-09-12T08:10:55Z</time>
      </trkpt>
      <trkpt lat="42.20805" lon="9.02774">
        <ele>2057.36</ele>
        <time>2015-09-12T08:11:06Z</time>
      </trkpt>
      <trkpt lat="42.2081" lon="9.02774">
        <ele>2057.36</ele>
        <time>2015-09-12T08:11:16Z</time>
      </trkpt>
      <trkpt lat="42.20817" lon="9.02777">
        <ele>2057.84</ele>
        <time>2015-09-12T08:11:27Z</time>
      </trkpt>
      <trkpt lat="42.20823" lon="9.02783">
        <ele>2058.8</ele>
        <time>2015-09-12T08:11:38Z</time>
      </trkpt>
      <trkpt lat="42.20827" lon="9.02786">
        <ele>2058.32</ele>
        <time>2015-09-12T08:11:50Z</time>
      </trkpt>
      <trkpt lat="42.2083" lon="9.02783">
        <ele>2055.92</ele>
        <time>2015-09-12T08:12:01Z</time>
      </trkpt>
      <trkpt lat="42.20834" lon="9.02785">
        <ele>2054.96</ele>
        <time>2015-09-12T08:12:11Z</time>
      </trkpt>
      <trkpt lat="42.20834" lon="9.02786">
        <ele>2054.96</ele>
        <time>2015-09-12T08:12:14Z</time>
      </trkpt>
      <trkpt lat="42.20835" lon="9.02788">
        <ele>2054.96</ele>
        <time>2015-09-12T08:12:16Z</time>
      </trkpt>
      <trkpt lat="42.2084" lon="9.02793">
        <ele>2055.44</ele>
        <time>2015-09-12T08:12:28Z</time>
      </trkpt>
      <trkpt lat="42.20843" lon="9.02798">
        <ele>2055.44</ele>
        <time>2015-09-12T08:12:39Z</time>
      </trkpt>
      <trkpt lat="42.20845" lon="9.02798">
        <ele>2054.47</ele>
        <time>2015-09-12T08:12:47Z</time>
      </trkpt>
      <trkpt lat="42.20849" lon="9.028">
        <ele>2053.99</ele>
        <time>2015-09-12T08:12:54Z</time>
      </trkpt>
      <trkpt lat="42.20857" lon="9.02798">
        <ele>2051.59</ele>
        <time>2015-09-12T08:13:07Z</time>
      </trkpt>
      <trkpt lat="42.20856" lon="9.02795">
        <ele>2051.11</ele>
        <time>2015-09-12T08:13:12Z</time>
      </trkpt>
      <trkpt lat="42.20858" lon="9.02791">
        <ele>2048.71</ele>
        <time>2015-09-12T08:13:23Z</time>
      </trkpt>
      <trkpt lat="42.20866" lon="9.02791">
        <ele>2045.34</ele>
        <time>2015-09-12T08:13:33Z</time>
      </trkpt>
      <trkpt lat="42.20872" lon="9.02801">
        <ele>2045.82</ele>
        <time>2015-09-12T08:13:45Z</time>
      </trkpt>
      <trkpt lat="42.20874" lon="9.02802">
        <ele>2046.78</ele>
        <time>2015-09-12T08:13:49Z</time>
      </trkpt>
      <trkpt lat="42.20881" lon="9.02808">
        <ele>2047.26</ele>
        <time>2015-09-12T08:14:01Z</time>
      </trkpt>
      <trkpt lat="42.20888" lon="9.02811">
        <ele>2046.78</ele>
        <time>2015-09-12T08:14:13Z</time>
      </trkpt>
      <trkpt lat="42.20889" lon="9.02815">
        <ele>2049.19</ele>
        <time>2015-09-12T08:14:25Z</time>
      </trkpt>
      <trkpt lat="42.20893" lon="9.02819">
        <ele>2051.11</ele>
        <time>2015-09-12T08:14:36Z</time>
      </trkpt>
      <trkpt lat="42.20895" lon="9.02817">
        <ele>2053.99</ele>
        <time>2015-09-12T08:14:45Z</time>
      </trkpt>
      <trkpt lat="42.20902" lon="9.02818">
        <ele>2053.99</ele>
        <time>2015-09-12T08:14:56Z</time>
      </trkpt>
      <trkpt lat="42.20908" lon="9.02821">
        <ele>2055.92</ele>
        <time>2015-09-12T08:15:08Z</time>
      </trkpt>
      <trkpt lat="42.20911" lon="9.02824">
        <ele>2055.92</ele>
        <time>2015-09-12T08:15:14Z</time>
      </trkpt>
      <trkpt lat="42.20916" lon="9.02831">
        <ele>2057.84</ele>
        <time>2015-09-12T08:15:25Z</time>
      </trkpt>
      <trkpt lat="42.20918" lon="9.02836">
        <ele>2058.8</ele>
        <time>2015-09-12T08:15:31Z</time>
      </trkpt>
      <trkpt lat="42.20925" lon="9.02839">
        <ele>2058.8</ele>
        <time>2015-09-12T08:15:43Z</time>
      </trkpt>
      <trkpt lat="42.20927" lon="9.02844">
        <ele>2061.2</ele>
        <time>2015-09-12T08:15:58Z</time>
      </trkpt>
      <trkpt lat="42.20929" lon="9.02844">
        <ele>2061.68</ele>
        <time>2015-09-12T08:16:17Z</time>
      </trkpt>
      <trkpt lat="42.20936" lon="9.0285">
        <ele>2063.61</ele>
        <time>2015-09-12T08:16:32Z</time>
      </trkpt>
      <trkpt lat="42.20939" lon="9.02852">
        <ele>2064.57</ele>
        <time>2015-09-12T08:16:46Z</time>
      </trkpt>
      <trkpt lat="42.20938" lon="9.02857">
        <ele>2066.49</ele>
        <time>2015-09-12T08:17:00Z</time>
      </trkpt>
      <trkpt lat="42.20938" lon="9.02859">
        <ele>2066.97</ele>
        <time>2015-09-12T08:17:10Z</time>
      </trkpt>
      <trkpt lat="42.20929" lon="9.02862">
        <ele>2068.89</ele>
        <time>2015-09-12T08:17:24Z</time>
      </trkpt>
      <trkpt lat="42.20927" lon="9.02861">
        <ele>2068.89</ele>
        <time>2015-09-12T08:17:30Z</time>
      </trkpt>
      <trkpt lat="42.20925" lon="9.02864">
        <ele>2069.86</ele>
        <time>2015-09-12T08:17:40Z</time>
      </trkpt>
      <trkpt lat="42.20923" lon="9.02868">
        <ele>2072.74</ele>
        <time>2015-09-12T08:17:55Z</time>
      </trkpt>
      <trkpt lat="42.2092" lon="9.02873">
        <ele>2075.62</ele>
        <time>2015-09-12T08:18:08Z</time>
      </trkpt>
      <trkpt lat="42.20916" lon="9.02875">
        <ele>2078.03</ele>
        <time>2015-09-12T08:18:20Z</time>
      </trkpt>
      <trkpt lat="42.20916" lon="9.02879">
        <ele>2080.91</ele>
        <time>2015-09-12T08:18:34Z</time>
      </trkpt>
      <trkpt lat="42.20914" lon="9.02882">
        <ele>2083.31</ele>
        <time>2015-09-12T08:18:45Z</time>
      </trkpt>
      <trkpt lat="42.20908" lon="9.02883">
        <ele>2085.72</ele>
        <time>2015-09-12T08:18:57Z</time>
      </trkpt>
      <trkpt lat="42.20905" lon="9.02886">
        <ele>2087.16</ele>
        <time>2015-09-12T08:19:09Z</time>
      </trkpt>
      <trkpt lat="42.20903" lon="9.0289">
        <ele>2090.04</ele>
        <time>2015-09-12T08:19:20Z</time>
      </trkpt>
      <trkpt lat="42.20904" lon="9.02891">
        <ele>2091.49</ele>
        <time>2015-09-12T08:19:32Z</time>
      </trkpt>
      <trkpt lat="42.20905" lon="9.02893">
        <ele>2093.89</ele>
        <time>2015-09-12T08:19:44Z</time>
      </trkpt>
      <trkpt lat="42.20907" lon="9.02897">
        <ele>2096.77</ele>
        <time>2015-09-12T08:19:57Z</time>
      </trkpt>
      <trkpt lat="42.20906" lon="9.02906">
        <ele>2099.66</ele>
        <time>2015-09-12T08:20:09Z</time>
      </trkpt>
      <trkpt lat="42.20907" lon="9.02908">
        <ele>2102.06</ele>
        <time>2015-09-12T08:20:22Z</time>
      </trkpt>
      <trkpt lat="42.20909" lon="9.02911">
        <ele>2104.46</ele>
        <time>2015-09-12T08:20:32Z</time>
      </trkpt>
      <trkpt lat="42.20913" lon="9.02912">
        <ele>2105.42</ele>
        <time>2015-09-12T08:20:45Z</time>
      </trkpt>
      <trkpt lat="42.20915" lon="9.02913">
        <ele>2105.42</ele>
        <time>2015-09-12T08:21:09Z</time>
      </trkpt>
      <trkpt lat="42.20914" lon="9.02915">
        <ele>2106.87</ele>
        <time>2015-09-12T08:21:19Z</time>
      </trkpt>
      <trkpt lat="42.20912" lon="9.02921">
        <ele>2109.75</ele>
        <time>2015-09-12T08:21:31Z</time>
      </trkpt>
      <trkpt lat="42.2091" lon="9.02927">
        <ele>2112.63</ele>
        <time>2015-09-12T08:21:45Z</time>
      </trkpt>
      <trkpt lat="42.20912" lon="9.02932">
        <ele>2115.04</ele>
        <time>2015-09-12T08:21:56Z</time>
      </trkpt>
      <trkpt lat="42.2091" lon="9.02937">
        <ele>2116.48</ele>
        <time>2015-09-12T08:22:09Z</time>
      </trkpt>
      <trkpt lat="42.20907" lon="9.02942">
        <ele>2118.88</ele>
        <time>2015-09-12T08:22:21Z</time>
      </trkpt>
      <trkpt lat="42.20906" lon="9.02946">
        <ele>2121.77</ele>
        <time>2015-09-12T08:22:34Z</time>
      </trkpt>
      <trkpt lat="42.20904" lon="9.02948">
        <ele>2123.69</ele>
        <time>2015-09-12T08:22:45Z</time>
      </trkpt>
      <trkpt lat="42.20901" lon="9.02953">
        <ele>2125.61</ele>
        <time>2015-09-12T08:23:02Z</time>
      </trkpt>
      <trkpt lat="42.20896" lon="9.02954">
        <ele>2127.53</ele>
        <time>2015-09-12T08:23:13Z</time>
      </trkpt>
      <trkpt lat="42.20891" lon="9.02958">
        <ele>2129.94</ele>
        <time>2015-09-12T08:23:24Z</time>
      </trkpt>
      <trkpt lat="42.20887" lon="9.02961">
        <ele>2131.86</ele>
        <time>2015-09-12T08:23:36Z</time>
      </trkpt>
      <trkpt lat="42.20882" lon="9.02965">
        <ele>2134.26</ele>
        <time>2015-09-12T08:23:49Z</time>
      </trkpt>
      <trkpt lat="42.2088" lon="9.02968">
        <ele>2137.15</ele>
        <time>2015-09-12T08:24:03Z</time>
      </trkpt>
      <trkpt lat="42.20877" lon="9.02976">
        <ele>2138.11</ele>
        <time>2015-09-12T08:24:17Z</time>
      </trkpt>
      <trkpt lat="42.20874" lon="9.02982">
        <ele>2140.03</ele>
        <time>2015-09-12T08:24:27Z</time>
      </trkpt>
      <trkpt lat="42.20866" lon="9.0299">
        <ele>2141.95</ele>
        <time>2015-09-12T08:24:40Z</time>
      </trkpt>
      <trkpt lat="42.2086" lon="9.02995">
        <ele>2141.95</ele>
        <time>2015-09-12T08:24:52Z</time>
      </trkpt>
      <trkpt lat="42.20854" lon="9.03001">
        <ele>2143.88</ele>
        <time>2015-09-12T08:25:02Z</time>
      </trkpt>
      <trkpt lat="42.20852" lon="9.03004">
        <ele>2144.36</ele>
        <time>2015-09-12T08:25:05Z</time>
      </trkpt>
      <trkpt lat="42.20841" lon="9.03009">
        <ele>2146.76</ele>
        <time>2015-09-12T08:25:21Z</time>
      </trkpt>
      <trkpt lat="42.20838" lon="9.03015">
        <ele>2146.28</ele>
        <time>2015-09-12T08:25:33Z</time>
      </trkpt>
      <trkpt lat="42.20838" lon="9.03017">
        <ele>2146.28</ele>
        <time>2015-09-12T08:25:34Z</time>
      </trkpt>
      <trkpt lat="42.20837" lon="9.0302">
        <ele>2146.28</ele>
        <time>2015-09-12T08:25:40Z</time>
      </trkpt>
      <trkpt lat="42.20835" lon="9.03029">
        <ele>2147.24</ele>
        <time>2015-09-12T08:25:51Z</time>
      </trkpt>
      <trkpt lat="42.20825" lon="9.03041">
        <ele>2145.32</ele>
        <time>2015-09-12T08:26:05Z</time>
      </trkpt>
      <trkpt lat="42.20821" lon="9.03044">
        <ele>2145.32</ele>
        <time>2015-09-12T08:26:18Z</time>
      </trkpt>
      <trkpt lat="42.20821" lon="9.03045">
        <ele>2145.32</ele>
        <time>2015-09-12T08:26:48Z</time>
      </trkpt>
      <trkpt lat="42.20821" lon="9.03045">
        <ele>2144.84</ele>
        <time>2015-09-12T08:26:49Z</time>
      </trkpt>
      <trkpt lat="42.20822" lon="9.03042">
        <ele>2144.84</ele>
        <time>2015-09-12T08:26:52Z</time>
      </trkpt>
      <trkpt lat="42.20828" lon="9.03033">
        <ele>2145.8</ele>
        <time>2015-09-12T08:27:06Z</time>
      </trkpt>
      <trkpt lat="42.20831" lon="9.03029">
        <ele>2146.76</ele>
        <time>2015-09-12T08:27:14Z</time>
      </trkpt>
      <trkpt lat="42.20829" lon="9.0304">
        <ele>2145.8</ele>
        <time>2015-09-12T08:27:26Z</time>
      </trkpt>
      <trkpt lat="42.20828" lon="9.0304">
        <ele>2146.28</ele>
        <time>2015-09-12T08:27:40Z</time>
      </trkpt>
      <trkpt lat="42.20828" lon="9.0304">
        <ele>2146.28</ele>
        <time>2015-09-12T08:28:07Z</time>
      </trkpt>
      <trkpt lat="42.20828" lon="9.0304">
        <ele>2148.2</ele>
        <time>2015-09-12T08:28:32Z</time>
      </trkpt>
      <trkpt lat="42.20828" lon="9.0304">
        <ele>2144.84</ele>
        <time>2015-09-12T08:28:47Z</time>
      </trkpt>
      <trkpt lat="42.20828" lon="9.03041">
        <ele>2145.8</ele>
        <time>2015-09-12T08:29:01Z</time>
      </trkpt>
      <trkpt lat="42.20828" lon="9.03041">
        <ele>2146.28</ele>
        <time>2015-09-12T08:29:33Z</time>
      </trkpt>
      <trkpt lat="42.20828" lon="9.0304">
        <ele>2146.28</ele>
        <time>2015-09-12T08:30:08Z</time>
      </trkpt>
      <trkpt lat="42.20827" lon="9.03038">
        <ele>2146.76</ele>
        <time>2015-09-12T08:30:42Z</time>
      </trkpt>
      <trkpt lat="42.20827" lon="9.03038">
        <ele>2146.28</ele>
        <time>2015-09-12T08:31:10Z</time>
      </trkpt>
      <trkpt lat="42.20825" lon="9.03035">
        <ele>2146.28</ele>
        <time>2015-09-12T08:31:45Z</time>
      </trkpt>
      <trkpt lat="42.20825" lon="9.03033">
        <ele>2146.76</ele>
        <time>2015-09-12T08:32:22Z</time>
      </trkpt>
      <trkpt lat="42.20826" lon="9.03033">
        <ele>2146.76</ele>
        <time>2015-09-12T08:32:57Z</time>
      </trkpt>
      <trkpt lat="42.20827" lon="9.03034">
        <ele>2147.24</ele>
        <time>2015-09-12T08:33:29Z</time>
      </trkpt>
      <trkpt lat="42.20826" lon="9.03035">
        <ele>2148.2</ele>
        <time>2015-09-12T08:34:04Z</time>
      </trkpt>
      <trkpt lat="42.20826" lon="9.03034">
        <ele>2146.76</ele>
        <time>2015-09-12T08:34:29Z</time>
      </trkpt>
      <trkpt lat="42.20825" lon="9.03035">
        <ele>2146.28</ele>
        <time>2015-09-12T08:35:00Z</time>
      </trkpt>
      <trkpt lat="42.20824" lon="9.03032">
        <ele>2146.76</ele>
        <time>2015-09-12T08:35:36Z</time>
      </trkpt>
      <trkpt lat="42.20824" lon="9.03029">
        <ele>2147.24</ele>
        <time>2015-09-12T08:36:01Z</time>
      </trkpt>
      <trkpt lat="42.20824" lon="9.0303">
        <ele>2147.24</ele>
        <time>2015-09-12T08:36:38Z</time>
      </trkpt>
      <trkpt lat="42.20824" lon="9.03029">
        <ele>2147.24</ele>
        <time>2015-09-12T08:37:10Z</time>
      </trkpt>
      <trkpt lat="42.20824" lon="9.03031">
        <ele>2147.24</ele>
        <time>2015-09-12T08:37:42Z</time>
      </trkpt>
      <trkpt lat="42.20822" lon="9.03029">
        <ele>2146.28</ele>
        <time>2015-09-12T08:38:15Z</time>
      </trkpt>
      <trkpt lat="42.20822" lon="9.03029">
        <ele>2147.24</ele>
        <time>2015-09-12T08:38:46Z</time>
      </trkpt>
      <trkpt lat="42.20822" lon="9.03029">
        <ele>2146.76</ele>
        <time>2015-09-12T08:39:07Z</time>
      </trkpt>
      <trkpt lat="42.20823" lon="9.03029">
        <ele>2146.76</ele>
        <time>2015-09-12T08:39:24Z</time>
      </trkpt>
      <trkpt lat="42.20823" lon="9.03029">
        <ele>2147.24</ele>
        <time>2015-09-12T08:39:48Z</time>
      </trkpt>
      <trkpt lat="42.20824" lon="9.03029">
        <ele>2147.72</ele>
        <time>2015-09-12T08:40:17Z</time>
      </trkpt>
      <trkpt lat="42.20824" lon="9.03029">
        <ele>2147.72</ele>
        <time>2015-09-12T08:40:41Z</time>
      </trkpt>
      <trkpt lat="42.20825" lon="9.03031">
        <ele>2148.2</ele>
        <time>2015-09-12T08:41:10Z</time>
      </trkpt>
      <trkpt lat="42.20825" lon="9.03034">
        <ele>2148.68</ele>
        <time>2015-09-12T08:41:22Z</time>
      </trkpt>
      <trkpt lat="42.20829" lon="9.03036">
        <ele>2149.65</ele>
        <time>2015-09-12T08:41:37Z</time>
      </trkpt>
      <trkpt lat="42.20829" lon="9.03038">
        <ele>2149.16</ele>
        <time>2015-09-12T08:41:38Z</time>
      </trkpt>
      <trkpt lat="42.20833" lon="9.03058">
        <ele>2149.65</ele>
        <time>2015-09-12T08:41:51Z</time>
      </trkpt>
      <trkpt lat="42.20825" lon="9.03068">
        <ele>2151.09</ele>
        <time>2015-09-12T08:42:04Z</time>
      </trkpt>
      <trkpt lat="42.20823" lon="9.03081">
        <ele>2153.01</ele>
        <time>2015-09-12T08:42:17Z</time>
      </trkpt>
      <trkpt lat="42.20825" lon="9.03083">
        <ele>2153.49</ele>
        <time>2015-09-12T08:42:21Z</time>
      </trkpt>
      <trkpt lat="42.20826" lon="9.03087">
        <ele>2153.01</ele>
        <time>2015-09-12T08:42:24Z</time>
      </trkpt>
      <trkpt lat="42.20826" lon="9.03109">
        <ele>2153.01</ele>
        <time>2015-09-12T08:42:36Z</time>
      </trkpt>
      <trkpt lat="42.20824" lon="9.03121">
        <ele>2153.97</ele>
        <time>2015-09-12T08:42:46Z</time>
      </trkpt>
      <trkpt lat="42.20823" lon="9.03134">
        <ele>2155.89</ele>
        <time>2015-09-12T08:43:01Z</time>
      </trkpt>
      <trkpt lat="42.20821" lon="9.03145">
        <ele>2157.34</ele>
        <time>2015-09-12T08:43:15Z</time>
      </trkpt>
      <trkpt lat="42.20821" lon="9.03146">
        <ele>2157.34</ele>
        <time>2015-09-12T08:43:16Z</time>
      </trkpt>
      <trkpt lat="42.20817" lon="9.03156">
        <ele>2159.26</ele>
        <time>2015-09-12T08:43:30Z</time>
      </trkpt>
      <trkpt lat="42.20819" lon="9.03163">
        <ele>2162.14</ele>
        <time>2015-09-12T08:43:40Z</time>
      </trkpt>
      <trkpt lat="42.20819" lon="9.03178">
        <ele>2163.58</ele>
        <time>2015-09-12T08:43:53Z</time>
      </trkpt>
      <trkpt lat="42.20819" lon="9.03185">
        <ele>2165.51</ele>
        <time>2015-09-12T08:44:02Z</time>
      </trkpt>
      <trkpt lat="42.20816" lon="9.03202">
        <ele>2165.99</ele>
        <time>2015-09-12T08:44:17Z</time>
      </trkpt>
      <trkpt lat="42.20818" lon="9.03205">
        <ele>2165.51</ele>
        <time>2015-09-12T08:44:21Z</time>
      </trkpt>
      <trkpt lat="42.20816" lon="9.03222">
        <ele>2166.47</ele>
        <time>2015-09-12T08:44:35Z</time>
      </trkpt>
      <trkpt lat="42.20813" lon="9.03228">
        <ele>2165.99</ele>
        <time>2015-09-12T08:44:41Z</time>
      </trkpt>
      <trkpt lat="42.20813" lon="9.03238">
        <ele>2165.51</ele>
        <time>2015-09-12T08:44:48Z</time>
      </trkpt>
      <trkpt lat="42.2081" lon="9.0325">
        <ele>2166.47</ele>
        <time>2015-09-12T08:45:00Z</time>
      </trkpt>
      <trkpt lat="42.20806" lon="9.03261">
        <ele>2166.47</ele>
        <time>2015-09-12T08:45:12Z</time>
      </trkpt>
      <trkpt lat="42.20805" lon="9.03262">
        <ele>2166.95</ele>
        <time>2015-09-12T08:45:14Z</time>
      </trkpt>
      <trkpt lat="42.20802" lon="9.03272">
        <ele>2167.43</ele>
        <time>2015-09-12T08:45:23Z</time>
      </trkpt>
      <trkpt lat="42.208" lon="9.03279">
        <ele>2168.87</ele>
        <time>2015-09-12T08:45:29Z</time>
      </trkpt>
      <trkpt lat="42.208" lon="9.03288">
        <ele>2168.39</ele>
        <time>2015-09-12T08:45:42Z</time>
      </trkpt>
      <trkpt lat="42.20799" lon="9.03291">
        <ele>2167.43</ele>
        <time>2015-09-12T08:45:46Z</time>
      </trkpt>
      <trkpt lat="42.208" lon="9.03297">
        <ele>2166.47</ele>
        <time>2015-09-12T08:45:53Z</time>
      </trkpt>
      <trkpt lat="42.20802" lon="9.033">
        <ele>2166.47</ele>
        <time>2015-09-12T08:45:55Z</time>
      </trkpt>
      <trkpt lat="42.20806" lon="9.0331">
        <ele>2165.03</ele>
        <time>2015-09-12T08:46:09Z</time>
      </trkpt>
      <trkpt lat="42.20806" lon="9.03311">
        <ele>2164.55</ele>
        <time>2015-09-12T08:46:10Z</time>
      </trkpt>
      <trkpt lat="42.20806" lon="9.03318">
        <ele>2164.06</ele>
        <time>2015-09-12T08:46:14Z</time>
      </trkpt>
      <trkpt lat="42.20807" lon="9.03321">
        <ele>2164.06</ele>
        <time>2015-09-12T08:46:16Z</time>
      </trkpt>
      <trkpt lat="42.20807" lon="9.03323">
        <ele>2164.06</ele>
        <time>2015-09-12T08:46:18Z</time>
      </trkpt>
      <trkpt lat="42.20806" lon="9.03335">
        <ele>2164.06</ele>
        <time>2015-09-12T08:46:34Z</time>
      </trkpt>
      <trkpt lat="42.20804" lon="9.03337">
        <ele>2164.06</ele>
        <time>2015-09-12T08:46:50Z</time>
      </trkpt>
      <trkpt lat="42.20804" lon="9.03341">
        <ele>2162.14</ele>
        <time>2015-09-12T08:47:02Z</time>
      </trkpt>
      <trkpt lat="42.20806" lon="9.03346">
        <ele>2160.7</ele>
        <time>2015-09-12T08:47:14Z</time>
      </trkpt>
      <trkpt lat="42.20807" lon="9.03349">
        <ele>2160.22</ele>
        <time>2015-09-12T08:47:17Z</time>
      </trkpt>
      <trkpt lat="42.20804" lon="9.0336">
        <ele>2161.18</ele>
        <time>2015-09-12T08:47:29Z</time>
      </trkpt>
      <trkpt lat="42.20803" lon="9.03364">
        <ele>2162.14</ele>
        <time>2015-09-12T08:47:34Z</time>
      </trkpt>
      <trkpt lat="42.20799" lon="9.03376">
        <ele>2163.1</ele>
        <time>2015-09-12T08:47:47Z</time>
      </trkpt>
      <trkpt lat="42.20799" lon="9.03386">
        <ele>2162.62</ele>
        <time>2015-09-12T08:47:58Z</time>
      </trkpt>
      <trkpt lat="42.20798" lon="9.03396">
        <ele>2161.66</ele>
        <time>2015-09-12T08:48:10Z</time>
      </trkpt>
      <trkpt lat="42.20796" lon="9.03402">
        <ele>2162.62</ele>
        <time>2015-09-12T08:48:15Z</time>
      </trkpt>
      <trkpt lat="42.20792" lon="9.03413">
        <ele>2164.06</ele>
        <time>2015-09-12T08:48:28Z</time>
      </trkpt>
      <trkpt lat="42.2079" lon="9.03423">
        <ele>2165.51</ele>
        <time>2015-09-12T08:48:38Z</time>
      </trkpt>
      <trkpt lat="42.20789" lon="9.03425">
        <ele>2165.51</ele>
        <time>2015-09-12T08:48:40Z</time>
      </trkpt>
      <trkpt lat="42.20784" lon="9.03436">
        <ele>2165.99</ele>
        <time>2015-09-12T08:48:53Z</time>
      </trkpt>
      <trkpt lat="42.20781" lon="9.03445">
        <ele>2168.39</ele>
        <time>2015-09-12T08:49:06Z</time>
      </trkpt>
      <trkpt lat="42.20783" lon="9.03448">
        <ele>2167.43</ele>
        <time>2015-09-12T08:49:20Z</time>
      </trkpt>
      <trkpt lat="42.20786" lon="9.03456">
        <ele>2166.95</ele>
        <time>2015-09-12T08:49:29Z</time>
      </trkpt>
      <trkpt lat="42.20788" lon="9.03462">
        <ele>2167.43</ele>
        <time>2015-09-12T08:49:35Z</time>
      </trkpt>
      <trkpt lat="42.20789" lon="9.03477">
        <ele>2168.87</ele>
        <time>2015-09-12T08:49:49Z</time>
      </trkpt>
      <trkpt lat="42.20788" lon="9.03487">
        <ele>2167.43</ele>
        <time>2015-09-12T08:50:02Z</time>
      </trkpt>
      <trkpt lat="42.20789" lon="9.03493">
        <ele>2167.91</ele>
        <time>2015-09-12T08:50:06Z</time>
      </trkpt>
      <trkpt lat="42.20787" lon="9.03496">
        <ele>2166.95</ele>
        <time>2015-09-12T08:50:09Z</time>
      </trkpt>
      <trkpt lat="42.20789" lon="9.03506">
        <ele>2167.91</ele>
        <time>2015-09-12T08:50:16Z</time>
      </trkpt>
      <trkpt lat="42.2079" lon="9.03518">
        <ele>2167.91</ele>
        <time>2015-09-12T08:50:23Z</time>
      </trkpt>
      <trkpt lat="42.20788" lon="9.03537">
        <ele>2169.35</ele>
        <time>2015-09-12T08:50:35Z</time>
      </trkpt>
      <trkpt lat="42.20787" lon="9.03547">
        <ele>2170.31</ele>
        <time>2015-09-12T08:50:42Z</time>
      </trkpt>
      <trkpt lat="42.20787" lon="9.03551">
        <ele>2170.79</ele>
        <time>2015-09-12T08:50:55Z</time>
      </trkpt>
      <trkpt lat="42.20787" lon="9.0355">
        <ele>2170.79</ele>
        <time>2015-09-12T08:51:09Z</time>
      </trkpt>
      <trkpt lat="42.20788" lon="9.03557">
        <ele>2171.76</ele>
        <time>2015-09-12T08:51:23Z</time>
      </trkpt>
      <trkpt lat="42.20785" lon="9.03563">
        <ele>2173.68</ele>
        <time>2015-09-12T08:51:35Z</time>
      </trkpt>
      <trkpt lat="42.20785" lon="9.03571">
        <ele>2174.64</ele>
        <time>2015-09-12T08:51:47Z</time>
      </trkpt>
      <trkpt lat="42.20785" lon="9.03582">
        <ele>2177.52</ele>
        <time>2015-09-12T08:51:59Z</time>
      </trkpt>
      <trkpt lat="42.20783" lon="9.03586">
        <ele>2179.93</ele>
        <time>2015-09-12T08:52:11Z</time>
      </trkpt>
      <trkpt lat="42.2078" lon="9.0359">
        <ele>2182.33</ele>
        <time>2015-09-12T08:52:23Z</time>
      </trkpt>
      <trkpt lat="42.20776" lon="9.03594">
        <ele>2184.73</ele>
        <time>2015-09-12T08:52:35Z</time>
      </trkpt>
      <trkpt lat="42.2077" lon="9.03597">
        <ele>2187.62</ele>
        <time>2015-09-12T08:52:47Z</time>
      </trkpt>
      <trkpt lat="42.20765" lon="9.03602">
        <ele>2189.54</ele>
        <time>2015-09-12T08:52:59Z</time>
      </trkpt>
      <trkpt lat="42.20764" lon="9.03609">
        <ele>2190.02</ele>
        <time>2015-09-12T08:53:12Z</time>
      </trkpt>
      <trkpt lat="42.20757" lon="9.03623">
        <ele>2190.98</ele>
        <time>2015-09-12T08:53:25Z</time>
      </trkpt>
      <trkpt lat="42.20752" lon="9.03628">
        <ele>2190.98</ele>
        <time>2015-09-12T08:53:31Z</time>
      </trkpt>
      <trkpt lat="42.2075" lon="9.03633">
        <ele>2190.98</ele>
        <time>2015-09-12T08:53:34Z</time>
      </trkpt>
      <trkpt lat="42.20747" lon="9.03637">
        <ele>2190.5</ele>
        <time>2015-09-12T08:53:38Z</time>
      </trkpt>
      <trkpt lat="42.2074" lon="9.03654">
        <ele>2189.06</ele>
        <time>2015-09-12T08:53:51Z</time>
      </trkpt>
      <trkpt lat="42.20735" lon="9.03666">
        <ele>2190.02</ele>
        <time>2015-09-12T08:54:03Z</time>
      </trkpt>
      <trkpt lat="42.20733" lon="9.03668">
        <ele>2190.5</ele>
        <time>2015-09-12T08:54:05Z</time>
      </trkpt>
      <trkpt lat="42.20725" lon="9.03682">
        <ele>2191.46</ele>
        <time>2015-09-12T08:54:18Z</time>
      </trkpt>
      <trkpt lat="42.20718" lon="9.03694">
        <ele>2193.39</ele>
        <time>2015-09-12T08:54:30Z</time>
      </trkpt>
      <trkpt lat="42.20718" lon="9.03695">
        <ele>2193.39</ele>
        <time>2015-09-12T08:54:31Z</time>
      </trkpt>
      <trkpt lat="42.20716" lon="9.03699">
        <ele>2193.39</ele>
        <time>2015-09-12T08:54:35Z</time>
      </trkpt>
      <trkpt lat="42.20712" lon="9.03706">
        <ele>2193.87</ele>
        <time>2015-09-12T08:54:42Z</time>
      </trkpt>
      <trkpt lat="42.2071" lon="9.03708">
        <ele>2193.87</ele>
        <time>2015-09-12T08:54:45Z</time>
      </trkpt>
      <trkpt lat="42.20707" lon="9.03712">
        <ele>2194.83</ele>
        <time>2015-09-12T08:54:50Z</time>
      </trkpt>
      <trkpt lat="42.20701" lon="9.03719">
        <ele>2197.23</ele>
        <time>2015-09-12T08:55:01Z</time>
      </trkpt>
      <trkpt lat="42.207" lon="9.03727">
        <ele>2197.71</ele>
        <time>2015-09-12T08:55:12Z</time>
      </trkpt>
      <trkpt lat="42.20699" lon="9.03731">
        <ele>2197.23</ele>
        <time>2015-09-12T08:55:16Z</time>
      </trkpt>
      <trkpt lat="42.20699" lon="9.03736">
        <ele>2197.23</ele>
        <time>2015-09-12T08:55:19Z</time>
      </trkpt>
      <trkpt lat="42.20695" lon="9.03743">
        <ele>2198.19</ele>
        <time>2015-09-12T08:55:27Z</time>
      </trkpt>
      <trkpt lat="42.20687" lon="9.0375">
        <ele>2201.56</ele>
        <time>2015-09-12T08:55:38Z</time>
      </trkpt>
      <trkpt lat="42.20677" lon="9.03756">
        <ele>2203</ele>
        <time>2015-09-12T08:55:52Z</time>
      </trkpt>
      <trkpt lat="42.20672" lon="9.0376">
        <ele>2203.96</ele>
        <time>2015-09-12T08:56:04Z</time>
      </trkpt>
      <trkpt lat="42.20674" lon="9.0376">
        <ele>2203.48</ele>
        <time>2015-09-12T08:56:22Z</time>
      </trkpt>
      <trkpt lat="42.20676" lon="9.03758">
        <ele>2203</ele>
        <time>2015-09-12T08:56:28Z</time>
      </trkpt>
      <trkpt lat="42.20677" lon="9.03761">
        <ele>2202.04</ele>
        <time>2015-09-12T08:56:41Z</time>
      </trkpt>
      <trkpt lat="42.20676" lon="9.03761">
        <ele>2202.04</ele>
        <time>2015-09-12T08:56:42Z</time>
      </trkpt>
      <trkpt lat="42.20675" lon="9.03767">
        <ele>2202.52</ele>
        <time>2015-09-12T08:56:52Z</time>
      </trkpt>
      <trkpt lat="42.20677" lon="9.03769">
        <ele>2201.08</ele>
        <time>2015-09-12T08:56:55Z</time>
      </trkpt>
      <trkpt lat="42.20677" lon="9.03773">
        <ele>2200.59</ele>
        <time>2015-09-12T08:56:58Z</time>
      </trkpt>
      <trkpt lat="42.20676" lon="9.03779">
        <ele>2200.11</ele>
        <time>2015-09-12T08:57:03Z</time>
      </trkpt>
      <trkpt lat="42.20675" lon="9.03777">
        <ele>2200.59</ele>
        <time>2015-09-12T08:57:15Z</time>
      </trkpt>
      <trkpt lat="42.20676" lon="9.03777">
        <ele>2199.63</ele>
        <time>2015-09-12T08:57:31Z</time>
      </trkpt>
      <trkpt lat="42.20676" lon="9.03776">
        <ele>2199.63</ele>
        <time>2015-09-12T08:58:03Z</time>
      </trkpt>
      <trkpt lat="42.20676" lon="9.03776">
        <ele>2200.11</ele>
        <time>2015-09-12T08:58:32Z</time>
      </trkpt>
      <trkpt lat="42.20676" lon="9.03777">
        <ele>2199.63</ele>
        <time>2015-09-12T08:58:54Z</time>
      </trkpt>
      <trkpt lat="42.20676" lon="9.03781">
        <ele>2199.63</ele>
        <time>2015-09-12T08:59:08Z</time>
      </trkpt>
      <trkpt lat="42.20675" lon="9.0378">
        <ele>2200.59</ele>
        <time>2015-09-12T08:59:20Z</time>
      </trkpt>
      <trkpt lat="42.20675" lon="9.03781">
        <ele>2200.11</ele>
        <time>2015-09-12T08:59:37Z</time>
      </trkpt>
      <trkpt lat="42.20675" lon="9.03781">
        <ele>2200.11</ele>
        <time>2015-09-12T08:59:56Z</time>
      </trkpt>
      <trkpt lat="42.20675" lon="9.03784">
        <ele>2200.11</ele>
        <time>2015-09-12T09:00:17Z</time>
      </trkpt>
      <trkpt lat="42.20673" lon="9.03792">
        <ele>2201.08</ele>
        <time>2015-09-12T09:00:28Z</time>
      </trkpt>
      <trkpt lat="42.20673" lon="9.03793">
        <ele>2199.63</ele>
        <time>2015-09-12T09:00:33Z</time>
      </trkpt>
      <trkpt lat="42.20671" lon="9.03795">
        <ele>2198.19</ele>
        <time>2015-09-12T09:00:41Z</time>
      </trkpt>
      <trkpt lat="42.20669" lon="9.03804">
        <ele>2196.27</ele>
        <time>2015-09-12T09:00:54Z</time>
      </trkpt>
      <trkpt lat="42.20667" lon="9.03809">
        <ele>2195.31</ele>
        <time>2015-09-12T09:01:03Z</time>
      </trkpt>
      <trkpt lat="42.20663" lon="9.03817">
        <ele>2192.9</ele>
        <time>2015-09-12T09:01:16Z</time>
      </trkpt>
      <trkpt lat="42.20662" lon="9.03821">
        <ele>2191.46</ele>
        <time>2015-09-12T09:01:27Z</time>
      </trkpt>
      <trkpt lat="42.20661" lon="9.03823">
        <ele>2189.54</ele>
        <time>2015-09-12T09:01:40Z</time>
      </trkpt>
      <trkpt lat="42.20658" lon="9.03826">
        <ele>2186.66</ele>
        <time>2015-09-12T09:01:53Z</time>
      </trkpt>
      <trkpt lat="42.20657" lon="9.03826">
        <ele>2187.62</ele>
        <time>2015-09-12T09:01:54Z</time>
      </trkpt>
      <trkpt lat="42.20654" lon="9.03833">
        <ele>2185.21</ele>
        <time>2015-09-12T09:02:02Z</time>
      </trkpt>
      <trkpt lat="42.20653" lon="9.03846">
        <ele>2184.73</ele>
        <time>2015-09-12T09:02:17Z</time>
      </trkpt>
      <trkpt lat="42.20651" lon="9.03849">
        <ele>2183.29</ele>
        <time>2015-09-12T09:02:28Z</time>
      </trkpt>
      <trkpt lat="42.20651" lon="9.0385">
        <ele>2182.33</ele>
        <time>2015-09-12T09:02:30Z</time>
      </trkpt>
      <trkpt lat="42.2065" lon="9.0385">
        <ele>2180.41</ele>
        <time>2015-09-12T09:02:34Z</time>
      </trkpt>
      <trkpt lat="42.20648" lon="9.03854">
        <ele>2179.45</ele>
        <time>2015-09-12T09:02:45Z</time>
      </trkpt>
      <trkpt lat="42.20646" lon="9.03857">
        <ele>2177.04</ele>
        <time>2015-09-12T09:02:57Z</time>
      </trkpt>
      <trkpt lat="42.20645" lon="9.03865">
        <ele>2176.08</ele>
        <time>2015-09-12T09:03:04Z</time>
      </trkpt>
      <trkpt lat="42.20641" lon="9.03874">
        <ele>2175.6</ele>
        <time>2015-09-12T09:03:15Z</time>
      </trkpt>
      <trkpt lat="42.20636" lon="9.03878">
        <ele>2174.16</ele>
        <time>2015-09-12T09:03:22Z</time>
      </trkpt>
      <trkpt lat="42.20629" lon="9.03885">
        <ele>2173.68</ele>
        <time>2015-09-12T09:03:34Z</time>
      </trkpt>
      <trkpt lat="42.20628" lon="9.03887">
        <ele>2175.12</ele>
        <time>2015-09-12T09:03:38Z</time>
      </trkpt>
      <trkpt lat="42.20626" lon="9.03891">
        <ele>2174.16</ele>
        <time>2015-09-12T09:03:52Z</time>
      </trkpt>
      <trkpt lat="42.20626" lon="9.03891">
        <ele>2172.72</ele>
        <time>2015-09-12T09:03:59Z</time>
      </trkpt>
      <trkpt lat="42.20621" lon="9.03898">
        <ele>2172.24</ele>
        <time>2015-09-12T09:04:09Z</time>
      </trkpt>
      <trkpt lat="42.20618" lon="9.03901">
        <ele>2172.24</ele>
        <time>2015-09-12T09:04:12Z</time>
      </trkpt>
      <trkpt lat="42.20611" lon="9.03909">
        <ele>2170.79</ele>
        <time>2015-09-12T09:04:20Z</time>
      </trkpt>
      <trkpt lat="42.20609" lon="9.0391">
        <ele>2170.31</ele>
        <time>2015-09-12T09:04:22Z</time>
      </trkpt>
      <trkpt lat="42.20603" lon="9.03918">
        <ele>2168.87</ele>
        <time>2015-09-12T09:04:31Z</time>
      </trkpt>
      <trkpt lat="42.20598" lon="9.03926">
        <ele>2167.91</ele>
        <time>2015-09-12T09:04:42Z</time>
      </trkpt>
      <trkpt lat="42.20592" lon="9.03931">
        <ele>2167.43</ele>
        <time>2015-09-12T09:04:52Z</time>
      </trkpt>
      <trkpt lat="42.20589" lon="9.03934">
        <ele>2166.47</ele>
        <time>2015-09-12T09:04:57Z</time>
      </trkpt>
      <trkpt lat="42.20586" lon="9.03937">
        <ele>2165.51</ele>
        <time>2015-09-12T09:05:02Z</time>
      </trkpt>
      <trkpt lat="42.20585" lon="9.03943">
        <ele>2165.99</ele>
        <time>2015-09-12T09:05:06Z</time>
      </trkpt>
      <trkpt lat="42.20583" lon="9.03946">
        <ele>2165.99</ele>
        <time>2015-09-12T09:05:08Z</time>
      </trkpt>
      <trkpt lat="42.20582" lon="9.0395">
        <ele>2165.99</ele>
        <time>2015-09-12T09:05:11Z</time>
      </trkpt>
      <trkpt lat="42.20576" lon="9.03953">
        <ele>2165.99</ele>
        <time>2015-09-12T09:05:17Z</time>
      </trkpt>
      <trkpt lat="42.20571" lon="9.03964">
        <ele>2166.95</ele>
        <time>2015-09-12T09:05:30Z</time>
      </trkpt>
      <trkpt lat="42.20571" lon="9.03968">
        <ele>2166.95</ele>
        <time>2015-09-12T09:05:33Z</time>
      </trkpt>
      <trkpt lat="42.20566" lon="9.03972">
        <ele>2166.95</ele>
        <time>2015-09-12T09:05:39Z</time>
      </trkpt>
      <trkpt lat="42.20562" lon="9.03976">
        <ele>2166.47</ele>
        <time>2015-09-12T09:05:51Z</time>
      </trkpt>
      <trkpt lat="42.2056" lon="9.03981">
        <ele>2163.58</ele>
        <time>2015-09-12T09:06:02Z</time>
      </trkpt>
      <trkpt lat="42.20558" lon="9.0399">
        <ele>2162.62</ele>
        <time>2015-09-12T09:06:15Z</time>
      </trkpt>
      <trkpt lat="42.20556" lon="9.03997">
        <ele>2162.62</ele>
        <time>2015-09-12T09:06:22Z</time>
      </trkpt>
      <trkpt lat="42.20551" lon="9.04002">
        <ele>2162.14</ele>
        <time>2015-09-12T09:06:28Z</time>
      </trkpt>
      <trkpt lat="42.20546" lon="9.0401">
        <ele>2161.18</ele>
        <time>2015-09-12T09:06:35Z</time>
      </trkpt>
      <trkpt lat="42.20545" lon="9.04014">
        <ele>2160.7</ele>
        <time>2015-09-12T09:06:38Z</time>
      </trkpt>
      <trkpt lat="42.2054" lon="9.04022">
        <ele>2158.78</ele>
        <time>2015-09-12T09:06:47Z</time>
      </trkpt>
      <trkpt lat="42.20532" lon="9.04034">
        <ele>2157.34</ele>
        <time>2015-09-12T09:06:59Z</time>
      </trkpt>
      <trkpt lat="42.20532" lon="9.04035">
        <ele>2156.86</ele>
        <time>2015-09-12T09:07:00Z</time>
      </trkpt>
      <trkpt lat="42.2053" lon="9.04037">
        <ele>2156.86</ele>
        <time>2015-09-12T09:07:13Z</time>
      </trkpt>
      <trkpt lat="42.2053" lon="9.04038">
        <ele>2157.34</ele>
        <time>2015-09-12T09:07:15Z</time>
      </trkpt>
      <trkpt lat="42.20526" lon="9.04043">
        <ele>2156.37</ele>
        <time>2015-09-12T09:07:22Z</time>
      </trkpt>
      <trkpt lat="42.20519" lon="9.0405">
        <ele>2154.45</ele>
        <time>2015-09-12T09:07:34Z</time>
      </trkpt>
      <trkpt lat="42.20515" lon="9.04053">
        <ele>2152.05</ele>
        <time>2015-09-12T09:07:48Z</time>
      </trkpt>
      <trkpt lat="42.20515" lon="9.04053">
        <ele>2152.05</ele>
        <time>2015-09-12T09:07:49Z</time>
      </trkpt>
      <trkpt lat="42.20513" lon="9.04054">
        <ele>2151.09</ele>
        <time>2015-09-12T09:07:52Z</time>
      </trkpt>
      <trkpt lat="42.2051" lon="9.04057">
        <ele>2150.13</ele>
        <time>2015-09-12T09:07:56Z</time>
      </trkpt>
      <trkpt lat="42.20502" lon="9.04067">
        <ele>2148.68</ele>
        <time>2015-09-12T09:08:06Z</time>
      </trkpt>
      <trkpt lat="42.20502" lon="9.04068">
        <ele>2148.68</ele>
        <time>2015-09-12T09:08:07Z</time>
      </trkpt>
      <trkpt lat="42.20499" lon="9.04076">
        <ele>2147.24</ele>
        <time>2015-09-12T09:08:13Z</time>
      </trkpt>
      <trkpt lat="42.20494" lon="9.0409">
        <ele>2148.68</ele>
        <time>2015-09-12T09:08:25Z</time>
      </trkpt>
      <trkpt lat="42.20482" lon="9.04096">
        <ele>2147.72</ele>
        <time>2015-09-12T09:08:38Z</time>
      </trkpt>
      <trkpt lat="42.20479" lon="9.04103">
        <ele>2147.24</ele>
        <time>2015-09-12T09:08:47Z</time>
      </trkpt>
      <trkpt lat="42.20479" lon="9.04104">
        <ele>2146.76</ele>
        <time>2015-09-12T09:08:49Z</time>
      </trkpt>
      <trkpt lat="42.20478" lon="9.04109">
        <ele>2146.28</ele>
        <time>2015-09-12T09:08:53Z</time>
      </trkpt>
      <trkpt lat="42.20477" lon="9.04112">
        <ele>2145.8</ele>
        <time>2015-09-12T09:08:55Z</time>
      </trkpt>
      <trkpt lat="42.20472" lon="9.04126">
        <ele>2145.32</ele>
        <time>2015-09-12T09:09:05Z</time>
      </trkpt>
      <trkpt lat="42.20471" lon="9.04129">
        <ele>2144.84</ele>
        <time>2015-09-12T09:09:07Z</time>
      </trkpt>
      <trkpt lat="42.20469" lon="9.04135">
        <ele>2143.88</ele>
        <time>2015-09-12T09:09:12Z</time>
      </trkpt>
      <trkpt lat="42.20462" lon="9.04151">
        <ele>2141.47</ele>
        <time>2015-09-12T09:09:25Z</time>
      </trkpt>
      <trkpt lat="42.2046" lon="9.04162">
        <ele>2140.51</ele>
        <time>2015-09-12T09:09:34Z</time>
      </trkpt>
      <trkpt lat="42.20455" lon="9.0417">
        <ele>2139.55</ele>
        <time>2015-09-12T09:09:40Z</time>
      </trkpt>
      <trkpt lat="42.20453" lon="9.04174">
        <ele>2139.07</ele>
        <time>2015-09-12T09:09:43Z</time>
      </trkpt>
      <trkpt lat="42.20453" lon="9.04178">
        <ele>2138.59</ele>
        <time>2015-09-12T09:09:47Z</time>
      </trkpt>
      <trkpt lat="42.2045" lon="9.04183">
        <ele>2138.11</ele>
        <time>2015-09-12T09:09:51Z</time>
      </trkpt>
      <trkpt lat="42.2045" lon="9.04189">
        <ele>2137.63</ele>
        <time>2015-09-12T09:09:55Z</time>
      </trkpt>
      <trkpt lat="42.20449" lon="9.04205">
        <ele>2139.55</ele>
        <time>2015-09-12T09:10:08Z</time>
      </trkpt>
      <trkpt lat="42.20445" lon="9.04212">
        <ele>2137.63</ele>
        <time>2015-09-12T09:10:17Z</time>
      </trkpt>
      <trkpt lat="42.20438" lon="9.04222">
        <ele>2135.23</ele>
        <time>2015-09-12T09:10:30Z</time>
      </trkpt>
      <trkpt lat="42.20439" lon="9.04226">
        <ele>2135.71</ele>
        <time>2015-09-12T09:10:34Z</time>
      </trkpt>
      <trkpt lat="42.20437" lon="9.04232">
        <ele>2136.19</ele>
        <time>2015-09-12T09:10:39Z</time>
      </trkpt>
      <trkpt lat="42.20428" lon="9.0425">
        <ele>2133.3</ele>
        <time>2015-09-12T09:10:54Z</time>
      </trkpt>
      <trkpt lat="42.20427" lon="9.04251">
        <ele>2133.3</ele>
        <time>2015-09-12T09:10:55Z</time>
      </trkpt>
      <trkpt lat="42.20423" lon="9.04255">
        <ele>2131.86</ele>
        <time>2015-09-12T09:10:59Z</time>
      </trkpt>
      <trkpt lat="42.2042" lon="9.04259">
        <ele>2131.38</ele>
        <time>2015-09-12T09:11:03Z</time>
      </trkpt>
      <trkpt lat="42.20417" lon="9.04264">
        <ele>2130.42</ele>
        <time>2015-09-12T09:11:07Z</time>
      </trkpt>
      <trkpt lat="42.20413" lon="9.04269">
        <ele>2129.46</ele>
        <time>2015-09-12T09:11:13Z</time>
      </trkpt>
      <trkpt lat="42.20409" lon="9.04281">
        <ele>2127.53</ele>
        <time>2015-09-12T09:11:25Z</time>
      </trkpt>
      <trkpt lat="42.20405" lon="9.04283">
        <ele>2124.65</ele>
        <time>2015-09-12T09:11:35Z</time>
      </trkpt>
      <trkpt lat="42.20404" lon="9.04283">
        <ele>2124.17</ele>
        <time>2015-09-12T09:11:37Z</time>
      </trkpt>
      <trkpt lat="42.20404" lon="9.04287">
        <ele>2124.17</ele>
        <time>2015-09-12T09:11:41Z</time>
      </trkpt>
      <trkpt lat="42.20404" lon="9.04295">
        <ele>2122.73</ele>
        <time>2015-09-12T09:11:50Z</time>
      </trkpt>
      <trkpt lat="42.20402" lon="9.04298">
        <ele>2123.21</ele>
        <time>2015-09-12T09:11:53Z</time>
      </trkpt>
      <trkpt lat="42.20401" lon="9.043">
        <ele>2122.73</ele>
        <time>2015-09-12T09:11:55Z</time>
      </trkpt>
      <trkpt lat="42.204" lon="9.04303">
        <ele>2122.73</ele>
        <time>2015-09-12T09:11:57Z</time>
      </trkpt>
      <trkpt lat="42.20395" lon="9.0431">
        <ele>2122.25</ele>
        <time>2015-09-12T09:12:04Z</time>
      </trkpt>
      <trkpt lat="42.2039" lon="9.04313">
        <ele>2122.25</ele>
        <time>2015-09-12T09:12:08Z</time>
      </trkpt>
      <trkpt lat="42.20379" lon="9.04313">
        <ele>2117.92</ele>
        <time>2015-09-12T09:12:22Z</time>
      </trkpt>
      <trkpt lat="42.20372" lon="9.04321">
        <ele>2115.52</ele>
        <time>2015-09-12T09:12:34Z</time>
      </trkpt>
      <trkpt lat="42.20368" lon="9.04325">
        <ele>2112.63</ele>
        <time>2015-09-12T09:12:47Z</time>
      </trkpt>
      <trkpt lat="42.20367" lon="9.04326">
        <ele>2112.15</ele>
        <time>2015-09-12T09:12:49Z</time>
      </trkpt>
      <trkpt lat="42.20362" lon="9.04333">
        <ele>2109.75</ele>
        <time>2015-09-12T09:13:01Z</time>
      </trkpt>
      <trkpt lat="42.20362" lon="9.04334">
        <ele>2109.75</ele>
        <time>2015-09-12T09:13:02Z</time>
      </trkpt>
      <trkpt lat="42.20362" lon="9.04337">
        <ele>2109.75</ele>
        <time>2015-09-12T09:13:04Z</time>
      </trkpt>
      <trkpt lat="42.20358" lon="9.04346">
        <ele>2110.23</ele>
        <time>2015-09-12T09:13:17Z</time>
      </trkpt>
      <trkpt lat="42.20357" lon="9.04346">
        <ele>2110.23</ele>
        <time>2015-09-12T09:13:18Z</time>
      </trkpt>
      <trkpt lat="42.20354" lon="9.04348">
        <ele>2109.75</ele>
        <time>2015-09-12T09:13:22Z</time>
      </trkpt>
      <trkpt lat="42.20348" lon="9.04351">
        <ele>2110.23</ele>
        <time>2015-09-12T09:13:30Z</time>
      </trkpt>
      <trkpt lat="42.20344" lon="9.04351">
        <ele>2109.27</ele>
        <time>2015-09-12T09:13:43Z</time>
      </trkpt>
      <trkpt lat="42.2034" lon="9.04351">
        <ele>2108.31</ele>
        <time>2015-09-12T09:13:48Z</time>
      </trkpt>
      <trkpt lat="42.20334" lon="9.04359">
        <ele>2106.87</ele>
        <time>2015-09-12T09:13:57Z</time>
      </trkpt>
      <trkpt lat="42.2033" lon="9.0436">
        <ele>2106.39</ele>
        <time>2015-09-12T09:14:01Z</time>
      </trkpt>
      <trkpt lat="42.20327" lon="9.04363">
        <ele>2105.42</ele>
        <time>2015-09-12T09:14:05Z</time>
      </trkpt>
      <trkpt lat="42.20323" lon="9.0437">
        <ele>2105.91</ele>
        <time>2015-09-12T09:14:11Z</time>
      </trkpt>
      <trkpt lat="42.2032" lon="9.0438">
        <ele>2103.98</ele>
        <time>2015-09-12T09:14:22Z</time>
      </trkpt>
      <trkpt lat="42.20314" lon="9.04391">
        <ele>2103.98</ele>
        <time>2015-09-12T09:14:33Z</time>
      </trkpt>
      <trkpt lat="42.20309" lon="9.04396">
        <ele>2102.06</ele>
        <time>2015-09-12T09:14:42Z</time>
      </trkpt>
      <trkpt lat="42.20304" lon="9.04401">
        <ele>2100.62</ele>
        <time>2015-09-12T09:14:50Z</time>
      </trkpt>
      <trkpt lat="42.20294" lon="9.04407">
        <ele>2097.25</ele>
        <time>2015-09-12T09:15:03Z</time>
      </trkpt>
      <trkpt lat="42.20293" lon="9.04406">
        <ele>2096.77</ele>
        <time>2015-09-12T09:15:06Z</time>
      </trkpt>
      <trkpt lat="42.2029" lon="9.04406">
        <ele>2095.81</ele>
        <time>2015-09-12T09:15:09Z</time>
      </trkpt>
      <trkpt lat="42.20285" lon="9.04408">
        <ele>2094.37</ele>
        <time>2015-09-12T09:15:14Z</time>
      </trkpt>
      <trkpt lat="42.2028" lon="9.04417">
        <ele>2093.89</ele>
        <time>2015-09-12T09:15:27Z</time>
      </trkpt>
      <trkpt lat="42.20273" lon="9.04418">
        <ele>2091</ele>
        <time>2015-09-12T09:15:38Z</time>
      </trkpt>
      <trkpt lat="42.20269" lon="9.04412">
        <ele>2088.12</ele>
        <time>2015-09-12T09:15:48Z</time>
      </trkpt>
      <trkpt lat="42.20264" lon="9.04422">
        <ele>2085.72</ele>
        <time>2015-09-12T09:16:00Z</time>
      </trkpt>
      <trkpt lat="42.2026" lon="9.04425">
        <ele>2084.76</ele>
        <time>2015-09-12T09:16:07Z</time>
      </trkpt>
      <trkpt lat="42.20252" lon="9.04429">
        <ele>2085.24</ele>
        <time>2015-09-12T09:16:18Z</time>
      </trkpt>
      <trkpt lat="42.20246" lon="9.0443">
        <ele>2084.28</ele>
        <time>2015-09-12T09:16:28Z</time>
      </trkpt>
      <trkpt lat="42.20244" lon="9.04431">
        <ele>2083.79</ele>
        <time>2015-09-12T09:16:30Z</time>
      </trkpt>
      <trkpt lat="42.20241" lon="9.04434">
        <ele>2084.28</ele>
        <time>2015-09-12T09:16:35Z</time>
      </trkpt>
      <trkpt lat="42.20234" lon="9.0444">
        <ele>2085.24</ele>
        <time>2015-09-12T09:16:48Z</time>
      </trkpt>
      <trkpt lat="42.20232" lon="9.04442">
        <ele>2085.72</ele>
        <time>2015-09-12T09:16:51Z</time>
      </trkpt>
      <trkpt lat="42.20222" lon="9.04446">
        <ele>2086.2</ele>
        <time>2015-09-12T09:17:03Z</time>
      </trkpt>
      <trkpt lat="42.20219" lon="9.04447">
        <ele>2086.68</ele>
        <time>2015-09-12T09:17:07Z</time>
      </trkpt>
      <trkpt lat="42.20213" lon="9.04452">
        <ele>2087.64</ele>
        <time>2015-09-12T09:17:18Z</time>
      </trkpt>
      <trkpt lat="42.20202" lon="9.04462">
        <ele>2087.64</ele>
        <time>2015-09-12T09:17:30Z</time>
      </trkpt>
      <trkpt lat="42.202" lon="9.04464">
        <ele>2087.16</ele>
        <time>2015-09-12T09:17:33Z</time>
      </trkpt>
      <trkpt lat="42.20196" lon="9.04468">
        <ele>2087.64</ele>
        <time>2015-09-12T09:17:38Z</time>
      </trkpt>
      <trkpt lat="42.20186" lon="9.04473">
        <ele>2087.16</ele>
        <time>2015-09-12T09:17:47Z</time>
      </trkpt>
      <trkpt lat="42.20175" lon="9.04474">
        <ele>2086.68</ele>
        <time>2015-09-12T09:17:58Z</time>
      </trkpt>
      <trkpt lat="42.20173" lon="9.04477">
        <ele>2087.16</ele>
        <time>2015-09-12T09:18:03Z</time>
      </trkpt>
      <trkpt lat="42.20171" lon="9.0448">
        <ele>2087.16</ele>
        <time>2015-09-12T09:18:06Z</time>
      </trkpt>
      <trkpt lat="42.2016" lon="9.04489">
        <ele>2086.68</ele>
        <time>2015-09-12T09:18:18Z</time>
      </trkpt>
      <trkpt lat="42.20155" lon="9.04494">
        <ele>2086.68</ele>
        <time>2015-09-12T09:18:30Z</time>
      </trkpt>
      <trkpt lat="42.20154" lon="9.04494">
        <ele>2086.68</ele>
        <time>2015-09-12T09:18:38Z</time>
      </trkpt>
      <trkpt lat="42.20152" lon="9.04496">
        <ele>2086.2</ele>
        <time>2015-09-12T09:18:40Z</time>
      </trkpt>
      <trkpt lat="42.20144" lon="9.04501">
        <ele>2083.79</ele>
        <time>2015-09-12T09:18:50Z</time>
      </trkpt>
      <trkpt lat="42.20142" lon="9.04505">
        <ele>2083.31</ele>
        <time>2015-09-12T09:18:53Z</time>
      </trkpt>
      <trkpt lat="42.20136" lon="9.04508">
        <ele>2082.35</ele>
        <time>2015-09-12T09:19:00Z</time>
      </trkpt>
      <trkpt lat="42.20133" lon="9.0451">
        <ele>2081.87</ele>
        <time>2015-09-12T09:19:03Z</time>
      </trkpt>
      <trkpt lat="42.20129" lon="9.04511">
        <ele>2080.91</ele>
        <time>2015-09-12T09:19:08Z</time>
      </trkpt>
      <trkpt lat="42.20118" lon="9.04522">
        <ele>2078.03</ele>
        <time>2015-09-12T09:19:20Z</time>
      </trkpt>
      <trkpt lat="42.20116" lon="9.04523">
        <ele>2077.55</ele>
        <time>2015-09-12T09:19:22Z</time>
      </trkpt>
      <trkpt lat="42.20113" lon="9.04524">
        <ele>2076.59</ele>
        <time>2015-09-12T09:19:25Z</time>
      </trkpt>
      <trkpt lat="42.20111" lon="9.04527">
        <ele>2076.59</ele>
        <time>2015-09-12T09:19:28Z</time>
      </trkpt>
      <trkpt lat="42.20109" lon="9.04528">
        <ele>2075.62</ele>
        <time>2015-09-12T09:19:30Z</time>
      </trkpt>
      <trkpt lat="42.20103" lon="9.04533">
        <ele>2074.18</ele>
        <time>2015-09-12T09:19:36Z</time>
      </trkpt>
      <trkpt lat="42.20092" lon="9.0455">
        <ele>2073.7</ele>
        <time>2015-09-12T09:19:50Z</time>
      </trkpt>
      <trkpt lat="42.20089" lon="9.04552">
        <ele>2073.22</ele>
        <time>2015-09-12T09:19:53Z</time>
      </trkpt>
      <trkpt lat="42.20082" lon="9.04556">
        <ele>2071.3</ele>
        <time>2015-09-12T09:20:01Z</time>
      </trkpt>
      <trkpt lat="42.20075" lon="9.04562">
        <ele>2067.93</ele>
        <time>2015-09-12T09:20:11Z</time>
      </trkpt>
      <trkpt lat="42.20072" lon="9.0456">
        <ele>2066.49</ele>
        <time>2015-09-12T09:20:16Z</time>
      </trkpt>
      <trkpt lat="42.20068" lon="9.04563">
        <ele>2065.05</ele>
        <time>2015-09-12T09:20:22Z</time>
      </trkpt>
      <trkpt lat="42.2006" lon="9.0457">
        <ele>2062.17</ele>
        <time>2015-09-12T09:20:34Z</time>
      </trkpt>
      <trkpt lat="42.20052" lon="9.04571">
        <ele>2058.8</ele>
        <time>2015-09-12T09:20:45Z</time>
      </trkpt>
      <trkpt lat="42.20051" lon="9.04571">
        <ele>2058.32</ele>
        <time>2015-09-12T09:20:47Z</time>
      </trkpt>
      <trkpt lat="42.20045" lon="9.04575">
        <ele>2056.4</ele>
        <time>2015-09-12T09:20:53Z</time>
      </trkpt>
      <trkpt lat="42.20033" lon="9.04592">
        <ele>2053.03</ele>
        <time>2015-09-12T09:21:09Z</time>
      </trkpt>
      <trkpt lat="42.20025" lon="9.04605">
        <ele>2051.59</ele>
        <time>2015-09-12T09:21:20Z</time>
      </trkpt>
      <trkpt lat="42.20022" lon="9.04607">
        <ele>2050.63</ele>
        <time>2015-09-12T09:21:24Z</time>
      </trkpt>
      <trkpt lat="42.20013" lon="9.04615">
        <ele>2047.75</ele>
        <time>2015-09-12T09:21:37Z</time>
      </trkpt>
      <trkpt lat="42.20013" lon="9.04615">
        <ele>2047.75</ele>
        <time>2015-09-12T09:21:38Z</time>
      </trkpt>
      <trkpt lat="42.20007" lon="9.04621">
        <ele>2045.82</ele>
        <time>2015-09-12T09:21:44Z</time>
      </trkpt>
      <trkpt lat="42.20002" lon="9.04625">
        <ele>2045.34</ele>
        <time>2015-09-12T09:21:48Z</time>
      </trkpt>
      <trkpt lat="42.2" lon="9.04635">
        <ele>2044.86</ele>
        <time>2015-09-12T09:21:58Z</time>
      </trkpt>
      <trkpt lat="42.2" lon="9.04641">
        <ele>2045.34</ele>
        <time>2015-09-12T09:22:07Z</time>
      </trkpt>
      <trkpt lat="42.19997" lon="9.04651">
        <ele>2046.3</ele>
        <time>2015-09-12T09:22:18Z</time>
      </trkpt>
      <trkpt lat="42.19998" lon="9.04656">
        <ele>2047.75</ele>
        <time>2015-09-12T09:22:24Z</time>
      </trkpt>
      <trkpt lat="42.19997" lon="9.04663">
        <ele>2047.75</ele>
        <time>2015-09-12T09:22:29Z</time>
      </trkpt>
      <trkpt lat="42.19999" lon="9.04669">
        <ele>2048.23</ele>
        <time>2015-09-12T09:22:44Z</time>
      </trkpt>
      <trkpt lat="42.2" lon="9.0467">
        <ele>2048.71</ele>
        <time>2015-09-12T09:23:06Z</time>
      </trkpt>
      <trkpt lat="42.20001" lon="9.0467">
        <ele>2048.23</ele>
        <time>2015-09-12T09:23:30Z</time>
      </trkpt>
      <trkpt lat="42.20001" lon="9.0467">
        <ele>2048.23</ele>
        <time>2015-09-12T09:23:58Z</time>
      </trkpt>
      <trkpt lat="42.19999" lon="9.0467">
        <ele>2048.23</ele>
        <time>2015-09-12T09:24:18Z</time>
      </trkpt>
      <trkpt lat="42.19999" lon="9.04669">
        <ele>2048.71</ele>
        <time>2015-09-12T09:24:42Z</time>
      </trkpt>
      <trkpt lat="42.19999" lon="9.04669">
        <ele>2048.71</ele>
        <time>2015-09-12T09:25:14Z</time>
      </trkpt>
      <trkpt lat="42.19999" lon="9.04669">
        <ele>2048.23</ele>
        <time>2015-09-12T09:25:36Z</time>
      </trkpt>
      <trkpt lat="42.19998" lon="9.0467">
        <ele>2047.75</ele>
        <time>2015-09-12T09:25:56Z</time>
      </trkpt>
      <trkpt lat="42.19997" lon="9.0467">
        <ele>2047.26</ele>
        <time>2015-09-12T09:26:11Z</time>
      </trkpt>
      <trkpt lat="42.19998" lon="9.04671">
        <ele>2046.78</ele>
        <time>2015-09-12T09:26:28Z</time>
      </trkpt>
      <trkpt lat="42.20001" lon="9.04673">
        <ele>2046.3</ele>
        <time>2015-09-12T09:26:43Z</time>
      </trkpt>
      <trkpt lat="42.20004" lon="9.04679">
        <ele>2044.38</ele>
        <time>2015-09-12T09:26:53Z</time>
      </trkpt>
      <trkpt lat="42.20005" lon="9.04687">
        <ele>2041.5</ele>
        <time>2015-09-12T09:27:05Z</time>
      </trkpt>
      <trkpt lat="42.20008" lon="9.04691">
        <ele>2039.09</ele>
        <time>2015-09-12T09:27:18Z</time>
      </trkpt>
      <trkpt lat="42.2001" lon="9.047">
        <ele>2037.17</ele>
        <time>2015-09-12T09:27:31Z</time>
      </trkpt>
      <trkpt lat="42.20007" lon="9.04703">
        <ele>2034.29</ele>
        <time>2015-09-12T09:27:43Z</time>
      </trkpt>
      <trkpt lat="42.20006" lon="9.04704">
        <ele>2034.29</ele>
        <time>2015-09-12T09:27:45Z</time>
      </trkpt>
      <trkpt lat="42.20003" lon="9.04707">
        <ele>2030.92</ele>
        <time>2015-09-12T09:27:56Z</time>
      </trkpt>
      <trkpt lat="42.2" lon="9.04708">
        <ele>2029.96</ele>
        <time>2015-09-12T09:28:00Z</time>
      </trkpt>
      <trkpt lat="42.19995" lon="9.04708">
        <ele>2028.04</ele>
        <time>2015-09-12T09:28:07Z</time>
      </trkpt>
      <trkpt lat="42.19993" lon="9.04708">
        <ele>2027.08</ele>
        <time>2015-09-12T09:28:09Z</time>
      </trkpt>
      <trkpt lat="42.19993" lon="9.04712">
        <ele>2025.64</ele>
        <time>2015-09-12T09:28:15Z</time>
      </trkpt>
      <trkpt lat="42.19994" lon="9.04716">
        <ele>2022.75</ele>
        <time>2015-09-12T09:28:25Z</time>
      </trkpt>
      <trkpt lat="42.19993" lon="9.04719">
        <ele>2020.83</ele>
        <time>2015-09-12T09:28:33Z</time>
      </trkpt>
      <trkpt lat="42.1999" lon="9.04718">
        <ele>2019.87</ele>
        <time>2015-09-12T09:28:38Z</time>
      </trkpt>
      <trkpt lat="42.19984" lon="9.04717">
        <ele>2018.91</ele>
        <time>2015-09-12T09:28:44Z</time>
      </trkpt>
      <trkpt lat="42.19982" lon="9.04716">
        <ele>2017.94</ele>
        <time>2015-09-12T09:28:47Z</time>
      </trkpt>
      <trkpt lat="42.19978" lon="9.04715">
        <ele>2016.98</ele>
        <time>2015-09-12T09:28:52Z</time>
      </trkpt>
      <trkpt lat="42.19973" lon="9.04715">
        <ele>2014.58</ele>
        <time>2015-09-12T09:29:03Z</time>
      </trkpt>
      <trkpt lat="42.19971" lon="9.04715">
        <ele>2013.62</ele>
        <time>2015-09-12T09:29:07Z</time>
      </trkpt>
      <trkpt lat="42.19967" lon="9.04717">
        <ele>2013.14</ele>
        <time>2015-09-12T09:29:12Z</time>
      </trkpt>
      <trkpt lat="42.19958" lon="9.04722">
        <ele>2009.29</ele>
        <time>2015-09-12T09:29:23Z</time>
      </trkpt>
      <trkpt lat="42.19956" lon="9.04723">
        <ele>2008.81</ele>
        <time>2015-09-12T09:29:29Z</time>
      </trkpt>
      <trkpt lat="42.19957" lon="9.04725">
        <ele>2008.33</ele>
        <time>2015-09-12T09:29:31Z</time>
      </trkpt>
      <trkpt lat="42.19955" lon="9.04731">
        <ele>2006.41</ele>
        <time>2015-09-12T09:29:38Z</time>
      </trkpt>
      <trkpt lat="42.19948" lon="9.04731">
        <ele>2003.52</ele>
        <time>2015-09-12T09:29:49Z</time>
      </trkpt>
      <trkpt lat="42.19945" lon="9.04731">
        <ele>2002.56</ele>
        <time>2015-09-12T09:29:53Z</time>
      </trkpt>
      <trkpt lat="42.19942" lon="9.04736">
        <ele>2000.64</ele>
        <time>2015-09-12T09:29:59Z</time>
      </trkpt>
      <trkpt lat="42.19938" lon="9.04735">
        <ele>1999.68</ele>
        <time>2015-09-12T09:30:03Z</time>
      </trkpt>
      <trkpt lat="42.19935" lon="9.04734">
        <ele>1998.24</ele>
        <time>2015-09-12T09:30:08Z</time>
      </trkpt>
      <trkpt lat="42.19931" lon="9.04735">
        <ele>1996.8</ele>
        <time>2015-09-12T09:30:15Z</time>
      </trkpt>
      <trkpt lat="42.19927" lon="9.04738">
        <ele>1994.39</ele>
        <time>2015-09-12T09:30:27Z</time>
      </trkpt>
      <trkpt lat="42.19924" lon="9.04739">
        <ele>1992.47</ele>
        <time>2015-09-12T09:30:34Z</time>
      </trkpt>
      <trkpt lat="42.19923" lon="9.0474">
        <ele>1991.51</ele>
        <time>2015-09-12T09:30:36Z</time>
      </trkpt>
      <trkpt lat="42.1992" lon="9.0474">
        <ele>1990.55</ele>
        <time>2015-09-12T09:30:40Z</time>
      </trkpt>
      <trkpt lat="42.19922" lon="9.04751">
        <ele>1987.66</ele>
        <time>2015-09-12T09:30:51Z</time>
      </trkpt>
      <trkpt lat="42.19923" lon="9.04752">
        <ele>1987.18</ele>
        <time>2015-09-12T09:30:52Z</time>
      </trkpt>
      <trkpt lat="42.19926" lon="9.04758">
        <ele>1986.22</ele>
        <time>2015-09-12T09:30:58Z</time>
      </trkpt>
      <trkpt lat="42.19931" lon="9.04758">
        <ele>1987.18</ele>
        <time>2015-09-12T09:31:11Z</time>
      </trkpt>
      <trkpt lat="42.19932" lon="9.04758">
        <ele>1987.18</ele>
        <time>2015-09-12T09:31:42Z</time>
      </trkpt>
      <trkpt lat="42.19929" lon="9.04768">
        <ele>1983.82</ele>
        <time>2015-09-12T09:31:54Z</time>
      </trkpt>
      <trkpt lat="42.19925" lon="9.04776">
        <ele>1981.41</ele>
        <time>2015-09-12T09:32:04Z</time>
      </trkpt>
      <trkpt lat="42.19919" lon="9.04779">
        <ele>1979.49</ele>
        <time>2015-09-12T09:32:13Z</time>
      </trkpt>
      <trkpt lat="42.19918" lon="9.0478">
        <ele>1977.57</ele>
        <time>2015-09-12T09:32:18Z</time>
      </trkpt>
      <trkpt lat="42.19919" lon="9.04786">
        <ele>1976.61</ele>
        <time>2015-09-12T09:32:22Z</time>
      </trkpt>
      <trkpt lat="42.19921" lon="9.04796">
        <ele>1974.2</ele>
        <time>2015-09-12T09:32:32Z</time>
      </trkpt>
      <trkpt lat="42.19921" lon="9.04799">
        <ele>1972.76</ele>
        <time>2015-09-12T09:32:35Z</time>
      </trkpt>
      <trkpt lat="42.19921" lon="9.04801">
        <ele>1972.76</ele>
        <time>2015-09-12T09:32:37Z</time>
      </trkpt>
      <trkpt lat="42.19921" lon="9.04816">
        <ele>1969.88</ele>
        <time>2015-09-12T09:32:49Z</time>
      </trkpt>
      <trkpt lat="42.1992" lon="9.04824">
        <ele>1967.48</ele>
        <time>2015-09-12T09:33:00Z</time>
      </trkpt>
      <trkpt lat="42.1992" lon="9.04829">
        <ele>1966.03</ele>
        <time>2015-09-12T09:33:05Z</time>
      </trkpt>
      <trkpt lat="42.19914" lon="9.04831">
        <ele>1964.11</ele>
        <time>2015-09-12T09:33:14Z</time>
      </trkpt>
      <trkpt lat="42.19913" lon="9.04832">
        <ele>1964.11</ele>
        <time>2015-09-12T09:33:15Z</time>
      </trkpt>
      <trkpt lat="42.19911" lon="9.04831">
        <ele>1963.15</ele>
        <time>2015-09-12T09:33:18Z</time>
      </trkpt>
      <trkpt lat="42.19907" lon="9.04828">
        <ele>1962.19</ele>
        <time>2015-09-12T09:33:23Z</time>
      </trkpt>
      <trkpt lat="42.19902" lon="9.04827">
        <ele>1960.27</ele>
        <time>2015-09-12T09:33:32Z</time>
      </trkpt>
      <trkpt lat="42.19899" lon="9.0483">
        <ele>1957.86</ele>
        <time>2015-09-12T09:33:44Z</time>
      </trkpt>
      <trkpt lat="42.199" lon="9.04832">
        <ele>1957.38</ele>
        <time>2015-09-12T09:33:47Z</time>
      </trkpt>
      <trkpt lat="42.19896" lon="9.04835">
        <ele>1955.46</ele>
        <time>2015-09-12T09:33:57Z</time>
      </trkpt>
      <trkpt lat="42.19893" lon="9.04837">
        <ele>1953.06</ele>
        <time>2015-09-12T09:34:10Z</time>
      </trkpt>
      <trkpt lat="42.19889" lon="9.04842">
        <ele>1950.65</ele>
        <time>2015-09-12T09:34:20Z</time>
      </trkpt>
      <trkpt lat="42.19888" lon="9.04845">
        <ele>1950.17</ele>
        <time>2015-09-12T09:34:22Z</time>
      </trkpt>
      <trkpt lat="42.19888" lon="9.0485">
        <ele>1949.69</ele>
        <time>2015-09-12T09:34:26Z</time>
      </trkpt>
      <trkpt lat="42.19895" lon="9.04859">
        <ele>1948.73</ele>
        <time>2015-09-12T09:34:35Z</time>
      </trkpt>
      <trkpt lat="42.19898" lon="9.0486">
        <ele>1949.21</ele>
        <time>2015-09-12T09:34:40Z</time>
      </trkpt>
      <trkpt lat="42.19901" lon="9.04861">
        <ele>1949.21</ele>
        <time>2015-09-12T09:34:52Z</time>
      </trkpt>
      <trkpt lat="42.19902" lon="9.04861">
        <ele>1949.69</ele>
        <time>2015-09-12T09:34:53Z</time>
      </trkpt>
      <trkpt lat="42.19905" lon="9.0486">
        <ele>1950.17</ele>
        <time>2015-09-12T09:34:57Z</time>
      </trkpt>
      <trkpt lat="42.19908" lon="9.04863">
        <ele>1950.17</ele>
        <time>2015-09-12T09:35:02Z</time>
      </trkpt>
      <trkpt lat="42.1991" lon="9.04868">
        <ele>1949.69</ele>
        <time>2015-09-12T09:35:06Z</time>
      </trkpt>
      <trkpt lat="42.19907" lon="9.04875">
        <ele>1947.77</ele>
        <time>2015-09-12T09:35:16Z</time>
      </trkpt>
      <trkpt lat="42.19906" lon="9.04882">
        <ele>1945.85</ele>
        <time>2015-09-12T09:35:26Z</time>
      </trkpt>
      <trkpt lat="42.19906" lon="9.04882">
        <ele>1945.85</ele>
        <time>2015-09-12T09:35:27Z</time>
      </trkpt>
      <trkpt lat="42.19904" lon="9.04885">
        <ele>1944.88</ele>
        <time>2015-09-12T09:35:30Z</time>
      </trkpt>
      <trkpt lat="42.199" lon="9.04895">
        <ele>1942</ele>
        <time>2015-09-12T09:35:40Z</time>
      </trkpt>
      <trkpt lat="42.19899" lon="9.04897">
        <ele>1941.52</ele>
        <time>2015-09-12T09:35:42Z</time>
      </trkpt>
      <trkpt lat="42.19901" lon="9.04911">
        <ele>1939.6</ele>
        <time>2015-09-12T09:35:55Z</time>
      </trkpt>
      <trkpt lat="42.19905" lon="9.04918">
        <ele>1937.67</ele>
        <time>2015-09-12T09:36:06Z</time>
      </trkpt>
      <trkpt lat="42.199" lon="9.04923">
        <ele>1934.79</ele>
        <time>2015-09-12T09:36:18Z</time>
      </trkpt>
      <trkpt lat="42.19899" lon="9.04924">
        <ele>1934.31</ele>
        <time>2015-09-12T09:36:20Z</time>
      </trkpt>
      <trkpt lat="42.19897" lon="9.04935">
        <ele>1931.43</ele>
        <time>2015-09-12T09:36:32Z</time>
      </trkpt>
      <trkpt lat="42.19896" lon="9.04936">
        <ele>1930.46</ele>
        <time>2015-09-12T09:36:34Z</time>
      </trkpt>
      <trkpt lat="42.19897" lon="9.04942">
        <ele>1928.54</ele>
        <time>2015-09-12T09:36:45Z</time>
      </trkpt>
      <trkpt lat="42.19898" lon="9.04947">
        <ele>1926.14</ele>
        <time>2015-09-12T09:36:55Z</time>
      </trkpt>
      <trkpt lat="42.19899" lon="9.0495">
        <ele>1925.18</ele>
        <time>2015-09-12T09:36:58Z</time>
      </trkpt>
      <trkpt lat="42.19901" lon="9.04957">
        <ele>1923.25</ele>
        <time>2015-09-12T09:37:09Z</time>
      </trkpt>
      <trkpt lat="42.19898" lon="9.04961">
        <ele>1921.33</ele>
        <time>2015-09-12T09:37:18Z</time>
      </trkpt>
      <trkpt lat="42.19896" lon="9.04964">
        <ele>1919.89</ele>
        <time>2015-09-12T09:37:22Z</time>
      </trkpt>
      <trkpt lat="42.19894" lon="9.04972">
        <ele>1917.49</ele>
        <time>2015-09-12T09:37:34Z</time>
      </trkpt>
      <trkpt lat="42.19895" lon="9.04976">
        <ele>1916.04</ele>
        <time>2015-09-12T09:37:38Z</time>
      </trkpt>
      <trkpt lat="42.19891" lon="9.04986">
        <ele>1912.68</ele>
        <time>2015-09-12T09:37:51Z</time>
      </trkpt>
      <trkpt lat="42.19887" lon="9.04993">
        <ele>1911.24</ele>
        <time>2015-09-12T09:38:01Z</time>
      </trkpt>
      <trkpt lat="42.19888" lon="9.04998">
        <ele>1910.28</ele>
        <time>2015-09-12T09:38:11Z</time>
      </trkpt>
      <trkpt lat="42.19887" lon="9.05">
        <ele>1908.83</ele>
        <time>2015-09-12T09:38:14Z</time>
      </trkpt>
      <trkpt lat="42.19882" lon="9.05002">
        <ele>1907.39</ele>
        <time>2015-09-12T09:38:22Z</time>
      </trkpt>
      <trkpt lat="42.19881" lon="9.05007">
        <ele>1904.51</ele>
        <time>2015-09-12T09:38:32Z</time>
      </trkpt>
      <trkpt lat="42.19878" lon="9.05015">
        <ele>1902.11</ele>
        <time>2015-09-12T09:38:42Z</time>
      </trkpt>
      <trkpt lat="42.19877" lon="9.05021">
        <ele>1898.74</ele>
        <time>2015-09-12T09:38:53Z</time>
      </trkpt>
      <trkpt lat="42.19874" lon="9.05023">
        <ele>1898.26</ele>
        <time>2015-09-12T09:39:06Z</time>
      </trkpt>
      <trkpt lat="42.19875" lon="9.05022">
        <ele>1898.26</ele>
        <time>2015-09-12T09:39:20Z</time>
      </trkpt>
      <trkpt lat="42.19875" lon="9.05022">
        <ele>1898.26</ele>
        <time>2015-09-12T09:39:40Z</time>
      </trkpt>
      <trkpt lat="42.19872" lon="9.05021">
        <ele>1896.82</ele>
        <time>2015-09-12T09:39:53Z</time>
      </trkpt>
      <trkpt lat="42.19873" lon="9.05025">
        <ele>1894.9</ele>
        <time>2015-09-12T09:40:03Z</time>
      </trkpt>
      <trkpt lat="42.19868" lon="9.05033">
        <ele>1892.49</ele>
        <time>2015-09-12T09:40:14Z</time>
      </trkpt>
      <trkpt lat="42.19868" lon="9.05036">
        <ele>1891.53</ele>
        <time>2015-09-12T09:40:17Z</time>
      </trkpt>
      <trkpt lat="42.19873" lon="9.05041">
        <ele>1892.49</ele>
        <time>2015-09-12T09:40:27Z</time>
      </trkpt>
      <trkpt lat="42.19875" lon="9.05045">
        <ele>1892.01</ele>
        <time>2015-09-12T09:40:31Z</time>
      </trkpt>
      <trkpt lat="42.19876" lon="9.05053">
        <ele>1890.57</ele>
        <time>2015-09-12T09:40:37Z</time>
      </trkpt>
      <trkpt lat="42.19876" lon="9.05058">
        <ele>1889.61</ele>
        <time>2015-09-12T09:40:41Z</time>
      </trkpt>
      <trkpt lat="42.19875" lon="9.05071">
        <ele>1887.69</ele>
        <time>2015-09-12T09:40:51Z</time>
      </trkpt>
      <trkpt lat="42.19875" lon="9.05078">
        <ele>1886.72</ele>
        <time>2015-09-12T09:41:01Z</time>
      </trkpt>
      <trkpt lat="42.19875" lon="9.05084">
        <ele>1885.76</ele>
        <time>2015-09-12T09:41:06Z</time>
      </trkpt>
      <trkpt lat="42.19871" lon="9.05086">
        <ele>1884.8</ele>
        <time>2015-09-12T09:41:19Z</time>
      </trkpt>
      <trkpt lat="42.19871" lon="9.05087">
        <ele>1884.8</ele>
        <time>2015-09-12T09:41:20Z</time>
      </trkpt>
      <trkpt lat="42.1987" lon="9.05091">
        <ele>1884.32</ele>
        <time>2015-09-12T09:41:24Z</time>
      </trkpt>
      <trkpt lat="42.1987" lon="9.05099">
        <ele>1882.88</ele>
        <time>2015-09-12T09:41:31Z</time>
      </trkpt>
      <trkpt lat="42.19866" lon="9.05106">
        <ele>1881.44</ele>
        <time>2015-09-12T09:41:42Z</time>
      </trkpt>
      <trkpt lat="42.19861" lon="9.05111">
        <ele>1878.55</ele>
        <time>2015-09-12T09:41:51Z</time>
      </trkpt>
      <trkpt lat="42.19859" lon="9.05111">
        <ele>1878.55</ele>
        <time>2015-09-12T09:41:53Z</time>
      </trkpt>
      <trkpt lat="42.19857" lon="9.05116">
        <ele>1877.11</ele>
        <time>2015-09-12T09:42:00Z</time>
      </trkpt>
      <trkpt lat="42.19856" lon="9.05119">
        <ele>1876.15</ele>
        <time>2015-09-12T09:42:03Z</time>
      </trkpt>
      <trkpt lat="42.19854" lon="9.05119">
        <ele>1875.67</ele>
        <time>2015-09-12T09:42:06Z</time>
      </trkpt>
      <trkpt lat="42.19852" lon="9.05126">
        <ele>1874.71</ele>
        <time>2015-09-12T09:42:11Z</time>
      </trkpt>
      <trkpt lat="42.19848" lon="9.05135">
        <ele>1871.82</ele>
        <time>2015-09-12T09:42:21Z</time>
      </trkpt>
      <trkpt lat="42.19846" lon="9.0514">
        <ele>1870.38</ele>
        <time>2015-09-12T09:42:28Z</time>
      </trkpt>
      <trkpt lat="42.19842" lon="9.0514">
        <ele>1868.94</ele>
        <time>2015-09-12T09:42:35Z</time>
      </trkpt>
      <trkpt lat="42.19839" lon="9.0514">
        <ele>1867.98</ele>
        <time>2015-09-12T09:42:40Z</time>
      </trkpt>
      <trkpt lat="42.19834" lon="9.0514">
        <ele>1866.06</ele>
        <time>2015-09-12T09:42:48Z</time>
      </trkpt>
      <trkpt lat="42.19831" lon="9.0514">
        <ele>1865.58</ele>
        <time>2015-09-12T09:42:52Z</time>
      </trkpt>
      <trkpt lat="42.19825" lon="9.05143">
        <ele>1862.69</ele>
        <time>2015-09-12T09:43:02Z</time>
      </trkpt>
      <trkpt lat="42.19822" lon="9.05145">
        <ele>1861.73</ele>
        <time>2015-09-12T09:43:07Z</time>
      </trkpt>
      <trkpt lat="42.19816" lon="9.05148">
        <ele>1858.85</ele>
        <time>2015-09-12T09:43:17Z</time>
      </trkpt>
      <trkpt lat="42.1981" lon="9.05146">
        <ele>1857.4</ele>
        <time>2015-09-12T09:43:29Z</time>
      </trkpt>
      <trkpt lat="42.19807" lon="9.05157">
        <ele>1856.44</ele>
        <time>2015-09-12T09:43:42Z</time>
      </trkpt>
      <trkpt lat="42.19808" lon="9.05169">
        <ele>1855</ele>
        <time>2015-09-12T09:43:54Z</time>
      </trkpt>
      <trkpt lat="42.19809" lon="9.0517">
        <ele>1855</ele>
        <time>2015-09-12T09:43:56Z</time>
      </trkpt>
      <trkpt lat="42.19811" lon="9.05176">
        <ele>1855</ele>
        <time>2015-09-12T09:44:00Z</time>
      </trkpt>
      <trkpt lat="42.1981" lon="9.05181">
        <ele>1854.52</ele>
        <time>2015-09-12T09:44:14Z</time>
      </trkpt>
      <trkpt lat="42.1981" lon="9.05186">
        <ele>1854.04</ele>
        <time>2015-09-12T09:44:17Z</time>
      </trkpt>
      <trkpt lat="42.19809" lon="9.0519">
        <ele>1854.04</ele>
        <time>2015-09-12T09:44:20Z</time>
      </trkpt>
      <trkpt lat="42.19811" lon="9.05211">
        <ele>1853.08</ele>
        <time>2015-09-12T09:44:33Z</time>
      </trkpt>
      <trkpt lat="42.19812" lon="9.05217">
        <ele>1852.6</ele>
        <time>2015-09-12T09:44:37Z</time>
      </trkpt>
      <trkpt lat="42.19812" lon="9.05228">
        <ele>1852.6</ele>
        <time>2015-09-12T09:44:45Z</time>
      </trkpt>
      <trkpt lat="42.19818" lon="9.05233">
        <ele>1853.08</ele>
        <time>2015-09-12T09:44:57Z</time>
      </trkpt>
      <trkpt lat="42.19815" lon="9.05231">
        <ele>1853.08</ele>
        <time>2015-09-12T09:45:06Z</time>
      </trkpt>
      <trkpt lat="42.19815" lon="9.05229">
        <ele>1852.12</ele>
        <time>2015-09-12T09:45:23Z</time>
      </trkpt>
      <trkpt lat="42.19815" lon="9.05229">
        <ele>1852.12</ele>
        <time>2015-09-12T09:45:54Z</time>
      </trkpt>
      <trkpt lat="42.19815" lon="9.05229">
        <ele>1852.12</ele>
        <time>2015-09-12T09:46:25Z</time>
      </trkpt>
      <trkpt lat="42.19815" lon="9.05229">
        <ele>1852.12</ele>
        <time>2015-09-12T09:46:59Z</time>
      </trkpt>
      <trkpt lat="42.19815" lon="9.05229">
        <ele>1851.64</ele>
        <time>2015-09-12T09:47:33Z</time>
      </trkpt>
      <trkpt lat="42.19815" lon="9.05229">
        <ele>1851.64</ele>
        <time>2015-09-12T09:48:15Z</time>
      </trkpt>
      <trkpt lat="42.19815" lon="9.05229">
        <ele>1851.64</ele>
        <time>2015-09-12T09:48:53Z</time>
      </trkpt>
      <trkpt lat="42.19816" lon="9.0523">
        <ele>1851.64</ele>
        <time>2015-09-12T09:49:25Z</time>
      </trkpt>
      <trkpt lat="42.19816" lon="9.0523">
        <ele>1851.64</ele>
        <time>2015-09-12T09:50:05Z</time>
      </trkpt>
      <trkpt lat="42.19815" lon="9.0523">
        <ele>1851.64</ele>
        <time>2015-09-12T09:50:43Z</time>
      </trkpt>
      <trkpt lat="42.19815" lon="9.0523">
        <ele>1851.64</ele>
        <time>2015-09-12T09:51:19Z</time>
      </trkpt>
      <trkpt lat="42.19815" lon="9.0523">
        <ele>1851.64</ele>
        <time>2015-09-12T09:51:52Z</time>
      </trkpt>
      <trkpt lat="42.19815" lon="9.05231">
        <ele>1851.16</ele>
        <time>2015-09-12T09:52:28Z</time>
      </trkpt>
      <trkpt lat="42.19815" lon="9.05231">
        <ele>1851.16</ele>
        <time>2015-09-12T09:53:03Z</time>
      </trkpt>
      <trkpt lat="42.19815" lon="9.05231">
        <ele>1850.68</ele>
        <time>2015-09-12T09:53:41Z</time>
      </trkpt>
      <trkpt lat="42.19815" lon="9.0523">
        <ele>1851.16</ele>
        <time>2015-09-12T09:54:17Z</time>
      </trkpt>
      <trkpt lat="42.19816" lon="9.05231">
        <ele>1851.16</ele>
        <time>2015-09-12T09:54:50Z</time>
      </trkpt>
      <trkpt lat="42.19816" lon="9.05231">
        <ele>1850.68</ele>
        <time>2015-09-12T09:55:09Z</time>
      </trkpt>
      <trkpt lat="42.19815" lon="9.05231">
        <ele>1850.68</ele>
        <time>2015-09-12T09:55:40Z</time>
      </trkpt>
      <trkpt lat="42.19815" lon="9.0523">
        <ele>1850.68</ele>
        <time>2015-09-12T09:56:12Z</time>
      </trkpt>
      <trkpt lat="42.19815" lon="9.0523">
        <ele>1850.68</ele>
        <time>2015-09-12T09:56:50Z</time>
      </trkpt>
      <trkpt lat="42.19816" lon="9.0523">
        <ele>1850.19</ele>
        <time>2015-09-12T09:57:29Z</time>
      </trkpt>
      <trkpt lat="42.19816" lon="9.0523">
        <ele>1850.19</ele>
        <time>2015-09-12T09:58:06Z</time>
      </trkpt>
      <trkpt lat="42.19816" lon="9.05229">
        <ele>1850.19</ele>
        <time>2015-09-12T09:58:40Z</time>
      </trkpt>
      <trkpt lat="42.19816" lon="9.05229">
        <ele>1850.19</ele>
        <time>2015-09-12T09:59:17Z</time>
      </trkpt>
      <trkpt lat="42.19816" lon="9.05229">
        <ele>1849.71</ele>
        <time>2015-09-12T09:59:41Z</time>
      </trkpt>
      <trkpt lat="42.19816" lon="9.0523">
        <ele>1849.71</ele>
        <time>2015-09-12T10:00:09Z</time>
      </trkpt>
      <trkpt lat="42.19816" lon="9.05231">
        <ele>1849.71</ele>
        <time>2015-09-12T10:00:44Z</time>
      </trkpt>
      <trkpt lat="42.19815" lon="9.05231">
        <ele>1849.71</ele>
        <time>2015-09-12T10:01:18Z</time>
      </trkpt>
      <trkpt lat="42.19815" lon="9.0523">
        <ele>1849.71</ele>
        <time>2015-09-12T10:01:54Z</time>
      </trkpt>
      <trkpt lat="42.19815" lon="9.05231">
        <ele>1849.71</ele>
        <time>2015-09-12T10:02:27Z</time>
      </trkpt>
      <trkpt lat="42.19815" lon="9.05231">
        <ele>1849.71</ele>
        <time>2015-09-12T10:03:00Z</time>
      </trkpt>
      <trkpt lat="42.19815" lon="9.05231">
        <ele>1849.23</ele>
        <time>2015-09-12T10:03:35Z</time>
      </trkpt>
      <trkpt lat="42.19815" lon="9.0523">
        <ele>1849.71</ele>
        <time>2015-09-12T10:04:18Z</time>
      </trkpt>
      <trkpt lat="42.19815" lon="9.0523">
        <ele>1849.23</ele>
        <time>2015-09-12T10:04:57Z</time>
      </trkpt>
      <trkpt lat="42.19815" lon="9.0523">
        <ele>1849.23</ele>
        <time>2015-09-12T10:05:32Z</time>
      </trkpt>
      <trkpt lat="42.19815" lon="9.0523">
        <ele>1849.23</ele>
        <time>2015-09-12T10:06:13Z</time>
      </trkpt>
      <trkpt lat="42.19815" lon="9.0523">
        <ele>1849.23</ele>
        <time>2015-09-12T10:06:52Z</time>
      </trkpt>
      <trkpt lat="42.19815" lon="9.0523">
        <ele>1849.23</ele>
        <time>2015-09-12T10:07:30Z</time>
      </trkpt>
      <trkpt lat="42.19815" lon="9.0523">
        <ele>1849.23</ele>
        <time>2015-09-12T10:08:10Z</time>
      </trkpt>
      <trkpt lat="42.19815" lon="9.0523">
        <ele>1849.23</ele>
        <time>2015-09-12T10:08:53Z</time>
      </trkpt>
      <trkpt lat="42.19814" lon="9.0523">
        <ele>1849.23</ele>
        <time>2015-09-12T10:09:28Z</time>
      </trkpt>
      <trkpt lat="42.19814" lon="9.0523">
        <ele>1848.75</ele>
        <time>2015-09-12T10:10:03Z</time>
      </trkpt>
      <trkpt lat="42.19814" lon="9.05229">
        <ele>1848.75</ele>
        <time>2015-09-12T10:10:38Z</time>
      </trkpt>
      <trkpt lat="42.19814" lon="9.0523">
        <ele>1848.75</ele>
        <time>2015-09-12T10:11:14Z</time>
      </trkpt>
      <trkpt lat="42.19814" lon="9.0523">
        <ele>1848.75</ele>
        <time>2015-09-12T10:11:53Z</time>
      </trkpt>
      <trkpt lat="42.19814" lon="9.0523">
        <ele>1848.75</ele>
        <time>2015-09-12T10:12:30Z</time>
      </trkpt>
      <trkpt lat="42.19814" lon="9.0523">
        <ele>1848.27</ele>
        <time>2015-09-12T10:13:01Z</time>
      </trkpt>
      <trkpt lat="42.19814" lon="9.0523">
        <ele>1848.27</ele>
        <time>2015-09-12T10:13:40Z</time>
      </trkpt>
      <trkpt lat="42.19814" lon="9.05231">
        <ele>1848.27</ele>
        <time>2015-09-12T10:14:12Z</time>
      </trkpt>
      <trkpt lat="42.19815" lon="9.0523">
        <ele>1848.27</ele>
        <time>2015-09-12T10:14:50Z</time>
      </trkpt>
      <trkpt lat="42.19815" lon="9.0523">
        <ele>1848.27</ele>
        <time>2015-09-12T10:15:23Z</time>
      </trkpt>
      <trkpt lat="42.19815" lon="9.0523">
        <ele>1847.79</ele>
        <time>2015-09-12T10:15:57Z</time>
      </trkpt>
      <trkpt lat="42.19815" lon="9.0523">
        <ele>1847.79</ele>
        <time>2015-09-12T10:16:28Z</time>
      </trkpt>
      <trkpt lat="42.19815" lon="9.0523">
        <ele>1847.79</ele>
        <time>2015-09-12T10:17:00Z</time>
      </trkpt>
      <trkpt lat="42.19815" lon="9.05231">
        <ele>1847.79</ele>
        <time>2015-09-12T10:17:40Z</time>
      </trkpt>
      <trkpt lat="42.19814" lon="9.05231">
        <ele>1847.31</ele>
        <time>2015-09-12T10:18:18Z</time>
      </trkpt>
      <trkpt lat="42.19814" lon="9.0523">
        <ele>1847.31</ele>
        <time>2015-09-12T10:18:52Z</time>
      </trkpt>
      <trkpt lat="42.19814" lon="9.05231">
        <ele>1847.31</ele>
        <time>2015-09-12T10:19:20Z</time>
      </trkpt>
      <trkpt lat="42.19814" lon="9.0523">
        <ele>1847.31</ele>
        <time>2015-09-12T10:20:00Z</time>
      </trkpt>
      <trkpt lat="42.19814" lon="9.0523">
        <ele>1847.31</ele>
        <time>2015-09-12T10:20:37Z</time>
      </trkpt>
      <trkpt lat="42.19815" lon="9.0523">
        <ele>1847.31</ele>
        <time>2015-09-12T10:21:15Z</time>
      </trkpt>
      <trkpt lat="42.19815" lon="9.0523">
        <ele>1847.31</ele>
        <time>2015-09-12T10:21:46Z</time>
      </trkpt>
      <trkpt lat="42.19814" lon="9.0523">
        <ele>1847.31</ele>
        <time>2015-09-12T10:22:15Z</time>
      </trkpt>
      <trkpt lat="42.19814" lon="9.0523">
        <ele>1847.31</ele>
        <time>2015-09-12T10:22:43Z</time>
      </trkpt>
      <trkpt lat="42.19815" lon="9.0523">
        <ele>1846.83</ele>
        <time>2015-09-12T10:23:17Z</time>
      </trkpt>
      <trkpt lat="42.19814" lon="9.0523">
        <ele>1846.83</ele>
        <time>2015-09-12T10:23:47Z</time>
      </trkpt>
      <trkpt lat="42.19813" lon="9.05229">
        <ele>1846.83</ele>
        <time>2015-09-12T10:24:05Z</time>
      </trkpt>
      <trkpt lat="42.19814" lon="9.0523">
        <ele>1846.83</ele>
        <time>2015-09-12T10:24:37Z</time>
      </trkpt>
      <trkpt lat="42.19815" lon="9.0523">
        <ele>1846.83</ele>
        <time>2015-09-12T10:25:09Z</time>
      </trkpt>
      <trkpt lat="42.19815" lon="9.0523">
        <ele>1846.83</ele>
        <time>2015-09-12T10:25:36Z</time>
      </trkpt>
      <trkpt lat="42.19815" lon="9.0523">
        <ele>1846.83</ele>
        <time>2015-09-12T10:26:00Z</time>
      </trkpt>
      <trkpt lat="42.19815" lon="9.05231">
        <ele>1846.83</ele>
        <time>2015-09-12T10:26:28Z</time>
      </trkpt>
      <trkpt lat="42.19815" lon="9.05231">
        <ele>1846.35</ele>
        <time>2015-09-12T10:26:57Z</time>
      </trkpt>
      <trkpt lat="42.19815" lon="9.05231">
        <ele>1846.35</ele>
        <time>2015-09-12T10:27:28Z</time>
      </trkpt>
      <trkpt lat="42.19815" lon="9.0523">
        <ele>1846.35</ele>
        <time>2015-09-12T10:27:58Z</time>
      </trkpt>
      <trkpt lat="42.19815" lon="9.0523">
        <ele>1846.35</ele>
        <time>2015-09-12T10:28:30Z</time>
      </trkpt>
      <trkpt lat="42.19815" lon="9.05231">
        <ele>1846.35</ele>
        <time>2015-09-12T10:28:57Z</time>
      </trkpt>
      <trkpt lat="42.19815" lon="9.0523">
        <ele>1846.35</ele>
        <time>2015-09-12T10:29:33Z</time>
      </trkpt>
      <trkpt lat="42.19814" lon="9.0523">
        <ele>1846.35</ele>
        <time>2015-09-12T10:30:10Z</time>
      </trkpt>
      <trkpt lat="42.19814" lon="9.0523">
        <ele>1846.35</ele>
        <time>2015-09-12T10:30:52Z</time>
      </trkpt>
      <trkpt lat="42.19814" lon="9.0523">
        <ele>1845.87</ele>
        <time>2015-09-12T10:31:27Z</time>
      </trkpt>
      <trkpt lat="42.19814" lon="9.05231">
        <ele>1845.87</ele>
        <time>2015-09-12T10:32:06Z</time>
      </trkpt>
      <trkpt lat="42.19814" lon="9.0523">
        <ele>1845.87</ele>
        <time>2015-09-12T10:32:41Z</time>
      </trkpt>
      <trkpt lat="42.19814" lon="9.0523">
        <ele>1845.87</ele>
        <time>2015-09-12T10:33:19Z</time>
      </trkpt>
      <trkpt lat="42.19815" lon="9.0523">
        <ele>1845.87</ele>
        <time>2015-09-12T10:33:53Z</time>
      </trkpt>
      <trkpt lat="42.19815" lon="9.05229">
        <ele>1845.39</ele>
        <time>2015-09-12T10:34:33Z</time>
      </trkpt>
      <trkpt lat="42.19815" lon="9.0523">
        <ele>1845.39</ele>
        <time>2015-09-12T10:35:11Z</time>
      </trkpt>
      <trkpt lat="42.19816" lon="9.05231">
        <ele>1846.35</ele>
        <time>2015-09-12T10:35:18Z</time>
      </trkpt>
      <trkpt lat="42.19814" lon="9.05229">
        <ele>1846.35</ele>
        <time>2015-09-12T10:35:29Z</time>
      </trkpt>
      <trkpt lat="42.19814" lon="9.0523">
        <ele>1846.35</ele>
        <time>2015-09-12T10:35:45Z</time>
      </trkpt>
      <trkpt lat="42.19815" lon="9.05229">
        <ele>1846.35</ele>
        <time>2015-09-12T10:36:03Z</time>
      </trkpt>
      <trkpt lat="42.19815" lon="9.05231">
        <ele>1845.87</ele>
        <time>2015-09-12T10:36:14Z</time>
      </trkpt>
      <trkpt lat="42.19815" lon="9.05232">
        <ele>1845.87</ele>
        <time>2015-09-12T10:36:30Z</time>
      </trkpt>
      <trkpt lat="42.19815" lon="9.05233">
        <ele>1845.87</ele>
        <time>2015-09-12T10:36:31Z</time>
      </trkpt>
      <trkpt lat="42.19816" lon="9.05235">
        <ele>1845.87</ele>
        <time>2015-09-12T10:36:33Z</time>
      </trkpt>
      <trkpt lat="42.19817" lon="9.05238">
        <ele>1845.87</ele>
        <time>2015-09-12T10:36:39Z</time>
      </trkpt>
      <trkpt lat="42.19815" lon="9.05231">
        <ele>1845.87</ele>
        <time>2015-09-12T10:36:55Z</time>
      </trkpt>
      <trkpt lat="42.19815" lon="9.0523">
        <ele>1846.35</ele>
        <time>2015-09-12T10:37:13Z</time>
      </trkpt>
      <trkpt lat="42.19815" lon="9.05231">
        <ele>1845.87</ele>
        <time>2015-09-12T10:37:27Z</time>
      </trkpt>
      <trkpt lat="42.19815" lon="9.0523">
        <ele>1845.87</ele>
        <time>2015-09-12T10:37:47Z</time>
      </trkpt>
      <trkpt lat="42.19815" lon="9.0523">
        <ele>1845.87</ele>
        <time>2015-09-12T10:37:59Z</time>
      </trkpt>
      <trkpt lat="42.19814" lon="9.0523">
        <ele>1845.87</ele>
        <time>2015-09-12T10:38:18Z</time>
      </trkpt>
      <trkpt lat="42.19813" lon="9.05227">
        <ele>1845.87</ele>
        <time>2015-09-12T10:38:32Z</time>
      </trkpt>
      <trkpt lat="42.19812" lon="9.05224">
        <ele>1845.39</ele>
        <time>2015-09-12T10:39:00Z</time>
      </trkpt>
      <trkpt lat="42.19811" lon="9.05223">
        <ele>1845.87</ele>
        <time>2015-09-12T10:39:16Z</time>
      </trkpt>
      <trkpt lat="42.19811" lon="9.05222">
        <ele>1845.87</ele>
        <time>2015-09-12T10:39:34Z</time>
      </trkpt>
      <trkpt lat="42.19811" lon="9.05222">
        <ele>1845.87</ele>
        <time>2015-09-12T10:39:52Z</time>
      </trkpt>
      <trkpt lat="42.1981" lon="9.0522">
        <ele>1845.87</ele>
        <time>2015-09-12T10:40:08Z</time>
      </trkpt>
      <trkpt lat="42.19812" lon="9.05223">
        <ele>1845.87</ele>
        <time>2015-09-12T10:40:28Z</time>
      </trkpt>
      <trkpt lat="42.19813" lon="9.05224">
        <ele>1845.87</ele>
        <time>2015-09-12T10:40:43Z</time>
      </trkpt>
      <trkpt lat="42.19813" lon="9.05222">
        <ele>1845.87</ele>
        <time>2015-09-12T10:40:57Z</time>
      </trkpt>
      <trkpt lat="42.19813" lon="9.05221">
        <ele>1845.87</ele>
        <time>2015-09-12T10:41:13Z</time>
      </trkpt>
      <trkpt lat="42.19812" lon="9.05221">
        <ele>1845.39</ele>
        <time>2015-09-12T10:41:24Z</time>
      </trkpt>
      <trkpt lat="42.19812" lon="9.05223">
        <ele>1845.87</ele>
        <time>2015-09-12T10:41:33Z</time>
      </trkpt>
      <trkpt lat="42.19812" lon="9.05223">
        <ele>1845.39</ele>
        <time>2015-09-12T10:41:49Z</time>
      </trkpt>
      <trkpt lat="42.19813" lon="9.05224">
        <ele>1845.87</ele>
        <time>2015-09-12T10:42:08Z</time>
      </trkpt>
      <trkpt lat="42.19812" lon="9.05224">
        <ele>1845.39</ele>
        <time>2015-09-12T10:42:29Z</time>
      </trkpt>
      <trkpt lat="42.1981" lon="9.05215">
        <ele>1845.87</ele>
        <time>2015-09-12T10:42:44Z</time>
      </trkpt>
      <trkpt lat="42.1981" lon="9.05204">
        <ele>1846.35</ele>
        <time>2015-09-12T10:42:55Z</time>
      </trkpt>
      <trkpt lat="42.19808" lon="9.05199">
        <ele>1846.35</ele>
        <time>2015-09-12T10:42:59Z</time>
      </trkpt>
      <trkpt lat="42.19809" lon="9.05186">
        <ele>1846.83</ele>
        <time>2015-09-12T10:43:10Z</time>
      </trkpt>
      <trkpt lat="42.19812" lon="9.05179">
        <ele>1847.79</ele>
        <time>2015-09-12T10:43:17Z</time>
      </trkpt>
      <trkpt lat="42.19807" lon="9.05168">
        <ele>1847.79</ele>
        <time>2015-09-12T10:43:29Z</time>
      </trkpt>
      <trkpt lat="42.19805" lon="9.05164">
        <ele>1847.79</ele>
        <time>2015-09-12T10:43:33Z</time>
      </trkpt>
      <trkpt lat="42.19803" lon="9.05161">
        <ele>1848.27</ele>
        <time>2015-09-12T10:43:47Z</time>
      </trkpt>
      <trkpt lat="42.19803" lon="9.05161">
        <ele>1848.27</ele>
        <time>2015-09-12T10:43:52Z</time>
      </trkpt>
      <trkpt lat="42.19802" lon="9.05158">
        <ele>1848.75</ele>
        <time>2015-09-12T10:43:55Z</time>
      </trkpt>
      <trkpt lat="42.19804" lon="9.05154">
        <ele>1848.75</ele>
        <time>2015-09-12T10:43:58Z</time>
      </trkpt>
      <trkpt lat="42.19801" lon="9.05142">
        <ele>1849.71</ele>
        <time>2015-09-12T10:44:06Z</time>
      </trkpt>
      <trkpt lat="42.19799" lon="9.0514">
        <ele>1849.71</ele>
        <time>2015-09-12T10:44:08Z</time>
      </trkpt>
      <trkpt lat="42.19798" lon="9.05137">
        <ele>1850.19</ele>
        <time>2015-09-12T10:44:11Z</time>
      </trkpt>
      <trkpt lat="42.19792" lon="9.05131">
        <ele>1850.68</ele>
        <time>2015-09-12T10:44:17Z</time>
      </trkpt>
      <trkpt lat="42.19789" lon="9.05128">
        <ele>1850.19</ele>
        <time>2015-09-12T10:44:20Z</time>
      </trkpt>
      <trkpt lat="42.19783" lon="9.05125">
        <ele>1849.71</ele>
        <time>2015-09-12T10:44:25Z</time>
      </trkpt>
      <trkpt lat="42.19781" lon="9.0512">
        <ele>1849.23</ele>
        <time>2015-09-12T10:44:29Z</time>
      </trkpt>
      <trkpt lat="42.19781" lon="9.05102">
        <ele>1849.23</ele>
        <time>2015-09-12T10:44:41Z</time>
      </trkpt>
      <trkpt lat="42.19774" lon="9.05085">
        <ele>1848.75</ele>
        <time>2015-09-12T10:44:53Z</time>
      </trkpt>
      <trkpt lat="42.19767" lon="9.05067">
        <ele>1848.75</ele>
        <time>2015-09-12T10:45:04Z</time>
      </trkpt>
      <trkpt lat="42.19761" lon="9.05062">
        <ele>1848.75</ele>
        <time>2015-09-12T10:45:10Z</time>
      </trkpt>
      <trkpt lat="42.19757" lon="9.05052">
        <ele>1846.83</ele>
        <time>2015-09-12T10:45:20Z</time>
      </trkpt>
      <trkpt lat="42.19752" lon="9.05052">
        <ele>1845.39</ele>
        <time>2015-09-12T10:45:27Z</time>
      </trkpt>
      <trkpt lat="42.19752" lon="9.05057">
        <ele>1843.95</ele>
        <time>2015-09-12T10:45:31Z</time>
      </trkpt>
      <trkpt lat="42.19749" lon="9.05061">
        <ele>1842.5</ele>
        <time>2015-09-12T10:45:37Z</time>
      </trkpt>
      <trkpt lat="42.19745" lon="9.05066">
        <ele>1839.14</ele>
        <time>2015-09-12T10:45:48Z</time>
      </trkpt>
      <trkpt lat="42.19742" lon="9.05064">
        <ele>1836.74</ele>
        <time>2015-09-12T10:45:58Z</time>
      </trkpt>
      <trkpt lat="42.19739" lon="9.05058">
        <ele>1834.81</ele>
        <time>2015-09-12T10:46:08Z</time>
      </trkpt>
      <trkpt lat="42.19738" lon="9.05057">
        <ele>1833.85</ele>
        <time>2015-09-12T10:46:13Z</time>
      </trkpt>
      <trkpt lat="42.19736" lon="9.05053">
        <ele>1832.89</ele>
        <time>2015-09-12T10:46:17Z</time>
      </trkpt>
      <trkpt lat="42.19732" lon="9.05051">
        <ele>1831.93</ele>
        <time>2015-09-12T10:46:21Z</time>
      </trkpt>
      <trkpt lat="42.1973" lon="9.05055">
        <ele>1830.97</ele>
        <time>2015-09-12T10:46:29Z</time>
      </trkpt>
      <trkpt lat="42.19731" lon="9.05063">
        <ele>1829.53</ele>
        <time>2015-09-12T10:46:34Z</time>
      </trkpt>
      <trkpt lat="42.19727" lon="9.05061">
        <ele>1828.56</ele>
        <time>2015-09-12T10:46:39Z</time>
      </trkpt>
      <trkpt lat="42.19722" lon="9.05065">
        <ele>1825.2</ele>
        <time>2015-09-12T10:46:50Z</time>
      </trkpt>
      <trkpt lat="42.1972" lon="9.05074">
        <ele>1822.8</ele>
        <time>2015-09-12T10:47:02Z</time>
      </trkpt>
      <trkpt lat="42.19721" lon="9.05075">
        <ele>1822.8</ele>
        <time>2015-09-12T10:47:11Z</time>
      </trkpt>
      <trkpt lat="42.19723" lon="9.05086">
        <ele>1820.87</ele>
        <time>2015-09-12T10:47:20Z</time>
      </trkpt>
      <trkpt lat="42.19724" lon="9.05093">
        <ele>1818.95</ele>
        <time>2015-09-12T10:47:25Z</time>
      </trkpt>
      <trkpt lat="42.19723" lon="9.05103">
        <ele>1817.51</ele>
        <time>2015-09-12T10:47:35Z</time>
      </trkpt>
      <trkpt lat="42.19721" lon="9.05097">
        <ele>1816.07</ele>
        <time>2015-09-12T10:47:42Z</time>
      </trkpt>
      <trkpt lat="42.19714" lon="9.05085">
        <ele>1813.66</ele>
        <time>2015-09-12T10:47:54Z</time>
      </trkpt>
      <trkpt lat="42.19707" lon="9.05083">
        <ele>1811.26</ele>
        <time>2015-09-12T10:48:06Z</time>
      </trkpt>
      <trkpt lat="42.19699" lon="9.05083">
        <ele>1807.9</ele>
        <time>2015-09-12T10:48:17Z</time>
      </trkpt>
      <trkpt lat="42.19696" lon="9.05082">
        <ele>1806.45</ele>
        <time>2015-09-12T10:48:21Z</time>
      </trkpt>
      <trkpt lat="42.19691" lon="9.05083">
        <ele>1803.57</ele>
        <time>2015-09-12T10:48:31Z</time>
      </trkpt>
      <trkpt lat="42.19689" lon="9.05082">
        <ele>1803.09</ele>
        <time>2015-09-12T10:48:34Z</time>
      </trkpt>
      <trkpt lat="42.19681" lon="9.05077">
        <ele>1799.73</ele>
        <time>2015-09-12T10:48:47Z</time>
      </trkpt>
      <trkpt lat="42.19675" lon="9.05078">
        <ele>1797.32</ele>
        <time>2015-09-12T10:48:55Z</time>
      </trkpt>
      <trkpt lat="42.19672" lon="9.0508">
        <ele>1795.88</ele>
        <time>2015-09-12T10:48:58Z</time>
      </trkpt>
      <trkpt lat="42.19667" lon="9.05085">
        <ele>1793.96</ele>
        <time>2015-09-12T10:49:06Z</time>
      </trkpt>
      <trkpt lat="42.19663" lon="9.0509">
        <ele>1790.59</ele>
        <time>2015-09-12T10:49:16Z</time>
      </trkpt>
      <trkpt lat="42.19662" lon="9.05096">
        <ele>1788.67</ele>
        <time>2015-09-12T10:49:24Z</time>
      </trkpt>
      <trkpt lat="42.1966" lon="9.05107">
        <ele>1784.82</ele>
        <time>2015-09-12T10:49:36Z</time>
      </trkpt>
      <trkpt lat="42.1966" lon="9.05112">
        <ele>1782.42</ele>
        <time>2015-09-12T10:49:47Z</time>
      </trkpt>
      <trkpt lat="42.19656" lon="9.05114">
        <ele>1779.54</ele>
        <time>2015-09-12T10:49:57Z</time>
      </trkpt>
      <trkpt lat="42.19655" lon="9.05116">
        <ele>1778.1</ele>
        <time>2015-09-12T10:50:08Z</time>
      </trkpt>
      <trkpt lat="42.19653" lon="9.05125">
        <ele>1775.69</ele>
        <time>2015-09-12T10:50:21Z</time>
      </trkpt>
      <trkpt lat="42.19648" lon="9.05125">
        <ele>1773.29</ele>
        <time>2015-09-12T10:50:32Z</time>
      </trkpt>
      <trkpt lat="42.19642" lon="9.05122">
        <ele>1770.89</ele>
        <time>2015-09-12T10:50:43Z</time>
      </trkpt>
      <trkpt lat="42.1964" lon="9.05129">
        <ele>1768</ele>
        <time>2015-09-12T10:50:54Z</time>
      </trkpt>
      <trkpt lat="42.19636" lon="9.05133">
        <ele>1765.12</ele>
        <time>2015-09-12T10:51:04Z</time>
      </trkpt>
      <trkpt lat="42.1963" lon="9.05134">
        <ele>1762.71</ele>
        <time>2015-09-12T10:51:15Z</time>
      </trkpt>
      <trkpt lat="42.19627" lon="9.05142">
        <ele>1759.35</ele>
        <time>2015-09-12T10:51:27Z</time>
      </trkpt>
      <trkpt lat="42.19626" lon="9.05147">
        <ele>1758.39</ele>
        <time>2015-09-12T10:51:36Z</time>
      </trkpt>
      <trkpt lat="42.19624" lon="9.05157">
        <ele>1755.99</ele>
        <time>2015-09-12T10:51:46Z</time>
      </trkpt>
      <trkpt lat="42.19623" lon="9.05168">
        <ele>1753.1</ele>
        <time>2015-09-12T10:51:57Z</time>
      </trkpt>
      <trkpt lat="42.19624" lon="9.0518">
        <ele>1750.22</ele>
        <time>2015-09-12T10:52:10Z</time>
      </trkpt>
      <trkpt lat="42.19619" lon="9.05186">
        <ele>1746.85</ele>
        <time>2015-09-12T10:52:21Z</time>
      </trkpt>
      <trkpt lat="42.19613" lon="9.05192">
        <ele>1743.97</ele>
        <time>2015-09-12T10:52:31Z</time>
      </trkpt>
      <trkpt lat="42.19607" lon="9.05196">
        <ele>1741.08</ele>
        <time>2015-09-12T10:52:42Z</time>
      </trkpt>
      <trkpt lat="42.19606" lon="9.052">
        <ele>1739.16</ele>
        <time>2015-09-12T10:52:50Z</time>
      </trkpt>
      <trkpt lat="42.19606" lon="9.05203">
        <ele>1738.68</ele>
        <time>2015-09-12T10:52:52Z</time>
      </trkpt>
      <trkpt lat="42.19604" lon="9.05207">
        <ele>1736.76</ele>
        <time>2015-09-12T10:53:02Z</time>
      </trkpt>
      <trkpt lat="42.19602" lon="9.05215">
        <ele>1733.39</ele>
        <time>2015-09-12T10:53:14Z</time>
      </trkpt>
      <trkpt lat="42.196" lon="9.05215">
        <ele>1732.91</ele>
        <time>2015-09-12T10:53:16Z</time>
      </trkpt>
      <trkpt lat="42.19597" lon="9.05218">
        <ele>1730.99</ele>
        <time>2015-09-12T10:53:24Z</time>
      </trkpt>
      <trkpt lat="42.19593" lon="9.05225">
        <ele>1728.11</ele>
        <time>2015-09-12T10:53:35Z</time>
      </trkpt>
      <trkpt lat="42.19591" lon="9.05227">
        <ele>1726.67</ele>
        <time>2015-09-12T10:53:40Z</time>
      </trkpt>
      <trkpt lat="42.19591" lon="9.0523">
        <ele>1725.7</ele>
        <time>2015-09-12T10:53:43Z</time>
      </trkpt>
      <trkpt lat="42.19589" lon="9.05231">
        <ele>1724.26</ele>
        <time>2015-09-12T10:53:46Z</time>
      </trkpt>
      <trkpt lat="42.19584" lon="9.05236">
        <ele>1721.86</ele>
        <time>2015-09-12T10:53:58Z</time>
      </trkpt>
      <trkpt lat="42.19581" lon="9.0524">
        <ele>1719.46</ele>
        <time>2015-09-12T10:54:07Z</time>
      </trkpt>
      <trkpt lat="42.19582" lon="9.05249">
        <ele>1717.53</ele>
        <time>2015-09-12T10:54:17Z</time>
      </trkpt>
      <trkpt lat="42.19582" lon="9.05253">
        <ele>1716.09</ele>
        <time>2015-09-12T10:54:21Z</time>
      </trkpt>
      <trkpt lat="42.19575" lon="9.05256">
        <ele>1714.17</ele>
        <time>2015-09-12T10:54:30Z</time>
      </trkpt>
      <trkpt lat="42.19571" lon="9.05262">
        <ele>1711.76</ele>
        <time>2015-09-12T10:54:36Z</time>
      </trkpt>
      <trkpt lat="42.19566" lon="9.05269">
        <ele>1708.88</ele>
        <time>2015-09-12T10:54:48Z</time>
      </trkpt>
      <trkpt lat="42.19564" lon="9.05272">
        <ele>1706.96</ele>
        <time>2015-09-12T10:54:56Z</time>
      </trkpt>
      <trkpt lat="42.19563" lon="9.05275">
        <ele>1706</ele>
        <time>2015-09-12T10:55:01Z</time>
      </trkpt>
      <trkpt lat="42.19562" lon="9.05277">
        <ele>1705.52</ele>
        <time>2015-09-12T10:55:03Z</time>
      </trkpt>
      <trkpt lat="42.19564" lon="9.05286">
        <ele>1703.11</ele>
        <time>2015-09-12T10:55:17Z</time>
      </trkpt>
      <trkpt lat="42.19564" lon="9.05292">
        <ele>1700.71</ele>
        <time>2015-09-12T10:55:27Z</time>
      </trkpt>
      <trkpt lat="42.19565" lon="9.05297">
        <ele>1699.27</ele>
        <time>2015-09-12T10:55:34Z</time>
      </trkpt>
      <trkpt lat="42.19561" lon="9.05295">
        <ele>1698.31</ele>
        <time>2015-09-12T10:55:40Z</time>
      </trkpt>
      <trkpt lat="42.19558" lon="9.05292">
        <ele>1699.27</ele>
        <time>2015-09-12T10:55:50Z</time>
      </trkpt>
      <trkpt lat="42.19558" lon="9.0529">
        <ele>1699.27</ele>
        <time>2015-09-12T10:56:03Z</time>
      </trkpt>
      <trkpt lat="42.19558" lon="9.05289">
        <ele>1699.27</ele>
        <time>2015-09-12T10:56:32Z</time>
      </trkpt>
      <trkpt lat="42.19557" lon="9.05294">
        <ele>1699.27</ele>
        <time>2015-09-12T10:56:43Z</time>
      </trkpt>
      <trkpt lat="42.19558" lon="9.05295">
        <ele>1698.79</ele>
        <time>2015-09-12T10:56:45Z</time>
      </trkpt>
      <trkpt lat="42.19559" lon="9.05297">
        <ele>1698.31</ele>
        <time>2015-09-12T10:56:47Z</time>
      </trkpt>
      <trkpt lat="42.19555" lon="9.053">
        <ele>1697.34</ele>
        <time>2015-09-12T10:56:53Z</time>
      </trkpt>
      <trkpt lat="42.19551" lon="9.05303">
        <ele>1694.94</ele>
        <time>2015-09-12T10:57:04Z</time>
      </trkpt>
      <trkpt lat="42.19549" lon="9.05305">
        <ele>1693.5</ele>
        <time>2015-09-12T10:57:15Z</time>
      </trkpt>
      <trkpt lat="42.19549" lon="9.05308">
        <ele>1692.06</ele>
        <time>2015-09-12T10:57:21Z</time>
      </trkpt>
      <trkpt lat="42.19546" lon="9.05313">
        <ele>1689.17</ele>
        <time>2015-09-12T10:57:33Z</time>
      </trkpt>
      <trkpt lat="42.19544" lon="9.05319">
        <ele>1687.73</ele>
        <time>2015-09-12T10:57:44Z</time>
      </trkpt>
      <trkpt lat="42.19543" lon="9.05321">
        <ele>1685.81</ele>
        <time>2015-09-12T10:57:53Z</time>
      </trkpt>
      <trkpt lat="42.1954" lon="9.05323">
        <ele>1684.37</ele>
        <time>2015-09-12T10:58:04Z</time>
      </trkpt>
      <trkpt lat="42.19535" lon="9.05327">
        <ele>1681.96</ele>
        <time>2015-09-12T10:58:14Z</time>
      </trkpt>
      <trkpt lat="42.19531" lon="9.05324">
        <ele>1681</ele>
        <time>2015-09-12T10:58:26Z</time>
      </trkpt>
      <trkpt lat="42.19527" lon="9.05324">
        <ele>1679.56</ele>
        <time>2015-09-12T10:58:32Z</time>
      </trkpt>
      <trkpt lat="42.19523" lon="9.05325">
        <ele>1677.64</ele>
        <time>2015-09-12T10:58:43Z</time>
      </trkpt>
      <trkpt lat="42.19519" lon="9.05329">
        <ele>1674.27</ele>
        <time>2015-09-12T10:58:51Z</time>
      </trkpt>
      <trkpt lat="42.19516" lon="9.05332">
        <ele>1673.31</ele>
        <time>2015-09-12T10:59:03Z</time>
      </trkpt>
      <trkpt lat="42.19515" lon="9.05332">
        <ele>1672.83</ele>
        <time>2015-09-12T10:59:18Z</time>
      </trkpt>
      <trkpt lat="42.19519" lon="9.05341">
        <ele>1669.95</ele>
        <time>2015-09-12T10:59:30Z</time>
      </trkpt>
      <trkpt lat="42.19517" lon="9.05345">
        <ele>1668.02</ele>
        <time>2015-09-12T10:59:37Z</time>
      </trkpt>
      <trkpt lat="42.19516" lon="9.05351">
        <ele>1665.62</ele>
        <time>2015-09-12T10:59:47Z</time>
      </trkpt>
      <trkpt lat="42.19511" lon="9.05353">
        <ele>1663.7</ele>
        <time>2015-09-12T10:59:58Z</time>
      </trkpt>
      <trkpt lat="42.19514" lon="9.05356">
        <ele>1662.74</ele>
        <time>2015-09-12T11:00:10Z</time>
      </trkpt>
      <trkpt lat="42.19512" lon="9.05358">
        <ele>1661.78</ele>
        <time>2015-09-12T11:00:13Z</time>
      </trkpt>
      <trkpt lat="42.19512" lon="9.05364">
        <ele>1659.37</ele>
        <time>2015-09-12T11:00:23Z</time>
      </trkpt>
      <trkpt lat="42.19513" lon="9.05371">
        <ele>1656.01</ele>
        <time>2015-09-12T11:00:34Z</time>
      </trkpt>
      <trkpt lat="42.19512" lon="9.05378">
        <ele>1654.09</ele>
        <time>2015-09-12T11:00:44Z</time>
      </trkpt>
      <trkpt lat="42.19512" lon="9.05384">
        <ele>1651.68</ele>
        <time>2015-09-12T11:00:56Z</time>
      </trkpt>
      <trkpt lat="42.19512" lon="9.0539">
        <ele>1649.28</ele>
        <time>2015-09-12T11:01:08Z</time>
      </trkpt>
      <trkpt lat="42.19513" lon="9.05397">
        <ele>1645.91</ele>
        <time>2015-09-12T11:01:20Z</time>
      </trkpt>
      <trkpt lat="42.19514" lon="9.05403">
        <ele>1644.47</ele>
        <time>2015-09-12T11:01:29Z</time>
      </trkpt>
      <trkpt lat="42.19512" lon="9.05407">
        <ele>1642.07</ele>
        <time>2015-09-12T11:01:40Z</time>
      </trkpt>
      <trkpt lat="42.19508" lon="9.05408">
        <ele>1640.15</ele>
        <time>2015-09-12T11:01:50Z</time>
      </trkpt>
      <trkpt lat="42.19505" lon="9.05413">
        <ele>1638.22</ele>
        <time>2015-09-12T11:02:02Z</time>
      </trkpt>
      <trkpt lat="42.19506" lon="9.05418">
        <ele>1635.82</ele>
        <time>2015-09-12T11:02:15Z</time>
      </trkpt>
      <trkpt lat="42.19507" lon="9.05424">
        <ele>1634.38</ele>
        <time>2015-09-12T11:02:25Z</time>
      </trkpt>
      <trkpt lat="42.19506" lon="9.05426">
        <ele>1633.9</ele>
        <time>2015-09-12T11:02:27Z</time>
      </trkpt>
      <trkpt lat="42.19506" lon="9.05434">
        <ele>1630.53</ele>
        <time>2015-09-12T11:02:40Z</time>
      </trkpt>
      <trkpt lat="42.19501" lon="9.0544">
        <ele>1627.65</ele>
        <time>2015-09-12T11:02:52Z</time>
      </trkpt>
      <trkpt lat="42.19494" lon="9.05446">
        <ele>1624.28</ele>
        <time>2015-09-12T11:03:05Z</time>
      </trkpt>
      <trkpt lat="42.19495" lon="9.05447">
        <ele>1623.32</ele>
        <time>2015-09-12T11:03:11Z</time>
      </trkpt>
      <trkpt lat="42.19497" lon="9.05456">
        <ele>1621.88</ele>
        <time>2015-09-12T11:03:20Z</time>
      </trkpt>
      <trkpt lat="42.19493" lon="9.05462">
        <ele>1619.48</ele>
        <time>2015-09-12T11:03:31Z</time>
      </trkpt>
      <trkpt lat="42.19496" lon="9.05464">
        <ele>1619.48</ele>
        <time>2015-09-12T11:03:48Z</time>
      </trkpt>
      <trkpt lat="42.19499" lon="9.05468">
        <ele>1619</ele>
        <time>2015-09-12T11:03:53Z</time>
      </trkpt>
      <trkpt lat="42.19501" lon="9.05471">
        <ele>1619</ele>
        <time>2015-09-12T11:04:05Z</time>
      </trkpt>
      <trkpt lat="42.19501" lon="9.05471">
        <ele>1618.52</ele>
        <time>2015-09-12T11:04:40Z</time>
      </trkpt>
      <trkpt lat="42.19496" lon="9.05471">
        <ele>1618.52</ele>
        <time>2015-09-12T11:05:00Z</time>
      </trkpt>
      <trkpt lat="42.19495" lon="9.05475">
        <ele>1618.04</ele>
        <time>2015-09-12T11:05:03Z</time>
      </trkpt>
      <trkpt lat="42.19494" lon="9.05486">
        <ele>1616.11</ele>
        <time>2015-09-12T11:05:16Z</time>
      </trkpt>
      <trkpt lat="42.19489" lon="9.05491">
        <ele>1615.63</ele>
        <time>2015-09-12T11:05:22Z</time>
      </trkpt>
      <trkpt lat="42.1949" lon="9.05498">
        <ele>1614.67</ele>
        <time>2015-09-12T11:05:33Z</time>
      </trkpt>
      <trkpt lat="42.19488" lon="9.05502">
        <ele>1614.19</ele>
        <time>2015-09-12T11:05:37Z</time>
      </trkpt>
      <trkpt lat="42.19487" lon="9.05504">
        <ele>1613.71</ele>
        <time>2015-09-12T11:05:49Z</time>
      </trkpt>
      <trkpt lat="42.19488" lon="9.05505">
        <ele>1612.75</ele>
        <time>2015-09-12T11:06:08Z</time>
      </trkpt>
      <trkpt lat="42.19488" lon="9.05505">
        <ele>1612.75</ele>
        <time>2015-09-12T11:06:42Z</time>
      </trkpt>
      <trkpt lat="42.19487" lon="9.05504">
        <ele>1612.27</ele>
        <time>2015-09-12T11:07:18Z</time>
      </trkpt>
      <trkpt lat="42.19487" lon="9.05505">
        <ele>1612.75</ele>
        <time>2015-09-12T11:07:59Z</time>
      </trkpt>
      <trkpt lat="42.19488" lon="9.05506">
        <ele>1613.23</ele>
        <time>2015-09-12T11:08:36Z</time>
      </trkpt>
      <trkpt lat="42.19488" lon="9.05505">
        <ele>1613.23</ele>
        <time>2015-09-12T11:08:47Z</time>
      </trkpt>
      <trkpt lat="42.19489" lon="9.05504">
        <ele>1613.23</ele>
        <time>2015-09-12T11:09:01Z</time>
      </trkpt>
      <trkpt lat="42.19489" lon="9.05504">
        <ele>1612.75</ele>
        <time>2015-09-12T11:09:17Z</time>
      </trkpt>
      <trkpt lat="42.19488" lon="9.05505">
        <ele>1612.75</ele>
        <time>2015-09-12T11:09:34Z</time>
      </trkpt>
      <trkpt lat="42.19488" lon="9.05506">
        <ele>1612.75</ele>
        <time>2015-09-12T11:09:56Z</time>
      </trkpt>
      <trkpt lat="42.19485" lon="9.05508">
        <ele>1611.31</ele>
        <time>2015-09-12T11:10:12Z</time>
      </trkpt>
      <trkpt lat="42.19486" lon="9.05518">
        <ele>1610.35</ele>
        <time>2015-09-12T11:10:26Z</time>
      </trkpt>
      <trkpt lat="42.19487" lon="9.0552">
        <ele>1609.86</ele>
        <time>2015-09-12T11:10:30Z</time>
      </trkpt>
      <trkpt lat="42.19492" lon="9.05524">
        <ele>1608.9</ele>
        <time>2015-09-12T11:10:36Z</time>
      </trkpt>
      <trkpt lat="42.19497" lon="9.05532">
        <ele>1608.42</ele>
        <time>2015-09-12T11:10:43Z</time>
      </trkpt>
      <trkpt lat="42.19499" lon="9.05538">
        <ele>1607.46</ele>
        <time>2015-09-12T11:10:47Z</time>
      </trkpt>
      <trkpt lat="42.19502" lon="9.05539">
        <ele>1607.46</ele>
        <time>2015-09-12T11:10:50Z</time>
      </trkpt>
      <trkpt lat="42.19504" lon="9.0554">
        <ele>1606.98</ele>
        <time>2015-09-12T11:10:53Z</time>
      </trkpt>
      <trkpt lat="42.19508" lon="9.05542">
        <ele>1606.5</ele>
        <time>2015-09-12T11:10:57Z</time>
      </trkpt>
      <trkpt lat="42.1951" lon="9.05542">
        <ele>1606.02</ele>
        <time>2015-09-12T11:10:59Z</time>
      </trkpt>
      <trkpt lat="42.1952" lon="9.05538">
        <ele>1605.54</ele>
        <time>2015-09-12T11:11:12Z</time>
      </trkpt>
      <trkpt lat="42.19531" lon="9.05535">
        <ele>1605.06</ele>
        <time>2015-09-12T11:11:23Z</time>
      </trkpt>
      <trkpt lat="42.19533" lon="9.05536">
        <ele>1605.06</ele>
        <time>2015-09-12T11:11:25Z</time>
      </trkpt>
      <trkpt lat="42.19539" lon="9.05544">
        <ele>1605.06</ele>
        <time>2015-09-12T11:11:32Z</time>
      </trkpt>
      <trkpt lat="42.19543" lon="9.05565">
        <ele>1604.1</ele>
        <time>2015-09-12T11:11:47Z</time>
      </trkpt>
      <trkpt lat="42.19544" lon="9.05578">
        <ele>1601.21</ele>
        <time>2015-09-12T11:11:59Z</time>
      </trkpt>
      <trkpt lat="42.19548" lon="9.05584">
        <ele>1598.81</ele>
        <time>2015-09-12T11:12:07Z</time>
      </trkpt>
      <trkpt lat="42.19547" lon="9.05592">
        <ele>1598.33</ele>
        <time>2015-09-12T11:12:12Z</time>
      </trkpt>
      <trkpt lat="42.19546" lon="9.05599">
        <ele>1597.37</ele>
        <time>2015-09-12T11:12:20Z</time>
      </trkpt>
      <trkpt lat="42.19541" lon="9.05614">
        <ele>1594.96</ele>
        <time>2015-09-12T11:12:34Z</time>
      </trkpt>
      <trkpt lat="42.19537" lon="9.05625">
        <ele>1592.08</ele>
        <time>2015-09-12T11:12:46Z</time>
      </trkpt>
      <trkpt lat="42.19536" lon="9.05639">
        <ele>1589.2</ele>
        <time>2015-09-12T11:12:58Z</time>
      </trkpt>
      <trkpt lat="42.19536" lon="9.0565">
        <ele>1586.79</ele>
        <time>2015-09-12T11:13:11Z</time>
      </trkpt>
      <trkpt lat="42.19536" lon="9.05651">
        <ele>1586.79</ele>
        <time>2015-09-12T11:13:12Z</time>
      </trkpt>
      <trkpt lat="42.19536" lon="9.05655">
        <ele>1586.31</ele>
        <time>2015-09-12T11:13:14Z</time>
      </trkpt>
      <trkpt lat="42.19539" lon="9.05665">
        <ele>1583.43</ele>
        <time>2015-09-12T11:13:25Z</time>
      </trkpt>
      <trkpt lat="42.19537" lon="9.05665">
        <ele>1582.47</ele>
        <time>2015-09-12T11:13:28Z</time>
      </trkpt>
      <trkpt lat="42.19535" lon="9.05664">
        <ele>1581.03</ele>
        <time>2015-09-12T11:13:35Z</time>
      </trkpt>
      <trkpt lat="42.19539" lon="9.05678">
        <ele>1579.1</ele>
        <time>2015-09-12T11:13:48Z</time>
      </trkpt>
      <trkpt lat="42.1954" lon="9.05679">
        <ele>1578.62</ele>
        <time>2015-09-12T11:13:49Z</time>
      </trkpt>
      <trkpt lat="42.1954" lon="9.05697">
        <ele>1577.18</ele>
        <time>2015-09-12T11:14:01Z</time>
      </trkpt>
      <trkpt lat="42.19544" lon="9.05706">
        <ele>1576.22</ele>
        <time>2015-09-12T11:14:12Z</time>
      </trkpt>
      <trkpt lat="42.19547" lon="9.05708">
        <ele>1574.78</ele>
        <time>2015-09-12T11:14:23Z</time>
      </trkpt>
      <trkpt lat="42.19543" lon="9.05717">
        <ele>1572.37</ele>
        <time>2015-09-12T11:14:34Z</time>
      </trkpt>
      <trkpt lat="42.19545" lon="9.05722">
        <ele>1569.97</ele>
        <time>2015-09-12T11:14:46Z</time>
      </trkpt>
      <trkpt lat="42.19543" lon="9.05725">
        <ele>1568.53</ele>
        <time>2015-09-12T11:14:51Z</time>
      </trkpt>
      <trkpt lat="42.19541" lon="9.05732">
        <ele>1566.12</ele>
        <time>2015-09-12T11:15:02Z</time>
      </trkpt>
      <trkpt lat="42.19544" lon="9.05736">
        <ele>1563.72</ele>
        <time>2015-09-12T11:15:12Z</time>
      </trkpt>
      <trkpt lat="42.19547" lon="9.05738">
        <ele>1561.32</ele>
        <time>2015-09-12T11:15:24Z</time>
      </trkpt>
      <trkpt lat="42.19548" lon="9.05741">
        <ele>1560.36</ele>
        <time>2015-09-12T11:15:28Z</time>
      </trkpt>
      <trkpt lat="42.19547" lon="9.0574">
        <ele>1559.4</ele>
        <time>2015-09-12T11:15:30Z</time>
      </trkpt>
      <trkpt lat="42.19547" lon="9.05741">
        <ele>1557.47</ele>
        <time>2015-09-12T11:15:41Z</time>
      </trkpt>
      <trkpt lat="42.19547" lon="9.05751">
        <ele>1554.11</ele>
        <time>2015-09-12T11:15:52Z</time>
      </trkpt>
      <trkpt lat="42.19543" lon="9.05753">
        <ele>1551.71</ele>
        <time>2015-09-12T11:16:04Z</time>
      </trkpt>
      <trkpt lat="42.19538" lon="9.05748">
        <ele>1548.82</ele>
        <time>2015-09-12T11:16:16Z</time>
      </trkpt>
      <trkpt lat="42.19538" lon="9.05748">
        <ele>1548.82</ele>
        <time>2015-09-12T11:16:17Z</time>
      </trkpt>
      <trkpt lat="42.19539" lon="9.05752">
        <ele>1545.94</ele>
        <time>2015-09-12T11:16:30Z</time>
      </trkpt>
      <trkpt lat="42.19535" lon="9.05754">
        <ele>1544.01</ele>
        <time>2015-09-12T11:16:40Z</time>
      </trkpt>
      <trkpt lat="42.19534" lon="9.05754">
        <ele>1543.53</ele>
        <time>2015-09-12T11:16:43Z</time>
      </trkpt>
      <trkpt lat="42.19526" lon="9.05751">
        <ele>1540.65</ele>
        <time>2015-09-12T11:16:55Z</time>
      </trkpt>
      <trkpt lat="42.19523" lon="9.05757">
        <ele>1538.25</ele>
        <time>2015-09-12T11:17:06Z</time>
      </trkpt>
      <trkpt lat="42.19525" lon="9.05761">
        <ele>1535.36</ele>
        <time>2015-09-12T11:17:19Z</time>
      </trkpt>
      <trkpt lat="42.19525" lon="9.05766">
        <ele>1533.44</ele>
        <time>2015-09-12T11:17:29Z</time>
      </trkpt>
      <trkpt lat="42.19525" lon="9.05771">
        <ele>1531.04</ele>
        <time>2015-09-12T11:17:37Z</time>
      </trkpt>
      <trkpt lat="42.19524" lon="9.05778">
        <ele>1528.63</ele>
        <time>2015-09-12T11:17:50Z</time>
      </trkpt>
      <trkpt lat="42.19525" lon="9.05782">
        <ele>1527.19</ele>
        <time>2015-09-12T11:17:56Z</time>
      </trkpt>
      <trkpt lat="42.19529" lon="9.05791">
        <ele>1523.83</ele>
        <time>2015-09-12T11:18:09Z</time>
      </trkpt>
      <trkpt lat="42.1953" lon="9.05803">
        <ele>1520.94</ele>
        <time>2015-09-12T11:18:20Z</time>
      </trkpt>
      <trkpt lat="42.19531" lon="9.05805">
        <ele>1520.46</ele>
        <time>2015-09-12T11:18:23Z</time>
      </trkpt>
      <trkpt lat="42.19535" lon="9.05815">
        <ele>1518.06</ele>
        <time>2015-09-12T11:18:35Z</time>
      </trkpt>
      <trkpt lat="42.19543" lon="9.05823">
        <ele>1517.1</ele>
        <time>2015-09-12T11:18:47Z</time>
      </trkpt>
      <trkpt lat="42.1954" lon="9.05828">
        <ele>1515.66</ele>
        <time>2015-09-12T11:18:57Z</time>
      </trkpt>
      <trkpt lat="42.19537" lon="9.05836">
        <ele>1514.21</ele>
        <time>2015-09-12T11:19:07Z</time>
      </trkpt>
      <trkpt lat="42.19533" lon="9.0585">
        <ele>1511.33</ele>
        <time>2015-09-12T11:19:18Z</time>
      </trkpt>
      <trkpt lat="42.19532" lon="9.05851">
        <ele>1510.85</ele>
        <time>2015-09-12T11:19:19Z</time>
      </trkpt>
      <trkpt lat="42.19533" lon="9.05859">
        <ele>1508.93</ele>
        <time>2015-09-12T11:19:32Z</time>
      </trkpt>
      <trkpt lat="42.1953" lon="9.05867">
        <ele>1507.48</ele>
        <time>2015-09-12T11:19:41Z</time>
      </trkpt>
      <trkpt lat="42.19535" lon="9.05877">
        <ele>1505.08</ele>
        <time>2015-09-12T11:19:55Z</time>
      </trkpt>
      <trkpt lat="42.19534" lon="9.05879">
        <ele>1503.64</ele>
        <time>2015-09-12T11:20:02Z</time>
      </trkpt>
      <trkpt lat="42.19534" lon="9.05881">
        <ele>1502.68</ele>
        <time>2015-09-12T11:20:04Z</time>
      </trkpt>
      <trkpt lat="42.19533" lon="9.05893">
        <ele>1501.24</ele>
        <time>2015-09-12T11:20:15Z</time>
      </trkpt>
      <trkpt lat="42.19532" lon="9.05896">
        <ele>1500.27</ele>
        <time>2015-09-12T11:20:18Z</time>
      </trkpt>
      <trkpt lat="42.19526" lon="9.0591">
        <ele>1497.87</ele>
        <time>2015-09-12T11:20:32Z</time>
      </trkpt>
      <trkpt lat="42.19525" lon="9.05918">
        <ele>1496.43</ele>
        <time>2015-09-12T11:20:45Z</time>
      </trkpt>
      <trkpt lat="42.19525" lon="9.05923">
        <ele>1494.99</ele>
        <time>2015-09-12T11:20:52Z</time>
      </trkpt>
      <trkpt lat="42.19526" lon="9.05926">
        <ele>1494.03</ele>
        <time>2015-09-12T11:21:03Z</time>
      </trkpt>
      <trkpt lat="42.19528" lon="9.05931">
        <ele>1492.58</ele>
        <time>2015-09-12T11:21:15Z</time>
      </trkpt>
      <trkpt lat="42.19531" lon="9.05939">
        <ele>1490.18</ele>
        <time>2015-09-12T11:21:25Z</time>
      </trkpt>
      <trkpt lat="42.19534" lon="9.05937">
        <ele>1489.22</ele>
        <time>2015-09-12T11:21:37Z</time>
      </trkpt>
      <trkpt lat="42.19533" lon="9.0594">
        <ele>1489.22</ele>
        <time>2015-09-12T11:21:53Z</time>
      </trkpt>
      <trkpt lat="42.19529" lon="9.05946">
        <ele>1487.78</ele>
        <time>2015-09-12T11:22:05Z</time>
      </trkpt>
      <trkpt lat="42.19528" lon="9.05949">
        <ele>1487.3</ele>
        <time>2015-09-12T11:22:17Z</time>
      </trkpt>
      <trkpt lat="42.19528" lon="9.0595">
        <ele>1486.34</ele>
        <time>2015-09-12T11:22:35Z</time>
      </trkpt>
      <trkpt lat="42.19527" lon="9.05951">
        <ele>1486.34</ele>
        <time>2015-09-12T11:22:55Z</time>
      </trkpt>
      <trkpt lat="42.19526" lon="9.05952">
        <ele>1486.34</ele>
        <time>2015-09-12T11:23:21Z</time>
      </trkpt>
      <trkpt lat="42.19529" lon="9.05952">
        <ele>1486.34</ele>
        <time>2015-09-12T11:23:32Z</time>
      </trkpt>
      <trkpt lat="42.19533" lon="9.05948">
        <ele>1484.89</ele>
        <time>2015-09-12T11:23:46Z</time>
      </trkpt>
      <trkpt lat="42.19542" lon="9.05946">
        <ele>1482.01</ele>
        <time>2015-09-12T11:24:00Z</time>
      </trkpt>
      <trkpt lat="42.19547" lon="9.05948">
        <ele>1480.57</ele>
        <time>2015-09-12T11:24:10Z</time>
      </trkpt>
      <trkpt lat="42.19556" lon="9.05949">
        <ele>1479.13</ele>
        <time>2015-09-12T11:24:21Z</time>
      </trkpt>
      <trkpt lat="42.19559" lon="9.05958">
        <ele>1479.13</ele>
        <time>2015-09-12T11:24:32Z</time>
      </trkpt>
      <trkpt lat="42.19561" lon="9.05964">
        <ele>1480.09</ele>
        <time>2015-09-12T11:24:40Z</time>
      </trkpt>
      <trkpt lat="42.19562" lon="9.05973">
        <ele>1481.05</ele>
        <time>2015-09-12T11:24:50Z</time>
      </trkpt>
      <trkpt lat="42.19562" lon="9.05974">
        <ele>1481.05</ele>
        <time>2015-09-12T11:24:51Z</time>
      </trkpt>
      <trkpt lat="42.19559" lon="9.05982">
        <ele>1481.05</ele>
        <time>2015-09-12T11:24:59Z</time>
      </trkpt>
      <trkpt lat="42.19559" lon="9.05986">
        <ele>1481.05</ele>
        <time>2015-09-12T11:25:02Z</time>
      </trkpt>
      <trkpt lat="42.19558" lon="9.06001">
        <ele>1479.61</ele>
        <time>2015-09-12T11:25:15Z</time>
      </trkpt>
      <trkpt lat="42.19558" lon="9.06002">
        <ele>1479.61</ele>
        <time>2015-09-12T11:25:18Z</time>
      </trkpt>
      <trkpt lat="42.19559" lon="9.06007">
        <ele>1478.65</ele>
        <time>2015-09-12T11:25:24Z</time>
      </trkpt>
      <trkpt lat="42.19558" lon="9.06009">
        <ele>1478.16</ele>
        <time>2015-09-12T11:25:27Z</time>
      </trkpt>
      <trkpt lat="42.19559" lon="9.06013">
        <ele>1477.68</ele>
        <time>2015-09-12T11:25:30Z</time>
      </trkpt>
      <trkpt lat="42.1956" lon="9.06025">
        <ele>1476.72</ele>
        <time>2015-09-12T11:25:41Z</time>
      </trkpt>
      <trkpt lat="42.19561" lon="9.06029">
        <ele>1476.72</ele>
        <time>2015-09-12T11:25:44Z</time>
      </trkpt>
      <trkpt lat="42.19562" lon="9.06033">
        <ele>1476.24</ele>
        <time>2015-09-12T11:25:47Z</time>
      </trkpt>
      <trkpt lat="42.19561" lon="9.06037">
        <ele>1475.28</ele>
        <time>2015-09-12T11:25:50Z</time>
      </trkpt>
      <trkpt lat="42.19562" lon="9.0604">
        <ele>1475.28</ele>
        <time>2015-09-12T11:25:53Z</time>
      </trkpt>
      <trkpt lat="42.19563" lon="9.06044">
        <ele>1474.8</ele>
        <time>2015-09-12T11:25:56Z</time>
      </trkpt>
      <trkpt lat="42.19564" lon="9.06051">
        <ele>1474.8</ele>
        <time>2015-09-12T11:26:03Z</time>
      </trkpt>
      <trkpt lat="42.19564" lon="9.06057">
        <ele>1473.36</ele>
        <time>2015-09-12T11:26:16Z</time>
      </trkpt>
      <trkpt lat="42.19563" lon="9.06056">
        <ele>1472.88</ele>
        <time>2015-09-12T11:26:41Z</time>
      </trkpt>
      <trkpt lat="42.19562" lon="9.06057">
        <ele>1472.88</ele>
        <time>2015-09-12T11:27:01Z</time>
      </trkpt>
      <trkpt lat="42.19564" lon="9.06062">
        <ele>1473.36</ele>
        <time>2015-09-12T11:27:27Z</time>
      </trkpt>
      <trkpt lat="42.19564" lon="9.06063">
        <ele>1473.36</ele>
        <time>2015-09-12T11:27:28Z</time>
      </trkpt>
      <trkpt lat="42.19563" lon="9.06077">
        <ele>1471.44</ele>
        <time>2015-09-12T11:27:40Z</time>
      </trkpt>
      <trkpt lat="42.19564" lon="9.06084">
        <ele>1470.95</ele>
        <time>2015-09-12T11:27:46Z</time>
      </trkpt>
      <trkpt lat="42.19562" lon="9.06088">
        <ele>1469.99</ele>
        <time>2015-09-12T11:27:50Z</time>
      </trkpt>
      <trkpt lat="42.19565" lon="9.061">
        <ele>1468.07</ele>
        <time>2015-09-12T11:27:59Z</time>
      </trkpt>
      <trkpt lat="42.19573" lon="9.06115">
        <ele>1467.11</ele>
        <time>2015-09-12T11:28:12Z</time>
      </trkpt>
      <trkpt lat="42.19578" lon="9.06123">
        <ele>1466.63</ele>
        <time>2015-09-12T11:28:20Z</time>
      </trkpt>
      <trkpt lat="42.19582" lon="9.06127">
        <ele>1466.15</ele>
        <time>2015-09-12T11:28:26Z</time>
      </trkpt>
      <trkpt lat="42.19583" lon="9.06129">
        <ele>1466.15</ele>
        <time>2015-09-12T11:28:28Z</time>
      </trkpt>
      <trkpt lat="42.19589" lon="9.06132">
        <ele>1466.15</ele>
        <time>2015-09-12T11:28:34Z</time>
      </trkpt>
      <trkpt lat="42.19595" lon="9.06138">
        <ele>1465.19</ele>
        <time>2015-09-12T11:28:44Z</time>
      </trkpt>
      <trkpt lat="42.19602" lon="9.06149">
        <ele>1463.74</ele>
        <time>2015-09-12T11:28:57Z</time>
      </trkpt>
      <trkpt lat="42.19605" lon="9.06153">
        <ele>1463.74</ele>
        <time>2015-09-12T11:29:10Z</time>
      </trkpt>
      <trkpt lat="42.19608" lon="9.06158">
        <ele>1462.78</ele>
        <time>2015-09-12T11:29:23Z</time>
      </trkpt>
      <trkpt lat="42.19612" lon="9.06166">
        <ele>1461.82</ele>
        <time>2015-09-12T11:29:32Z</time>
      </trkpt>
      <trkpt lat="42.19611" lon="9.06172">
        <ele>1461.82</ele>
        <time>2015-09-12T11:29:36Z</time>
      </trkpt>
      <trkpt lat="42.19614" lon="9.06179">
        <ele>1461.82</ele>
        <time>2015-09-12T11:29:42Z</time>
      </trkpt>
      <trkpt lat="42.19617" lon="9.06181">
        <ele>1461.82</ele>
        <time>2015-09-12T11:29:45Z</time>
      </trkpt>
      <trkpt lat="42.19624" lon="9.06186">
        <ele>1461.34</ele>
        <time>2015-09-12T11:29:55Z</time>
      </trkpt>
      <trkpt lat="42.1963" lon="9.06192">
        <ele>1461.34</ele>
        <time>2015-09-12T11:30:04Z</time>
      </trkpt>
      <trkpt lat="42.1963" lon="9.06195">
        <ele>1461.34</ele>
        <time>2015-09-12T11:30:06Z</time>
      </trkpt>
      <trkpt lat="42.19626" lon="9.06207">
        <ele>1460.38</ele>
        <time>2015-09-12T11:30:17Z</time>
      </trkpt>
      <trkpt lat="42.19624" lon="9.06225">
        <ele>1459.9</ele>
        <time>2015-09-12T11:30:30Z</time>
      </trkpt>
      <trkpt lat="42.19619" lon="9.0624">
        <ele>1459.42</ele>
        <time>2015-09-12T11:30:41Z</time>
      </trkpt>
      <trkpt lat="42.19622" lon="9.06258">
        <ele>1459.42</ele>
        <time>2015-09-12T11:30:54Z</time>
      </trkpt>
      <trkpt lat="42.19621" lon="9.06261">
        <ele>1459.42</ele>
        <time>2015-09-12T11:30:56Z</time>
      </trkpt>
      <trkpt lat="42.19623" lon="9.06265">
        <ele>1459.42</ele>
        <time>2015-09-12T11:31:00Z</time>
      </trkpt>
      <trkpt lat="42.19623" lon="9.06268">
        <ele>1459.9</ele>
        <time>2015-09-12T11:31:02Z</time>
      </trkpt>
      <trkpt lat="42.19621" lon="9.06274">
        <ele>1459.42</ele>
        <time>2015-09-12T11:31:07Z</time>
      </trkpt>
      <trkpt lat="42.19617" lon="9.06288">
        <ele>1457.98</ele>
        <time>2015-09-12T11:31:16Z</time>
      </trkpt>
      <trkpt lat="42.19616" lon="9.06296">
        <ele>1457.5</ele>
        <time>2015-09-12T11:31:28Z</time>
      </trkpt>
      <trkpt lat="42.19619" lon="9.063">
        <ele>1457.5</ele>
        <time>2015-09-12T11:31:39Z</time>
      </trkpt>
      <trkpt lat="42.19622" lon="9.06305">
        <ele>1457.02</ele>
        <time>2015-09-12T11:31:51Z</time>
      </trkpt>
      <trkpt lat="42.19623" lon="9.06309">
        <ele>1457.02</ele>
        <time>2015-09-12T11:31:57Z</time>
      </trkpt>
      <trkpt lat="42.1962" lon="9.06317">
        <ele>1456.53</ele>
        <time>2015-09-12T11:32:07Z</time>
      </trkpt>
      <trkpt lat="42.19612" lon="9.06328">
        <ele>1455.57</ele>
        <time>2015-09-12T11:32:19Z</time>
      </trkpt>
      <trkpt lat="42.19602" lon="9.06328">
        <ele>1452.69</ele>
        <time>2015-09-12T11:32:33Z</time>
      </trkpt>
      <trkpt lat="42.196" lon="9.06329">
        <ele>1452.21</ele>
        <time>2015-09-12T11:32:36Z</time>
      </trkpt>
      <trkpt lat="42.19597" lon="9.06329">
        <ele>1451.25</ele>
        <time>2015-09-12T11:32:44Z</time>
      </trkpt>
      <trkpt lat="42.19589" lon="9.06333">
        <ele>1448.84</ele>
        <time>2015-09-12T11:32:55Z</time>
      </trkpt>
      <trkpt lat="42.19585" lon="9.06333">
        <ele>1447.4</ele>
        <time>2015-09-12T11:33:03Z</time>
      </trkpt>
      <trkpt lat="42.19582" lon="9.06336">
        <ele>1446.92</ele>
        <time>2015-09-12T11:33:07Z</time>
      </trkpt>
      <trkpt lat="42.19579" lon="9.06335">
        <ele>1446.92</ele>
        <time>2015-09-12T11:33:10Z</time>
      </trkpt>
      <trkpt lat="42.19571" lon="9.06338">
        <ele>1444.04</ele>
        <time>2015-09-12T11:33:22Z</time>
      </trkpt>
      <trkpt lat="42.19565" lon="9.06338">
        <ele>1441.15</ele>
        <time>2015-09-12T11:33:33Z</time>
      </trkpt>
      <trkpt lat="42.19562" lon="9.06341">
        <ele>1440.67</ele>
        <time>2015-09-12T11:33:38Z</time>
      </trkpt>
      <trkpt lat="42.19555" lon="9.06342">
        <ele>1438.27</ele>
        <time>2015-09-12T11:33:47Z</time>
      </trkpt>
      <trkpt lat="42.19553" lon="9.06344">
        <ele>1437.31</ele>
        <time>2015-09-12T11:34:01Z</time>
      </trkpt>
      <trkpt lat="42.19544" lon="9.06345">
        <ele>1434.91</ele>
        <time>2015-09-12T11:34:14Z</time>
      </trkpt>
      <trkpt lat="42.19541" lon="9.06345">
        <ele>1432.5</ele>
        <time>2015-09-12T11:34:25Z</time>
      </trkpt>
      <trkpt lat="42.19534" lon="9.06345">
        <ele>1430.58</ele>
        <time>2015-09-12T11:34:35Z</time>
      </trkpt>
      <trkpt lat="42.19526" lon="9.06341">
        <ele>1427.21</ele>
        <time>2015-09-12T11:34:48Z</time>
      </trkpt>
      <trkpt lat="42.19526" lon="9.0634">
        <ele>1426.73</ele>
        <time>2015-09-12T11:34:49Z</time>
      </trkpt>
      <trkpt lat="42.19519" lon="9.06341">
        <ele>1424.33</ele>
        <time>2015-09-12T11:34:59Z</time>
      </trkpt>
      <trkpt lat="42.19513" lon="9.06341">
        <ele>1422.89</ele>
        <time>2015-09-12T11:35:08Z</time>
      </trkpt>
      <trkpt lat="42.19507" lon="9.06341">
        <ele>1419.52</ele>
        <time>2015-09-12T11:35:21Z</time>
      </trkpt>
      <trkpt lat="42.19506" lon="9.06342">
        <ele>1418.56</ele>
        <time>2015-09-12T11:35:36Z</time>
      </trkpt>
      <trkpt lat="42.19501" lon="9.06347">
        <ele>1416.16</ele>
        <time>2015-09-12T11:35:47Z</time>
      </trkpt>
      <trkpt lat="42.19497" lon="9.0635">
        <ele>1414.24</ele>
        <time>2015-09-12T11:35:57Z</time>
      </trkpt>
      <trkpt lat="42.19488" lon="9.06355">
        <ele>1411.35</ele>
        <time>2015-09-12T11:36:08Z</time>
      </trkpt>
      <trkpt lat="42.19485" lon="9.06355">
        <ele>1409.91</ele>
        <time>2015-09-12T11:36:14Z</time>
      </trkpt>
      <trkpt lat="42.19483" lon="9.06353">
        <ele>1409.43</ele>
        <time>2015-09-12T11:36:17Z</time>
      </trkpt>
      <trkpt lat="42.19475" lon="9.06353">
        <ele>1407.03</ele>
        <time>2015-09-12T11:36:29Z</time>
      </trkpt>
      <trkpt lat="42.19474" lon="9.06351">
        <ele>1406.55</ele>
        <time>2015-09-12T11:36:31Z</time>
      </trkpt>
      <trkpt lat="42.1947" lon="9.06349">
        <ele>1405.1</ele>
        <time>2015-09-12T11:36:38Z</time>
      </trkpt>
      <trkpt lat="42.19468" lon="9.06354">
        <ele>1404.14</ele>
        <time>2015-09-12T11:36:48Z</time>
      </trkpt>
      <trkpt lat="42.19463" lon="9.06354">
        <ele>1402.22</ele>
        <time>2015-09-12T11:37:01Z</time>
      </trkpt>
      <trkpt lat="42.1946" lon="9.06353">
        <ele>1400.3</ele>
        <time>2015-09-12T11:37:07Z</time>
      </trkpt>
      <trkpt lat="42.19453" lon="9.0635">
        <ele>1397.89</ele>
        <time>2015-09-12T11:37:19Z</time>
      </trkpt>
      <trkpt lat="42.19453" lon="9.0635">
        <ele>1397.89</ele>
        <time>2015-09-12T11:37:20Z</time>
      </trkpt>
      <trkpt lat="42.19449" lon="9.06351">
        <ele>1396.45</ele>
        <time>2015-09-12T11:37:28Z</time>
      </trkpt>
      <trkpt lat="42.19446" lon="9.0635">
        <ele>1394.05</ele>
        <time>2015-09-12T11:37:37Z</time>
      </trkpt>
      <trkpt lat="42.19444" lon="9.06349">
        <ele>1393.09</ele>
        <time>2015-09-12T11:37:41Z</time>
      </trkpt>
      <trkpt lat="42.19442" lon="9.06351">
        <ele>1392.61</ele>
        <time>2015-09-12T11:37:44Z</time>
      </trkpt>
      <trkpt lat="42.19438" lon="9.06351">
        <ele>1393.09</ele>
        <time>2015-09-12T11:37:48Z</time>
      </trkpt>
      <trkpt lat="42.19434" lon="9.06352">
        <ele>1391.17</ele>
        <time>2015-09-12T11:37:53Z</time>
      </trkpt>
      <trkpt lat="42.19426" lon="9.06357">
        <ele>1389.24</ele>
        <time>2015-09-12T11:38:05Z</time>
      </trkpt>
      <trkpt lat="42.19421" lon="9.06359">
        <ele>1387.8</ele>
        <time>2015-09-12T11:38:15Z</time>
      </trkpt>
      <trkpt lat="42.19414" lon="9.06359">
        <ele>1384.92</ele>
        <time>2015-09-12T11:38:28Z</time>
      </trkpt>
      <trkpt lat="42.19412" lon="9.06364">
        <ele>1384.44</ele>
        <time>2015-09-12T11:38:35Z</time>
      </trkpt>
      <trkpt lat="42.1941" lon="9.06365">
        <ele>1384.44</ele>
        <time>2015-09-12T11:38:37Z</time>
      </trkpt>
      <trkpt lat="42.19405" lon="9.06365">
        <ele>1382.99</ele>
        <time>2015-09-12T11:38:43Z</time>
      </trkpt>
      <trkpt lat="42.19401" lon="9.0636">
        <ele>1380.59</ele>
        <time>2015-09-12T11:38:55Z</time>
      </trkpt>
      <trkpt lat="42.194" lon="9.0636">
        <ele>1380.59</ele>
        <time>2015-09-12T11:38:56Z</time>
      </trkpt>
      <trkpt lat="42.19391" lon="9.06361">
        <ele>1378.67</ele>
        <time>2015-09-12T11:39:08Z</time>
      </trkpt>
      <trkpt lat="42.19385" lon="9.06362">
        <ele>1376.75</ele>
        <time>2015-09-12T11:39:21Z</time>
      </trkpt>
      <trkpt lat="42.19377" lon="9.06368">
        <ele>1374.82</ele>
        <time>2015-09-12T11:39:35Z</time>
      </trkpt>
      <trkpt lat="42.1937" lon="9.06369">
        <ele>1372.9</ele>
        <time>2015-09-12T11:39:45Z</time>
      </trkpt>
      <trkpt lat="42.19363" lon="9.06377">
        <ele>1370.98</ele>
        <time>2015-09-12T11:39:58Z</time>
      </trkpt>
      <trkpt lat="42.19354" lon="9.06378">
        <ele>1368.57</ele>
        <time>2015-09-12T11:40:10Z</time>
      </trkpt>
      <trkpt lat="42.19352" lon="9.06377">
        <ele>1368.57</ele>
        <time>2015-09-12T11:40:13Z</time>
      </trkpt>
      <trkpt lat="42.19352" lon="9.06377">
        <ele>1367.61</ele>
        <time>2015-09-12T11:40:30Z</time>
      </trkpt>
      <trkpt lat="42.19353" lon="9.06376">
        <ele>1367.61</ele>
        <time>2015-09-12T11:40:51Z</time>
      </trkpt>
      <trkpt lat="42.19353" lon="9.06377">
        <ele>1367.13</ele>
        <time>2015-09-12T11:41:07Z</time>
      </trkpt>
      <trkpt lat="42.19351" lon="9.06377">
        <ele>1367.13</ele>
        <time>2015-09-12T11:41:25Z</time>
      </trkpt>
      <trkpt lat="42.1935" lon="9.06381">
        <ele>1366.65</ele>
        <time>2015-09-12T11:41:37Z</time>
      </trkpt>
      <trkpt lat="42.19349" lon="9.06381">
        <ele>1366.65</ele>
        <time>2015-09-12T11:41:54Z</time>
      </trkpt>
      <trkpt lat="42.19349" lon="9.06381">
        <ele>1366.65</ele>
        <time>2015-09-12T11:42:16Z</time>
      </trkpt>
      <trkpt lat="42.1935" lon="9.06379">
        <ele>1366.65</ele>
        <time>2015-09-12T11:42:36Z</time>
      </trkpt>
      <trkpt lat="42.1935" lon="9.0638">
        <ele>1366.65</ele>
        <time>2015-09-12T11:42:55Z</time>
      </trkpt>
      <trkpt lat="42.19349" lon="9.06385">
        <ele>1366.65</ele>
        <time>2015-09-12T11:43:08Z</time>
      </trkpt>
      <trkpt lat="42.19349" lon="9.06386">
        <ele>1366.65</ele>
        <time>2015-09-12T11:43:22Z</time>
      </trkpt>
      <trkpt lat="42.1935" lon="9.06387">
        <ele>1366.65</ele>
        <time>2015-09-12T11:43:27Z</time>
      </trkpt>
      <trkpt lat="42.19348" lon="9.06397">
        <ele>1365.69</ele>
        <time>2015-09-12T11:43:38Z</time>
      </trkpt>
      <trkpt lat="42.19343" lon="9.06402">
        <ele>1364.25</ele>
        <time>2015-09-12T11:43:47Z</time>
      </trkpt>
      <trkpt lat="42.19341" lon="9.06411">
        <ele>1363.77</ele>
        <time>2015-09-12T11:43:54Z</time>
      </trkpt>
      <trkpt lat="42.19338" lon="9.06422">
        <ele>1362.81</ele>
        <time>2015-09-12T11:44:03Z</time>
      </trkpt>
      <trkpt lat="42.19335" lon="9.06426">
        <ele>1362.33</ele>
        <time>2015-09-12T11:44:07Z</time>
      </trkpt>
      <trkpt lat="42.19331" lon="9.06443">
        <ele>1361.84</ele>
        <time>2015-09-12T11:44:19Z</time>
      </trkpt>
      <trkpt lat="42.19331" lon="9.06445">
        <ele>1361.84</ele>
        <time>2015-09-12T11:44:24Z</time>
      </trkpt>
      <trkpt lat="42.19328" lon="9.06447">
        <ele>1361.36</ele>
        <time>2015-09-12T11:44:29Z</time>
      </trkpt>
      <trkpt lat="42.19326" lon="9.06451">
        <ele>1361.36</ele>
        <time>2015-09-12T11:44:32Z</time>
      </trkpt>
      <trkpt lat="42.19326" lon="9.06455">
        <ele>1361.36</ele>
        <time>2015-09-12T11:44:34Z</time>
      </trkpt>
      <trkpt lat="42.19322" lon="9.0646">
        <ele>1360.88</ele>
        <time>2015-09-12T11:44:39Z</time>
      </trkpt>
      <trkpt lat="42.19314" lon="9.06473">
        <ele>1358.96</ele>
        <time>2015-09-12T11:44:53Z</time>
      </trkpt>
      <trkpt lat="42.19313" lon="9.06482">
        <ele>1358.96</ele>
        <time>2015-09-12T11:45:01Z</time>
      </trkpt>
      <trkpt lat="42.19312" lon="9.06486">
        <ele>1358.48</ele>
        <time>2015-09-12T11:45:04Z</time>
      </trkpt>
      <trkpt lat="42.19308" lon="9.06498">
        <ele>1357.52</ele>
        <time>2015-09-12T11:45:16Z</time>
      </trkpt>
      <trkpt lat="42.19308" lon="9.06503">
        <ele>1356.56</ele>
        <time>2015-09-12T11:45:23Z</time>
      </trkpt>
      <trkpt lat="42.19309" lon="9.06512">
        <ele>1357.52</ele>
        <time>2015-09-12T11:45:33Z</time>
      </trkpt>
      <trkpt lat="42.19309" lon="9.06514">
        <ele>1357.52</ele>
        <time>2015-09-12T11:45:34Z</time>
      </trkpt>
      <trkpt lat="42.19305" lon="9.06523">
        <ele>1357.52</ele>
        <time>2015-09-12T11:45:42Z</time>
      </trkpt>
      <trkpt lat="42.19302" lon="9.06532">
        <ele>1358.48</ele>
        <time>2015-09-12T11:45:49Z</time>
      </trkpt>
      <trkpt lat="42.19301" lon="9.06535">
        <ele>1357.04</ele>
        <time>2015-09-12T11:45:51Z</time>
      </trkpt>
      <trkpt lat="42.19295" lon="9.06544">
        <ele>1356.56</ele>
        <time>2015-09-12T11:46:01Z</time>
      </trkpt>
      <trkpt lat="42.19294" lon="9.06544">
        <ele>1356.08</ele>
        <time>2015-09-12T11:46:02Z</time>
      </trkpt>
      <trkpt lat="42.19287" lon="9.06552">
        <ele>1354.15</ele>
        <time>2015-09-12T11:46:14Z</time>
      </trkpt>
      <trkpt lat="42.19279" lon="9.06561">
        <ele>1351.75</ele>
        <time>2015-09-12T11:46:26Z</time>
      </trkpt>
      <trkpt lat="42.19279" lon="9.06564">
        <ele>1351.27</ele>
        <time>2015-09-12T11:46:28Z</time>
      </trkpt>
      <trkpt lat="42.19276" lon="9.06571">
        <ele>1350.79</ele>
        <time>2015-09-12T11:46:33Z</time>
      </trkpt>
      <trkpt lat="42.19272" lon="9.06577">
        <ele>1349.35</ele>
        <time>2015-09-12T11:46:39Z</time>
      </trkpt>
      <trkpt lat="42.19267" lon="9.06588">
        <ele>1347.43</ele>
        <time>2015-09-12T11:46:50Z</time>
      </trkpt>
      <trkpt lat="42.19262" lon="9.06599">
        <ele>1345.5</ele>
        <time>2015-09-12T11:46:58Z</time>
      </trkpt>
      <trkpt lat="42.19258" lon="9.06601">
        <ele>1345.02</ele>
        <time>2015-09-12T11:47:01Z</time>
      </trkpt>
      <trkpt lat="42.19258" lon="9.06607">
        <ele>1344.06</ele>
        <time>2015-09-12T11:47:06Z</time>
      </trkpt>
      <trkpt lat="42.19257" lon="9.0661">
        <ele>1343.58</ele>
        <time>2015-09-12T11:47:08Z</time>
      </trkpt>
      <trkpt lat="42.19251" lon="9.06624">
        <ele>1342.62</ele>
        <time>2015-09-12T11:47:18Z</time>
      </trkpt>
      <trkpt lat="42.19248" lon="9.06628">
        <ele>1341.18</ele>
        <time>2015-09-12T11:47:24Z</time>
      </trkpt>
      <trkpt lat="42.19242" lon="9.06632">
        <ele>1340.22</ele>
        <time>2015-09-12T11:47:32Z</time>
      </trkpt>
      <trkpt lat="42.19242" lon="9.06635">
        <ele>1339.25</ele>
        <time>2015-09-12T11:47:34Z</time>
      </trkpt>
      <trkpt lat="42.19238" lon="9.06638">
        <ele>1338.77</ele>
        <time>2015-09-12T11:47:39Z</time>
      </trkpt>
      <trkpt lat="42.19233" lon="9.06642">
        <ele>1337.33</ele>
        <time>2015-09-12T11:47:52Z</time>
      </trkpt>
      <trkpt lat="42.19231" lon="9.06645">
        <ele>1336.85</ele>
        <time>2015-09-12T11:47:57Z</time>
      </trkpt>
      <trkpt lat="42.19229" lon="9.06649">
        <ele>1336.37</ele>
        <time>2015-09-12T11:48:01Z</time>
      </trkpt>
      <trkpt lat="42.19221" lon="9.06658">
        <ele>1334.93</ele>
        <time>2015-09-12T11:48:13Z</time>
      </trkpt>
      <trkpt lat="42.1922" lon="9.06659">
        <ele>1334.45</ele>
        <time>2015-09-12T11:48:14Z</time>
      </trkpt>
      <trkpt lat="42.19212" lon="9.06668">
        <ele>1332.52</ele>
        <time>2015-09-12T11:48:26Z</time>
      </trkpt>
      <trkpt lat="42.19212" lon="9.06668">
        <ele>1332.04</ele>
        <time>2015-09-12T11:48:27Z</time>
      </trkpt>
      <trkpt lat="42.19204" lon="9.06678">
        <ele>1329.64</ele>
        <time>2015-09-12T11:48:40Z</time>
      </trkpt>
      <trkpt lat="42.19198" lon="9.06684">
        <ele>1327.24</ele>
        <time>2015-09-12T11:48:51Z</time>
      </trkpt>
      <trkpt lat="42.19191" lon="9.06693">
        <ele>1324.83</ele>
        <time>2015-09-12T11:49:02Z</time>
      </trkpt>
      <trkpt lat="42.19184" lon="9.06704">
        <ele>1321.95</ele>
        <time>2015-09-12T11:49:14Z</time>
      </trkpt>
      <trkpt lat="42.19181" lon="9.06708">
        <ele>1320.99</ele>
        <time>2015-09-12T11:49:19Z</time>
      </trkpt>
      <trkpt lat="42.19178" lon="9.0671">
        <ele>1320.51</ele>
        <time>2015-09-12T11:49:22Z</time>
      </trkpt>
      <trkpt lat="42.19175" lon="9.06716">
        <ele>1318.59</ele>
        <time>2015-09-12T11:49:28Z</time>
      </trkpt>
      <trkpt lat="42.1917" lon="9.06721">
        <ele>1317.62</ele>
        <time>2015-09-12T11:49:34Z</time>
      </trkpt>
      <trkpt lat="42.19165" lon="9.06729">
        <ele>1315.7</ele>
        <time>2015-09-12T11:49:44Z</time>
      </trkpt>
      <trkpt lat="42.19158" lon="9.06738">
        <ele>1313.78</ele>
        <time>2015-09-12T11:49:57Z</time>
      </trkpt>
      <trkpt lat="42.19153" lon="9.06744">
        <ele>1312.34</ele>
        <time>2015-09-12T11:50:13Z</time>
      </trkpt>
      <trkpt lat="42.19145" lon="9.06752">
        <ele>1309.93</ele>
        <time>2015-09-12T11:50:26Z</time>
      </trkpt>
      <trkpt lat="42.19141" lon="9.06756">
        <ele>1308.49</ele>
        <time>2015-09-12T11:50:31Z</time>
      </trkpt>
      <trkpt lat="42.19138" lon="9.06755">
        <ele>1307.53</ele>
        <time>2015-09-12T11:50:34Z</time>
      </trkpt>
      <trkpt lat="42.19132" lon="9.06772">
        <ele>1305.13</ele>
        <time>2015-09-12T11:50:49Z</time>
      </trkpt>
      <trkpt lat="42.19129" lon="9.06777">
        <ele>1303.69</ele>
        <time>2015-09-12T11:50:55Z</time>
      </trkpt>
      <trkpt lat="42.19127" lon="9.06782">
        <ele>1302.72</ele>
        <time>2015-09-12T11:51:00Z</time>
      </trkpt>
      <trkpt lat="42.1912" lon="9.06788">
        <ele>1301.28</ele>
        <time>2015-09-12T11:51:08Z</time>
      </trkpt>
      <trkpt lat="42.19116" lon="9.06796">
        <ele>1300.32</ele>
        <time>2015-09-12T11:51:14Z</time>
      </trkpt>
      <trkpt lat="42.1911" lon="9.06804">
        <ele>1298.88</ele>
        <time>2015-09-12T11:51:23Z</time>
      </trkpt>
      <trkpt lat="42.19108" lon="9.06813">
        <ele>1297.44</ele>
        <time>2015-09-12T11:51:30Z</time>
      </trkpt>
      <trkpt lat="42.19099" lon="9.06826">
        <ele>1295.03</ele>
        <time>2015-09-12T11:51:43Z</time>
      </trkpt>
      <trkpt lat="42.19086" lon="9.06838">
        <ele>1292.15</ele>
        <time>2015-09-12T11:51:57Z</time>
      </trkpt>
      <trkpt lat="42.1908" lon="9.06834">
        <ele>1291.67</ele>
        <time>2015-09-12T11:52:08Z</time>
      </trkpt>
      <trkpt lat="42.1908" lon="9.06833">
        <ele>1291.19</ele>
        <time>2015-09-12T11:52:25Z</time>
      </trkpt>
      <trkpt lat="42.19082" lon="9.06833">
        <ele>1291.19</ele>
        <time>2015-09-12T11:52:52Z</time>
      </trkpt>
      <trkpt lat="42.19084" lon="9.06833">
        <ele>1291.19</ele>
        <time>2015-09-12T11:53:20Z</time>
      </trkpt>
      <trkpt lat="42.19083" lon="9.06833">
        <ele>1290.71</ele>
        <time>2015-09-12T11:53:48Z</time>
      </trkpt>
      <trkpt lat="42.19085" lon="9.06834">
        <ele>1290.23</ele>
        <time>2015-09-12T11:54:10Z</time>
      </trkpt>
      <trkpt lat="42.19082" lon="9.06834">
        <ele>1290.23</ele>
        <time>2015-09-12T11:54:34Z</time>
      </trkpt>
      <trkpt lat="42.19078" lon="9.06832">
        <ele>1289.75</ele>
        <time>2015-09-12T11:54:46Z</time>
      </trkpt>
      <trkpt lat="42.19078" lon="9.06833">
        <ele>1289.75</ele>
        <time>2015-09-12T11:55:09Z</time>
      </trkpt>
      <trkpt lat="42.19077" lon="9.06833">
        <ele>1289.75</ele>
        <time>2015-09-12T11:55:29Z</time>
      </trkpt>
      <trkpt lat="42.19077" lon="9.06834">
        <ele>1289.75</ele>
        <time>2015-09-12T11:55:48Z</time>
      </trkpt>
      <trkpt lat="42.19076" lon="9.0683">
        <ele>1289.27</ele>
        <time>2015-09-12T11:56:01Z</time>
      </trkpt>
      <trkpt lat="42.19077" lon="9.06828">
        <ele>1289.27</ele>
        <time>2015-09-12T11:56:21Z</time>
      </trkpt>
      <trkpt lat="42.19077" lon="9.06826">
        <ele>1289.27</ele>
        <time>2015-09-12T11:56:25Z</time>
      </trkpt>
      <trkpt lat="42.19072" lon="9.06831">
        <ele>1288.78</ele>
        <time>2015-09-12T11:56:36Z</time>
      </trkpt>
      <trkpt lat="42.19072" lon="9.06832">
        <ele>1288.3</ele>
        <time>2015-09-12T11:57:02Z</time>
      </trkpt>
      <trkpt lat="42.19071" lon="9.06831">
        <ele>1288.3</ele>
        <time>2015-09-12T11:57:32Z</time>
      </trkpt>
      <trkpt lat="42.19074" lon="9.06829">
        <ele>1288.3</ele>
        <time>2015-09-12T11:57:48Z</time>
      </trkpt>
      <trkpt lat="42.19076" lon="9.06826">
        <ele>1288.78</ele>
        <time>2015-09-12T11:58:01Z</time>
      </trkpt>
      <trkpt lat="42.19077" lon="9.06825">
        <ele>1288.78</ele>
        <time>2015-09-12T11:58:12Z</time>
      </trkpt>
      <trkpt lat="42.19083" lon="9.0683">
        <ele>1289.27</ele>
        <time>2015-09-12T11:58:25Z</time>
      </trkpt>
      <trkpt lat="42.19086" lon="9.06833">
        <ele>1288.78</ele>
        <time>2015-09-12T11:58:28Z</time>
      </trkpt>
      <trkpt lat="42.19086" lon="9.06839">
        <ele>1288.78</ele>
        <time>2015-09-12T11:58:31Z</time>
      </trkpt>
      <trkpt lat="42.19084" lon="9.06844">
        <ele>1288.3</ele>
        <time>2015-09-12T11:58:35Z</time>
      </trkpt>
      <trkpt lat="42.19077" lon="9.06844">
        <ele>1287.82</ele>
        <time>2015-09-12T11:58:46Z</time>
      </trkpt>
      <trkpt lat="42.19077" lon="9.06842">
        <ele>1287.82</ele>
        <time>2015-09-12T11:58:55Z</time>
      </trkpt>
      <trkpt lat="42.19078" lon="9.06838">
        <ele>1287.82</ele>
        <time>2015-09-12T11:59:09Z</time>
      </trkpt>
      <trkpt lat="42.19078" lon="9.06838">
        <ele>1287.82</ele>
        <time>2015-09-12T11:59:26Z</time>
      </trkpt>
      <trkpt lat="42.19079" lon="9.06852">
        <ele>1286.86</ele>
        <time>2015-09-12T11:59:38Z</time>
      </trkpt>
      <trkpt lat="42.1908" lon="9.06854">
        <ele>1286.38</ele>
        <time>2015-09-12T11:59:53Z</time>
      </trkpt>
      <trkpt lat="42.19077" lon="9.06859">
        <ele>1285.9</ele>
        <time>2015-09-12T12:00:02Z</time>
      </trkpt>
      <trkpt lat="42.19076" lon="9.06862">
        <ele>1285.9</ele>
        <time>2015-09-12T12:00:04Z</time>
      </trkpt>
      <trkpt lat="42.19073" lon="9.0687">
        <ele>1284.94</ele>
        <time>2015-09-12T12:00:08Z</time>
      </trkpt>
      <trkpt lat="42.19071" lon="9.06894">
        <ele>1282.54</ele>
        <time>2015-09-12T12:00:23Z</time>
      </trkpt>
      <trkpt lat="42.1907" lon="9.06901">
        <ele>1282.06</ele>
        <time>2015-09-12T12:00:27Z</time>
      </trkpt>
      <trkpt lat="42.19068" lon="9.06903">
        <ele>1281.57</ele>
        <time>2015-09-12T12:00:29Z</time>
      </trkpt>
      <trkpt lat="42.19067" lon="9.06906">
        <ele>1281.09</ele>
        <time>2015-09-12T12:00:31Z</time>
      </trkpt>
      <trkpt lat="42.19066" lon="9.06918">
        <ele>1279.65</ele>
        <time>2015-09-12T12:00:39Z</time>
      </trkpt>
      <trkpt lat="42.19065" lon="9.06925">
        <ele>1278.69</ele>
        <time>2015-09-12T12:00:43Z</time>
      </trkpt>
      <trkpt lat="42.19062" lon="9.06936">
        <ele>1277.73</ele>
        <time>2015-09-12T12:00:50Z</time>
      </trkpt>
      <trkpt lat="42.19063" lon="9.06949">
        <ele>1276.77</ele>
        <time>2015-09-12T12:00:58Z</time>
      </trkpt>
      <trkpt lat="42.19062" lon="9.06955">
        <ele>1276.29</ele>
        <time>2015-09-12T12:01:02Z</time>
      </trkpt>
      <trkpt lat="42.19056" lon="9.06978">
        <ele>1274.85</ele>
        <time>2015-09-12T12:01:16Z</time>
      </trkpt>
      <trkpt lat="42.19057" lon="9.06981">
        <ele>1274.36</ele>
        <time>2015-09-12T12:01:18Z</time>
      </trkpt>
      <trkpt lat="42.19058" lon="9.07">
        <ele>1273.4</ele>
        <time>2015-09-12T12:01:31Z</time>
      </trkpt>
      <trkpt lat="42.19057" lon="9.07018">
        <ele>1272.92</ele>
        <time>2015-09-12T12:01:43Z</time>
      </trkpt>
      <trkpt lat="42.19056" lon="9.07027">
        <ele>1271.96</ele>
        <time>2015-09-12T12:01:49Z</time>
      </trkpt>
      <trkpt lat="42.19052" lon="9.07047">
        <ele>1271.48</ele>
        <time>2015-09-12T12:02:02Z</time>
      </trkpt>
      <trkpt lat="42.19048" lon="9.07055">
        <ele>1271.48</ele>
        <time>2015-09-12T12:02:07Z</time>
      </trkpt>
      <trkpt lat="42.1904" lon="9.0707">
        <ele>1270.52</ele>
        <time>2015-09-12T12:02:19Z</time>
      </trkpt>
      <trkpt lat="42.19039" lon="9.07071">
        <ele>1270.04</ele>
        <time>2015-09-12T12:02:21Z</time>
      </trkpt>
      <trkpt lat="42.19036" lon="9.07075">
        <ele>1269.56</ele>
        <time>2015-09-12T12:02:25Z</time>
      </trkpt>
      <trkpt lat="42.19026" lon="9.07085">
        <ele>1268.12</ele>
        <time>2015-09-12T12:02:37Z</time>
      </trkpt>
      <trkpt lat="42.19023" lon="9.07088">
        <ele>1268.12</ele>
        <time>2015-09-12T12:02:41Z</time>
      </trkpt>
      <trkpt lat="42.19021" lon="9.07097">
        <ele>1267.64</ele>
        <time>2015-09-12T12:02:47Z</time>
      </trkpt>
      <trkpt lat="42.1901" lon="9.07101">
        <ele>1266.67</ele>
        <time>2015-09-12T12:02:58Z</time>
      </trkpt>
      <trkpt lat="42.19009" lon="9.07103">
        <ele>1266.67</ele>
        <time>2015-09-12T12:03:00Z</time>
      </trkpt>
      <trkpt lat="42.19004" lon="9.07107">
        <ele>1266.19</ele>
        <time>2015-09-12T12:03:05Z</time>
      </trkpt>
      <trkpt lat="42.18999" lon="9.07119">
        <ele>1264.75</ele>
        <time>2015-09-12T12:03:15Z</time>
      </trkpt>
      <trkpt lat="42.18995" lon="9.07134">
        <ele>1262.35</ele>
        <time>2015-09-12T12:03:29Z</time>
      </trkpt>
      <trkpt lat="42.18994" lon="9.07139">
        <ele>1261.39</ele>
        <time>2015-09-12T12:03:41Z</time>
      </trkpt>
      <trkpt lat="42.18993" lon="9.07137">
        <ele>1261.39</ele>
        <time>2015-09-12T12:03:59Z</time>
      </trkpt>
      <trkpt lat="42.18993" lon="9.07137">
        <ele>1261.39</ele>
        <time>2015-09-12T12:04:17Z</time>
      </trkpt>
      <trkpt lat="42.18993" lon="9.07137">
        <ele>1261.39</ele>
        <time>2015-09-12T12:04:41Z</time>
      </trkpt>
      <trkpt lat="42.18992" lon="9.0714">
        <ele>1260.91</ele>
        <time>2015-09-12T12:04:56Z</time>
      </trkpt>
      <trkpt lat="42.18992" lon="9.07145">
        <ele>1260.43</ele>
        <time>2015-09-12T12:05:02Z</time>
      </trkpt>
      <trkpt lat="42.18991" lon="9.07148">
        <ele>1259.94</ele>
        <time>2015-09-12T12:05:04Z</time>
      </trkpt>
      <trkpt lat="42.18985" lon="9.07161">
        <ele>1258.5</ele>
        <time>2015-09-12T12:05:14Z</time>
      </trkpt>
      <trkpt lat="42.18975" lon="9.07173">
        <ele>1256.58</ele>
        <time>2015-09-12T12:05:26Z</time>
      </trkpt>
      <trkpt lat="42.18973" lon="9.07181">
        <ele>1255.62</ele>
        <time>2015-09-12T12:05:38Z</time>
      </trkpt>
      <trkpt lat="42.18971" lon="9.07186">
        <ele>1254.66</ele>
        <time>2015-09-12T12:06:00Z</time>
      </trkpt>
      <trkpt lat="42.18959" lon="9.07202">
        <ele>1253.22</ele>
        <time>2015-09-12T12:06:12Z</time>
      </trkpt>
      <trkpt lat="42.18954" lon="9.07207">
        <ele>1253.22</ele>
        <time>2015-09-12T12:06:18Z</time>
      </trkpt>
      <trkpt lat="42.18949" lon="9.07212">
        <ele>1252.25</ele>
        <time>2015-09-12T12:06:22Z</time>
      </trkpt>
      <trkpt lat="42.18944" lon="9.07217">
        <ele>1251.77</ele>
        <time>2015-09-12T12:06:28Z</time>
      </trkpt>
      <trkpt lat="42.18943" lon="9.0722">
        <ele>1251.29</ele>
        <time>2015-09-12T12:06:30Z</time>
      </trkpt>
      <trkpt lat="42.18938" lon="9.07238">
        <ele>1249.85</ele>
        <time>2015-09-12T12:06:44Z</time>
      </trkpt>
      <trkpt lat="42.18936" lon="9.07264">
        <ele>1247.93</ele>
        <time>2015-09-12T12:06:59Z</time>
      </trkpt>
      <trkpt lat="42.18935" lon="9.07283">
        <ele>1246.49</ele>
        <time>2015-09-12T12:07:11Z</time>
      </trkpt>
      <trkpt lat="42.18932" lon="9.07306">
        <ele>1244.56</ele>
        <time>2015-09-12T12:07:26Z</time>
      </trkpt>
      <trkpt lat="42.18926" lon="9.07324">
        <ele>1242.64</ele>
        <time>2015-09-12T12:07:39Z</time>
      </trkpt>
      <trkpt lat="42.18923" lon="9.07348">
        <ele>1242.16</ele>
        <time>2015-09-12T12:07:52Z</time>
      </trkpt>
      <trkpt lat="42.18919" lon="9.07356">
        <ele>1241.2</ele>
        <time>2015-09-12T12:07:57Z</time>
      </trkpt>
      <trkpt lat="42.18909" lon="9.07378">
        <ele>1239.28</ele>
        <time>2015-09-12T12:08:10Z</time>
      </trkpt>
      <trkpt lat="42.18907" lon="9.07386">
        <ele>1238.32</ele>
        <time>2015-09-12T12:08:15Z</time>
      </trkpt>
      <trkpt lat="42.18903" lon="9.07401">
        <ele>1236.87</ele>
        <time>2015-09-12T12:08:27Z</time>
      </trkpt>
      <trkpt lat="42.18901" lon="9.07409">
        <ele>1235.91</ele>
        <time>2015-09-12T12:08:33Z</time>
      </trkpt>
      <trkpt lat="42.18898" lon="9.07413">
        <ele>1235.43</ele>
        <time>2015-09-12T12:08:38Z</time>
      </trkpt>
      <trkpt lat="42.18892" lon="9.07424">
        <ele>1233.99</ele>
        <time>2015-09-12T12:08:50Z</time>
      </trkpt>
      <trkpt lat="42.18886" lon="9.07438">
        <ele>1231.59</ele>
        <time>2015-09-12T12:09:03Z</time>
      </trkpt>
      <trkpt lat="42.18878" lon="9.07451">
        <ele>1229.66</ele>
        <time>2015-09-12T12:09:15Z</time>
      </trkpt>
      <trkpt lat="42.18875" lon="9.07455">
        <ele>1228.7</ele>
        <time>2015-09-12T12:09:19Z</time>
      </trkpt>
      <trkpt lat="42.18872" lon="9.07472">
        <ele>1227.26</ele>
        <time>2015-09-12T12:09:30Z</time>
      </trkpt>
      <trkpt lat="42.18863" lon="9.07492">
        <ele>1224.86</ele>
        <time>2015-09-12T12:09:45Z</time>
      </trkpt>
      <trkpt lat="42.18862" lon="9.07494">
        <ele>1224.86</ele>
        <time>2015-09-12T12:09:47Z</time>
      </trkpt>
      <trkpt lat="42.18856" lon="9.07505">
        <ele>1223.9</ele>
        <time>2015-09-12T12:10:00Z</time>
      </trkpt>
      <trkpt lat="42.18853" lon="9.07507">
        <ele>1223.42</ele>
        <time>2015-09-12T12:10:02Z</time>
      </trkpt>
      <trkpt lat="42.18851" lon="9.0751">
        <ele>1223.42</ele>
        <time>2015-09-12T12:10:04Z</time>
      </trkpt>
      <trkpt lat="42.18847" lon="9.07512">
        <ele>1222.93</ele>
        <time>2015-09-12T12:10:08Z</time>
      </trkpt>
      <trkpt lat="42.18838" lon="9.07522">
        <ele>1221.49</ele>
        <time>2015-09-12T12:10:22Z</time>
      </trkpt>
      <trkpt lat="42.18832" lon="9.07527">
        <ele>1221.97</ele>
        <time>2015-09-12T12:10:37Z</time>
      </trkpt>
      <trkpt lat="42.18826" lon="9.07536">
        <ele>1221.49</ele>
        <time>2015-09-12T12:10:55Z</time>
      </trkpt>
      <trkpt lat="42.18818" lon="9.07539">
        <ele>1218.61</ele>
        <time>2015-09-12T12:11:08Z</time>
      </trkpt>
      <trkpt lat="42.18815" lon="9.07537">
        <ele>1218.13</ele>
        <time>2015-09-12T12:11:11Z</time>
      </trkpt>
      <trkpt lat="42.18804" lon="9.07542">
        <ele>1215.72</ele>
        <time>2015-09-12T12:11:24Z</time>
      </trkpt>
      <trkpt lat="42.18794" lon="9.07546">
        <ele>1213.8</ele>
        <time>2015-09-12T12:11:35Z</time>
      </trkpt>
      <trkpt lat="42.18794" lon="9.07547">
        <ele>1213.8</ele>
        <time>2015-09-12T12:11:37Z</time>
      </trkpt>
      <trkpt lat="42.1879" lon="9.07548">
        <ele>1213.32</ele>
        <time>2015-09-12T12:11:41Z</time>
      </trkpt>
      <trkpt lat="42.18781" lon="9.07553">
        <ele>1211.88</ele>
        <time>2015-09-12T12:11:50Z</time>
      </trkpt>
      <trkpt lat="42.18775" lon="9.07556">
        <ele>1210.44</ele>
        <time>2015-09-12T12:12:02Z</time>
      </trkpt>
      <trkpt lat="42.18763" lon="9.07556">
        <ele>1208.03</ele>
        <time>2015-09-12T12:12:17Z</time>
      </trkpt>
      <trkpt lat="42.18751" lon="9.07564">
        <ele>1206.11</ele>
        <time>2015-09-12T12:12:32Z</time>
      </trkpt>
      <trkpt lat="42.18739" lon="9.07568">
        <ele>1204.19</ele>
        <time>2015-09-12T12:12:48Z</time>
      </trkpt>
      <trkpt lat="42.1873" lon="9.07573">
        <ele>1203.23</ele>
        <time>2015-09-12T12:13:05Z</time>
      </trkpt>
      <trkpt lat="42.18714" lon="9.07574">
        <ele>1200.82</ele>
        <time>2015-09-12T12:13:20Z</time>
      </trkpt>
      <trkpt lat="42.18713" lon="9.0757">
        <ele>1200.34</ele>
        <time>2015-09-12T12:13:45Z</time>
      </trkpt>
      <trkpt lat="42.18708" lon="9.07567">
        <ele>1198.42</ele>
        <time>2015-09-12T12:14:00Z</time>
      </trkpt>
      <trkpt lat="42.18704" lon="9.07564">
        <ele>1195.06</ele>
        <time>2015-09-12T12:14:13Z</time>
      </trkpt>
      <trkpt lat="42.18704" lon="9.0756">
        <ele>1193.13</ele>
        <time>2015-09-12T12:14:19Z</time>
      </trkpt>
      <trkpt lat="42.1871" lon="9.07557">
        <ele>1190.73</ele>
        <time>2015-09-12T12:14:30Z</time>
      </trkpt>
      <trkpt lat="42.1871" lon="9.07554">
        <ele>1190.73</ele>
        <time>2015-09-12T12:14:45Z</time>
      </trkpt>
      <trkpt lat="42.1871" lon="9.0755">
        <ele>1190.25</ele>
        <time>2015-09-12T12:15:05Z</time>
      </trkpt>
      <trkpt lat="42.18708" lon="9.07543">
        <ele>1190.25</ele>
        <time>2015-09-12T12:15:36Z</time>
      </trkpt>
      <trkpt lat="42.1871" lon="9.07545">
        <ele>1190.25</ele>
        <time>2015-09-12T12:16:06Z</time>
      </trkpt>
      <trkpt lat="42.1871" lon="9.07544">
        <ele>1190.73</ele>
        <time>2015-09-12T12:16:34Z</time>
      </trkpt>
      <trkpt lat="42.18709" lon="9.07543">
        <ele>1190.73</ele>
        <time>2015-09-12T12:17:02Z</time>
      </trkpt>
      <trkpt lat="42.18712" lon="9.07543">
        <ele>1190.73</ele>
        <time>2015-09-12T12:17:28Z</time>
      </trkpt>
      <trkpt lat="42.18711" lon="9.07544">
        <ele>1191.21</ele>
        <time>2015-09-12T12:17:55Z</time>
      </trkpt>
      <trkpt lat="42.18712" lon="9.07544">
        <ele>1191.21</ele>
        <time>2015-09-12T12:18:26Z</time>
      </trkpt>
      <trkpt lat="42.18713" lon="9.07543">
        <ele>1191.69</ele>
        <time>2015-09-12T12:18:59Z</time>
      </trkpt>
      <trkpt lat="42.18713" lon="9.07542">
        <ele>1191.69</ele>
        <time>2015-09-12T12:19:29Z</time>
      </trkpt>
      <trkpt lat="42.18712" lon="9.07542">
        <ele>1192.17</ele>
        <time>2015-09-12T12:20:01Z</time>
      </trkpt>
      <trkpt lat="42.18713" lon="9.07537">
        <ele>1192.17</ele>
        <time>2015-09-12T12:20:31Z</time>
      </trkpt>
      <trkpt lat="42.18711" lon="9.07535">
        <ele>1192.65</ele>
        <time>2015-09-12T12:21:02Z</time>
      </trkpt>
      <trkpt lat="42.18709" lon="9.07533">
        <ele>1193.13</ele>
        <time>2015-09-12T12:21:38Z</time>
      </trkpt>
      <trkpt lat="42.18709" lon="9.07533">
        <ele>1193.13</ele>
        <time>2015-09-12T12:22:10Z</time>
      </trkpt>
      <trkpt lat="42.18708" lon="9.07532">
        <ele>1193.13</ele>
        <time>2015-09-12T12:22:36Z</time>
      </trkpt>
      <trkpt lat="42.18708" lon="9.07532">
        <ele>1193.61</ele>
        <time>2015-09-12T12:23:02Z</time>
      </trkpt>
      <trkpt lat="42.18708" lon="9.07533">
        <ele>1193.61</ele>
        <time>2015-09-12T12:23:34Z</time>
      </trkpt>
      <trkpt lat="42.18707" lon="9.07532">
        <ele>1193.61</ele>
        <time>2015-09-12T12:24:07Z</time>
      </trkpt>
      <trkpt lat="42.18707" lon="9.0753">
        <ele>1193.61</ele>
        <time>2015-09-12T12:24:36Z</time>
      </trkpt>
      <trkpt lat="42.18708" lon="9.07531">
        <ele>1194.09</ele>
        <time>2015-09-12T12:25:11Z</time>
      </trkpt>
      <trkpt lat="42.18707" lon="9.0753">
        <ele>1194.09</ele>
        <time>2015-09-12T12:25:42Z</time>
      </trkpt>
      <trkpt lat="42.18709" lon="9.07528">
        <ele>1194.58</ele>
        <time>2015-09-12T12:26:15Z</time>
      </trkpt>
      <trkpt lat="42.18708" lon="9.07528">
        <ele>1195.06</ele>
        <time>2015-09-12T12:26:43Z</time>
      </trkpt>
      <trkpt lat="42.18708" lon="9.07527">
        <ele>1195.54</ele>
        <time>2015-09-12T12:27:15Z</time>
      </trkpt>
      <trkpt lat="42.18708" lon="9.07528">
        <ele>1195.54</ele>
        <time>2015-09-12T12:27:36Z</time>
      </trkpt>
      <trkpt lat="42.18709" lon="9.07529">
        <ele>1196.02</ele>
        <time>2015-09-12T12:28:04Z</time>
      </trkpt>
      <trkpt lat="42.1871" lon="9.07529">
        <ele>1196.02</ele>
        <time>2015-09-12T12:28:35Z</time>
      </trkpt>
      <trkpt lat="42.18708" lon="9.07529">
        <ele>1196.5</ele>
        <time>2015-09-12T12:29:05Z</time>
      </trkpt>
      <trkpt lat="42.18709" lon="9.07529">
        <ele>1196.98</ele>
        <time>2015-09-12T12:29:36Z</time>
      </trkpt>
      <trkpt lat="42.1871" lon="9.0753">
        <ele>1196.98</ele>
        <time>2015-09-12T12:30:06Z</time>
      </trkpt>
      <trkpt lat="42.1871" lon="9.0753">
        <ele>1197.46</ele>
        <time>2015-09-12T12:30:41Z</time>
      </trkpt>
      <trkpt lat="42.1871" lon="9.07531">
        <ele>1197.94</ele>
        <time>2015-09-12T12:31:15Z</time>
      </trkpt>
      <trkpt lat="42.18709" lon="9.07534">
        <ele>1197.94</ele>
        <time>2015-09-12T12:31:49Z</time>
      </trkpt>
      <trkpt lat="42.18707" lon="9.07535">
        <ele>1198.42</ele>
        <time>2015-09-12T12:32:26Z</time>
      </trkpt>
      <trkpt lat="42.18705" lon="9.07536">
        <ele>1198.9</ele>
        <time>2015-09-12T12:33:01Z</time>
      </trkpt>
      <trkpt lat="42.18705" lon="9.07536">
        <ele>1198.9</ele>
        <time>2015-09-12T12:33:30Z</time>
      </trkpt>
      <trkpt lat="42.18707" lon="9.07538">
        <ele>1199.38</ele>
        <time>2015-09-12T12:34:00Z</time>
      </trkpt>
      <trkpt lat="42.18706" lon="9.07539">
        <ele>1199.38</ele>
        <time>2015-09-12T12:34:28Z</time>
      </trkpt>
      <trkpt lat="42.18706" lon="9.07539">
        <ele>1199.86</ele>
        <time>2015-09-12T12:34:58Z</time>
      </trkpt>
      <trkpt lat="42.18706" lon="9.07539">
        <ele>1199.86</ele>
        <time>2015-09-12T12:35:27Z</time>
      </trkpt>
      <trkpt lat="42.18706" lon="9.0754">
        <ele>1201.3</ele>
        <time>2015-09-12T12:35:54Z</time>
      </trkpt>
      <trkpt lat="42.18706" lon="9.07541">
        <ele>1200.82</ele>
        <time>2015-09-12T12:36:18Z</time>
      </trkpt>
      <trkpt lat="42.18704" lon="9.07542">
        <ele>1201.3</ele>
        <time>2015-09-12T12:36:49Z</time>
      </trkpt>
      <trkpt lat="42.18704" lon="9.07542">
        <ele>1201.79</ele>
        <time>2015-09-12T12:37:15Z</time>
      </trkpt>
      <trkpt lat="42.18705" lon="9.07541">
        <ele>1201.79</ele>
        <time>2015-09-12T12:37:42Z</time>
      </trkpt>
      <trkpt lat="42.18705" lon="9.07539">
        <ele>1202.27</ele>
        <time>2015-09-12T12:38:06Z</time>
      </trkpt>
      <trkpt lat="42.18704" lon="9.07537">
        <ele>1202.75</ele>
        <time>2015-09-12T12:38:35Z</time>
      </trkpt>
      <trkpt lat="42.18704" lon="9.0754">
        <ele>1203.23</ele>
        <time>2015-09-12T12:39:08Z</time>
      </trkpt>
      <trkpt lat="42.18704" lon="9.07541">
        <ele>1203.71</ele>
        <time>2015-09-12T12:39:39Z</time>
      </trkpt>
      <trkpt lat="42.18704" lon="9.0754">
        <ele>1203.71</ele>
        <time>2015-09-12T12:40:03Z</time>
      </trkpt>
      <trkpt lat="42.18703" lon="9.0754">
        <ele>1204.19</ele>
        <time>2015-09-12T12:40:31Z</time>
      </trkpt>
      <trkpt lat="42.18706" lon="9.07541">
        <ele>1204.67</ele>
        <time>2015-09-12T12:41:03Z</time>
      </trkpt>
      <trkpt lat="42.18705" lon="9.07539">
        <ele>1205.15</ele>
        <time>2015-09-12T12:41:36Z</time>
      </trkpt>
      <trkpt lat="42.18706" lon="9.07538">
        <ele>1205.15</ele>
        <time>2015-09-12T12:42:11Z</time>
      </trkpt>
      <trkpt lat="42.18707" lon="9.07539">
        <ele>1205.63</ele>
        <time>2015-09-12T12:42:40Z</time>
      </trkpt>
      <trkpt lat="42.18706" lon="9.07538">
        <ele>1206.11</ele>
        <time>2015-09-12T12:43:20Z</time>
      </trkpt>
      <trkpt lat="42.18706" lon="9.07538">
        <ele>1206.59</ele>
        <time>2015-09-12T12:43:47Z</time>
      </trkpt>
      <trkpt lat="42.18705" lon="9.07537">
        <ele>1207.07</ele>
        <time>2015-09-12T12:44:13Z</time>
      </trkpt>
      <trkpt lat="42.18705" lon="9.07526">
        <ele>1207.55</ele>
        <time>2015-09-12T12:44:38Z</time>
      </trkpt>
      <trkpt lat="42.18706" lon="9.07534">
        <ele>1208.03</ele>
        <time>2015-09-12T12:45:18Z</time>
      </trkpt>
      <trkpt lat="42.18705" lon="9.07537">
        <ele>1208.51</ele>
        <time>2015-09-12T12:45:50Z</time>
      </trkpt>
      <trkpt lat="42.18703" lon="9.07535">
        <ele>1209</ele>
        <time>2015-09-12T12:46:24Z</time>
      </trkpt>
      <trkpt lat="42.18704" lon="9.07535">
        <ele>1209.48</ele>
        <time>2015-09-12T12:46:55Z</time>
      </trkpt>
      <trkpt lat="42.18704" lon="9.07533">
        <ele>1209.96</ele>
        <time>2015-09-12T12:47:29Z</time>
      </trkpt>
      <trkpt lat="42.18704" lon="9.07532">
        <ele>1210.44</ele>
        <time>2015-09-12T12:48:06Z</time>
      </trkpt>
      <trkpt lat="42.18705" lon="9.07531">
        <ele>1210.44</ele>
        <time>2015-09-12T12:48:33Z</time>
      </trkpt>
      <trkpt lat="42.18704" lon="9.07532">
        <ele>1211.4</ele>
        <time>2015-09-12T12:49:07Z</time>
      </trkpt>
      <trkpt lat="42.18704" lon="9.07535">
        <ele>1211.4</ele>
        <time>2015-09-12T12:49:45Z</time>
      </trkpt>
      <trkpt lat="42.18704" lon="9.07537">
        <ele>1211.88</ele>
        <time>2015-09-12T12:50:22Z</time>
      </trkpt>
      <trkpt lat="42.18703" lon="9.07538">
        <ele>1212.36</ele>
        <time>2015-09-12T12:50:58Z</time>
      </trkpt>
      <trkpt lat="42.18704" lon="9.07539">
        <ele>1212.36</ele>
        <time>2015-09-12T12:51:28Z</time>
      </trkpt>
      <trkpt lat="42.18701" lon="9.07536">
        <ele>1213.8</ele>
        <time>2015-09-12T12:51:56Z</time>
      </trkpt>
      <trkpt lat="42.18702" lon="9.07536">
        <ele>1214.28</ele>
        <time>2015-09-12T12:52:08Z</time>
      </trkpt>
      <trkpt lat="42.18702" lon="9.07539">
        <ele>1213.32</ele>
        <time>2015-09-12T12:52:26Z</time>
      </trkpt>
      <trkpt lat="42.18705" lon="9.07533">
        <ele>1213.8</ele>
        <time>2015-09-12T12:52:44Z</time>
      </trkpt>
      <trkpt lat="42.18704" lon="9.07533">
        <ele>1214.28</ele>
        <time>2015-09-12T12:53:01Z</time>
      </trkpt>
      <trkpt lat="42.18706" lon="9.07533">
        <ele>1217.65</ele>
        <time>2015-09-12T12:53:15Z</time>
      </trkpt>
      <trkpt lat="42.18706" lon="9.07533">
        <ele>1220.53</ele>
        <time>2015-09-12T12:53:28Z</time>
      </trkpt>
      <trkpt lat="42.18707" lon="9.07533">
        <ele>1221.49</ele>
        <time>2015-09-12T12:53:47Z</time>
      </trkpt>
      <trkpt lat="42.18706" lon="9.07539">
        <ele>1221.97</ele>
        <time>2015-09-12T12:54:01Z</time>
      </trkpt>
      <trkpt lat="42.18703" lon="9.07551">
        <ele>1222.45</ele>
        <time>2015-09-12T12:54:22Z</time>
      </trkpt>
      <trkpt lat="42.18695" lon="9.07566">
        <ele>1220.53</ele>
        <time>2015-09-12T12:54:35Z</time>
      </trkpt>
      <trkpt lat="42.18686" lon="9.07564">
        <ele>1218.61</ele>
        <time>2015-09-12T12:54:46Z</time>
      </trkpt>
      <trkpt lat="42.18674" lon="9.07567">
        <ele>1215.72</ele>
        <time>2015-09-12T12:54:58Z</time>
      </trkpt>
      <trkpt lat="42.18663" lon="9.07568">
        <ele>1213.32</ele>
        <time>2015-09-12T12:55:12Z</time>
      </trkpt>
      <trkpt lat="42.18659" lon="9.07567">
        <ele>1212.36</ele>
        <time>2015-09-12T12:55:23Z</time>
      </trkpt>
      <trkpt lat="42.18654" lon="9.07568">
        <ele>1210.92</ele>
        <time>2015-09-12T12:55:30Z</time>
      </trkpt>
      <trkpt lat="42.18639" lon="9.07576">
        <ele>1209.48</ele>
        <time>2015-09-12T12:55:42Z</time>
      </trkpt>
      <trkpt lat="42.18621" lon="9.07571">
        <ele>1208.51</ele>
        <time>2015-09-12T12:55:56Z</time>
      </trkpt>
      <trkpt lat="42.18613" lon="9.07572">
        <ele>1206.59</ele>
        <time>2015-09-12T12:56:03Z</time>
      </trkpt>
      <trkpt lat="42.18595" lon="9.07575">
        <ele>1203.71</ele>
        <time>2015-09-12T12:56:17Z</time>
      </trkpt>
      <trkpt lat="42.18579" lon="9.07567">
        <ele>1200.34</ele>
        <time>2015-09-12T12:56:32Z</time>
      </trkpt>
      <trkpt lat="42.18575" lon="9.07566">
        <ele>1199.38</ele>
        <time>2015-09-12T12:56:37Z</time>
      </trkpt>
      <trkpt lat="42.1857" lon="9.07569">
        <ele>1197.46</ele>
        <time>2015-09-12T12:56:51Z</time>
      </trkpt>
      <trkpt lat="42.18567" lon="9.07574">
        <ele>1196.5</ele>
        <time>2015-09-12T12:57:01Z</time>
      </trkpt>
      <trkpt lat="42.18561" lon="9.07582">
        <ele>1196.02</ele>
        <time>2015-09-12T12:57:12Z</time>
      </trkpt>
      <trkpt lat="42.18553" lon="9.07585">
        <ele>1195.06</ele>
        <time>2015-09-12T12:57:23Z</time>
      </trkpt>
      <trkpt lat="42.18544" lon="9.07587">
        <ele>1193.61</ele>
        <time>2015-09-12T12:57:33Z</time>
      </trkpt>
      <trkpt lat="42.18538" lon="9.07591">
        <ele>1192.17</ele>
        <time>2015-09-12T12:57:44Z</time>
      </trkpt>
      <trkpt lat="42.18534" lon="9.07592">
        <ele>1191.69</ele>
        <time>2015-09-12T12:57:55Z</time>
      </trkpt>
      <trkpt lat="42.18527" lon="9.07596">
        <ele>1190.73</ele>
        <time>2015-09-12T12:58:07Z</time>
      </trkpt>
      <trkpt lat="42.18522" lon="9.07598">
        <ele>1189.29</ele>
        <time>2015-09-12T12:58:19Z</time>
      </trkpt>
      <trkpt lat="42.18521" lon="9.07598">
        <ele>1188.81</ele>
        <time>2015-09-12T12:58:24Z</time>
      </trkpt>
      <trkpt lat="42.1851" lon="9.07601">
        <ele>1186.88</ele>
        <time>2015-09-12T12:58:39Z</time>
      </trkpt>
      <trkpt lat="42.18494" lon="9.07608">
        <ele>1185.92</ele>
        <time>2015-09-12T12:58:52Z</time>
      </trkpt>
      <trkpt lat="42.18492" lon="9.07607">
        <ele>1185.44</ele>
        <time>2015-09-12T12:58:53Z</time>
      </trkpt>
      <trkpt lat="42.1849" lon="9.07607">
        <ele>1185.44</ele>
        <time>2015-09-12T12:58:55Z</time>
      </trkpt>
      <trkpt lat="42.18471" lon="9.07616">
        <ele>1184.48</ele>
        <time>2015-09-12T12:59:08Z</time>
      </trkpt>
      <trkpt lat="42.18458" lon="9.0762">
        <ele>1183.04</ele>
        <time>2015-09-12T12:59:20Z</time>
      </trkpt>
      <trkpt lat="42.18444" lon="9.07626">
        <ele>1181.12</ele>
        <time>2015-09-12T12:59:31Z</time>
      </trkpt>
      <trkpt lat="42.18442" lon="9.07627">
        <ele>1180.64</ele>
        <time>2015-09-12T12:59:33Z</time>
      </trkpt>
      <trkpt lat="42.18438" lon="9.0763">
        <ele>1179.67</ele>
        <time>2015-09-12T12:59:37Z</time>
      </trkpt>
      <trkpt lat="42.18428" lon="9.07633">
        <ele>1178.23</ele>
        <time>2015-09-12T12:59:46Z</time>
      </trkpt>
      <trkpt lat="42.1841" lon="9.07632">
        <ele>1175.35</ele>
        <time>2015-09-12T13:00:01Z</time>
      </trkpt>
      <trkpt lat="42.18404" lon="9.07633">
        <ele>1173.91</ele>
        <time>2015-09-12T13:00:10Z</time>
      </trkpt>
      <trkpt lat="42.1839" lon="9.07638">
        <ele>1171.02</ele>
        <time>2015-09-12T13:00:24Z</time>
      </trkpt>
      <trkpt lat="42.18377" lon="9.07642">
        <ele>1169.58</ele>
        <time>2015-09-12T13:00:38Z</time>
      </trkpt>
      <trkpt lat="42.18365" lon="9.07645">
        <ele>1167.18</ele>
        <time>2015-09-12T13:00:50Z</time>
      </trkpt>
      <trkpt lat="42.18358" lon="9.07655">
        <ele>1165.26</ele>
        <time>2015-09-12T13:01:02Z</time>
      </trkpt>
      <trkpt lat="42.18343" lon="9.07671">
        <ele>1162.85</ele>
        <time>2015-09-12T13:01:19Z</time>
      </trkpt>
      <trkpt lat="42.18336" lon="9.07683">
        <ele>1161.41</ele>
        <time>2015-09-12T13:01:31Z</time>
      </trkpt>
      <trkpt lat="42.18324" lon="9.07686">
        <ele>1159.49</ele>
        <time>2015-09-12T13:01:43Z</time>
      </trkpt>
      <trkpt lat="42.18309" lon="9.07697">
        <ele>1158.05</ele>
        <time>2015-09-12T13:01:53Z</time>
      </trkpt>
      <trkpt lat="42.18305" lon="9.07702">
        <ele>1156.6</ele>
        <time>2015-09-12T13:02:08Z</time>
      </trkpt>
      <trkpt lat="42.18292" lon="9.07716">
        <ele>1154.68</ele>
        <time>2015-09-12T13:02:21Z</time>
      </trkpt>
      <trkpt lat="42.18278" lon="9.07724">
        <ele>1152.76</ele>
        <time>2015-09-12T13:02:35Z</time>
      </trkpt>
      <trkpt lat="42.18267" lon="9.07733">
        <ele>1149.87</ele>
        <time>2015-09-12T13:02:48Z</time>
      </trkpt>
      <trkpt lat="42.1826" lon="9.07745">
        <ele>1148.43</ele>
        <time>2015-09-12T13:02:58Z</time>
      </trkpt>
      <trkpt lat="42.18249" lon="9.07758">
        <ele>1146.99</ele>
        <time>2015-09-12T13:03:08Z</time>
      </trkpt>
      <trkpt lat="42.18244" lon="9.07765">
        <ele>1146.51</ele>
        <time>2015-09-12T13:03:13Z</time>
      </trkpt>
      <trkpt lat="42.18236" lon="9.07779">
        <ele>1146.03</ele>
        <time>2015-09-12T13:03:26Z</time>
      </trkpt>
      <trkpt lat="42.18234" lon="9.07779">
        <ele>1145.55</ele>
        <time>2015-09-12T13:03:27Z</time>
      </trkpt>
      <trkpt lat="42.1822" lon="9.07786">
        <ele>1142.66</ele>
        <time>2015-09-12T13:03:41Z</time>
      </trkpt>
      <trkpt lat="42.18209" lon="9.078">
        <ele>1140.26</ele>
        <time>2015-09-12T13:03:58Z</time>
      </trkpt>
      <trkpt lat="42.182" lon="9.0781">
        <ele>1136.9</ele>
        <time>2015-09-12T13:04:10Z</time>
      </trkpt>
      <trkpt lat="42.18193" lon="9.07814">
        <ele>1134.49</ele>
        <time>2015-09-12T13:04:23Z</time>
      </trkpt>
      <trkpt lat="42.18184" lon="9.07824">
        <ele>1131.61</ele>
        <time>2015-09-12T13:04:37Z</time>
      </trkpt>
      <trkpt lat="42.18184" lon="9.07823">
        <ele>1131.13</ele>
        <time>2015-09-12T13:04:55Z</time>
      </trkpt>
      <trkpt lat="42.18184" lon="9.07822">
        <ele>1131.13</ele>
        <time>2015-09-12T13:05:20Z</time>
      </trkpt>
      <trkpt lat="42.18184" lon="9.07821">
        <ele>1130.65</ele>
        <time>2015-09-12T13:05:41Z</time>
      </trkpt>
      <trkpt lat="42.18184" lon="9.07823">
        <ele>1130.17</ele>
        <time>2015-09-12T13:06:03Z</time>
      </trkpt>
      <trkpt lat="42.18185" lon="9.07827">
        <ele>1129.69</ele>
        <time>2015-09-12T13:06:06Z</time>
      </trkpt>
      <trkpt lat="42.18181" lon="9.07837">
        <ele>1127.76</ele>
        <time>2015-09-12T13:06:19Z</time>
      </trkpt>
      <trkpt lat="42.18174" lon="9.07857">
        <ele>1125.36</ele>
        <time>2015-09-12T13:06:33Z</time>
      </trkpt>
      <trkpt lat="42.18172" lon="9.07868">
        <ele>1123.44</ele>
        <time>2015-09-12T13:06:44Z</time>
      </trkpt>
      <trkpt lat="42.18171" lon="9.07877">
        <ele>1122</ele>
        <time>2015-09-12T13:06:54Z</time>
      </trkpt>
      <trkpt lat="42.18166" lon="9.07887">
        <ele>1119.11</ele>
        <time>2015-09-12T13:07:07Z</time>
      </trkpt>
      <trkpt lat="42.1816" lon="9.07899">
        <ele>1115.75</ele>
        <time>2015-09-12T13:07:21Z</time>
      </trkpt>
      <trkpt lat="42.18148" lon="9.07932">
        <ele>1112.86</ele>
        <time>2015-09-12T13:07:35Z</time>
      </trkpt>
      <trkpt lat="42.18142" lon="9.07956">
        <ele>1109.98</ele>
        <time>2015-09-12T13:07:49Z</time>
      </trkpt>
      <trkpt lat="42.18131" lon="9.07973">
        <ele>1107.58</ele>
        <time>2015-09-12T13:08:05Z</time>
      </trkpt>
      <trkpt lat="42.18119" lon="9.0799">
        <ele>1105.65</ele>
        <time>2015-09-12T13:08:20Z</time>
      </trkpt>
      <trkpt lat="42.18107" lon="9.08002">
        <ele>1105.17</ele>
        <time>2015-09-12T13:08:34Z</time>
      </trkpt>
      <trkpt lat="42.18093" lon="9.08028">
        <ele>1103.73</ele>
        <time>2015-09-12T13:08:49Z</time>
      </trkpt>
      <trkpt lat="42.1808" lon="9.08044">
        <ele>1101.33</ele>
        <time>2015-09-12T13:09:05Z</time>
      </trkpt>
      <trkpt lat="42.18073" lon="9.0805">
        <ele>1100.37</ele>
        <time>2015-09-12T13:09:10Z</time>
      </trkpt>
      <trkpt lat="42.18063" lon="9.08067">
        <ele>1098.92</ele>
        <time>2015-09-12T13:09:22Z</time>
      </trkpt>
      <trkpt lat="42.18045" lon="9.08073">
        <ele>1097.48</ele>
        <time>2015-09-12T13:09:35Z</time>
      </trkpt>
      <trkpt lat="42.18037" lon="9.08073">
        <ele>1097</ele>
        <time>2015-09-12T13:09:42Z</time>
      </trkpt>
      <trkpt lat="42.18011" lon="9.08089">
        <ele>1095.08</ele>
        <time>2015-09-12T13:10:01Z</time>
      </trkpt>
      <trkpt lat="42.18009" lon="9.08089">
        <ele>1095.08</ele>
        <time>2015-09-12T13:10:02Z</time>
      </trkpt>
      <trkpt lat="42.17994" lon="9.08102">
        <ele>1093.64</ele>
        <time>2015-09-12T13:10:18Z</time>
      </trkpt>
      <trkpt lat="42.17984" lon="9.0811">
        <ele>1091.23</ele>
        <time>2015-09-12T13:10:32Z</time>
      </trkpt>
      <trkpt lat="42.1796" lon="9.08126">
        <ele>1089.31</ele>
        <time>2015-09-12T13:10:47Z</time>
      </trkpt>
      <trkpt lat="42.17952" lon="9.08136">
        <ele>1088.35</ele>
        <time>2015-09-12T13:10:57Z</time>
      </trkpt>
      <trkpt lat="42.1795" lon="9.08149">
        <ele>1087.39</ele>
        <time>2015-09-12T13:11:09Z</time>
      </trkpt>
      <trkpt lat="42.1795" lon="9.08159">
        <ele>1086.91</ele>
        <time>2015-09-12T13:11:14Z</time>
      </trkpt>
      <trkpt lat="42.17946" lon="9.08183">
        <ele>1085.47</ele>
        <time>2015-09-12T13:11:27Z</time>
      </trkpt>
      <trkpt lat="42.17941" lon="9.08201">
        <ele>1083.06</ele>
        <time>2015-09-12T13:11:41Z</time>
      </trkpt>
      <trkpt lat="42.17937" lon="9.08216">
        <ele>1082.58</ele>
        <time>2015-09-12T13:11:50Z</time>
      </trkpt>
      <trkpt lat="42.17934" lon="9.0824">
        <ele>1081.14</ele>
        <time>2015-09-12T13:12:04Z</time>
      </trkpt>
      <trkpt lat="42.17932" lon="9.08242">
        <ele>1080.66</ele>
        <time>2015-09-12T13:12:07Z</time>
      </trkpt>
      <trkpt lat="42.17931" lon="9.08246">
        <ele>1080.66</ele>
        <time>2015-09-12T13:12:10Z</time>
      </trkpt>
      <trkpt lat="42.17929" lon="9.08257">
        <ele>1079.7</ele>
        <time>2015-09-12T13:12:18Z</time>
      </trkpt>
      <trkpt lat="42.17919" lon="9.08277">
        <ele>1076.81</ele>
        <time>2015-09-12T13:12:32Z</time>
      </trkpt>
      <trkpt lat="42.17911" lon="9.08297">
        <ele>1076.33</ele>
        <time>2015-09-12T13:12:42Z</time>
      </trkpt>
      <trkpt lat="42.17905" lon="9.08331">
        <ele>1075.37</ele>
        <time>2015-09-12T13:12:58Z</time>
      </trkpt>
      <trkpt lat="42.17904" lon="9.08335">
        <ele>1075.37</ele>
        <time>2015-09-12T13:13:00Z</time>
      </trkpt>
      <trkpt lat="42.17901" lon="9.08343">
        <ele>1074.89</ele>
        <time>2015-09-12T13:13:04Z</time>
      </trkpt>
      <trkpt lat="42.17896" lon="9.08368">
        <ele>1073.93</ele>
        <time>2015-09-12T13:13:17Z</time>
      </trkpt>
      <trkpt lat="42.17894" lon="9.08394">
        <ele>1072.97</ele>
        <time>2015-09-12T13:13:30Z</time>
      </trkpt>
      <trkpt lat="42.17885" lon="9.08414">
        <ele>1071.53</ele>
        <time>2015-09-12T13:13:45Z</time>
      </trkpt>
      <trkpt lat="42.17871" lon="9.08436">
        <ele>1071.05</ele>
        <time>2015-09-12T13:14:01Z</time>
      </trkpt>
      <trkpt lat="42.17863" lon="9.08449">
        <ele>1071.05</ele>
        <time>2015-09-12T13:14:15Z</time>
      </trkpt>
      <trkpt lat="42.17853" lon="9.08463">
        <ele>1069.6</ele>
        <time>2015-09-12T13:14:31Z</time>
      </trkpt>
      <trkpt lat="42.17844" lon="9.08492">
        <ele>1068.16</ele>
        <time>2015-09-12T13:14:48Z</time>
      </trkpt>
      <trkpt lat="42.17837" lon="9.08514">
        <ele>1067.2</ele>
        <time>2015-09-12T13:15:03Z</time>
      </trkpt>
      <trkpt lat="42.17825" lon="9.08536">
        <ele>1066.24</ele>
        <time>2015-09-12T13:15:16Z</time>
      </trkpt>
      <trkpt lat="42.17825" lon="9.08537">
        <ele>1066.24</ele>
        <time>2015-09-12T13:15:17Z</time>
      </trkpt>
      <trkpt lat="42.17824" lon="9.08553">
        <ele>1064.8</ele>
        <time>2015-09-12T13:15:33Z</time>
      </trkpt>
      <trkpt lat="42.17821" lon="9.0857">
        <ele>1064.32</ele>
        <time>2015-09-12T13:15:46Z</time>
      </trkpt>
      <trkpt lat="42.1782" lon="9.08587">
        <ele>1062.87</ele>
        <time>2015-09-12T13:15:55Z</time>
      </trkpt>
      <trkpt lat="42.17815" lon="9.08601">
        <ele>1061.91</ele>
        <time>2015-09-12T13:16:10Z</time>
      </trkpt>
      <trkpt lat="42.17814" lon="9.08606">
        <ele>1061.91</ele>
        <time>2015-09-12T13:16:14Z</time>
      </trkpt>
      <trkpt lat="42.17807" lon="9.08628">
        <ele>1060.95</ele>
        <time>2015-09-12T13:16:27Z</time>
      </trkpt>
      <trkpt lat="42.17807" lon="9.08631">
        <ele>1060.95</ele>
        <time>2015-09-12T13:16:30Z</time>
      </trkpt>
      <trkpt lat="42.17807" lon="9.08635">
        <ele>1060.95</ele>
        <time>2015-09-12T13:16:32Z</time>
      </trkpt>
      <trkpt lat="42.17799" lon="9.08658">
        <ele>1059.99</ele>
        <time>2015-09-12T13:16:48Z</time>
      </trkpt>
      <trkpt lat="42.17793" lon="9.08679">
        <ele>1059.99</ele>
        <time>2015-09-12T13:17:00Z</time>
      </trkpt>
      <trkpt lat="42.17792" lon="9.08682">
        <ele>1059.99</ele>
        <time>2015-09-12T13:17:02Z</time>
      </trkpt>
      <trkpt lat="42.17776" lon="9.08698">
        <ele>1059.03</ele>
        <time>2015-09-12T13:17:16Z</time>
      </trkpt>
      <trkpt lat="42.17774" lon="9.08699">
        <ele>1059.03</ele>
        <time>2015-09-12T13:17:20Z</time>
      </trkpt>
      <trkpt lat="42.17772" lon="9.087">
        <ele>1059.03</ele>
        <time>2015-09-12T13:17:22Z</time>
      </trkpt>
      <trkpt lat="42.17764" lon="9.08704">
        <ele>1058.55</ele>
        <time>2015-09-12T13:17:28Z</time>
      </trkpt>
      <trkpt lat="42.17751" lon="9.08729">
        <ele>1058.07</ele>
        <time>2015-09-12T13:17:44Z</time>
      </trkpt>
      <trkpt lat="42.17743" lon="9.08744">
        <ele>1057.11</ele>
        <time>2015-09-12T13:17:52Z</time>
      </trkpt>
      <trkpt lat="42.17737" lon="9.08747">
        <ele>1056.15</ele>
        <time>2015-09-12T13:17:56Z</time>
      </trkpt>
      <trkpt lat="42.17731" lon="9.08751">
        <ele>1055.18</ele>
        <time>2015-09-12T13:18:02Z</time>
      </trkpt>
      <trkpt lat="42.17727" lon="9.08756">
        <ele>1055.18</ele>
        <time>2015-09-12T13:18:06Z</time>
      </trkpt>
      <trkpt lat="42.17708" lon="9.08771">
        <ele>1053.26</ele>
        <time>2015-09-12T13:18:20Z</time>
      </trkpt>
      <trkpt lat="42.177" lon="9.08794">
        <ele>1050.86</ele>
        <time>2015-09-12T13:18:37Z</time>
      </trkpt>
      <trkpt lat="42.17692" lon="9.08808">
        <ele>1048.45</ele>
        <time>2015-09-12T13:18:52Z</time>
      </trkpt>
      <trkpt lat="42.17684" lon="9.08829">
        <ele>1047.01</ele>
        <time>2015-09-12T13:19:08Z</time>
      </trkpt>
      <trkpt lat="42.17679" lon="9.08844">
        <ele>1046.53</ele>
        <time>2015-09-12T13:19:16Z</time>
      </trkpt>
      <trkpt lat="42.17673" lon="9.08867">
        <ele>1045.57</ele>
        <time>2015-09-12T13:19:30Z</time>
      </trkpt>
      <trkpt lat="42.17672" lon="9.0887">
        <ele>1045.09</ele>
        <time>2015-09-12T13:19:32Z</time>
      </trkpt>
      <trkpt lat="42.1767" lon="9.08882">
        <ele>1045.09</ele>
        <time>2015-09-12T13:19:39Z</time>
      </trkpt>
      <trkpt lat="42.17668" lon="9.08909">
        <ele>1044.13</ele>
        <time>2015-09-12T13:19:54Z</time>
      </trkpt>
      <trkpt lat="42.17666" lon="9.08919">
        <ele>1044.13</ele>
        <time>2015-09-12T13:20:00Z</time>
      </trkpt>
      <trkpt lat="42.17658" lon="9.08949">
        <ele>1043.17</ele>
        <time>2015-09-12T13:20:18Z</time>
      </trkpt>
      <trkpt lat="42.17659" lon="9.08954">
        <ele>1042.69</ele>
        <time>2015-09-12T13:20:21Z</time>
      </trkpt>
      <trkpt lat="42.17658" lon="9.08963">
        <ele>1042.21</ele>
        <time>2015-09-12T13:20:26Z</time>
      </trkpt>
      <trkpt lat="42.17645" lon="9.08989">
        <ele>1040.76</ele>
        <time>2015-09-12T13:20:44Z</time>
      </trkpt>
      <trkpt lat="42.17631" lon="9.09009">
        <ele>1039.8</ele>
        <time>2015-09-12T13:21:01Z</time>
      </trkpt>
      <trkpt lat="42.1762" lon="9.09018">
        <ele>1039.32</ele>
        <time>2015-09-12T13:21:08Z</time>
      </trkpt>
      <trkpt lat="42.17613" lon="9.09031">
        <ele>1038.84</ele>
        <time>2015-09-12T13:21:16Z</time>
      </trkpt>
      <trkpt lat="42.1761" lon="9.09039">
        <ele>1038.84</ele>
        <time>2015-09-12T13:21:22Z</time>
      </trkpt>
      <trkpt lat="42.17607" lon="9.09043">
        <ele>1038.84</ele>
        <time>2015-09-12T13:21:25Z</time>
      </trkpt>
      <trkpt lat="42.17597" lon="9.09061">
        <ele>1038.36</ele>
        <time>2015-09-12T13:21:35Z</time>
      </trkpt>
      <trkpt lat="42.1758" lon="9.09085">
        <ele>1038.36</ele>
        <time>2015-09-12T13:21:53Z</time>
      </trkpt>
      <trkpt lat="42.17566" lon="9.09102">
        <ele>1037.88</ele>
        <time>2015-09-12T13:22:08Z</time>
      </trkpt>
      <trkpt lat="42.1755" lon="9.0912">
        <ele>1036.92</ele>
        <time>2015-09-12T13:22:23Z</time>
      </trkpt>
      <trkpt lat="42.17549" lon="9.09121">
        <ele>1036.92</ele>
        <time>2015-09-12T13:22:24Z</time>
      </trkpt>
      <trkpt lat="42.17543" lon="9.09129">
        <ele>1036.44</ele>
        <time>2015-09-12T13:22:31Z</time>
      </trkpt>
      <trkpt lat="42.17538" lon="9.09135">
        <ele>1036.44</ele>
        <time>2015-09-12T13:22:35Z</time>
      </trkpt>
      <trkpt lat="42.17517" lon="9.09154">
        <ele>1035.48</ele>
        <time>2015-09-12T13:22:51Z</time>
      </trkpt>
      <trkpt lat="42.17502" lon="9.09173">
        <ele>1034.52</ele>
        <time>2015-09-12T13:23:04Z</time>
      </trkpt>
      <trkpt lat="42.17502" lon="9.09177">
        <ele>1034.52</ele>
        <time>2015-09-12T13:23:07Z</time>
      </trkpt>
      <trkpt lat="42.175" lon="9.09199">
        <ele>1035</ele>
        <time>2015-09-12T13:23:23Z</time>
      </trkpt>
      <trkpt lat="42.1749" lon="9.0921">
        <ele>1035.96</ele>
        <time>2015-09-12T13:23:31Z</time>
      </trkpt>
      <trkpt lat="42.17472" lon="9.09229">
        <ele>1037.88</ele>
        <time>2015-09-12T13:23:49Z</time>
      </trkpt>
      <trkpt lat="42.17451" lon="9.0924">
        <ele>1039.32</ele>
        <time>2015-09-12T13:24:04Z</time>
      </trkpt>
      <trkpt lat="42.17449" lon="9.09244">
        <ele>1039.8</ele>
        <time>2015-09-12T13:24:07Z</time>
      </trkpt>
      <trkpt lat="42.17448" lon="9.09258">
        <ele>1040.76</ele>
        <time>2015-09-12T13:24:22Z</time>
      </trkpt>
      <trkpt lat="42.17448" lon="9.09267">
        <ele>1042.21</ele>
        <time>2015-09-12T13:24:38Z</time>
      </trkpt>
      <trkpt lat="42.17445" lon="9.09289">
        <ele>1043.17</ele>
        <time>2015-09-12T13:24:52Z</time>
      </trkpt>
      <trkpt lat="42.17445" lon="9.09314">
        <ele>1044.61</ele>
        <time>2015-09-12T13:25:07Z</time>
      </trkpt>
      <trkpt lat="42.17446" lon="9.09342">
        <ele>1044.13</ele>
        <time>2015-09-12T13:25:22Z</time>
      </trkpt>
      <trkpt lat="42.17448" lon="9.09362">
        <ele>1044.61</ele>
        <time>2015-09-12T13:25:36Z</time>
      </trkpt>
      <trkpt lat="42.17447" lon="9.09381">
        <ele>1043.17</ele>
        <time>2015-09-12T13:25:50Z</time>
      </trkpt>
      <trkpt lat="42.17449" lon="9.09394">
        <ele>1043.17</ele>
        <time>2015-09-12T13:26:04Z</time>
      </trkpt>
      <trkpt lat="42.1745" lon="9.0941">
        <ele>1041.73</ele>
        <time>2015-09-12T13:26:17Z</time>
      </trkpt>
      <trkpt lat="42.17447" lon="9.09429">
        <ele>1043.17</ele>
        <time>2015-09-12T13:26:34Z</time>
      </trkpt>
      <trkpt lat="42.17435" lon="9.09449">
        <ele>1040.28</ele>
        <time>2015-09-12T13:26:50Z</time>
      </trkpt>
      <trkpt lat="42.17425" lon="9.09463">
        <ele>1038.84</ele>
        <time>2015-09-12T13:27:01Z</time>
      </trkpt>
      <trkpt lat="42.17417" lon="9.09489">
        <ele>1036.44</ele>
        <time>2015-09-12T13:27:16Z</time>
      </trkpt>
      <trkpt lat="42.1741" lon="9.09515">
        <ele>1035.48</ele>
        <time>2015-09-12T13:27:27Z</time>
      </trkpt>
      <trkpt lat="42.17402" lon="9.0952">
        <ele>1035</ele>
        <time>2015-09-12T13:27:35Z</time>
      </trkpt>
      <trkpt lat="42.17389" lon="9.09535">
        <ele>1033.55</ele>
        <time>2015-09-12T13:27:50Z</time>
      </trkpt>
      <trkpt lat="42.17382" lon="9.09553">
        <ele>1035</ele>
        <time>2015-09-12T13:28:05Z</time>
      </trkpt>
      <trkpt lat="42.17377" lon="9.09558">
        <ele>1035.48</ele>
        <time>2015-09-12T13:28:11Z</time>
      </trkpt>
      <trkpt lat="42.17373" lon="9.09588">
        <ele>1035.48</ele>
        <time>2015-09-12T13:28:26Z</time>
      </trkpt>
      <trkpt lat="42.17369" lon="9.09604">
        <ele>1035.48</ele>
        <time>2015-09-12T13:28:34Z</time>
      </trkpt>
      <trkpt lat="42.17365" lon="9.09617">
        <ele>1035</ele>
        <time>2015-09-12T13:28:43Z</time>
      </trkpt>
      <trkpt lat="42.17354" lon="9.09632">
        <ele>1035.48</ele>
        <time>2015-09-12T13:28:57Z</time>
      </trkpt>
      <trkpt lat="42.17348" lon="9.0964">
        <ele>1035.96</ele>
        <time>2015-09-12T13:29:02Z</time>
      </trkpt>
      <trkpt lat="42.17325" lon="9.09657">
        <ele>1035.96</ele>
        <time>2015-09-12T13:29:19Z</time>
      </trkpt>
      <trkpt lat="42.1731" lon="9.09676">
        <ele>1036.44</ele>
        <time>2015-09-12T13:29:34Z</time>
      </trkpt>
      <trkpt lat="42.17309" lon="9.09677">
        <ele>1035.96</ele>
        <time>2015-09-12T13:29:35Z</time>
      </trkpt>
      <trkpt lat="42.17307" lon="9.0968">
        <ele>1036.44</ele>
        <time>2015-09-12T13:29:37Z</time>
      </trkpt>
      <trkpt lat="42.17298" lon="9.09688">
        <ele>1036.92</ele>
        <time>2015-09-12T13:29:46Z</time>
      </trkpt>
      <trkpt lat="42.17294" lon="9.09694">
        <ele>1036.92</ele>
        <time>2015-09-12T13:29:51Z</time>
      </trkpt>
      <trkpt lat="42.17284" lon="9.09712">
        <ele>1036.44</ele>
        <time>2015-09-12T13:30:06Z</time>
      </trkpt>
      <trkpt lat="42.17268" lon="9.09722">
        <ele>1035.48</ele>
        <time>2015-09-12T13:30:21Z</time>
      </trkpt>
      <trkpt lat="42.17258" lon="9.09728">
        <ele>1034.52</ele>
        <time>2015-09-12T13:30:28Z</time>
      </trkpt>
      <trkpt lat="42.17237" lon="9.09744">
        <ele>1033.07</ele>
        <time>2015-09-12T13:30:43Z</time>
      </trkpt>
      <trkpt lat="42.17227" lon="9.0975">
        <ele>1032.11</ele>
        <time>2015-09-12T13:30:53Z</time>
      </trkpt>
      <trkpt lat="42.17224" lon="9.09752">
        <ele>1031.63</ele>
        <time>2015-09-12T13:30:56Z</time>
      </trkpt>
      <trkpt lat="42.17211" lon="9.09767">
        <ele>1030.67</ele>
        <time>2015-09-12T13:31:10Z</time>
      </trkpt>
      <trkpt lat="42.17203" lon="9.09765">
        <ele>1029.23</ele>
        <time>2015-09-12T13:31:23Z</time>
      </trkpt>
      <trkpt lat="42.17202" lon="9.09765">
        <ele>1029.23</ele>
        <time>2015-09-12T13:31:24Z</time>
      </trkpt>
      <trkpt lat="42.172" lon="9.09763">
        <ele>1028.75</ele>
        <time>2015-09-12T13:31:27Z</time>
      </trkpt>
      <trkpt lat="42.17197" lon="9.09761">
        <ele>1028.27</ele>
        <time>2015-09-12T13:31:40Z</time>
      </trkpt>
      <trkpt lat="42.17197" lon="9.09759">
        <ele>1028.27</ele>
        <time>2015-09-12T13:31:55Z</time>
      </trkpt>
      <trkpt lat="42.17195" lon="9.09761">
        <ele>1028.27</ele>
        <time>2015-09-12T13:32:14Z</time>
      </trkpt>
      <trkpt lat="42.17194" lon="9.09763">
        <ele>1028.27</ele>
        <time>2015-09-12T13:32:17Z</time>
      </trkpt>
      <trkpt lat="42.17191" lon="9.09767">
        <ele>1027.79</ele>
        <time>2015-09-12T13:32:21Z</time>
      </trkpt>
      <trkpt lat="42.17183" lon="9.09773">
        <ele>1027.31</ele>
        <time>2015-09-12T13:32:30Z</time>
      </trkpt>
      <trkpt lat="42.1718" lon="9.09779">
        <ele>1026.83</ele>
        <time>2015-09-12T13:32:35Z</time>
      </trkpt>
      <trkpt lat="42.17177" lon="9.09785">
        <ele>1026.83</ele>
        <time>2015-09-12T13:32:40Z</time>
      </trkpt>
      <trkpt lat="42.17173" lon="9.09805">
        <ele>1026.34</ele>
        <time>2015-09-12T13:32:54Z</time>
      </trkpt>
      <trkpt lat="42.17169" lon="9.09821">
        <ele>1025.38</ele>
        <time>2015-09-12T13:33:06Z</time>
      </trkpt>
      <trkpt lat="42.17166" lon="9.09823">
        <ele>1024.9</ele>
        <time>2015-09-12T13:33:10Z</time>
      </trkpt>
      <trkpt lat="42.17152" lon="9.09828">
        <ele>1022.5</ele>
        <time>2015-09-12T13:33:25Z</time>
      </trkpt>
      <trkpt lat="42.17145" lon="9.09831">
        <ele>1021.06</ele>
        <time>2015-09-12T13:33:37Z</time>
      </trkpt>
      <trkpt lat="42.17141" lon="9.09836">
        <ele>1021.06</ele>
        <time>2015-09-12T13:33:47Z</time>
      </trkpt>
      <trkpt lat="42.17141" lon="9.09834">
        <ele>1020.58</ele>
        <time>2015-09-12T13:34:09Z</time>
      </trkpt>
      <trkpt lat="42.1714" lon="9.09833">
        <ele>1020.58</ele>
        <time>2015-09-12T13:34:23Z</time>
      </trkpt>
      <trkpt lat="42.17138" lon="9.09837">
        <ele>1020.58</ele>
        <time>2015-09-12T13:34:28Z</time>
      </trkpt>
      <trkpt lat="42.17133" lon="9.09846">
        <ele>1020.58</ele>
        <time>2015-09-12T13:34:33Z</time>
      </trkpt>
      <trkpt lat="42.17128" lon="9.09868">
        <ele>1019.62</ele>
        <time>2015-09-12T13:34:48Z</time>
      </trkpt>
      <trkpt lat="42.17121" lon="9.09874">
        <ele>1019.62</ele>
        <time>2015-09-12T13:34:53Z</time>
      </trkpt>
      <trkpt lat="42.17118" lon="9.09878">
        <ele>1019.13</ele>
        <time>2015-09-12T13:34:56Z</time>
      </trkpt>
      <trkpt lat="42.17116" lon="9.09883">
        <ele>1019.13</ele>
        <time>2015-09-12T13:35:00Z</time>
      </trkpt>
      <trkpt lat="42.17108" lon="9.09894">
        <ele>1018.17</ele>
        <time>2015-09-12T13:35:11Z</time>
      </trkpt>
      <trkpt lat="42.17092" lon="9.099">
        <ele>1018.17</ele>
        <time>2015-09-12T13:35:23Z</time>
      </trkpt>
      <trkpt lat="42.17081" lon="9.09913">
        <ele>1017.21</ele>
        <time>2015-09-12T13:35:35Z</time>
      </trkpt>
      <trkpt lat="42.1708" lon="9.09914">
        <ele>1017.21</ele>
        <time>2015-09-12T13:35:36Z</time>
      </trkpt>
      <trkpt lat="42.17076" lon="9.09916">
        <ele>1016.73</ele>
        <time>2015-09-12T13:35:42Z</time>
      </trkpt>
      <trkpt lat="42.17071" lon="9.09917">
        <ele>1016.25</ele>
        <time>2015-09-12T13:35:46Z</time>
      </trkpt>
      <trkpt lat="42.17062" lon="9.09924">
        <ele>1013.85</ele>
        <time>2015-09-12T13:35:53Z</time>
      </trkpt>
      <trkpt lat="42.17057" lon="9.09926">
        <ele>1013.37</ele>
        <time>2015-09-12T13:35:57Z</time>
      </trkpt>
      <trkpt lat="42.17044" lon="9.09934">
        <ele>1010.48</ele>
        <time>2015-09-12T13:36:10Z</time>
      </trkpt>
      <trkpt lat="42.17037" lon="9.09938">
        <ele>1008.56</ele>
        <time>2015-09-12T13:36:20Z</time>
      </trkpt>
      <trkpt lat="42.17031" lon="9.09941">
        <ele>1006.16</ele>
        <time>2015-09-12T13:36:31Z</time>
      </trkpt>
      <trkpt lat="42.17025" lon="9.09944">
        <ele>1004.72</ele>
        <time>2015-09-12T13:36:38Z</time>
      </trkpt>
      <trkpt lat="42.17016" lon="9.09947">
        <ele>1002.31</ele>
        <time>2015-09-12T13:36:50Z</time>
      </trkpt>
      <trkpt lat="42.17007" lon="9.09954">
        <ele>999.43</ele>
        <time>2015-09-12T13:37:02Z</time>
      </trkpt>
      <trkpt lat="42.16999" lon="9.09959">
        <ele>996.06</ele>
        <time>2015-09-12T13:37:16Z</time>
      </trkpt>
      <trkpt lat="42.16994" lon="9.09961">
        <ele>994.62</ele>
        <time>2015-09-12T13:37:23Z</time>
      </trkpt>
      <trkpt lat="42.16983" lon="9.09964">
        <ele>991.74</ele>
        <time>2015-09-12T13:37:35Z</time>
      </trkpt>
      <trkpt lat="42.16981" lon="9.09965">
        <ele>989.81</ele>
        <time>2015-09-12T13:37:40Z</time>
      </trkpt>
      <trkpt lat="42.1698" lon="9.09965">
        <ele>989.81</ele>
        <time>2015-09-12T13:37:42Z</time>
      </trkpt>
      <trkpt lat="42.16975" lon="9.09965">
        <ele>988.37</ele>
        <time>2015-09-12T13:37:47Z</time>
      </trkpt>
      <trkpt lat="42.16968" lon="9.09963">
        <ele>988.37</ele>
        <time>2015-09-12T13:37:58Z</time>
      </trkpt>
      <trkpt lat="42.16966" lon="9.09963">
        <ele>988.37</ele>
        <time>2015-09-12T13:38:26Z</time>
      </trkpt>
      <trkpt lat="42.16965" lon="9.09964">
        <ele>987.89</ele>
        <time>2015-09-12T13:38:54Z</time>
      </trkpt>
      <trkpt lat="42.16956" lon="9.09968">
        <ele>985.01</ele>
        <time>2015-09-12T13:39:07Z</time>
      </trkpt>
      <trkpt lat="42.16953" lon="9.0998">
        <ele>982.6</ele>
        <time>2015-09-12T13:39:18Z</time>
      </trkpt>
      <trkpt lat="42.16945" lon="9.09984">
        <ele>980.2</ele>
        <time>2015-09-12T13:39:30Z</time>
      </trkpt>
      <trkpt lat="42.16935" lon="9.09989">
        <ele>977.32</ele>
        <time>2015-09-12T13:39:43Z</time>
      </trkpt>
      <trkpt lat="42.16934" lon="9.09991">
        <ele>976.84</ele>
        <time>2015-09-12T13:39:45Z</time>
      </trkpt>
      <trkpt lat="42.1693" lon="9.09994">
        <ele>976.36</ele>
        <time>2015-09-12T13:39:49Z</time>
      </trkpt>
      <trkpt lat="42.1692" lon="9.09999">
        <ele>975.39</ele>
        <time>2015-09-12T13:40:01Z</time>
      </trkpt>
      <trkpt lat="42.16917" lon="9.10008">
        <ele>972.51</ele>
        <time>2015-09-12T13:40:12Z</time>
      </trkpt>
      <trkpt lat="42.16915" lon="9.1001">
        <ele>971.55</ele>
        <time>2015-09-12T13:40:15Z</time>
      </trkpt>
      <trkpt lat="42.16904" lon="9.10015">
        <ele>969.15</ele>
        <time>2015-09-12T13:40:27Z</time>
      </trkpt>
      <trkpt lat="42.16899" lon="9.10022">
        <ele>967.7</ele>
        <time>2015-09-12T13:40:32Z</time>
      </trkpt>
      <trkpt lat="42.16898" lon="9.10029">
        <ele>965.78</ele>
        <time>2015-09-12T13:40:43Z</time>
      </trkpt>
      <trkpt lat="42.16899" lon="9.10042">
        <ele>963.38</ele>
        <time>2015-09-12T13:40:55Z</time>
      </trkpt>
      <trkpt lat="42.16894" lon="9.10047">
        <ele>962.9</ele>
        <time>2015-09-12T13:41:03Z</time>
      </trkpt>
      <trkpt lat="42.16883" lon="9.10056">
        <ele>960.98</ele>
        <time>2015-09-12T13:41:16Z</time>
      </trkpt>
      <trkpt lat="42.16878" lon="9.10065">
        <ele>960.49</ele>
        <time>2015-09-12T13:41:22Z</time>
      </trkpt>
      <trkpt lat="42.16876" lon="9.10069">
        <ele>960.49</ele>
        <time>2015-09-12T13:41:25Z</time>
      </trkpt>
      <trkpt lat="42.16868" lon="9.10079">
        <ele>959.53</ele>
        <time>2015-09-12T13:41:36Z</time>
      </trkpt>
      <trkpt lat="42.16864" lon="9.10085">
        <ele>958.57</ele>
        <time>2015-09-12T13:41:41Z</time>
      </trkpt>
      <trkpt lat="42.16857" lon="9.10086">
        <ele>957.61</ele>
        <time>2015-09-12T13:41:47Z</time>
      </trkpt>
      <trkpt lat="42.16853" lon="9.10084">
        <ele>957.61</ele>
        <time>2015-09-12T13:41:51Z</time>
      </trkpt>
      <trkpt lat="42.16847" lon="9.10085">
        <ele>956.17</ele>
        <time>2015-09-12T13:41:59Z</time>
      </trkpt>
      <trkpt lat="42.16842" lon="9.10083">
        <ele>955.21</ele>
        <time>2015-09-12T13:42:11Z</time>
      </trkpt>
      <trkpt lat="42.1684" lon="9.10086">
        <ele>951.84</ele>
        <time>2015-09-12T13:42:23Z</time>
      </trkpt>
      <trkpt lat="42.16839" lon="9.10087">
        <ele>951.84</ele>
        <time>2015-09-12T13:42:24Z</time>
      </trkpt>
      <trkpt lat="42.16829" lon="9.10096">
        <ele>951.84</ele>
        <time>2015-09-12T13:42:37Z</time>
      </trkpt>
      <trkpt lat="42.16829" lon="9.10096">
        <ele>951.84</ele>
        <time>2015-09-12T13:42:58Z</time>
      </trkpt>
      <trkpt lat="42.16827" lon="9.10096">
        <ele>951.84</ele>
        <time>2015-09-12T13:43:09Z</time>
      </trkpt>
      <trkpt lat="42.16827" lon="9.10095">
        <ele>951.84</ele>
        <time>2015-09-12T13:43:35Z</time>
      </trkpt>
      <trkpt lat="42.16826" lon="9.10096">
        <ele>951.84</ele>
        <time>2015-09-12T13:43:51Z</time>
      </trkpt>
      <trkpt lat="42.16826" lon="9.10097">
        <ele>951.84</ele>
        <time>2015-09-12T13:44:16Z</time>
      </trkpt>
      <trkpt lat="42.16826" lon="9.10098">
        <ele>951.84</ele>
        <time>2015-09-12T13:44:45Z</time>
      </trkpt>
      <trkpt lat="42.16827" lon="9.10098">
        <ele>951.36</ele>
        <time>2015-09-12T13:45:05Z</time>
      </trkpt>
      <trkpt lat="42.16828" lon="9.10097">
        <ele>951.36</ele>
        <time>2015-09-12T13:45:29Z</time>
      </trkpt>
      <trkpt lat="42.16827" lon="9.10098">
        <ele>950.88</ele>
        <time>2015-09-12T13:46:01Z</time>
      </trkpt>
      <trkpt lat="42.16827" lon="9.10099">
        <ele>950.88</ele>
        <time>2015-09-12T13:46:21Z</time>
      </trkpt>
      <trkpt lat="42.16828" lon="9.10097">
        <ele>951.36</ele>
        <time>2015-09-12T13:46:33Z</time>
      </trkpt>
      <trkpt lat="42.16828" lon="9.10097">
        <ele>950.88</ele>
        <time>2015-09-12T13:46:50Z</time>
      </trkpt>
      <trkpt lat="42.16825" lon="9.10099">
        <ele>949.92</ele>
        <time>2015-09-12T13:47:03Z</time>
      </trkpt>
      <trkpt lat="42.16822" lon="9.10105">
        <ele>950.4</ele>
        <time>2015-09-12T13:47:13Z</time>
      </trkpt>
      <trkpt lat="42.16817" lon="9.10118">
        <ele>951.84</ele>
        <time>2015-09-12T13:47:24Z</time>
      </trkpt>
      <trkpt lat="42.16814" lon="9.10124">
        <ele>953.77</ele>
        <time>2015-09-12T13:47:33Z</time>
      </trkpt>
      <trkpt lat="42.16802" lon="9.10122">
        <ele>955.69</ele>
        <time>2015-09-12T13:47:46Z</time>
      </trkpt>
      <trkpt lat="42.16798" lon="9.10123">
        <ele>955.69</ele>
        <time>2015-09-12T13:48:03Z</time>
      </trkpt>
      <trkpt lat="42.16788" lon="9.10123">
        <ele>957.13</ele>
        <time>2015-09-12T13:48:16Z</time>
      </trkpt>
      <trkpt lat="42.16782" lon="9.10114">
        <ele>958.57</ele>
        <time>2015-09-12T13:48:27Z</time>
      </trkpt>
      <trkpt lat="42.16778" lon="9.10103">
        <ele>960.49</ele>
        <time>2015-09-12T13:48:39Z</time>
      </trkpt>
      <trkpt lat="42.16771" lon="9.10094">
        <ele>961.46</ele>
        <time>2015-09-12T13:48:51Z</time>
      </trkpt>
      <trkpt lat="42.1676" lon="9.10084">
        <ele>963.38</ele>
        <time>2015-09-12T13:49:05Z</time>
      </trkpt>
      <trkpt lat="42.16756" lon="9.10082">
        <ele>963.38</ele>
        <time>2015-09-12T13:49:08Z</time>
      </trkpt>
      <trkpt lat="42.16745" lon="9.10076">
        <ele>965.78</ele>
        <time>2015-09-12T13:49:21Z</time>
      </trkpt>
      <trkpt lat="42.16738" lon="9.10073">
        <ele>967.7</ele>
        <time>2015-09-12T13:49:33Z</time>
      </trkpt>
      <trkpt lat="42.16726" lon="9.10068">
        <ele>970.11</ele>
        <time>2015-09-12T13:49:47Z</time>
      </trkpt>
      <trkpt lat="42.16717" lon="9.10062">
        <ele>972.51</ele>
        <time>2015-09-12T13:50:00Z</time>
      </trkpt>
      <trkpt lat="42.16709" lon="9.10056">
        <ele>974.91</ele>
        <time>2015-09-12T13:50:15Z</time>
      </trkpt>
      <trkpt lat="42.16703" lon="9.10052">
        <ele>976.36</ele>
        <time>2015-09-12T13:50:28Z</time>
      </trkpt>
      <trkpt lat="42.16696" lon="9.10047">
        <ele>978.28</ele>
        <time>2015-09-12T13:50:38Z</time>
      </trkpt>
      <trkpt lat="42.16689" lon="9.10048">
        <ele>980.2</ele>
        <time>2015-09-12T13:50:50Z</time>
      </trkpt>
      <trkpt lat="42.16683" lon="9.10049">
        <ele>981.64</ele>
        <time>2015-09-12T13:51:00Z</time>
      </trkpt>
      <trkpt lat="42.16678" lon="9.10049">
        <ele>983.57</ele>
        <time>2015-09-12T13:51:13Z</time>
      </trkpt>
      <trkpt lat="42.1667" lon="9.10048">
        <ele>985.49</ele>
        <time>2015-09-12T13:51:27Z</time>
      </trkpt>
      <trkpt lat="42.16656" lon="9.10048">
        <ele>986.93</ele>
        <time>2015-09-12T13:51:37Z</time>
      </trkpt>
      <trkpt lat="42.16648" lon="9.10045">
        <ele>987.89</ele>
        <time>2015-09-12T13:51:49Z</time>
      </trkpt>
      <trkpt lat="42.16638" lon="9.10035">
        <ele>990.3</ele>
        <time>2015-09-12T13:52:02Z</time>
      </trkpt>
      <trkpt lat="42.16628" lon="9.10032">
        <ele>990.78</ele>
        <time>2015-09-12T13:52:13Z</time>
      </trkpt>
      <trkpt lat="42.16622" lon="9.10022">
        <ele>993.18</ele>
        <time>2015-09-12T13:52:27Z</time>
      </trkpt>
      <trkpt lat="42.16612" lon="9.10006">
        <ele>995.1</ele>
        <time>2015-09-12T13:52:39Z</time>
      </trkpt>
      <trkpt lat="42.16612" lon="9.09995">
        <ele>996.06</ele>
        <time>2015-09-12T13:52:50Z</time>
      </trkpt>
      <trkpt lat="42.16604" lon="9.09974">
        <ele>997.02</ele>
        <time>2015-09-12T13:53:04Z</time>
      </trkpt>
      <trkpt lat="42.166" lon="9.0996">
        <ele>998.95</ele>
        <time>2015-09-12T13:53:18Z</time>
      </trkpt>
      <trkpt lat="42.16596" lon="9.09943">
        <ele>1000.87</ele>
        <time>2015-09-12T13:53:32Z</time>
      </trkpt>
      <trkpt lat="42.16593" lon="9.09927">
        <ele>1003.27</ele>
        <time>2015-09-12T13:53:47Z</time>
      </trkpt>
      <trkpt lat="42.16587" lon="9.09911">
        <ele>1005.2</ele>
        <time>2015-09-12T13:54:01Z</time>
      </trkpt>
      <trkpt lat="42.16582" lon="9.09896">
        <ele>1006.16</ele>
        <time>2015-09-12T13:54:15Z</time>
      </trkpt>
      <trkpt lat="42.16576" lon="9.09883">
        <ele>1008.08</ele>
        <time>2015-09-12T13:54:30Z</time>
      </trkpt>
      <trkpt lat="42.16571" lon="9.09869">
        <ele>1009.52</ele>
        <time>2015-09-12T13:54:45Z</time>
      </trkpt>
      <trkpt lat="42.16567" lon="9.0985">
        <ele>1011.93</ele>
        <time>2015-09-12T13:55:02Z</time>
      </trkpt>
      <trkpt lat="42.16557" lon="9.09825">
        <ele>1013.85</ele>
        <time>2015-09-12T13:55:17Z</time>
      </trkpt>
      <trkpt lat="42.16551" lon="9.09818">
        <ele>1014.33</ele>
        <time>2015-09-12T13:55:25Z</time>
      </trkpt>
      <trkpt lat="42.16548" lon="9.09816">
        <ele>1014.81</ele>
        <time>2015-09-12T13:55:29Z</time>
      </trkpt>
      <trkpt lat="42.16537" lon="9.09809">
        <ele>1016.73</ele>
        <time>2015-09-12T13:55:44Z</time>
      </trkpt>
      <trkpt lat="42.16527" lon="9.0979">
        <ele>1018.65</ele>
        <time>2015-09-12T13:56:02Z</time>
      </trkpt>
      <trkpt lat="42.16521" lon="9.09774">
        <ele>1020.58</ele>
        <time>2015-09-12T13:56:19Z</time>
      </trkpt>
      <trkpt lat="42.16512" lon="9.09749">
        <ele>1022.5</ele>
        <time>2015-09-12T13:56:34Z</time>
      </trkpt>
      <trkpt lat="42.16504" lon="9.09732">
        <ele>1022.98</ele>
        <time>2015-09-12T13:56:46Z</time>
      </trkpt>
      <trkpt lat="42.16496" lon="9.09712">
        <ele>1024.9</ele>
        <time>2015-09-12T13:57:00Z</time>
      </trkpt>
      <trkpt lat="42.16493" lon="9.09696">
        <ele>1026.34</ele>
        <time>2015-09-12T13:57:13Z</time>
      </trkpt>
      <trkpt lat="42.16493" lon="9.09683">
        <ele>1027.31</ele>
        <time>2015-09-12T13:57:25Z</time>
      </trkpt>
      <trkpt lat="42.16491" lon="9.09663">
        <ele>1028.27</ele>
        <time>2015-09-12T13:57:36Z</time>
      </trkpt>
      <trkpt lat="42.16486" lon="9.09644">
        <ele>1029.23</ele>
        <time>2015-09-12T13:57:51Z</time>
      </trkpt>
      <trkpt lat="42.16483" lon="9.09625">
        <ele>1030.67</ele>
        <time>2015-09-12T13:58:07Z</time>
      </trkpt>
      <trkpt lat="42.16479" lon="9.09611">
        <ele>1032.59</ele>
        <time>2015-09-12T13:58:22Z</time>
      </trkpt>
      <trkpt lat="42.16473" lon="9.09599">
        <ele>1034.04</ele>
        <time>2015-09-12T13:58:35Z</time>
      </trkpt>
      <trkpt lat="42.16471" lon="9.09593">
        <ele>1035</ele>
        <time>2015-09-12T13:58:49Z</time>
      </trkpt>
      <trkpt lat="42.16469" lon="9.09591">
        <ele>1035.96</ele>
        <time>2015-09-12T13:58:59Z</time>
      </trkpt>
      <trkpt lat="42.16463" lon="9.0958">
        <ele>1036.92</ele>
        <time>2015-09-12T13:59:11Z</time>
      </trkpt>
      <trkpt lat="42.16458" lon="9.09564">
        <ele>1037.88</ele>
        <time>2015-09-12T13:59:23Z</time>
      </trkpt>
      <trkpt lat="42.16449" lon="9.09543">
        <ele>1039.32</ele>
        <time>2015-09-12T13:59:38Z</time>
      </trkpt>
      <trkpt lat="42.1644" lon="9.0952">
        <ele>1041.25</ele>
        <time>2015-09-12T13:59:50Z</time>
      </trkpt>
      <trkpt lat="42.16427" lon="9.09497">
        <ele>1043.17</ele>
        <time>2015-09-12T14:00:05Z</time>
      </trkpt>
      <trkpt lat="42.16418" lon="9.09481">
        <ele>1044.13</ele>
        <time>2015-09-12T14:00:18Z</time>
      </trkpt>
      <trkpt lat="42.16413" lon="9.09467">
        <ele>1045.57</ele>
        <time>2015-09-12T14:00:32Z</time>
      </trkpt>
      <trkpt lat="42.16408" lon="9.0945">
        <ele>1047.01</ele>
        <time>2015-09-12T14:00:44Z</time>
      </trkpt>
      <trkpt lat="42.16406" lon="9.09448">
        <ele>1047.97</ele>
        <time>2015-09-12T14:00:49Z</time>
      </trkpt>
      <trkpt lat="42.16398" lon="9.09441">
        <ele>1049.42</ele>
        <time>2015-09-12T14:01:01Z</time>
      </trkpt>
      <trkpt lat="42.16395" lon="9.09429">
        <ele>1050.38</ele>
        <time>2015-09-12T14:01:14Z</time>
      </trkpt>
      <trkpt lat="42.16387" lon="9.09415">
        <ele>1051.34</ele>
        <time>2015-09-12T14:01:27Z</time>
      </trkpt>
      <trkpt lat="42.16376" lon="9.09405">
        <ele>1052.3</ele>
        <time>2015-09-12T14:01:39Z</time>
      </trkpt>
      <trkpt lat="42.1636" lon="9.09393">
        <ele>1053.74</ele>
        <time>2015-09-12T14:01:53Z</time>
      </trkpt>
      <trkpt lat="42.16349" lon="9.09383">
        <ele>1054.7</ele>
        <time>2015-09-12T14:02:06Z</time>
      </trkpt>
      <trkpt lat="42.16337" lon="9.09366">
        <ele>1056.15</ele>
        <time>2015-09-12T14:02:19Z</time>
      </trkpt>
      <trkpt lat="42.16326" lon="9.0935">
        <ele>1058.07</ele>
        <time>2015-09-12T14:02:33Z</time>
      </trkpt>
      <trkpt lat="42.1632" lon="9.09339">
        <ele>1059.03</ele>
        <time>2015-09-12T14:02:44Z</time>
      </trkpt>
      <trkpt lat="42.16314" lon="9.09328">
        <ele>1060.47</ele>
        <time>2015-09-12T14:02:57Z</time>
      </trkpt>
      <trkpt lat="42.16306" lon="9.09318">
        <ele>1061.91</ele>
        <time>2015-09-12T14:03:08Z</time>
      </trkpt>
      <trkpt lat="42.16301" lon="9.09307">
        <ele>1062.87</ele>
        <time>2015-09-12T14:03:22Z</time>
      </trkpt>
      <trkpt lat="42.16296" lon="9.09299">
        <ele>1064.32</ele>
        <time>2015-09-12T14:03:35Z</time>
      </trkpt>
      <trkpt lat="42.16293" lon="9.09289">
        <ele>1065.76</ele>
        <time>2015-09-12T14:03:47Z</time>
      </trkpt>
      <trkpt lat="42.16287" lon="9.09275">
        <ele>1067.68</ele>
        <time>2015-09-12T14:04:01Z</time>
      </trkpt>
      <trkpt lat="42.16282" lon="9.09264">
        <ele>1069.6</ele>
        <time>2015-09-12T14:04:16Z</time>
      </trkpt>
      <trkpt lat="42.16274" lon="9.09254">
        <ele>1071.53</ele>
        <time>2015-09-12T14:04:29Z</time>
      </trkpt>
      <trkpt lat="42.16271" lon="9.09239">
        <ele>1072.49</ele>
        <time>2015-09-12T14:04:41Z</time>
      </trkpt>
      <trkpt lat="42.16266" lon="9.09224">
        <ele>1073.93</ele>
        <time>2015-09-12T14:04:53Z</time>
      </trkpt>
      <trkpt lat="42.16257" lon="9.09212">
        <ele>1075.85</ele>
        <time>2015-09-12T14:05:06Z</time>
      </trkpt>
      <trkpt lat="42.16254" lon="9.09209">
        <ele>1076.33</ele>
        <time>2015-09-12T14:05:12Z</time>
      </trkpt>
      <trkpt lat="42.1625" lon="9.09198">
        <ele>1077.78</ele>
        <time>2015-09-12T14:05:23Z</time>
      </trkpt>
      <trkpt lat="42.16247" lon="9.09189">
        <ele>1079.22</ele>
        <time>2015-09-12T14:05:42Z</time>
      </trkpt>
      <trkpt lat="42.16239" lon="9.09178">
        <ele>1082.1</ele>
        <time>2015-09-12T14:05:57Z</time>
      </trkpt>
      <trkpt lat="42.16234" lon="9.09166">
        <ele>1084.02</ele>
        <time>2015-09-12T14:06:08Z</time>
      </trkpt>
      <trkpt lat="42.16227" lon="9.09149">
        <ele>1086.43</ele>
        <time>2015-09-12T14:06:25Z</time>
      </trkpt>
      <trkpt lat="42.16208" lon="9.09118">
        <ele>1088.35</ele>
        <time>2015-09-12T14:06:41Z</time>
      </trkpt>
      <trkpt lat="42.16202" lon="9.09104">
        <ele>1090.75</ele>
        <time>2015-09-12T14:06:56Z</time>
      </trkpt>
      <trkpt lat="42.16196" lon="9.09099">
        <ele>1092.68</ele>
        <time>2015-09-12T14:07:09Z</time>
      </trkpt>
      <trkpt lat="42.16191" lon="9.09086">
        <ele>1095.08</ele>
        <time>2015-09-12T14:07:24Z</time>
      </trkpt>
      <trkpt lat="42.16186" lon="9.09069">
        <ele>1096.52</ele>
        <time>2015-09-12T14:07:37Z</time>
      </trkpt>
      <trkpt lat="42.16183" lon="9.09056">
        <ele>1097.48</ele>
        <time>2015-09-12T14:07:48Z</time>
      </trkpt>
      <trkpt lat="42.16178" lon="9.0904">
        <ele>1098.44</ele>
        <time>2015-09-12T14:07:59Z</time>
      </trkpt>
      <trkpt lat="42.16173" lon="9.0903">
        <ele>1099.89</ele>
        <time>2015-09-12T14:08:04Z</time>
      </trkpt>
      <trkpt lat="42.16167" lon="9.09013">
        <ele>1099.89</ele>
        <time>2015-09-12T14:08:15Z</time>
      </trkpt>
      <trkpt lat="42.16163" lon="9.09007">
        <ele>1100.37</ele>
        <time>2015-09-12T14:08:21Z</time>
      </trkpt>
      <trkpt lat="42.16157" lon="9.08993">
        <ele>1102.77</ele>
        <time>2015-09-12T14:08:37Z</time>
      </trkpt>
      <trkpt lat="42.16154" lon="9.08973">
        <ele>1104.21</ele>
        <time>2015-09-12T14:08:52Z</time>
      </trkpt>
      <trkpt lat="42.16149" lon="9.08963">
        <ele>1105.65</ele>
        <time>2015-09-12T14:09:05Z</time>
      </trkpt>
      <trkpt lat="42.16151" lon="9.08961">
        <ele>1105.65</ele>
        <time>2015-09-12T14:09:19Z</time>
      </trkpt>
      <trkpt lat="42.16151" lon="9.08958">
        <ele>1105.65</ele>
        <time>2015-09-12T14:09:38Z</time>
      </trkpt>
      <trkpt lat="42.1615" lon="9.08954">
        <ele>1105.65</ele>
        <time>2015-09-12T14:09:53Z</time>
      </trkpt>
      <trkpt lat="42.16149" lon="9.08952">
        <ele>1105.65</ele>
        <time>2015-09-12T14:10:19Z</time>
      </trkpt>
      <trkpt lat="42.16149" lon="9.08949">
        <ele>1106.13</ele>
        <time>2015-09-12T14:10:34Z</time>
      </trkpt>
      <trkpt lat="42.16149" lon="9.08948">
        <ele>1106.61</ele>
        <time>2015-09-12T14:11:02Z</time>
      </trkpt>
      <trkpt lat="42.16149" lon="9.08949">
        <ele>1106.61</ele>
        <time>2015-09-12T14:11:21Z</time>
      </trkpt>
      <trkpt lat="42.16149" lon="9.08947">
        <ele>1106.61</ele>
        <time>2015-09-12T14:11:36Z</time>
      </trkpt>
      <trkpt lat="42.16146" lon="9.08943">
        <ele>1108.06</ele>
        <time>2015-09-12T14:11:50Z</time>
      </trkpt>
      <trkpt lat="42.16143" lon="9.08941">
        <ele>1109.98</ele>
        <time>2015-09-12T14:12:02Z</time>
      </trkpt>
      <trkpt lat="42.16142" lon="9.0894">
        <ele>1110.94</ele>
        <time>2015-09-12T14:12:17Z</time>
      </trkpt>
      <trkpt lat="42.16141" lon="9.08941">
        <ele>1110.94</ele>
        <time>2015-09-12T14:12:49Z</time>
      </trkpt>
      <trkpt lat="42.16141" lon="9.08939">
        <ele>1110.94</ele>
        <time>2015-09-12T14:13:07Z</time>
      </trkpt>
      <trkpt lat="42.16142" lon="9.08936">
        <ele>1112.86</ele>
        <time>2015-09-12T14:13:21Z</time>
      </trkpt>
      <trkpt lat="42.16137" lon="9.08925">
        <ele>1114.79</ele>
        <time>2015-09-12T14:13:35Z</time>
      </trkpt>
      <trkpt lat="42.16134" lon="9.08903">
        <ele>1116.71</ele>
        <time>2015-09-12T14:13:47Z</time>
      </trkpt>
      <trkpt lat="42.16129" lon="9.08893">
        <ele>1119.59</ele>
        <time>2015-09-12T14:14:05Z</time>
      </trkpt>
      <trkpt lat="42.16127" lon="9.08889">
        <ele>1120.07</ele>
        <time>2015-09-12T14:14:18Z</time>
      </trkpt>
      <trkpt lat="42.16124" lon="9.0887">
        <ele>1121.03</ele>
        <time>2015-09-12T14:14:31Z</time>
      </trkpt>
      <trkpt lat="42.16125" lon="9.08842">
        <ele>1121.52</ele>
        <time>2015-09-12T14:14:45Z</time>
      </trkpt>
      <trkpt lat="42.16125" lon="9.08822">
        <ele>1123.44</ele>
        <time>2015-09-12T14:14:59Z</time>
      </trkpt>
      <trkpt lat="42.16123" lon="9.08815">
        <ele>1124.88</ele>
        <time>2015-09-12T14:15:11Z</time>
      </trkpt>
      <trkpt lat="42.1612" lon="9.08793">
        <ele>1126.32</ele>
        <time>2015-09-12T14:15:25Z</time>
      </trkpt>
      <trkpt lat="42.16121" lon="9.0878">
        <ele>1127.76</ele>
        <time>2015-09-12T14:15:41Z</time>
      </trkpt>
      <trkpt lat="42.16121" lon="9.08771">
        <ele>1128.73</ele>
        <time>2015-09-12T14:15:53Z</time>
      </trkpt>
      <trkpt lat="42.16117" lon="9.08751">
        <ele>1129.69</ele>
        <time>2015-09-12T14:16:06Z</time>
      </trkpt>
      <trkpt lat="42.16115" lon="9.08736">
        <ele>1131.13</ele>
        <time>2015-09-12T14:16:18Z</time>
      </trkpt>
      <trkpt lat="42.16112" lon="9.0872">
        <ele>1132.57</ele>
        <time>2015-09-12T14:16:30Z</time>
      </trkpt>
      <trkpt lat="42.16113" lon="9.08694">
        <ele>1134.49</ele>
        <time>2015-09-12T14:16:45Z</time>
      </trkpt>
      <trkpt lat="42.16111" lon="9.08678">
        <ele>1135.94</ele>
        <time>2015-09-12T14:17:00Z</time>
      </trkpt>
      <trkpt lat="42.16107" lon="9.08662">
        <ele>1137.38</ele>
        <time>2015-09-12T14:17:13Z</time>
      </trkpt>
      <trkpt lat="42.16104" lon="9.08648">
        <ele>1137.86</ele>
        <time>2015-09-12T14:17:27Z</time>
      </trkpt>
      <trkpt lat="42.16098" lon="9.08631">
        <ele>1139.3</ele>
        <time>2015-09-12T14:17:41Z</time>
      </trkpt>
      <trkpt lat="42.16092" lon="9.08614">
        <ele>1140.74</ele>
        <time>2015-09-12T14:17:56Z</time>
      </trkpt>
      <trkpt lat="42.16089" lon="9.08607">
        <ele>1141.7</ele>
        <time>2015-09-12T14:18:07Z</time>
      </trkpt>
      <trkpt lat="42.16084" lon="9.08591">
        <ele>1144.11</ele>
        <time>2015-09-12T14:18:20Z</time>
      </trkpt>
      <trkpt lat="42.16082" lon="9.08585">
        <ele>1144.11</ele>
        <time>2015-09-12T14:18:22Z</time>
      </trkpt>
      <trkpt lat="42.16079" lon="9.08572">
        <ele>1145.55</ele>
        <time>2015-09-12T14:18:33Z</time>
      </trkpt>
      <trkpt lat="42.16076" lon="9.08558">
        <ele>1146.51</ele>
        <time>2015-09-12T14:18:47Z</time>
      </trkpt>
      <trkpt lat="42.16075" lon="9.08536">
        <ele>1147.95</ele>
        <time>2015-09-12T14:19:01Z</time>
      </trkpt>
      <trkpt lat="42.16075" lon="9.08522">
        <ele>1148.43</ele>
        <time>2015-09-12T14:19:11Z</time>
      </trkpt>
      <trkpt lat="42.16073" lon="9.08515">
        <ele>1149.87</ele>
        <time>2015-09-12T14:19:24Z</time>
      </trkpt>
      <trkpt lat="42.16072" lon="9.08507">
        <ele>1151.8</ele>
        <time>2015-09-12T14:19:38Z</time>
      </trkpt>
      <trkpt lat="42.16073" lon="9.08493">
        <ele>1153.24</ele>
        <time>2015-09-12T14:19:51Z</time>
      </trkpt>
      <trkpt lat="42.16072" lon="9.0848">
        <ele>1155.16</ele>
        <time>2015-09-12T14:20:07Z</time>
      </trkpt>
      <trkpt lat="42.16068" lon="9.08474">
        <ele>1156.6</ele>
        <time>2015-09-12T14:20:19Z</time>
      </trkpt>
      <trkpt lat="42.16066" lon="9.0846">
        <ele>1158.05</ele>
        <time>2015-09-12T14:20:33Z</time>
      </trkpt>
      <trkpt lat="42.16061" lon="9.08448">
        <ele>1159.97</ele>
        <time>2015-09-12T14:20:46Z</time>
      </trkpt>
      <trkpt lat="42.16059" lon="9.08445">
        <ele>1161.89</ele>
        <time>2015-09-12T14:21:00Z</time>
      </trkpt>
      <trkpt lat="42.16054" lon="9.08441">
        <ele>1164.29</ele>
        <time>2015-09-12T14:21:13Z</time>
      </trkpt>
      <trkpt lat="42.16048" lon="9.08436">
        <ele>1166.22</ele>
        <time>2015-09-12T14:21:25Z</time>
      </trkpt>
      <trkpt lat="42.16043" lon="9.08431">
        <ele>1168.14</ele>
        <time>2015-09-12T14:21:38Z</time>
      </trkpt>
      <trkpt lat="42.16042" lon="9.08422">
        <ele>1169.58</ele>
        <time>2015-09-12T14:21:52Z</time>
      </trkpt>
      <trkpt lat="42.16039" lon="9.08407">
        <ele>1171.5</ele>
        <time>2015-09-12T14:22:06Z</time>
      </trkpt>
      <trkpt lat="42.16039" lon="9.08391">
        <ele>1172.95</ele>
        <time>2015-09-12T14:22:19Z</time>
      </trkpt>
      <trkpt lat="42.16038" lon="9.08376">
        <ele>1174.87</ele>
        <time>2015-09-12T14:22:32Z</time>
      </trkpt>
      <trkpt lat="42.16035" lon="9.08369">
        <ele>1177.75</ele>
        <time>2015-09-12T14:22:53Z</time>
      </trkpt>
      <trkpt lat="42.1603" lon="9.08349">
        <ele>1178.23</ele>
        <time>2015-09-12T14:23:05Z</time>
      </trkpt>
      <trkpt lat="42.16027" lon="9.08335">
        <ele>1180.16</ele>
        <time>2015-09-12T14:23:17Z</time>
      </trkpt>
      <trkpt lat="42.16026" lon="9.08322">
        <ele>1180.64</ele>
        <time>2015-09-12T14:23:29Z</time>
      </trkpt>
      <trkpt lat="42.16028" lon="9.08314">
        <ele>1182.56</ele>
        <time>2015-09-12T14:23:43Z</time>
      </trkpt>
      <trkpt lat="42.16034" lon="9.08295">
        <ele>1184.48</ele>
        <time>2015-09-12T14:23:57Z</time>
      </trkpt>
      <trkpt lat="42.16038" lon="9.0828">
        <ele>1186.4</ele>
        <time>2015-09-12T14:24:10Z</time>
      </trkpt>
      <trkpt lat="42.16045" lon="9.0826">
        <ele>1188.81</ele>
        <time>2015-09-12T14:24:25Z</time>
      </trkpt>
      <trkpt lat="42.16048" lon="9.08249">
        <ele>1191.21</ele>
        <time>2015-09-12T14:24:41Z</time>
      </trkpt>
      <trkpt lat="42.16056" lon="9.08234">
        <ele>1192.17</ele>
        <time>2015-09-12T14:24:55Z</time>
      </trkpt>
      <trkpt lat="42.16059" lon="9.08216">
        <ele>1192.65</ele>
        <time>2015-09-12T14:25:08Z</time>
      </trkpt>
      <trkpt lat="42.16063" lon="9.08205">
        <ele>1194.09</ele>
        <time>2015-09-12T14:25:21Z</time>
      </trkpt>
      <trkpt lat="42.16063" lon="9.08192">
        <ele>1195.54</ele>
        <time>2015-09-12T14:25:33Z</time>
      </trkpt>
      <trkpt lat="42.16059" lon="9.08183">
        <ele>1196.02</ele>
        <time>2015-09-12T14:25:46Z</time>
      </trkpt>
      <trkpt lat="42.16059" lon="9.08174">
        <ele>1195.06</ele>
        <time>2015-09-12T14:26:00Z</time>
      </trkpt>
      <trkpt lat="42.16057" lon="9.08158">
        <ele>1193.13</ele>
        <time>2015-09-12T14:26:14Z</time>
      </trkpt>
      <trkpt lat="42.16055" lon="9.08155">
        <ele>1193.13</ele>
        <time>2015-09-12T14:26:32Z</time>
      </trkpt>
      <trkpt lat="42.1606" lon="9.08153">
        <ele>1191.69</ele>
        <time>2015-09-12T14:26:43Z</time>
      </trkpt>
      <trkpt lat="42.16062" lon="9.08144">
        <ele>1191.69</ele>
        <time>2015-09-12T14:26:55Z</time>
      </trkpt>
      <trkpt lat="42.16066" lon="9.08141">
        <ele>1192.65</ele>
        <time>2015-09-12T14:27:07Z</time>
      </trkpt>
      <trkpt lat="42.16072" lon="9.08143">
        <ele>1191.69</ele>
        <time>2015-09-12T14:27:21Z</time>
      </trkpt>
      <trkpt lat="42.16076" lon="9.08144">
        <ele>1193.13</ele>
        <time>2015-09-12T14:27:35Z</time>
      </trkpt>
      <trkpt lat="42.16081" lon="9.08148">
        <ele>1195.06</ele>
        <time>2015-09-12T14:27:47Z</time>
      </trkpt>
      <trkpt lat="42.16083" lon="9.08152">
        <ele>1194.09</ele>
        <time>2015-09-12T14:28:02Z</time>
      </trkpt>
      <trkpt lat="42.16083" lon="9.08153">
        <ele>1194.58</ele>
        <time>2015-09-12T14:28:27Z</time>
      </trkpt>
      <trkpt lat="42.1609" lon="9.08156">
        <ele>1195.54</ele>
        <time>2015-09-12T14:28:41Z</time>
      </trkpt>
      <trkpt lat="42.16091" lon="9.08157">
        <ele>1194.58</ele>
        <time>2015-09-12T14:28:55Z</time>
      </trkpt>
      <trkpt lat="42.16089" lon="9.08155">
        <ele>1194.09</ele>
        <time>2015-09-12T14:29:10Z</time>
      </trkpt>
      <trkpt lat="42.16088" lon="9.08156">
        <ele>1194.09</ele>
        <time>2015-09-12T14:29:14Z</time>
      </trkpt>
      <trkpt lat="42.16094" lon="9.08156">
        <ele>1195.54</ele>
        <time>2015-09-12T14:29:28Z</time>
      </trkpt>
      <trkpt lat="42.16105" lon="9.08154">
        <ele>1196.98</ele>
        <time>2015-09-12T14:29:42Z</time>
      </trkpt>
      <trkpt lat="42.16111" lon="9.08152">
        <ele>1198.9</ele>
        <time>2015-09-12T14:29:55Z</time>
      </trkpt>
      <trkpt lat="42.16113" lon="9.0815">
        <ele>1201.3</ele>
        <time>2015-09-12T14:30:07Z</time>
      </trkpt>
      <trkpt lat="42.16111" lon="9.0815">
        <ele>1202.27</ele>
        <time>2015-09-12T14:30:18Z</time>
      </trkpt>
      <trkpt lat="42.16107" lon="9.0815">
        <ele>1205.15</ele>
        <time>2015-09-12T14:30:33Z</time>
      </trkpt>
      <trkpt lat="42.16099" lon="9.08144">
        <ele>1206.59</ele>
        <time>2015-09-12T14:30:45Z</time>
      </trkpt>
      <trkpt lat="42.16093" lon="9.08136">
        <ele>1208.51</ele>
        <time>2015-09-12T14:30:57Z</time>
      </trkpt>
      <trkpt lat="42.1609" lon="9.08127">
        <ele>1210.92</ele>
        <time>2015-09-12T14:31:09Z</time>
      </trkpt>
      <trkpt lat="42.16088" lon="9.08117">
        <ele>1213.32</ele>
        <time>2015-09-12T14:31:22Z</time>
      </trkpt>
      <trkpt lat="42.16091" lon="9.08108">
        <ele>1215.72</ele>
        <time>2015-09-12T14:31:34Z</time>
      </trkpt>
      <trkpt lat="42.16089" lon="9.08105">
        <ele>1217.65</ele>
        <time>2015-09-12T14:31:47Z</time>
      </trkpt>
      <trkpt lat="42.16085" lon="9.08099">
        <ele>1219.09</ele>
        <time>2015-09-12T14:31:59Z</time>
      </trkpt>
      <trkpt lat="42.16083" lon="9.08091">
        <ele>1220.53</ele>
        <time>2015-09-12T14:32:10Z</time>
      </trkpt>
      <trkpt lat="42.16079" lon="9.08086">
        <ele>1222.93</ele>
        <time>2015-09-12T14:32:23Z</time>
      </trkpt>
      <trkpt lat="42.16073" lon="9.08079">
        <ele>1224.38</ele>
        <time>2015-09-12T14:32:35Z</time>
      </trkpt>
      <trkpt lat="42.16067" lon="9.08073">
        <ele>1225.82</ele>
        <time>2015-09-12T14:32:46Z</time>
      </trkpt>
      <trkpt lat="42.16063" lon="9.08069">
        <ele>1227.26</ele>
        <time>2015-09-12T14:32:59Z</time>
      </trkpt>
      <trkpt lat="42.16057" lon="9.08062">
        <ele>1227.74</ele>
        <time>2015-09-12T14:33:10Z</time>
      </trkpt>
      <trkpt lat="42.16051" lon="9.08052">
        <ele>1229.18</ele>
        <time>2015-09-12T14:33:21Z</time>
      </trkpt>
      <trkpt lat="42.16048" lon="9.08039">
        <ele>1231.11</ele>
        <time>2015-09-12T14:33:33Z</time>
      </trkpt>
      <trkpt lat="42.16043" lon="9.08031">
        <ele>1233.03</ele>
        <time>2015-09-12T14:33:44Z</time>
      </trkpt>
      <trkpt lat="42.1604" lon="9.08022">
        <ele>1234.47</ele>
        <time>2015-09-12T14:33:55Z</time>
      </trkpt>
      <trkpt lat="42.16041" lon="9.08011">
        <ele>1236.87</ele>
        <time>2015-09-12T14:34:09Z</time>
      </trkpt>
      <trkpt lat="42.16038" lon="9.08007">
        <ele>1238.8</ele>
        <time>2015-09-12T14:34:21Z</time>
      </trkpt>
      <trkpt lat="42.16039" lon="9.08003">
        <ele>1238.8</ele>
        <time>2015-09-12T14:34:38Z</time>
      </trkpt>
      <trkpt lat="42.16039" lon="9.08">
        <ele>1239.28</ele>
        <time>2015-09-12T14:34:55Z</time>
      </trkpt>
      <trkpt lat="42.16037" lon="9.07997">
        <ele>1240.72</ele>
        <time>2015-09-12T14:35:06Z</time>
      </trkpt>
      <trkpt lat="42.16036" lon="9.07993">
        <ele>1240.72</ele>
        <time>2015-09-12T14:35:31Z</time>
      </trkpt>
      <trkpt lat="42.16031" lon="9.07989">
        <ele>1241.2</ele>
        <time>2015-09-12T14:35:41Z</time>
      </trkpt>
      <trkpt lat="42.16025" lon="9.07981">
        <ele>1242.64</ele>
        <time>2015-09-12T14:35:53Z</time>
      </trkpt>
      <trkpt lat="42.16019" lon="9.07974">
        <ele>1243.6</ele>
        <time>2015-09-12T14:36:03Z</time>
      </trkpt>
      <trkpt lat="42.16014" lon="9.07964">
        <ele>1245.04</ele>
        <time>2015-09-12T14:36:16Z</time>
      </trkpt>
      <trkpt lat="42.16013" lon="9.07961">
        <ele>1245.04</ele>
        <time>2015-09-12T14:36:29Z</time>
      </trkpt>
      <trkpt lat="42.1601" lon="9.07957">
        <ele>1246.01</ele>
        <time>2015-09-12T14:36:50Z</time>
      </trkpt>
      <trkpt lat="42.16009" lon="9.07949">
        <ele>1247.45</ele>
        <time>2015-09-12T14:37:01Z</time>
      </trkpt>
      <trkpt lat="42.1601" lon="9.0794">
        <ele>1249.37</ele>
        <time>2015-09-12T14:37:11Z</time>
      </trkpt>
      <trkpt lat="42.16007" lon="9.07934">
        <ele>1250.33</ele>
        <time>2015-09-12T14:37:21Z</time>
      </trkpt>
      <trkpt lat="42.16001" lon="9.07931">
        <ele>1251.29</ele>
        <time>2015-09-12T14:37:31Z</time>
      </trkpt>
      <trkpt lat="42.16" lon="9.07924">
        <ele>1252.74</ele>
        <time>2015-09-12T14:37:43Z</time>
      </trkpt>
      <trkpt lat="42.15997" lon="9.07915">
        <ele>1254.66</ele>
        <time>2015-09-12T14:37:56Z</time>
      </trkpt>
      <trkpt lat="42.15993" lon="9.0791">
        <ele>1255.14</ele>
        <time>2015-09-12T14:38:08Z</time>
      </trkpt>
      <trkpt lat="42.15991" lon="9.07906">
        <ele>1255.14</ele>
        <time>2015-09-12T14:38:28Z</time>
      </trkpt>
      <trkpt lat="42.15988" lon="9.07905">
        <ele>1255.62</ele>
        <time>2015-09-12T14:38:45Z</time>
      </trkpt>
      <trkpt lat="42.15983" lon="9.07902">
        <ele>1256.1</ele>
        <time>2015-09-12T14:39:01Z</time>
      </trkpt>
      <trkpt lat="42.15977" lon="9.07896">
        <ele>1258.98</ele>
        <time>2015-09-12T14:39:15Z</time>
      </trkpt>
      <trkpt lat="42.15972" lon="9.07891">
        <ele>1260.43</ele>
        <time>2015-09-12T14:39:26Z</time>
      </trkpt>
      <trkpt lat="42.15967" lon="9.07882">
        <ele>1262.83</ele>
        <time>2015-09-12T14:39:38Z</time>
      </trkpt>
      <trkpt lat="42.15962" lon="9.0788">
        <ele>1262.83</ele>
        <time>2015-09-12T14:39:51Z</time>
      </trkpt>
      <trkpt lat="42.15955" lon="9.07876">
        <ele>1264.27</ele>
        <time>2015-09-12T14:40:03Z</time>
      </trkpt>
      <trkpt lat="42.15948" lon="9.07872">
        <ele>1265.71</ele>
        <time>2015-09-12T14:40:15Z</time>
      </trkpt>
      <trkpt lat="42.15942" lon="9.07869">
        <ele>1267.16</ele>
        <time>2015-09-12T14:40:26Z</time>
      </trkpt>
      <trkpt lat="42.15941" lon="9.07865">
        <ele>1269.08</ele>
        <time>2015-09-12T14:40:37Z</time>
      </trkpt>
      <trkpt lat="42.15933" lon="9.07857">
        <ele>1270.52</ele>
        <time>2015-09-12T14:40:48Z</time>
      </trkpt>
      <trkpt lat="42.15926" lon="9.07849">
        <ele>1272.92</ele>
        <time>2015-09-12T14:41:01Z</time>
      </trkpt>
      <trkpt lat="42.15919" lon="9.07843">
        <ele>1273.88</ele>
        <time>2015-09-12T14:41:15Z</time>
      </trkpt>
      <trkpt lat="42.1591" lon="9.07842">
        <ele>1273.4</ele>
        <time>2015-09-12T14:41:27Z</time>
      </trkpt>
      <trkpt lat="42.15905" lon="9.07838">
        <ele>1274.85</ele>
        <time>2015-09-12T14:41:36Z</time>
      </trkpt>
      <trkpt lat="42.15893" lon="9.07834">
        <ele>1276.29</ele>
        <time>2015-09-12T14:41:48Z</time>
      </trkpt>
      <trkpt lat="42.15883" lon="9.07832">
        <ele>1277.25</ele>
        <time>2015-09-12T14:42:01Z</time>
      </trkpt>
      <trkpt lat="42.15874" lon="9.07822">
        <ele>1279.17</ele>
        <time>2015-09-12T14:42:14Z</time>
      </trkpt>
      <trkpt lat="42.15866" lon="9.07819">
        <ele>1279.17</ele>
        <time>2015-09-12T14:42:25Z</time>
      </trkpt>
      <trkpt lat="42.15859" lon="9.07816">
        <ele>1280.13</ele>
        <time>2015-09-12T14:42:39Z</time>
      </trkpt>
      <trkpt lat="42.15848" lon="9.07812">
        <ele>1280.61</ele>
        <time>2015-09-12T14:42:53Z</time>
      </trkpt>
      <trkpt lat="42.15838" lon="9.07805">
        <ele>1282.06</ele>
        <time>2015-09-12T14:43:05Z</time>
      </trkpt>
      <trkpt lat="42.15834" lon="9.07801">
        <ele>1283.02</ele>
        <time>2015-09-12T14:43:16Z</time>
      </trkpt>
      <trkpt lat="42.15833" lon="9.078">
        <ele>1282.54</ele>
        <time>2015-09-12T14:43:21Z</time>
      </trkpt>
      <trkpt lat="42.15822" lon="9.07797">
        <ele>1282.06</ele>
        <time>2015-09-12T14:43:29Z</time>
      </trkpt>
      <trkpt lat="42.15811" lon="9.07793">
        <ele>1282.54</ele>
        <time>2015-09-12T14:43:42Z</time>
      </trkpt>
      <trkpt lat="42.1581" lon="9.07793">
        <ele>1282.54</ele>
        <time>2015-09-12T14:43:43Z</time>
      </trkpt>
      <trkpt lat="42.158" lon="9.07786">
        <ele>1283.5</ele>
        <time>2015-09-12T14:43:53Z</time>
      </trkpt>
      <trkpt lat="42.15793" lon="9.0778">
        <ele>1284.46</ele>
        <time>2015-09-12T14:44:03Z</time>
      </trkpt>
      <trkpt lat="42.15791" lon="9.07763">
        <ele>1286.38</ele>
        <time>2015-09-12T14:44:15Z</time>
      </trkpt>
      <trkpt lat="42.15788" lon="9.07759">
        <ele>1287.82</ele>
        <time>2015-09-12T14:44:25Z</time>
      </trkpt>
      <trkpt lat="42.15781" lon="9.07746">
        <ele>1288.3</ele>
        <time>2015-09-12T14:44:39Z</time>
      </trkpt>
      <trkpt lat="42.15771" lon="9.07742">
        <ele>1288.78</ele>
        <time>2015-09-12T14:44:52Z</time>
      </trkpt>
      <trkpt lat="42.15769" lon="9.0774">
        <ele>1288.78</ele>
        <time>2015-09-12T14:45:01Z</time>
      </trkpt>
      <trkpt lat="42.15765" lon="9.07737">
        <ele>1288.78</ele>
        <time>2015-09-12T14:45:05Z</time>
      </trkpt>
      <trkpt lat="42.15759" lon="9.07732">
        <ele>1289.27</ele>
        <time>2015-09-12T14:45:13Z</time>
      </trkpt>
      <trkpt lat="42.15751" lon="9.07722">
        <ele>1291.19</ele>
        <time>2015-09-12T14:45:25Z</time>
      </trkpt>
      <trkpt lat="42.15747" lon="9.07713">
        <ele>1292.63</ele>
        <time>2015-09-12T14:45:37Z</time>
      </trkpt>
      <trkpt lat="42.1574" lon="9.07708">
        <ele>1293.59</ele>
        <time>2015-09-12T14:45:50Z</time>
      </trkpt>
      <trkpt lat="42.15733" lon="9.07699">
        <ele>1295.03</ele>
        <time>2015-09-12T14:46:02Z</time>
      </trkpt>
      <trkpt lat="42.15727" lon="9.07691">
        <ele>1296.96</ele>
        <time>2015-09-12T14:46:14Z</time>
      </trkpt>
      <trkpt lat="42.15723" lon="9.07683">
        <ele>1297.92</ele>
        <time>2015-09-12T14:46:25Z</time>
      </trkpt>
      <trkpt lat="42.15718" lon="9.07678">
        <ele>1299.84</ele>
        <time>2015-09-12T14:46:38Z</time>
      </trkpt>
      <trkpt lat="42.15713" lon="9.07671">
        <ele>1301.28</ele>
        <time>2015-09-12T14:46:49Z</time>
      </trkpt>
      <trkpt lat="42.15706" lon="9.07661">
        <ele>1302.72</ele>
        <time>2015-09-12T14:47:02Z</time>
      </trkpt>
      <trkpt lat="42.15701" lon="9.07654">
        <ele>1304.65</ele>
        <time>2015-09-12T14:47:14Z</time>
      </trkpt>
      <trkpt lat="42.15696" lon="9.07647">
        <ele>1306.09</ele>
        <time>2015-09-12T14:47:25Z</time>
      </trkpt>
      <trkpt lat="42.15692" lon="9.07641">
        <ele>1308.01</ele>
        <time>2015-09-12T14:47:37Z</time>
      </trkpt>
      <trkpt lat="42.15685" lon="9.07628">
        <ele>1309.45</ele>
        <time>2015-09-12T14:47:50Z</time>
      </trkpt>
      <trkpt lat="42.1568" lon="9.07626">
        <ele>1310.9</ele>
        <time>2015-09-12T14:48:03Z</time>
      </trkpt>
      <trkpt lat="42.15682" lon="9.07628">
        <ele>1310.9</ele>
        <time>2015-09-12T14:48:20Z</time>
      </trkpt>
      <trkpt lat="42.15681" lon="9.07627">
        <ele>1310.9</ele>
        <time>2015-09-12T14:48:47Z</time>
      </trkpt>
      <trkpt lat="42.15678" lon="9.07626">
        <ele>1310.41</ele>
        <time>2015-09-12T14:49:02Z</time>
      </trkpt>
      <trkpt lat="42.15673" lon="9.07622">
        <ele>1311.86</ele>
        <time>2015-09-12T14:49:13Z</time>
      </trkpt>
      <trkpt lat="42.1567" lon="9.07617">
        <ele>1314.26</ele>
        <time>2015-09-12T14:49:26Z</time>
      </trkpt>
      <trkpt lat="42.15669" lon="9.07613">
        <ele>1316.66</ele>
        <time>2015-09-12T14:49:39Z</time>
      </trkpt>
      <trkpt lat="42.15666" lon="9.07608">
        <ele>1317.62</ele>
        <time>2015-09-12T14:49:51Z</time>
      </trkpt>
      <trkpt lat="42.15661" lon="9.07599">
        <ele>1320.03</ele>
        <time>2015-09-12T14:50:04Z</time>
      </trkpt>
      <trkpt lat="42.15656" lon="9.07591">
        <ele>1320.99</ele>
        <time>2015-09-12T14:50:14Z</time>
      </trkpt>
      <trkpt lat="42.15646" lon="9.07579">
        <ele>1322.91</ele>
        <time>2015-09-12T14:50:26Z</time>
      </trkpt>
      <trkpt lat="42.15644" lon="9.07578">
        <ele>1324.35</ele>
        <time>2015-09-12T14:50:40Z</time>
      </trkpt>
      <trkpt lat="42.1564" lon="9.07574">
        <ele>1323.39</ele>
        <time>2015-09-12T14:50:52Z</time>
      </trkpt>
      <trkpt lat="42.1563" lon="9.07575">
        <ele>1322.43</ele>
        <time>2015-09-12T14:51:04Z</time>
      </trkpt>
      <trkpt lat="42.1562" lon="9.07573">
        <ele>1323.39</ele>
        <time>2015-09-12T14:51:16Z</time>
      </trkpt>
      <trkpt lat="42.15613" lon="9.07566">
        <ele>1324.83</ele>
        <time>2015-09-12T14:51:28Z</time>
      </trkpt>
      <trkpt lat="42.1561" lon="9.07562">
        <ele>1326.28</ele>
        <time>2015-09-12T14:51:38Z</time>
      </trkpt>
      <trkpt lat="42.15603" lon="9.07553">
        <ele>1327.72</ele>
        <time>2015-09-12T14:51:51Z</time>
      </trkpt>
      <trkpt lat="42.15599" lon="9.0755">
        <ele>1328.2</ele>
        <time>2015-09-12T14:52:00Z</time>
      </trkpt>
      <trkpt lat="42.15591" lon="9.07544">
        <ele>1329.64</ele>
        <time>2015-09-12T14:52:11Z</time>
      </trkpt>
      <trkpt lat="42.15583" lon="9.0754">
        <ele>1331.08</ele>
        <time>2015-09-12T14:52:23Z</time>
      </trkpt>
      <trkpt lat="42.15582" lon="9.07539">
        <ele>1331.56</ele>
        <time>2015-09-12T14:52:24Z</time>
      </trkpt>
      <trkpt lat="42.1558" lon="9.07527">
        <ele>1333.49</ele>
        <time>2015-09-12T14:52:38Z</time>
      </trkpt>
      <trkpt lat="42.15575" lon="9.07521">
        <ele>1335.89</ele>
        <time>2015-09-12T14:52:51Z</time>
      </trkpt>
      <trkpt lat="42.1557" lon="9.07509">
        <ele>1337.81</ele>
        <time>2015-09-12T14:53:05Z</time>
      </trkpt>
      <trkpt lat="42.15566" lon="9.07502">
        <ele>1340.22</ele>
        <time>2015-09-12T14:53:20Z</time>
      </trkpt>
      <trkpt lat="42.15561" lon="9.075">
        <ele>1341.18</ele>
        <time>2015-09-12T14:53:37Z</time>
      </trkpt>
      <trkpt lat="42.15557" lon="9.07496">
        <ele>1343.58</ele>
        <time>2015-09-12T14:53:50Z</time>
      </trkpt>
      <trkpt lat="42.15559" lon="9.07485">
        <ele>1345.98</ele>
        <time>2015-09-12T14:54:05Z</time>
      </trkpt>
      <trkpt lat="42.15552" lon="9.07484">
        <ele>1347.91</ele>
        <time>2015-09-12T14:54:19Z</time>
      </trkpt>
      <trkpt lat="42.15547" lon="9.07477">
        <ele>1349.35</ele>
        <time>2015-09-12T14:54:30Z</time>
      </trkpt>
      <trkpt lat="42.15547" lon="9.07465">
        <ele>1352.23</ele>
        <time>2015-09-12T14:54:43Z</time>
      </trkpt>
      <trkpt lat="42.15545" lon="9.07461">
        <ele>1353.67</ele>
        <time>2015-09-12T14:54:55Z</time>
      </trkpt>
      <trkpt lat="42.15541" lon="9.07453">
        <ele>1355.12</ele>
        <time>2015-09-12T14:55:08Z</time>
      </trkpt>
      <trkpt lat="42.15534" lon="9.0745">
        <ele>1357.04</ele>
        <time>2015-09-12T14:55:22Z</time>
      </trkpt>
      <trkpt lat="42.15531" lon="9.07447">
        <ele>1358.48</ele>
        <time>2015-09-12T14:55:41Z</time>
      </trkpt>
      <trkpt lat="42.15527" lon="9.07437">
        <ele>1360.4</ele>
        <time>2015-09-12T14:55:57Z</time>
      </trkpt>
      <trkpt lat="42.1552" lon="9.07433">
        <ele>1361.84</ele>
        <time>2015-09-12T14:56:12Z</time>
      </trkpt>
      <trkpt lat="42.15515" lon="9.07432">
        <ele>1362.81</ele>
        <time>2015-09-12T14:56:26Z</time>
      </trkpt>
      <trkpt lat="42.15508" lon="9.0743">
        <ele>1364.25</ele>
        <time>2015-09-12T14:56:43Z</time>
      </trkpt>
      <trkpt lat="42.15495" lon="9.07426">
        <ele>1365.21</ele>
        <time>2015-09-12T14:56:56Z</time>
      </trkpt>
      <trkpt lat="42.15491" lon="9.07426">
        <ele>1365.69</ele>
        <time>2015-09-12T14:57:02Z</time>
      </trkpt>
      <trkpt lat="42.1548" lon="9.07422">
        <ele>1367.13</ele>
        <time>2015-09-12T14:57:15Z</time>
      </trkpt>
      <trkpt lat="42.15478" lon="9.07423">
        <ele>1367.13</ele>
        <time>2015-09-12T14:57:17Z</time>
      </trkpt>
      <trkpt lat="42.15469" lon="9.07424">
        <ele>1367.61</ele>
        <time>2015-09-12T14:57:28Z</time>
      </trkpt>
      <trkpt lat="42.15464" lon="9.07424">
        <ele>1368.09</ele>
        <time>2015-09-12T14:57:35Z</time>
      </trkpt>
      <trkpt lat="42.15456" lon="9.07422">
        <ele>1367.61</ele>
        <time>2015-09-12T14:57:43Z</time>
      </trkpt>
      <trkpt lat="42.15451" lon="9.07422">
        <ele>1367.13</ele>
        <time>2015-09-12T14:57:50Z</time>
      </trkpt>
      <trkpt lat="42.15441" lon="9.07426">
        <ele>1367.13</ele>
        <time>2015-09-12T14:58:05Z</time>
      </trkpt>
      <trkpt lat="42.15431" lon="9.0743">
        <ele>1369.05</ele>
        <time>2015-09-12T14:58:17Z</time>
      </trkpt>
      <trkpt lat="42.15424" lon="9.07431">
        <ele>1369.54</ele>
        <time>2015-09-12T14:58:26Z</time>
      </trkpt>
      <trkpt lat="42.15413" lon="9.07429">
        <ele>1370.5</ele>
        <time>2015-09-12T14:58:38Z</time>
      </trkpt>
      <trkpt lat="42.15411" lon="9.07429">
        <ele>1370.5</ele>
        <time>2015-09-12T14:58:40Z</time>
      </trkpt>
      <trkpt lat="42.15403" lon="9.07429">
        <ele>1371.94</ele>
        <time>2015-09-12T14:58:52Z</time>
      </trkpt>
      <trkpt lat="42.15398" lon="9.07423">
        <ele>1373.38</ele>
        <time>2015-09-12T14:59:04Z</time>
      </trkpt>
      <trkpt lat="42.15396" lon="9.0742">
        <ele>1374.82</ele>
        <time>2015-09-12T14:59:17Z</time>
      </trkpt>
      <trkpt lat="42.15389" lon="9.07411">
        <ele>1376.26</ele>
        <time>2015-09-12T14:59:30Z</time>
      </trkpt>
      <trkpt lat="42.15379" lon="9.0741">
        <ele>1376.75</ele>
        <time>2015-09-12T14:59:42Z</time>
      </trkpt>
      <trkpt lat="42.15378" lon="9.0741">
        <ele>1376.75</ele>
        <time>2015-09-12T14:59:43Z</time>
      </trkpt>
      <trkpt lat="42.15373" lon="9.07409">
        <ele>1376.75</ele>
        <time>2015-09-12T14:59:56Z</time>
      </trkpt>
      <trkpt lat="42.15368" lon="9.07407">
        <ele>1377.71</ele>
        <time>2015-09-12T15:00:01Z</time>
      </trkpt>
      <trkpt lat="42.15365" lon="9.07407">
        <ele>1377.71</ele>
        <time>2015-09-12T15:00:05Z</time>
      </trkpt>
      <trkpt lat="42.15359" lon="9.07407">
        <ele>1378.19</ele>
        <time>2015-09-12T15:00:12Z</time>
      </trkpt>
      <trkpt lat="42.15356" lon="9.07407">
        <ele>1378.19</ele>
        <time>2015-09-12T15:00:16Z</time>
      </trkpt>
      <trkpt lat="42.15348" lon="9.07395">
        <ele>1379.15</ele>
        <time>2015-09-12T15:00:28Z</time>
      </trkpt>
      <trkpt lat="42.1534" lon="9.07397">
        <ele>1379.15</ele>
        <time>2015-09-12T15:00:36Z</time>
      </trkpt>
      <trkpt lat="42.15336" lon="9.07397">
        <ele>1379.15</ele>
        <time>2015-09-12T15:00:39Z</time>
      </trkpt>
      <trkpt lat="42.15332" lon="9.07398">
        <ele>1379.63</ele>
        <time>2015-09-12T15:00:45Z</time>
      </trkpt>
      <trkpt lat="42.15328" lon="9.07396">
        <ele>1379.63</ele>
        <time>2015-09-12T15:00:49Z</time>
      </trkpt>
      <trkpt lat="42.15325" lon="9.07396">
        <ele>1380.11</ele>
        <time>2015-09-12T15:00:52Z</time>
      </trkpt>
      <trkpt lat="42.1532" lon="9.07382">
        <ele>1382.03</ele>
        <time>2015-09-12T15:01:06Z</time>
      </trkpt>
      <trkpt lat="42.15321" lon="9.07379">
        <ele>1382.03</ele>
        <time>2015-09-12T15:01:18Z</time>
      </trkpt>
      <trkpt lat="42.15321" lon="9.07378">
        <ele>1382.03</ele>
        <time>2015-09-12T15:01:33Z</time>
      </trkpt>
      <trkpt lat="42.15322" lon="9.07379">
        <ele>1382.03</ele>
        <time>2015-09-12T15:01:50Z</time>
      </trkpt>
      <trkpt lat="42.15322" lon="9.07379">
        <ele>1382.03</ele>
        <time>2015-09-12T15:02:11Z</time>
      </trkpt>
      <trkpt lat="42.15322" lon="9.07379">
        <ele>1382.51</ele>
        <time>2015-09-12T15:02:32Z</time>
      </trkpt>
      <trkpt lat="42.15322" lon="9.0738">
        <ele>1382.51</ele>
        <time>2015-09-12T15:02:52Z</time>
      </trkpt>
      <trkpt lat="42.15323" lon="9.0738">
        <ele>1382.51</ele>
        <time>2015-09-12T15:03:16Z</time>
      </trkpt>
      <trkpt lat="42.15322" lon="9.07381">
        <ele>1382.51</ele>
        <time>2015-09-12T15:03:32Z</time>
      </trkpt>
      <trkpt lat="42.15323" lon="9.07381">
        <ele>1382.51</ele>
        <time>2015-09-12T15:03:52Z</time>
      </trkpt>
      <trkpt lat="42.15323" lon="9.07381">
        <ele>1382.51</ele>
        <time>2015-09-12T15:04:14Z</time>
      </trkpt>
      <trkpt lat="42.15322" lon="9.0738">
        <ele>1382.51</ele>
        <time>2015-09-12T15:04:34Z</time>
      </trkpt>
      <trkpt lat="42.15322" lon="9.07381">
        <ele>1382.51</ele>
        <time>2015-09-12T15:04:50Z</time>
      </trkpt>
      <trkpt lat="42.15322" lon="9.07382">
        <ele>1382.51</ele>
        <time>2015-09-12T15:05:08Z</time>
      </trkpt>
      <trkpt lat="42.15322" lon="9.07382">
        <ele>1382.03</ele>
        <time>2015-09-12T15:05:19Z</time>
      </trkpt>
      <trkpt lat="42.15323" lon="9.07386">
        <ele>1381.55</ele>
        <time>2015-09-12T15:05:37Z</time>
      </trkpt>
      <trkpt lat="42.15324" lon="9.07387">
        <ele>1381.55</ele>
        <time>2015-09-12T15:05:53Z</time>
      </trkpt>
      <trkpt lat="42.15324" lon="9.07387">
        <ele>1381.55</ele>
        <time>2015-09-12T15:06:11Z</time>
      </trkpt>
      <trkpt lat="42.15322" lon="9.07385">
        <ele>1382.03</ele>
        <time>2015-09-12T15:06:29Z</time>
      </trkpt>
      <trkpt lat="42.15322" lon="9.07381">
        <ele>1382.99</ele>
        <time>2015-09-12T15:06:46Z</time>
      </trkpt>
      <trkpt lat="42.15321" lon="9.07382">
        <ele>1382.51</ele>
        <time>2015-09-12T15:06:58Z</time>
      </trkpt>
      <trkpt lat="42.15322" lon="9.0738">
        <ele>1382.99</ele>
        <time>2015-09-12T15:07:13Z</time>
      </trkpt>
      <trkpt lat="42.15322" lon="9.07381">
        <ele>1382.99</ele>
        <time>2015-09-12T15:07:18Z</time>
      </trkpt>
      <trkpt lat="42.15322" lon="9.07383">
        <ele>1382.51</ele>
        <time>2015-09-12T15:07:22Z</time>
      </trkpt>
      <trkpt lat="42.15313" lon="9.0738">
        <ele>1382.99</ele>
        <time>2015-09-12T15:07:34Z</time>
      </trkpt>
      <trkpt lat="42.1531" lon="9.07374">
        <ele>1384.44</ele>
        <time>2015-09-12T15:07:40Z</time>
      </trkpt>
      <trkpt lat="42.15305" lon="9.0736">
        <ele>1386.84</ele>
        <time>2015-09-12T15:07:55Z</time>
      </trkpt>
      <trkpt lat="42.15303" lon="9.07361">
        <ele>1388.28</ele>
        <time>2015-09-12T15:08:02Z</time>
      </trkpt>
      <trkpt lat="42.153" lon="9.07362">
        <ele>1388.28</ele>
        <time>2015-09-12T15:08:05Z</time>
      </trkpt>
      <trkpt lat="42.15295" lon="9.07357">
        <ele>1389.72</ele>
        <time>2015-09-12T15:08:16Z</time>
      </trkpt>
      <trkpt lat="42.15295" lon="9.07347">
        <ele>1391.65</ele>
        <time>2015-09-12T15:08:28Z</time>
      </trkpt>
      <trkpt lat="42.15295" lon="9.07346">
        <ele>1391.65</ele>
        <time>2015-09-12T15:08:29Z</time>
      </trkpt>
      <trkpt lat="42.15297" lon="9.07339">
        <ele>1393.57</ele>
        <time>2015-09-12T15:08:41Z</time>
      </trkpt>
      <trkpt lat="42.15302" lon="9.07331">
        <ele>1395.49</ele>
        <time>2015-09-12T15:08:52Z</time>
      </trkpt>
      <trkpt lat="42.15308" lon="9.07328">
        <ele>1396.93</ele>
        <time>2015-09-12T15:09:03Z</time>
      </trkpt>
      <trkpt lat="42.15309" lon="9.07328">
        <ele>1398.37</ele>
        <time>2015-09-12T15:09:15Z</time>
      </trkpt>
      <trkpt lat="42.15308" lon="9.07326">
        <ele>1399.82</ele>
        <time>2015-09-12T15:09:23Z</time>
      </trkpt>
      <trkpt lat="42.153" lon="9.07321">
        <ele>1401.74</ele>
        <time>2015-09-12T15:09:35Z</time>
      </trkpt>
      <trkpt lat="42.15294" lon="9.07319">
        <ele>1402.7</ele>
        <time>2015-09-12T15:09:46Z</time>
      </trkpt>
      <trkpt lat="42.15291" lon="9.07318">
        <ele>1404.14</ele>
        <time>2015-09-12T15:09:57Z</time>
      </trkpt>
      <trkpt lat="42.1529" lon="9.07318">
        <ele>1403.66</ele>
        <time>2015-09-12T15:09:58Z</time>
      </trkpt>
      <trkpt lat="42.15287" lon="9.07312">
        <ele>1406.55</ele>
        <time>2015-09-12T15:10:09Z</time>
      </trkpt>
      <trkpt lat="42.15285" lon="9.07308">
        <ele>1407.99</ele>
        <time>2015-09-12T15:10:20Z</time>
      </trkpt>
      <trkpt lat="42.15282" lon="9.07306">
        <ele>1408.95</ele>
        <time>2015-09-12T15:10:26Z</time>
      </trkpt>
      <trkpt lat="42.1528" lon="9.07305">
        <ele>1409.43</ele>
        <time>2015-09-12T15:10:29Z</time>
      </trkpt>
      <trkpt lat="42.15276" lon="9.07301">
        <ele>1410.87</ele>
        <time>2015-09-12T15:10:41Z</time>
      </trkpt>
      <trkpt lat="42.15274" lon="9.07301">
        <ele>1411.35</ele>
        <time>2015-09-12T15:10:43Z</time>
      </trkpt>
      <trkpt lat="42.15265" lon="9.07298">
        <ele>1413.28</ele>
        <time>2015-09-12T15:10:58Z</time>
      </trkpt>
      <trkpt lat="42.15262" lon="9.07299">
        <ele>1413.28</ele>
        <time>2015-09-12T15:11:03Z</time>
      </trkpt>
      <trkpt lat="42.15256" lon="9.07295">
        <ele>1415.2</ele>
        <time>2015-09-12T15:11:15Z</time>
      </trkpt>
      <trkpt lat="42.15253" lon="9.07288">
        <ele>1417.6</ele>
        <time>2015-09-12T15:11:30Z</time>
      </trkpt>
      <trkpt lat="42.15248" lon="9.07286">
        <ele>1420</ele>
        <time>2015-09-12T15:11:42Z</time>
      </trkpt>
      <trkpt lat="42.15246" lon="9.07286">
        <ele>1420.97</ele>
        <time>2015-09-12T15:11:46Z</time>
      </trkpt>
      <trkpt lat="42.15243" lon="9.07284">
        <ele>1423.37</ele>
        <time>2015-09-12T15:11:58Z</time>
      </trkpt>
      <trkpt lat="42.15239" lon="9.07281">
        <ele>1425.29</ele>
        <time>2015-09-12T15:12:08Z</time>
      </trkpt>
      <trkpt lat="42.15233" lon="9.07281">
        <ele>1426.73</ele>
        <time>2015-09-12T15:12:18Z</time>
      </trkpt>
      <trkpt lat="42.15229" lon="9.07281">
        <ele>1427.21</ele>
        <time>2015-09-12T15:12:28Z</time>
      </trkpt>
      <trkpt lat="42.15226" lon="9.07277">
        <ele>1429.14</ele>
        <time>2015-09-12T15:12:42Z</time>
      </trkpt>
      <trkpt lat="42.15224" lon="9.07274">
        <ele>1431.54</ele>
        <time>2015-09-12T15:12:55Z</time>
      </trkpt>
      <trkpt lat="42.15223" lon="9.07274">
        <ele>1431.54</ele>
        <time>2015-09-12T15:12:56Z</time>
      </trkpt>
      <trkpt lat="42.15219" lon="9.07274">
        <ele>1432.5</ele>
        <time>2015-09-12T15:13:02Z</time>
      </trkpt>
      <trkpt lat="42.15217" lon="9.07276">
        <ele>1432.5</ele>
        <time>2015-09-12T15:13:05Z</time>
      </trkpt>
      <trkpt lat="42.15211" lon="9.07284">
        <ele>1431.54</ele>
        <time>2015-09-12T15:13:16Z</time>
      </trkpt>
      <trkpt lat="42.15214" lon="9.07287">
        <ele>1430.58</ele>
        <time>2015-09-12T15:13:26Z</time>
      </trkpt>
      <trkpt lat="42.15217" lon="9.07286">
        <ele>1430.58</ele>
        <time>2015-09-12T15:13:38Z</time>
      </trkpt>
      <trkpt lat="42.15217" lon="9.07286">
        <ele>1430.58</ele>
        <time>2015-09-12T15:13:56Z</time>
      </trkpt>
      <trkpt lat="42.15212" lon="9.0729">
        <ele>1430.58</ele>
        <time>2015-09-12T15:14:09Z</time>
      </trkpt>
      <trkpt lat="42.15213" lon="9.0729">
        <ele>1430.1</ele>
        <time>2015-09-12T15:14:16Z</time>
      </trkpt>
      <trkpt lat="42.15217" lon="9.07293">
        <ele>1427.7</ele>
        <time>2015-09-12T15:14:27Z</time>
      </trkpt>
      <trkpt lat="42.15217" lon="9.07293">
        <ele>1427.7</ele>
        <time>2015-09-12T15:14:29Z</time>
      </trkpt>
      <trkpt lat="42.15218" lon="9.07291">
        <ele>1427.21</ele>
        <time>2015-09-12T15:14:31Z</time>
      </trkpt>
      <trkpt lat="42.15222" lon="9.07289">
        <ele>1427.21</ele>
        <time>2015-09-12T15:14:35Z</time>
      </trkpt>
      <trkpt lat="42.15227" lon="9.07285">
        <ele>1426.25</ele>
        <time>2015-09-12T15:14:47Z</time>
      </trkpt>
      <trkpt lat="42.1523" lon="9.07288">
        <ele>1424.33</ele>
        <time>2015-09-12T15:14:56Z</time>
      </trkpt>
      <trkpt lat="42.15237" lon="9.07293">
        <ele>1421.93</ele>
        <time>2015-09-12T15:15:06Z</time>
      </trkpt>
      <trkpt lat="42.1524" lon="9.07294">
        <ele>1420.97</ele>
        <time>2015-09-12T15:15:09Z</time>
      </trkpt>
      <trkpt lat="42.15242" lon="9.07298">
        <ele>1419.52</ele>
        <time>2015-09-12T15:15:14Z</time>
      </trkpt>
      <trkpt lat="42.15249" lon="9.07297">
        <ele>1416.16</ele>
        <time>2015-09-12T15:15:26Z</time>
      </trkpt>
      <trkpt lat="42.15252" lon="9.07295">
        <ele>1415.2</ele>
        <time>2015-09-12T15:15:31Z</time>
      </trkpt>
      <trkpt lat="42.15255" lon="9.07292">
        <ele>1415.68</ele>
        <time>2015-09-12T15:15:35Z</time>
      </trkpt>
      <trkpt lat="42.15259" lon="9.07296">
        <ele>1415.2</ele>
        <time>2015-09-12T15:15:39Z</time>
      </trkpt>
      <trkpt lat="42.15268" lon="9.07299">
        <ele>1413.76</ele>
        <time>2015-09-12T15:15:50Z</time>
      </trkpt>
      <trkpt lat="42.15269" lon="9.07299">
        <ele>1413.28</ele>
        <time>2015-09-12T15:15:51Z</time>
      </trkpt>
      <trkpt lat="42.15278" lon="9.07304">
        <ele>1410.39</ele>
        <time>2015-09-12T15:16:03Z</time>
      </trkpt>
      <trkpt lat="42.15283" lon="9.07309">
        <ele>1407.99</ele>
        <time>2015-09-12T15:16:13Z</time>
      </trkpt>
      <trkpt lat="42.15289" lon="9.07313">
        <ele>1406.07</ele>
        <time>2015-09-12T15:16:23Z</time>
      </trkpt>
      <trkpt lat="42.15295" lon="9.07319">
        <ele>1403.66</ele>
        <time>2015-09-12T15:16:33Z</time>
      </trkpt>
      <trkpt lat="42.15302" lon="9.07321">
        <ele>1401.74</ele>
        <time>2015-09-12T15:16:40Z</time>
      </trkpt>
      <trkpt lat="42.15306" lon="9.07324">
        <ele>1400.78</ele>
        <time>2015-09-12T15:16:46Z</time>
      </trkpt>
      <trkpt lat="42.1531" lon="9.07332">
        <ele>1397.89</ele>
        <time>2015-09-12T15:16:58Z</time>
      </trkpt>
      <trkpt lat="42.15307" lon="9.07336">
        <ele>1396.45</ele>
        <time>2015-09-12T15:17:06Z</time>
      </trkpt>
      <trkpt lat="42.15306" lon="9.07339">
        <ele>1395.97</ele>
        <time>2015-09-12T15:17:09Z</time>
      </trkpt>
      <trkpt lat="42.15301" lon="9.07341">
        <ele>1394.05</ele>
        <time>2015-09-12T15:17:17Z</time>
      </trkpt>
      <trkpt lat="42.15299" lon="9.07346">
        <ele>1393.57</ele>
        <time>2015-09-12T15:17:21Z</time>
      </trkpt>
      <trkpt lat="42.15297" lon="9.0735">
        <ele>1392.13</ele>
        <time>2015-09-12T15:17:28Z</time>
      </trkpt>
      <trkpt lat="42.15298" lon="9.07358">
        <ele>1389.72</ele>
        <time>2015-09-12T15:17:37Z</time>
      </trkpt>
      <trkpt lat="42.15302" lon="9.07359">
        <ele>1389.24</ele>
        <time>2015-09-12T15:17:41Z</time>
      </trkpt>
      <trkpt lat="42.15306" lon="9.07357">
        <ele>1388.28</ele>
        <time>2015-09-12T15:17:45Z</time>
      </trkpt>
      <trkpt lat="42.15311" lon="9.07364">
        <ele>1386.84</ele>
        <time>2015-09-12T15:17:49Z</time>
      </trkpt>
      <trkpt lat="42.15313" lon="9.07373">
        <ele>1385.88</ele>
        <time>2015-09-12T15:17:54Z</time>
      </trkpt>
      <trkpt lat="42.15321" lon="9.07383">
        <ele>1383.47</ele>
        <time>2015-09-12T15:18:11Z</time>
      </trkpt>
      <trkpt lat="42.15321" lon="9.07381">
        <ele>1382.99</ele>
        <time>2015-09-12T15:18:23Z</time>
      </trkpt>
      <trkpt lat="42.15321" lon="9.07381">
        <ele>1382.51</ele>
        <time>2015-09-12T15:18:43Z</time>
      </trkpt>
      <trkpt lat="42.15321" lon="9.07381">
        <ele>1382.51</ele>
        <time>2015-09-12T15:19:14Z</time>
      </trkpt>
      <trkpt lat="42.15321" lon="9.0738">
        <ele>1382.51</ele>
        <time>2015-09-12T15:19:44Z</time>
      </trkpt>
      <trkpt lat="42.15321" lon="9.0738">
        <ele>1382.51</ele>
        <time>2015-09-12T15:20:17Z</time>
      </trkpt>
      <trkpt lat="42.15321" lon="9.07381">
        <ele>1382.51</ele>
        <time>2015-09-12T15:20:46Z</time>
      </trkpt>
      <trkpt lat="42.15321" lon="9.0738">
        <ele>1382.51</ele>
        <time>2015-09-12T15:21:13Z</time>
      </trkpt>
      <trkpt lat="42.15321" lon="9.0738">
        <ele>1382.51</ele>
        <time>2015-09-12T15:21:41Z</time>
      </trkpt>
      <trkpt lat="42.15321" lon="9.07381">
        <ele>1382.51</ele>
        <time>2015-09-12T15:22:05Z</time>
      </trkpt>
      <trkpt lat="42.15321" lon="9.07381">
        <ele>1382.99</ele>
        <time>2015-09-12T15:22:30Z</time>
      </trkpt>
      <trkpt lat="42.15321" lon="9.07381">
        <ele>1382.99</ele>
        <time>2015-09-12T15:23:03Z</time>
      </trkpt>
      <trkpt lat="42.15321" lon="9.07381">
        <ele>1382.51</ele>
        <time>2015-09-12T15:23:29Z</time>
      </trkpt>
      <trkpt lat="42.15321" lon="9.07381">
        <ele>1382.99</ele>
        <time>2015-09-12T15:23:55Z</time>
      </trkpt>
      <trkpt lat="42.15321" lon="9.07381">
        <ele>1382.51</ele>
        <time>2015-09-12T15:24:20Z</time>
      </trkpt>
      <trkpt lat="42.1532" lon="9.07381">
        <ele>1382.51</ele>
        <time>2015-09-12T15:24:48Z</time>
      </trkpt>
      <trkpt lat="42.1532" lon="9.07381">
        <ele>1382.51</ele>
        <time>2015-09-12T15:25:13Z</time>
      </trkpt>
      <trkpt lat="42.1532" lon="9.07381">
        <ele>1382.99</ele>
        <time>2015-09-12T15:25:39Z</time>
      </trkpt>
      <trkpt lat="42.15321" lon="9.0738">
        <ele>1382.99</ele>
        <time>2015-09-12T15:25:57Z</time>
      </trkpt>
    </trkseg>
  </trk>
</gpx>